<?xml version="1.0" encoding="UTF-8"?>
<gpx version="1.1" creator="https://www.youtrack.es" xsi:schemaLocation="http://www.topografix.com/GPX/1/1 http://www.topografix.com/GPX/1/1/gpx.xsd http://www.garmin.com/xmlschemas/GpxExtensions/v3 http://www.garmin.com/xmlschemas/GpxExtensionsv3.xsd http://www.garmin.com/xmlschemas/TrackPointExtension/v1 http://www.garmin.com/xmlschemas/TrackPointExtensionv1.xsd" xmlns:gpxtpx="http://www.garmin.com/xmlschemas/TrackPointExtension/v1" xmlns:gpxx="http://www.garmin.com/xmlschemas/GpxExtensions/v3" xmlns:xsi="http://www.w3.org/2001/XMLSchema-instance">
  <metadata>
    <link href="https://www.youtrack.es">
      <text>YouTrack.es</text>
    </link>
    <time>2026-05-08T01:13:27Z</time>
  </metadata>
  <trk>
    <src>https://www.youtrack.es</src>
    <link href="https://www.youtrack.es/ruta/2726-maigmo">
      <text>YouTrack.es</text>
    </link>
    <trkseg>
      <trkpt lat="38.4997500" lon="-0.6035960">
        <ele>726.4</ele>
        <time>2018-10-27T05:41:22Z</time>
      </trkpt>
      <trkpt lat="38.4997500" lon="-0.6035960">
        <ele>726.4</ele>
        <time>2018-10-27T05:41:23Z</time>
      </trkpt>
      <trkpt lat="38.4997500" lon="-0.6035960">
        <ele>726.4</ele>
        <time>2018-10-27T05:41:25Z</time>
      </trkpt>
      <trkpt lat="38.4997500" lon="-0.6035960">
        <ele>726.4</ele>
        <time>2018-10-27T05:41:27Z</time>
      </trkpt>
      <trkpt lat="38.4997500" lon="-0.6035960">
        <ele>725.2</ele>
        <time>2018-10-27T05:41:34Z</time>
      </trkpt>
      <trkpt lat="38.4997500" lon="-0.6035960">
        <ele>724.8</ele>
        <time>2018-10-27T05:41:42Z</time>
      </trkpt>
      <trkpt lat="38.4997500" lon="-0.6035960">
        <ele>724.2</ele>
        <time>2018-10-27T05:41:46Z</time>
      </trkpt>
      <trkpt lat="38.4997500" lon="-0.6035960">
        <ele>723.2</ele>
        <time>2018-10-27T05:41:53Z</time>
      </trkpt>
      <trkpt lat="38.4997020" lon="-0.6036250">
        <ele>723.2</ele>
        <time>2018-10-27T05:41:55Z</time>
      </trkpt>
      <trkpt lat="38.4996830" lon="-0.6036430">
        <ele>723.2</ele>
        <time>2018-10-27T05:41:56Z</time>
      </trkpt>
      <trkpt lat="38.4995720" lon="-0.6036980">
        <ele>723.0</ele>
        <time>2018-10-27T05:42:01Z</time>
      </trkpt>
      <trkpt lat="38.4995480" lon="-0.6037110">
        <ele>722.8</ele>
        <time>2018-10-27T05:42:02Z</time>
      </trkpt>
      <trkpt lat="38.4994020" lon="-0.6038240">
        <ele>722.8</ele>
        <time>2018-10-27T05:42:09Z</time>
      </trkpt>
      <trkpt lat="38.4993070" lon="-0.6038800">
        <ele>722.6</ele>
        <time>2018-10-27T05:42:13Z</time>
      </trkpt>
      <trkpt lat="38.4992390" lon="-0.6039210">
        <ele>722.4</ele>
        <time>2018-10-27T05:42:16Z</time>
      </trkpt>
      <trkpt lat="38.4991840" lon="-0.6039460">
        <ele>722.2</ele>
        <time>2018-10-27T05:42:18Z</time>
      </trkpt>
      <trkpt lat="38.4991320" lon="-0.6039730">
        <ele>722.2</ele>
        <time>2018-10-27T05:42:20Z</time>
      </trkpt>
      <trkpt lat="38.4991040" lon="-0.6039830">
        <ele>722.2</ele>
        <time>2018-10-27T05:42:21Z</time>
      </trkpt>
      <trkpt lat="38.4990770" lon="-0.6039910">
        <ele>722.0</ele>
        <time>2018-10-27T05:42:22Z</time>
      </trkpt>
      <trkpt lat="38.4990510" lon="-0.6040000">
        <ele>721.2</ele>
        <time>2018-10-27T05:42:23Z</time>
      </trkpt>
      <trkpt lat="38.4990230" lon="-0.6040110">
        <ele>720.4</ele>
        <time>2018-10-27T05:42:24Z</time>
      </trkpt>
      <trkpt lat="38.4989880" lon="-0.6040150">
        <ele>720.0</ele>
        <time>2018-10-27T05:42:25Z</time>
      </trkpt>
      <trkpt lat="38.4988520" lon="-0.6040750">
        <ele>718.8</ele>
        <time>2018-10-27T05:42:30Z</time>
      </trkpt>
      <trkpt lat="38.4988030" lon="-0.6041120">
        <ele>718.4</ele>
        <time>2018-10-27T05:42:32Z</time>
      </trkpt>
      <trkpt lat="38.4987540" lon="-0.6041570">
        <ele>717.8</ele>
        <time>2018-10-27T05:42:34Z</time>
      </trkpt>
      <trkpt lat="38.4987330" lon="-0.6041790">
        <ele>717.6</ele>
        <time>2018-10-27T05:42:35Z</time>
      </trkpt>
      <trkpt lat="38.4986700" lon="-0.6042470">
        <ele>716.4</ele>
        <time>2018-10-27T05:42:38Z</time>
      </trkpt>
      <trkpt lat="38.4986480" lon="-0.6042720">
        <ele>716.2</ele>
        <time>2018-10-27T05:42:39Z</time>
      </trkpt>
      <trkpt lat="38.4985560" lon="-0.6044030">
        <ele>715.4</ele>
        <time>2018-10-27T05:42:44Z</time>
      </trkpt>
      <trkpt lat="38.4985120" lon="-0.6044780">
        <ele>714.8</ele>
        <time>2018-10-27T05:42:47Z</time>
      </trkpt>
      <trkpt lat="38.4984280" lon="-0.6046270">
        <ele>714.4</ele>
        <time>2018-10-27T05:42:53Z</time>
      </trkpt>
      <trkpt lat="38.4984190" lon="-0.6046510">
        <ele>714.4</ele>
        <time>2018-10-27T05:42:54Z</time>
      </trkpt>
      <trkpt lat="38.4983780" lon="-0.6047310">
        <ele>714.2</ele>
        <time>2018-10-27T05:42:57Z</time>
      </trkpt>
      <trkpt lat="38.4983480" lon="-0.6047790">
        <ele>714.0</ele>
        <time>2018-10-27T05:42:59Z</time>
      </trkpt>
      <trkpt lat="38.4982990" lon="-0.6048590">
        <ele>713.8</ele>
        <time>2018-10-27T05:43:02Z</time>
      </trkpt>
      <trkpt lat="38.4982030" lon="-0.6049910">
        <ele>713.4</ele>
        <time>2018-10-27T05:43:07Z</time>
      </trkpt>
      <trkpt lat="38.4981660" lon="-0.6050470">
        <ele>713.2</ele>
        <time>2018-10-27T05:43:09Z</time>
      </trkpt>
      <trkpt lat="38.4980790" lon="-0.6052110">
        <ele>713.2</ele>
        <time>2018-10-27T05:43:15Z</time>
      </trkpt>
      <trkpt lat="38.4979640" lon="-0.6053950">
        <ele>713.6</ele>
        <time>2018-10-27T05:43:22Z</time>
      </trkpt>
      <trkpt lat="38.4978480" lon="-0.6055900">
        <ele>713.6</ele>
        <time>2018-10-27T05:43:29Z</time>
      </trkpt>
      <trkpt lat="38.4977910" lon="-0.6056700">
        <ele>713.4</ele>
        <time>2018-10-27T05:43:32Z</time>
      </trkpt>
      <trkpt lat="38.4976740" lon="-0.6058210">
        <ele>713.2</ele>
        <time>2018-10-27T05:43:38Z</time>
      </trkpt>
      <trkpt lat="38.4976380" lon="-0.6058780">
        <ele>713.2</ele>
        <time>2018-10-27T05:43:40Z</time>
      </trkpt>
      <trkpt lat="38.4975200" lon="-0.6060880">
        <ele>714.0</ele>
        <time>2018-10-27T05:43:47Z</time>
      </trkpt>
      <trkpt lat="38.4973850" lon="-0.6062880">
        <ele>714.2</ele>
        <time>2018-10-27T05:43:54Z</time>
      </trkpt>
      <trkpt lat="38.4973290" lon="-0.6063710">
        <ele>714.2</ele>
        <time>2018-10-27T05:43:57Z</time>
      </trkpt>
      <trkpt lat="38.4972390" lon="-0.6065020">
        <ele>714.2</ele>
        <time>2018-10-27T05:44:02Z</time>
      </trkpt>
      <trkpt lat="38.4971320" lon="-0.6067060">
        <ele>714.2</ele>
        <time>2018-10-27T05:44:09Z</time>
      </trkpt>
      <trkpt lat="38.4971160" lon="-0.6067340">
        <ele>714.2</ele>
        <time>2018-10-27T05:44:10Z</time>
      </trkpt>
      <trkpt lat="38.4970690" lon="-0.6068180">
        <ele>714.4</ele>
        <time>2018-10-27T05:44:13Z</time>
      </trkpt>
      <trkpt lat="38.4970010" lon="-0.6069300">
        <ele>714.8</ele>
        <time>2018-10-27T05:44:17Z</time>
      </trkpt>
      <trkpt lat="38.4968880" lon="-0.6071220">
        <ele>714.8</ele>
        <time>2018-10-27T05:44:24Z</time>
      </trkpt>
      <trkpt lat="38.4968720" lon="-0.6071500">
        <ele>714.8</ele>
        <time>2018-10-27T05:44:25Z</time>
      </trkpt>
      <trkpt lat="38.4967670" lon="-0.6073430">
        <ele>714.0</ele>
        <time>2018-10-27T05:44:32Z</time>
      </trkpt>
      <trkpt lat="38.4967510" lon="-0.6073690">
        <ele>714.0</ele>
        <time>2018-10-27T05:44:33Z</time>
      </trkpt>
      <trkpt lat="38.4966520" lon="-0.6075290">
        <ele>714.0</ele>
        <time>2018-10-27T05:44:39Z</time>
      </trkpt>
      <trkpt lat="38.4965380" lon="-0.6077060">
        <ele>714.2</ele>
        <time>2018-10-27T05:44:46Z</time>
      </trkpt>
      <trkpt lat="38.4964310" lon="-0.6079060">
        <ele>714.4</ele>
        <time>2018-10-27T05:44:53Z</time>
      </trkpt>
      <trkpt lat="38.4963180" lon="-0.6081110">
        <ele>714.4</ele>
        <time>2018-10-27T05:45:00Z</time>
      </trkpt>
      <trkpt lat="38.4962280" lon="-0.6082400">
        <ele>714.4</ele>
        <time>2018-10-27T05:45:05Z</time>
      </trkpt>
      <trkpt lat="38.4961920" lon="-0.6082910">
        <ele>714.6</ele>
        <time>2018-10-27T05:45:07Z</time>
      </trkpt>
      <trkpt lat="38.4960970" lon="-0.6084520">
        <ele>715.4</ele>
        <time>2018-10-27T05:45:13Z</time>
      </trkpt>
      <trkpt lat="38.4960790" lon="-0.6084760">
        <ele>715.4</ele>
        <time>2018-10-27T05:45:14Z</time>
      </trkpt>
      <trkpt lat="38.4959750" lon="-0.6086400">
        <ele>715.6</ele>
        <time>2018-10-27T05:45:20Z</time>
      </trkpt>
      <trkpt lat="38.4958560" lon="-0.6088220">
        <ele>715.0</ele>
        <time>2018-10-27T05:45:27Z</time>
      </trkpt>
      <trkpt lat="38.4957480" lon="-0.6090080">
        <ele>714.6</ele>
        <time>2018-10-27T05:45:34Z</time>
      </trkpt>
      <trkpt lat="38.4957370" lon="-0.6090370">
        <ele>714.6</ele>
        <time>2018-10-27T05:45:35Z</time>
      </trkpt>
      <trkpt lat="38.4956240" lon="-0.6092360">
        <ele>714.4</ele>
        <time>2018-10-27T05:45:42Z</time>
      </trkpt>
      <trkpt lat="38.4955060" lon="-0.6094170">
        <ele>714.4</ele>
        <time>2018-10-27T05:45:49Z</time>
      </trkpt>
      <trkpt lat="38.4953950" lon="-0.6095800">
        <ele>714.6</ele>
        <time>2018-10-27T05:45:56Z</time>
      </trkpt>
      <trkpt lat="38.4952920" lon="-0.6096910">
        <ele>714.4</ele>
        <time>2018-10-27T05:46:01Z</time>
      </trkpt>
      <trkpt lat="38.4952130" lon="-0.6097830">
        <ele>714.6</ele>
        <time>2018-10-27T05:46:05Z</time>
      </trkpt>
      <trkpt lat="38.4951510" lon="-0.6098460">
        <ele>714.4</ele>
        <time>2018-10-27T05:46:08Z</time>
      </trkpt>
      <trkpt lat="38.4951130" lon="-0.6098890">
        <ele>714.4</ele>
        <time>2018-10-27T05:46:10Z</time>
      </trkpt>
      <trkpt lat="38.4950910" lon="-0.6099100">
        <ele>714.4</ele>
        <time>2018-10-27T05:46:11Z</time>
      </trkpt>
      <trkpt lat="38.4949390" lon="-0.6100520">
        <ele>714.6</ele>
        <time>2018-10-27T05:46:18Z</time>
      </trkpt>
      <trkpt lat="38.4949160" lon="-0.6100730">
        <ele>714.6</ele>
        <time>2018-10-27T05:46:19Z</time>
      </trkpt>
      <trkpt lat="38.4948210" lon="-0.6101440">
        <ele>715.4</ele>
        <time>2018-10-27T05:46:23Z</time>
      </trkpt>
      <trkpt lat="38.4947560" lon="-0.6102010">
        <ele>716.2</ele>
        <time>2018-10-27T05:46:26Z</time>
      </trkpt>
      <trkpt lat="38.4946700" lon="-0.6102720">
        <ele>716.6</ele>
        <time>2018-10-27T05:46:30Z</time>
      </trkpt>
      <trkpt lat="38.4946240" lon="-0.6103000">
        <ele>716.8</ele>
        <time>2018-10-27T05:46:32Z</time>
      </trkpt>
      <trkpt lat="38.4944560" lon="-0.6103770">
        <ele>716.4</ele>
        <time>2018-10-27T05:46:39Z</time>
      </trkpt>
      <trkpt lat="38.4942820" lon="-0.6104630">
        <ele>715.8</ele>
        <time>2018-10-27T05:46:46Z</time>
      </trkpt>
      <trkpt lat="38.4942590" lon="-0.6104740">
        <ele>715.8</ele>
        <time>2018-10-27T05:46:47Z</time>
      </trkpt>
      <trkpt lat="38.4941050" lon="-0.6105410">
        <ele>715.8</ele>
        <time>2018-10-27T05:46:54Z</time>
      </trkpt>
      <trkpt lat="38.4939570" lon="-0.6106000">
        <ele>716.0</ele>
        <time>2018-10-27T05:47:00Z</time>
      </trkpt>
      <trkpt lat="38.4939290" lon="-0.6106140">
        <ele>716.2</ele>
        <time>2018-10-27T05:47:01Z</time>
      </trkpt>
      <trkpt lat="38.4939030" lon="-0.6106280">
        <ele>716.4</ele>
        <time>2018-10-27T05:47:02Z</time>
      </trkpt>
      <trkpt lat="38.4937180" lon="-0.6107130">
        <ele>717.4</ele>
        <time>2018-10-27T05:47:09Z</time>
      </trkpt>
      <trkpt lat="38.4936940" lon="-0.6107240">
        <ele>717.6</ele>
        <time>2018-10-27T05:47:10Z</time>
      </trkpt>
      <trkpt lat="38.4936720" lon="-0.6107380">
        <ele>717.6</ele>
        <time>2018-10-27T05:47:11Z</time>
      </trkpt>
      <trkpt lat="38.4935380" lon="-0.6107830">
        <ele>717.6</ele>
        <time>2018-10-27T05:47:16Z</time>
      </trkpt>
      <trkpt lat="38.4934870" lon="-0.6107980">
        <ele>717.4</ele>
        <time>2018-10-27T05:47:18Z</time>
      </trkpt>
      <trkpt lat="38.4932890" lon="-0.6108540">
        <ele>716.8</ele>
        <time>2018-10-27T05:47:26Z</time>
      </trkpt>
      <trkpt lat="38.4931090" lon="-0.6109060">
        <ele>716.8</ele>
        <time>2018-10-27T05:47:33Z</time>
      </trkpt>
      <trkpt lat="38.4930840" lon="-0.6109170">
        <ele>716.8</ele>
        <time>2018-10-27T05:47:34Z</time>
      </trkpt>
      <trkpt lat="38.4930590" lon="-0.6109290">
        <ele>717.0</ele>
        <time>2018-10-27T05:47:35Z</time>
      </trkpt>
      <trkpt lat="38.4929850" lon="-0.6109600">
        <ele>717.2</ele>
        <time>2018-10-27T05:47:38Z</time>
      </trkpt>
      <trkpt lat="38.4928790" lon="-0.6110030">
        <ele>717.2</ele>
        <time>2018-10-27T05:47:42Z</time>
      </trkpt>
      <trkpt lat="38.4926990" lon="-0.6110510">
        <ele>717.6</ele>
        <time>2018-10-27T05:47:49Z</time>
      </trkpt>
      <trkpt lat="38.4925000" lon="-0.6111110">
        <ele>717.6</ele>
        <time>2018-10-27T05:47:57Z</time>
      </trkpt>
      <trkpt lat="38.4923560" lon="-0.6111280">
        <ele>717.0</ele>
        <time>2018-10-27T05:48:03Z</time>
      </trkpt>
      <trkpt lat="38.4922030" lon="-0.6111570">
        <ele>716.6</ele>
        <time>2018-10-27T05:48:09Z</time>
      </trkpt>
      <trkpt lat="38.4921780" lon="-0.6111590">
        <ele>716.6</ele>
        <time>2018-10-27T05:48:10Z</time>
      </trkpt>
      <trkpt lat="38.4919940" lon="-0.6112030">
        <ele>716.4</ele>
        <time>2018-10-27T05:48:17Z</time>
      </trkpt>
      <trkpt lat="38.4919400" lon="-0.6112200">
        <ele>716.2</ele>
        <time>2018-10-27T05:48:19Z</time>
      </trkpt>
      <trkpt lat="38.4917600" lon="-0.6113100">
        <ele>716.0</ele>
        <time>2018-10-27T05:48:26Z</time>
      </trkpt>
      <trkpt lat="38.4915830" lon="-0.6113970">
        <ele>716.0</ele>
        <time>2018-10-27T05:48:32Z</time>
      </trkpt>
      <trkpt lat="38.4915030" lon="-0.6114390">
        <ele>716.2</ele>
        <time>2018-10-27T05:48:35Z</time>
      </trkpt>
      <trkpt lat="38.4913550" lon="-0.6115040">
        <ele>716.6</ele>
        <time>2018-10-27T05:48:41Z</time>
      </trkpt>
      <trkpt lat="38.4913300" lon="-0.6115130">
        <ele>716.8</ele>
        <time>2018-10-27T05:48:42Z</time>
      </trkpt>
      <trkpt lat="38.4913040" lon="-0.6115210">
        <ele>717.2</ele>
        <time>2018-10-27T05:48:43Z</time>
      </trkpt>
      <trkpt lat="38.4912200" lon="-0.6115470">
        <ele>717.6</ele>
        <time>2018-10-27T05:48:46Z</time>
      </trkpt>
      <trkpt lat="38.4910810" lon="-0.6115960">
        <ele>717.4</ele>
        <time>2018-10-27T05:48:51Z</time>
      </trkpt>
      <trkpt lat="38.4908910" lon="-0.6116780">
        <ele>717.0</ele>
        <time>2018-10-27T05:48:58Z</time>
      </trkpt>
      <trkpt lat="38.4908100" lon="-0.6117150">
        <ele>716.8</ele>
        <time>2018-10-27T05:49:01Z</time>
      </trkpt>
      <trkpt lat="38.4906080" lon="-0.6117720">
        <ele>716.6</ele>
        <time>2018-10-27T05:49:08Z</time>
      </trkpt>
      <trkpt lat="38.4905790" lon="-0.6117820">
        <ele>716.6</ele>
        <time>2018-10-27T05:49:09Z</time>
      </trkpt>
      <trkpt lat="38.4904060" lon="-0.6118470">
        <ele>716.8</ele>
        <time>2018-10-27T05:49:15Z</time>
      </trkpt>
      <trkpt lat="38.4903230" lon="-0.6118720">
        <ele>716.8</ele>
        <time>2018-10-27T05:49:18Z</time>
      </trkpt>
      <trkpt lat="38.4901800" lon="-0.6119470">
        <ele>717.2</ele>
        <time>2018-10-27T05:49:24Z</time>
      </trkpt>
      <trkpt lat="38.4901320" lon="-0.6119720">
        <ele>717.4</ele>
        <time>2018-10-27T05:49:26Z</time>
      </trkpt>
      <trkpt lat="38.4899350" lon="-0.6120170">
        <ele>717.6</ele>
        <time>2018-10-27T05:49:33Z</time>
      </trkpt>
      <trkpt lat="38.4897540" lon="-0.6120570">
        <ele>717.8</ele>
        <time>2018-10-27T05:49:40Z</time>
      </trkpt>
      <trkpt lat="38.4897270" lon="-0.6120690">
        <ele>718.0</ele>
        <time>2018-10-27T05:49:41Z</time>
      </trkpt>
      <trkpt lat="38.4895350" lon="-0.6121580">
        <ele>717.6</ele>
        <time>2018-10-27T05:49:48Z</time>
      </trkpt>
      <trkpt lat="38.4893590" lon="-0.6122430">
        <ele>717.4</ele>
        <time>2018-10-27T05:49:55Z</time>
      </trkpt>
      <trkpt lat="38.4893380" lon="-0.6122590">
        <ele>717.4</ele>
        <time>2018-10-27T05:49:56Z</time>
      </trkpt>
      <trkpt lat="38.4891970" lon="-0.6123100">
        <ele>717.4</ele>
        <time>2018-10-27T05:50:02Z</time>
      </trkpt>
      <trkpt lat="38.4890120" lon="-0.6123750">
        <ele>717.8</ele>
        <time>2018-10-27T05:50:09Z</time>
      </trkpt>
      <trkpt lat="38.4889290" lon="-0.6124140">
        <ele>718.8</ele>
        <time>2018-10-27T05:50:12Z</time>
      </trkpt>
      <trkpt lat="38.4888220" lon="-0.6124780">
        <ele>719.2</ele>
        <time>2018-10-27T05:50:16Z</time>
      </trkpt>
      <trkpt lat="38.4886290" lon="-0.6125670">
        <ele>718.8</ele>
        <time>2018-10-27T05:50:23Z</time>
      </trkpt>
      <trkpt lat="38.4885240" lon="-0.6126100">
        <ele>717.6</ele>
        <time>2018-10-27T05:50:27Z</time>
      </trkpt>
      <trkpt lat="38.4884450" lon="-0.6126570">
        <ele>717.4</ele>
        <time>2018-10-27T05:50:30Z</time>
      </trkpt>
      <trkpt lat="38.4882800" lon="-0.6127680">
        <ele>716.8</ele>
        <time>2018-10-27T05:50:36Z</time>
      </trkpt>
      <trkpt lat="38.4882600" lon="-0.6127800">
        <ele>716.6</ele>
        <time>2018-10-27T05:50:37Z</time>
      </trkpt>
      <trkpt lat="38.4881820" lon="-0.6128220">
        <ele>716.4</ele>
        <time>2018-10-27T05:50:40Z</time>
      </trkpt>
      <trkpt lat="38.4881820" lon="-0.6128220">
        <ele>716.4</ele>
        <time>2018-10-27T05:50:46Z</time>
      </trkpt>
      <trkpt lat="38.4881820" lon="-0.6128220">
        <ele>716.2</ele>
        <time>2018-10-27T05:50:49Z</time>
      </trkpt>
      <trkpt lat="38.4876890" lon="-0.6122900">
        <ele>715.8</ele>
        <time>2018-10-27T05:50:56Z</time>
      </trkpt>
      <trkpt lat="38.4877190" lon="-0.6128910">
        <ele>715.6</ele>
        <time>2018-10-27T05:50:59Z</time>
      </trkpt>
      <trkpt lat="38.4876650" lon="-0.6130400">
        <ele>715.6</ele>
        <time>2018-10-27T05:51:00Z</time>
      </trkpt>
      <trkpt lat="38.4876340" lon="-0.6130880">
        <ele>715.2</ele>
        <time>2018-10-27T05:51:01Z</time>
      </trkpt>
      <trkpt lat="38.4874700" lon="-0.6132430">
        <ele>714.6</ele>
        <time>2018-10-27T05:51:07Z</time>
      </trkpt>
      <trkpt lat="38.4874470" lon="-0.6132650">
        <ele>714.6</ele>
        <time>2018-10-27T05:51:08Z</time>
      </trkpt>
      <trkpt lat="38.4874240" lon="-0.6132840">
        <ele>714.6</ele>
        <time>2018-10-27T05:51:09Z</time>
      </trkpt>
      <trkpt lat="38.4872770" lon="-0.6133970">
        <ele>714.0</ele>
        <time>2018-10-27T05:51:15Z</time>
      </trkpt>
      <trkpt lat="38.4871440" lon="-0.6135080">
        <ele>714.0</ele>
        <time>2018-10-27T05:51:21Z</time>
      </trkpt>
      <trkpt lat="38.4869840" lon="-0.6135880">
        <ele>713.4</ele>
        <time>2018-10-27T05:51:27Z</time>
      </trkpt>
      <trkpt lat="38.4869550" lon="-0.6136030">
        <ele>713.4</ele>
        <time>2018-10-27T05:51:28Z</time>
      </trkpt>
      <trkpt lat="38.4867950" lon="-0.6137190">
        <ele>712.8</ele>
        <time>2018-10-27T05:51:34Z</time>
      </trkpt>
      <trkpt lat="38.4866890" lon="-0.6138620">
        <ele>712.4</ele>
        <time>2018-10-27T05:51:38Z</time>
      </trkpt>
      <trkpt lat="38.4866400" lon="-0.6139140">
        <ele>712.0</ele>
        <time>2018-10-27T05:51:40Z</time>
      </trkpt>
      <trkpt lat="38.4864890" lon="-0.6140570">
        <ele>711.8</ele>
        <time>2018-10-27T05:51:46Z</time>
      </trkpt>
      <trkpt lat="38.4864190" lon="-0.6141240">
        <ele>711.6</ele>
        <time>2018-10-27T05:51:49Z</time>
      </trkpt>
      <trkpt lat="38.4862950" lon="-0.6142470">
        <ele>711.4</ele>
        <time>2018-10-27T05:51:54Z</time>
      </trkpt>
      <trkpt lat="38.4862690" lon="-0.6142700">
        <ele>711.2</ele>
        <time>2018-10-27T05:51:55Z</time>
      </trkpt>
      <trkpt lat="38.4861010" lon="-0.6144130">
        <ele>711.0</ele>
        <time>2018-10-27T05:52:01Z</time>
      </trkpt>
      <trkpt lat="38.4859640" lon="-0.6145560">
        <ele>710.2</ele>
        <time>2018-10-27T05:52:07Z</time>
      </trkpt>
      <trkpt lat="38.4859420" lon="-0.6145790">
        <ele>710.2</ele>
        <time>2018-10-27T05:52:08Z</time>
      </trkpt>
      <trkpt lat="38.4858990" lon="-0.6146270">
        <ele>709.6</ele>
        <time>2018-10-27T05:52:10Z</time>
      </trkpt>
      <trkpt lat="38.4858590" lon="-0.6146790">
        <ele>709.2</ele>
        <time>2018-10-27T05:52:12Z</time>
      </trkpt>
      <trkpt lat="38.4858000" lon="-0.6147640">
        <ele>708.8</ele>
        <time>2018-10-27T05:52:15Z</time>
      </trkpt>
      <trkpt lat="38.4856790" lon="-0.6149350">
        <ele>708.6</ele>
        <time>2018-10-27T05:52:21Z</time>
      </trkpt>
      <trkpt lat="38.4856410" lon="-0.6149900">
        <ele>708.6</ele>
        <time>2018-10-27T05:52:23Z</time>
      </trkpt>
      <trkpt lat="38.4855270" lon="-0.6151170">
        <ele>708.2</ele>
        <time>2018-10-27T05:52:28Z</time>
      </trkpt>
      <trkpt lat="38.4855000" lon="-0.6151410">
        <ele>708.2</ele>
        <time>2018-10-27T05:52:29Z</time>
      </trkpt>
      <trkpt lat="38.4854080" lon="-0.6153000">
        <ele>709.0</ele>
        <time>2018-10-27T05:52:34Z</time>
      </trkpt>
      <trkpt lat="38.4853400" lon="-0.6155350">
        <ele>708.0</ele>
        <time>2018-10-27T05:52:40Z</time>
      </trkpt>
      <trkpt lat="38.4853190" lon="-0.6156110">
        <ele>707.8</ele>
        <time>2018-10-27T05:52:42Z</time>
      </trkpt>
      <trkpt lat="38.4852510" lon="-0.6158320">
        <ele>707.2</ele>
        <time>2018-10-27T05:52:48Z</time>
      </trkpt>
      <trkpt lat="38.4852390" lon="-0.6158680">
        <ele>707.0</ele>
        <time>2018-10-27T05:52:49Z</time>
      </trkpt>
      <trkpt lat="38.4851690" lon="-0.6161130">
        <ele>706.8</ele>
        <time>2018-10-27T05:52:56Z</time>
      </trkpt>
      <trkpt lat="38.4851600" lon="-0.6161490">
        <ele>706.8</ele>
        <time>2018-10-27T05:52:57Z</time>
      </trkpt>
      <trkpt lat="38.4851420" lon="-0.6163820">
        <ele>707.0</ele>
        <time>2018-10-27T05:53:03Z</time>
      </trkpt>
      <trkpt lat="38.4851380" lon="-0.6164550">
        <ele>706.8</ele>
        <time>2018-10-27T05:53:05Z</time>
      </trkpt>
      <trkpt lat="38.4851170" lon="-0.6167060">
        <ele>706.6</ele>
        <time>2018-10-27T05:53:12Z</time>
      </trkpt>
      <trkpt lat="38.4851150" lon="-0.6167420">
        <ele>706.6</ele>
        <time>2018-10-27T05:53:13Z</time>
      </trkpt>
      <trkpt lat="38.4851130" lon="-0.6169940">
        <ele>706.4</ele>
        <time>2018-10-27T05:53:20Z</time>
      </trkpt>
      <trkpt lat="38.4850980" lon="-0.6172450">
        <ele>706.0</ele>
        <time>2018-10-27T05:53:27Z</time>
      </trkpt>
      <trkpt lat="38.4850910" lon="-0.6172830">
        <ele>706.0</ele>
        <time>2018-10-27T05:53:28Z</time>
      </trkpt>
      <trkpt lat="38.4850550" lon="-0.6175420">
        <ele>706.0</ele>
        <time>2018-10-27T05:53:35Z</time>
      </trkpt>
      <trkpt lat="38.4850320" lon="-0.6177850">
        <ele>705.6</ele>
        <time>2018-10-27T05:53:42Z</time>
      </trkpt>
      <trkpt lat="38.4850070" lon="-0.6180300">
        <ele>705.2</ele>
        <time>2018-10-27T05:53:49Z</time>
      </trkpt>
      <trkpt lat="38.4850020" lon="-0.6180680">
        <ele>705.2</ele>
        <time>2018-10-27T05:53:50Z</time>
      </trkpt>
      <trkpt lat="38.4849970" lon="-0.6181070">
        <ele>705.0</ele>
        <time>2018-10-27T05:53:51Z</time>
      </trkpt>
      <trkpt lat="38.4849970" lon="-0.6181070">
        <ele>704.4</ele>
        <time>2018-10-27T05:53:57Z</time>
      </trkpt>
      <trkpt lat="38.4849970" lon="-0.6181070">
        <ele>704.0</ele>
        <time>2018-10-27T05:54:00Z</time>
      </trkpt>
      <trkpt lat="38.4849970" lon="-0.6181070">
        <ele>702.8</ele>
        <time>2018-10-27T05:54:06Z</time>
      </trkpt>
      <trkpt lat="38.4849970" lon="-0.6181070">
        <ele>701.6</ele>
        <time>2018-10-27T05:54:13Z</time>
      </trkpt>
      <trkpt lat="38.4849970" lon="-0.6181070">
        <ele>700.6</ele>
        <time>2018-10-27T05:54:19Z</time>
      </trkpt>
      <trkpt lat="38.4849970" lon="-0.6181070">
        <ele>699.8</ele>
        <time>2018-10-27T05:54:25Z</time>
      </trkpt>
      <trkpt lat="38.4849970" lon="-0.6181070">
        <ele>699.4</ele>
        <time>2018-10-27T05:54:31Z</time>
      </trkpt>
      <trkpt lat="38.4849970" lon="-0.6181070">
        <ele>698.4</ele>
        <time>2018-10-27T05:54:38Z</time>
      </trkpt>
      <trkpt lat="38.4849970" lon="-0.6181070">
        <ele>698.4</ele>
        <time>2018-10-27T05:54:40Z</time>
      </trkpt>
      <trkpt lat="38.4849970" lon="-0.6181070">
        <ele>698.0</ele>
        <time>2018-10-27T05:54:45Z</time>
      </trkpt>
      <trkpt lat="38.4849970" lon="-0.6181070">
        <ele>697.8</ele>
        <time>2018-10-27T05:54:52Z</time>
      </trkpt>
      <trkpt lat="38.4849970" lon="-0.6181070">
        <ele>697.4</ele>
        <time>2018-10-27T05:54:57Z</time>
      </trkpt>
      <trkpt lat="38.4849970" lon="-0.6181070">
        <ele>697.0</ele>
        <time>2018-10-27T05:54:58Z</time>
      </trkpt>
      <trkpt lat="38.4849970" lon="-0.6181070">
        <ele>696.4</ele>
        <time>2018-10-27T05:55:05Z</time>
      </trkpt>
      <trkpt lat="38.4849970" lon="-0.6181070">
        <ele>696.2</ele>
        <time>2018-10-27T05:55:11Z</time>
      </trkpt>
      <trkpt lat="38.4849970" lon="-0.6181070">
        <ele>696.0</ele>
        <time>2018-10-27T05:55:18Z</time>
      </trkpt>
      <trkpt lat="38.4849970" lon="-0.6181070">
        <ele>695.8</ele>
        <time>2018-10-27T05:55:19Z</time>
      </trkpt>
      <trkpt lat="38.4849970" lon="-0.6181070">
        <ele>694.8</ele>
        <time>2018-10-27T05:55:26Z</time>
      </trkpt>
      <trkpt lat="38.4849970" lon="-0.6181070">
        <ele>694.0</ele>
        <time>2018-10-27T05:55:29Z</time>
      </trkpt>
      <trkpt lat="38.4849970" lon="-0.6181070">
        <ele>693.6</ele>
        <time>2018-10-27T05:55:36Z</time>
      </trkpt>
      <trkpt lat="38.4849970" lon="-0.6181070">
        <ele>693.2</ele>
        <time>2018-10-27T05:55:43Z</time>
      </trkpt>
      <trkpt lat="38.4849970" lon="-0.6181070">
        <ele>692.6</ele>
        <time>2018-10-27T05:55:49Z</time>
      </trkpt>
      <trkpt lat="38.4849970" lon="-0.6181070">
        <ele>692.6</ele>
        <time>2018-10-27T05:55:50Z</time>
      </trkpt>
      <trkpt lat="38.4849970" lon="-0.6181070">
        <ele>692.2</ele>
        <time>2018-10-27T05:55:56Z</time>
      </trkpt>
      <trkpt lat="38.4849970" lon="-0.6181070">
        <ele>692.0</ele>
        <time>2018-10-27T05:56:02Z</time>
      </trkpt>
      <trkpt lat="38.4849970" lon="-0.6181070">
        <ele>691.4</ele>
        <time>2018-10-27T05:56:04Z</time>
      </trkpt>
      <trkpt lat="38.4849970" lon="-0.6181070">
        <ele>691.2</ele>
        <time>2018-10-27T05:56:11Z</time>
      </trkpt>
      <trkpt lat="38.4849970" lon="-0.6181070">
        <ele>691.0</ele>
        <time>2018-10-27T05:56:16Z</time>
      </trkpt>
      <trkpt lat="38.4849970" lon="-0.6181070">
        <ele>690.4</ele>
        <time>2018-10-27T05:56:21Z</time>
      </trkpt>
      <trkpt lat="38.4849970" lon="-0.6181070">
        <ele>689.6</ele>
        <time>2018-10-27T05:56:28Z</time>
      </trkpt>
      <trkpt lat="38.4849970" lon="-0.6181070">
        <ele>689.2</ele>
        <time>2018-10-27T05:56:31Z</time>
      </trkpt>
      <trkpt lat="38.4849970" lon="-0.6181070">
        <ele>689.2</ele>
        <time>2018-10-27T05:56:32Z</time>
      </trkpt>
      <trkpt lat="38.4849970" lon="-0.6181070">
        <ele>689.0</ele>
        <time>2018-10-27T05:56:34Z</time>
      </trkpt>
      <trkpt lat="38.4849970" lon="-0.6181070">
        <ele>688.8</ele>
        <time>2018-10-27T05:56:41Z</time>
      </trkpt>
      <trkpt lat="38.4849970" lon="-0.6181070">
        <ele>688.6</ele>
        <time>2018-10-27T05:56:44Z</time>
      </trkpt>
      <trkpt lat="38.4849970" lon="-0.6181070">
        <ele>689.0</ele>
        <time>2018-10-27T05:56:51Z</time>
      </trkpt>
      <trkpt lat="38.4849970" lon="-0.6181070">
        <ele>689.0</ele>
        <time>2018-10-27T05:56:56Z</time>
      </trkpt>
      <trkpt lat="38.4849970" lon="-0.6181070">
        <ele>689.0</ele>
        <time>2018-10-27T05:56:57Z</time>
      </trkpt>
      <trkpt lat="38.4849970" lon="-0.6181070">
        <ele>689.0</ele>
        <time>2018-10-27T05:57:00Z</time>
      </trkpt>
      <trkpt lat="38.4849970" lon="-0.6181070">
        <ele>688.8</ele>
        <time>2018-10-27T05:57:03Z</time>
      </trkpt>
      <trkpt lat="38.4849970" lon="-0.6181070">
        <ele>688.8</ele>
        <time>2018-10-27T05:57:04Z</time>
      </trkpt>
      <trkpt lat="38.4849970" lon="-0.6181070">
        <ele>688.2</ele>
        <time>2018-10-27T05:57:10Z</time>
      </trkpt>
      <trkpt lat="38.4849970" lon="-0.6181070">
        <ele>688.0</ele>
        <time>2018-10-27T05:57:15Z</time>
      </trkpt>
      <trkpt lat="38.4849970" lon="-0.6181070">
        <ele>687.4</ele>
        <time>2018-10-27T05:57:22Z</time>
      </trkpt>
      <trkpt lat="38.4849970" lon="-0.6181070">
        <ele>687.2</ele>
        <time>2018-10-27T05:57:23Z</time>
      </trkpt>
      <trkpt lat="38.4849970" lon="-0.6181070">
        <ele>686.8</ele>
        <time>2018-10-27T05:57:26Z</time>
      </trkpt>
      <trkpt lat="38.4849970" lon="-0.6181070">
        <ele>686.2</ele>
        <time>2018-10-27T05:57:30Z</time>
      </trkpt>
      <trkpt lat="38.4849970" lon="-0.6181070">
        <ele>686.0</ele>
        <time>2018-10-27T05:57:31Z</time>
      </trkpt>
      <trkpt lat="38.4849970" lon="-0.6181070">
        <ele>685.6</ele>
        <time>2018-10-27T05:57:36Z</time>
      </trkpt>
      <trkpt lat="38.4849970" lon="-0.6181070">
        <ele>685.4</ele>
        <time>2018-10-27T05:57:43Z</time>
      </trkpt>
      <trkpt lat="38.4849970" lon="-0.6181070">
        <ele>685.0</ele>
        <time>2018-10-27T05:57:49Z</time>
      </trkpt>
      <trkpt lat="38.4849970" lon="-0.6181070">
        <ele>684.0</ele>
        <time>2018-10-27T05:57:55Z</time>
      </trkpt>
      <trkpt lat="38.4849970" lon="-0.6181070">
        <ele>683.8</ele>
        <time>2018-10-27T05:57:56Z</time>
      </trkpt>
      <trkpt lat="38.4849970" lon="-0.6181070">
        <ele>683.6</ele>
        <time>2018-10-27T05:58:02Z</time>
      </trkpt>
      <trkpt lat="38.4849970" lon="-0.6181070">
        <ele>683.6</ele>
        <time>2018-10-27T05:58:08Z</time>
      </trkpt>
      <trkpt lat="38.4849970" lon="-0.6181070">
        <ele>684.2</ele>
        <time>2018-10-27T05:58:15Z</time>
      </trkpt>
      <trkpt lat="38.4849970" lon="-0.6181070">
        <ele>683.4</ele>
        <time>2018-10-27T05:58:21Z</time>
      </trkpt>
      <trkpt lat="38.4849970" lon="-0.6181070">
        <ele>682.8</ele>
        <time>2018-10-27T05:58:25Z</time>
      </trkpt>
      <trkpt lat="38.4849970" lon="-0.6181070">
        <ele>682.4</ele>
        <time>2018-10-27T05:58:28Z</time>
      </trkpt>
      <trkpt lat="38.4830060" lon="-0.6280090">
        <ele>682.2</ele>
        <time>2018-10-27T05:58:31Z</time>
      </trkpt>
      <trkpt lat="38.4830000" lon="-0.6282390">
        <ele>681.6</ele>
        <time>2018-10-27T05:58:37Z</time>
      </trkpt>
      <trkpt lat="38.4829940" lon="-0.6284810">
        <ele>681.8</ele>
        <time>2018-10-27T05:58:44Z</time>
      </trkpt>
      <trkpt lat="38.4829950" lon="-0.6285520">
        <ele>681.8</ele>
        <time>2018-10-27T05:58:46Z</time>
      </trkpt>
      <trkpt lat="38.4830250" lon="-0.6288060">
        <ele>682.0</ele>
        <time>2018-10-27T05:58:53Z</time>
      </trkpt>
      <trkpt lat="38.4830250" lon="-0.6288060">
        <ele>681.6</ele>
        <time>2018-10-27T05:59:00Z</time>
      </trkpt>
      <trkpt lat="38.4830250" lon="-0.6288060">
        <ele>681.2</ele>
        <time>2018-10-27T05:59:07Z</time>
      </trkpt>
      <trkpt lat="38.4830250" lon="-0.6288060">
        <ele>680.8</ele>
        <time>2018-10-27T05:59:11Z</time>
      </trkpt>
      <trkpt lat="38.4830250" lon="-0.6288060">
        <ele>680.8</ele>
        <time>2018-10-27T05:59:12Z</time>
      </trkpt>
      <trkpt lat="38.4830250" lon="-0.6288060">
        <ele>680.6</ele>
        <time>2018-10-27T05:59:13Z</time>
      </trkpt>
      <trkpt lat="38.4830250" lon="-0.6288060">
        <ele>679.6</ele>
        <time>2018-10-27T05:59:20Z</time>
      </trkpt>
      <trkpt lat="38.4830250" lon="-0.6288060">
        <ele>678.6</ele>
        <time>2018-10-27T05:59:25Z</time>
      </trkpt>
      <trkpt lat="38.4830250" lon="-0.6288060">
        <ele>677.4</ele>
        <time>2018-10-27T05:59:28Z</time>
      </trkpt>
      <trkpt lat="38.4830250" lon="-0.6288060">
        <ele>676.8</ele>
        <time>2018-10-27T05:59:30Z</time>
      </trkpt>
      <trkpt lat="38.4830250" lon="-0.6288060">
        <ele>676.4</ele>
        <time>2018-10-27T05:59:35Z</time>
      </trkpt>
      <trkpt lat="38.4830250" lon="-0.6288060">
        <ele>676.2</ele>
        <time>2018-10-27T05:59:38Z</time>
      </trkpt>
      <trkpt lat="38.4830250" lon="-0.6288060">
        <ele>675.4</ele>
        <time>2018-10-27T05:59:43Z</time>
      </trkpt>
      <trkpt lat="38.4830250" lon="-0.6288060">
        <ele>675.2</ele>
        <time>2018-10-27T05:59:44Z</time>
      </trkpt>
      <trkpt lat="38.4830250" lon="-0.6288060">
        <ele>674.8</ele>
        <time>2018-10-27T05:59:49Z</time>
      </trkpt>
      <trkpt lat="38.4830250" lon="-0.6288060">
        <ele>674.6</ele>
        <time>2018-10-27T05:59:52Z</time>
      </trkpt>
      <trkpt lat="38.4830250" lon="-0.6288060">
        <ele>674.2</ele>
        <time>2018-10-27T05:59:56Z</time>
      </trkpt>
      <trkpt lat="38.4830250" lon="-0.6288060">
        <ele>674.4</ele>
        <time>2018-10-27T06:00:03Z</time>
      </trkpt>
      <trkpt lat="38.4830250" lon="-0.6288060">
        <ele>674.8</ele>
        <time>2018-10-27T06:00:07Z</time>
      </trkpt>
      <trkpt lat="38.4830250" lon="-0.6288060">
        <ele>674.0</ele>
        <time>2018-10-27T06:00:14Z</time>
      </trkpt>
      <trkpt lat="38.4830250" lon="-0.6288060">
        <ele>673.6</ele>
        <time>2018-10-27T06:00:21Z</time>
      </trkpt>
      <trkpt lat="38.4830250" lon="-0.6288060">
        <ele>673.0</ele>
        <time>2018-10-27T06:00:25Z</time>
      </trkpt>
      <trkpt lat="38.4830250" lon="-0.6288060">
        <ele>672.4</ele>
        <time>2018-10-27T06:00:32Z</time>
      </trkpt>
      <trkpt lat="38.4830250" lon="-0.6288060">
        <ele>672.2</ele>
        <time>2018-10-27T06:00:39Z</time>
      </trkpt>
      <trkpt lat="38.4830250" lon="-0.6288060">
        <ele>672.2</ele>
        <time>2018-10-27T06:00:44Z</time>
      </trkpt>
      <trkpt lat="38.4830250" lon="-0.6288060">
        <ele>672.2</ele>
        <time>2018-10-27T06:00:51Z</time>
      </trkpt>
      <trkpt lat="38.4830250" lon="-0.6288060">
        <ele>672.4</ele>
        <time>2018-10-27T06:00:57Z</time>
      </trkpt>
      <trkpt lat="38.4840160" lon="-0.6331720">
        <ele>672.4</ele>
        <time>2018-10-27T06:00:59Z</time>
      </trkpt>
      <trkpt lat="38.4839810" lon="-0.6334560">
        <ele>672.0</ele>
        <time>2018-10-27T06:01:06Z</time>
      </trkpt>
      <trkpt lat="38.4839060" lon="-0.6336880">
        <ele>671.8</ele>
        <time>2018-10-27T06:01:13Z</time>
      </trkpt>
      <trkpt lat="38.4838230" lon="-0.6339040">
        <ele>670.8</ele>
        <time>2018-10-27T06:01:19Z</time>
      </trkpt>
      <trkpt lat="38.4837920" lon="-0.6339830">
        <ele>670.8</ele>
        <time>2018-10-27T06:01:21Z</time>
      </trkpt>
      <trkpt lat="38.4836950" lon="-0.6342070">
        <ele>670.0</ele>
        <time>2018-10-27T06:01:27Z</time>
      </trkpt>
      <trkpt lat="38.4836640" lon="-0.6342760">
        <ele>670.0</ele>
        <time>2018-10-27T06:01:29Z</time>
      </trkpt>
      <trkpt lat="38.4836170" lon="-0.6343770">
        <ele>670.2</ele>
        <time>2018-10-27T06:01:32Z</time>
      </trkpt>
      <trkpt lat="38.4835470" lon="-0.6344960">
        <ele>670.0</ele>
        <time>2018-10-27T06:01:36Z</time>
      </trkpt>
      <trkpt lat="38.4835020" lon="-0.6345530">
        <ele>670.0</ele>
        <time>2018-10-27T06:01:38Z</time>
      </trkpt>
      <trkpt lat="38.4834560" lon="-0.6346140">
        <ele>669.4</ele>
        <time>2018-10-27T06:01:40Z</time>
      </trkpt>
      <trkpt lat="38.4834220" lon="-0.6346810">
        <ele>668.6</ele>
        <time>2018-10-27T06:01:42Z</time>
      </trkpt>
      <trkpt lat="38.4833940" lon="-0.6347480">
        <ele>668.4</ele>
        <time>2018-10-27T06:01:44Z</time>
      </trkpt>
      <trkpt lat="38.4832830" lon="-0.6349410">
        <ele>667.4</ele>
        <time>2018-10-27T06:01:50Z</time>
      </trkpt>
      <trkpt lat="38.4832580" lon="-0.6349700">
        <ele>667.2</ele>
        <time>2018-10-27T06:01:51Z</time>
      </trkpt>
      <trkpt lat="38.4831930" lon="-0.6350460">
        <ele>666.2</ele>
        <time>2018-10-27T06:01:54Z</time>
      </trkpt>
      <trkpt lat="38.4831730" lon="-0.6350710">
        <ele>666.0</ele>
        <time>2018-10-27T06:01:55Z</time>
      </trkpt>
      <trkpt lat="38.4831330" lon="-0.6351190">
        <ele>665.8</ele>
        <time>2018-10-27T06:01:57Z</time>
      </trkpt>
      <trkpt lat="38.4830280" lon="-0.6352430">
        <ele>665.4</ele>
        <time>2018-10-27T06:02:02Z</time>
      </trkpt>
      <trkpt lat="38.4829880" lon="-0.6352900">
        <ele>665.4</ele>
        <time>2018-10-27T06:02:04Z</time>
      </trkpt>
      <trkpt lat="38.4829180" lon="-0.6353510">
        <ele>665.0</ele>
        <time>2018-10-27T06:02:07Z</time>
      </trkpt>
      <trkpt lat="38.4828250" lon="-0.6354250">
        <ele>664.2</ele>
        <time>2018-10-27T06:02:11Z</time>
      </trkpt>
      <trkpt lat="38.4826820" lon="-0.6355450">
        <ele>664.0</ele>
        <time>2018-10-27T06:02:18Z</time>
      </trkpt>
      <trkpt lat="38.4826610" lon="-0.6355590">
        <ele>664.0</ele>
        <time>2018-10-27T06:02:19Z</time>
      </trkpt>
      <trkpt lat="38.4825700" lon="-0.6355990">
        <ele>663.6</ele>
        <time>2018-10-27T06:02:23Z</time>
      </trkpt>
      <trkpt lat="38.4824540" lon="-0.6356260">
        <ele>663.4</ele>
        <time>2018-10-27T06:02:28Z</time>
      </trkpt>
      <trkpt lat="38.4824040" lon="-0.6356330">
        <ele>663.4</ele>
        <time>2018-10-27T06:02:30Z</time>
      </trkpt>
      <trkpt lat="38.4823800" lon="-0.6356450">
        <ele>663.4</ele>
        <time>2018-10-27T06:02:31Z</time>
      </trkpt>
      <trkpt lat="38.4822710" lon="-0.6357130">
        <ele>663.0</ele>
        <time>2018-10-27T06:02:36Z</time>
      </trkpt>
      <trkpt lat="38.4822450" lon="-0.6357270">
        <ele>663.0</ele>
        <time>2018-10-27T06:02:37Z</time>
      </trkpt>
      <trkpt lat="38.4821700" lon="-0.6357570">
        <ele>662.8</ele>
        <time>2018-10-27T06:02:40Z</time>
      </trkpt>
      <trkpt lat="38.4821390" lon="-0.6357590">
        <ele>662.8</ele>
        <time>2018-10-27T06:02:41Z</time>
      </trkpt>
      <trkpt lat="38.4820850" lon="-0.6357720">
        <ele>662.8</ele>
        <time>2018-10-27T06:02:43Z</time>
      </trkpt>
      <trkpt lat="38.4819210" lon="-0.6358130">
        <ele>662.6</ele>
        <time>2018-10-27T06:02:49Z</time>
      </trkpt>
      <trkpt lat="38.4817250" lon="-0.6358320">
        <ele>662.8</ele>
        <time>2018-10-27T06:02:56Z</time>
      </trkpt>
      <trkpt lat="38.4815540" lon="-0.6358630">
        <ele>662.8</ele>
        <time>2018-10-27T06:03:02Z</time>
      </trkpt>
      <trkpt lat="38.4813950" lon="-0.6358860">
        <ele>662.8</ele>
        <time>2018-10-27T06:03:08Z</time>
      </trkpt>
      <trkpt lat="38.4812230" lon="-0.6358880">
        <ele>662.0</ele>
        <time>2018-10-27T06:03:15Z</time>
      </trkpt>
      <trkpt lat="38.4811170" lon="-0.6358780">
        <ele>661.8</ele>
        <time>2018-10-27T06:03:19Z</time>
      </trkpt>
      <trkpt lat="38.4810910" lon="-0.6358780">
        <ele>661.8</ele>
        <time>2018-10-27T06:03:20Z</time>
      </trkpt>
      <trkpt lat="38.4808830" lon="-0.6358940">
        <ele>662.0</ele>
        <time>2018-10-27T06:03:27Z</time>
      </trkpt>
      <trkpt lat="38.4806990" lon="-0.6359580">
        <ele>661.8</ele>
        <time>2018-10-27T06:03:33Z</time>
      </trkpt>
      <trkpt lat="38.4805210" lon="-0.6360120">
        <ele>662.4</ele>
        <time>2018-10-27T06:03:39Z</time>
      </trkpt>
      <trkpt lat="38.4804900" lon="-0.6360190">
        <ele>662.4</ele>
        <time>2018-10-27T06:03:40Z</time>
      </trkpt>
      <trkpt lat="38.4803150" lon="-0.6360680">
        <ele>662.2</ele>
        <time>2018-10-27T06:03:46Z</time>
      </trkpt>
      <trkpt lat="38.4801420" lon="-0.6361470">
        <ele>661.6</ele>
        <time>2018-10-27T06:03:53Z</time>
      </trkpt>
      <trkpt lat="38.4800100" lon="-0.6362330">
        <ele>660.4</ele>
        <time>2018-10-27T06:03:58Z</time>
      </trkpt>
      <trkpt lat="38.4799840" lon="-0.6362420">
        <ele>660.2</ele>
        <time>2018-10-27T06:03:59Z</time>
      </trkpt>
      <trkpt lat="38.4798920" lon="-0.6363150">
        <ele>659.4</ele>
        <time>2018-10-27T06:04:03Z</time>
      </trkpt>
      <trkpt lat="38.4798290" lon="-0.6363720">
        <ele>658.6</ele>
        <time>2018-10-27T06:04:06Z</time>
      </trkpt>
      <trkpt lat="38.4797620" lon="-0.6364420">
        <ele>658.2</ele>
        <time>2018-10-27T06:04:09Z</time>
      </trkpt>
      <trkpt lat="38.4797160" lon="-0.6364900">
        <ele>658.0</ele>
        <time>2018-10-27T06:04:11Z</time>
      </trkpt>
      <trkpt lat="38.4796400" lon="-0.6365550">
        <ele>658.0</ele>
        <time>2018-10-27T06:04:14Z</time>
      </trkpt>
      <trkpt lat="38.4795410" lon="-0.6367680">
        <ele>657.8</ele>
        <time>2018-10-27T06:04:19Z</time>
      </trkpt>
      <trkpt lat="38.4794850" lon="-0.6368750">
        <ele>657.8</ele>
        <time>2018-10-27T06:04:22Z</time>
      </trkpt>
      <trkpt lat="38.4793660" lon="-0.6370850">
        <ele>657.4</ele>
        <time>2018-10-27T06:04:28Z</time>
      </trkpt>
      <trkpt lat="38.4793310" lon="-0.6371630">
        <ele>657.2</ele>
        <time>2018-10-27T06:04:30Z</time>
      </trkpt>
      <trkpt lat="38.4792230" lon="-0.6373700">
        <ele>656.0</ele>
        <time>2018-10-27T06:04:36Z</time>
      </trkpt>
      <trkpt lat="38.4791740" lon="-0.6374710">
        <ele>655.8</ele>
        <time>2018-10-27T06:04:39Z</time>
      </trkpt>
      <trkpt lat="38.4790860" lon="-0.6376730">
        <ele>655.2</ele>
        <time>2018-10-27T06:04:45Z</time>
      </trkpt>
      <trkpt lat="38.4790690" lon="-0.6377050">
        <ele>655.2</ele>
        <time>2018-10-27T06:04:46Z</time>
      </trkpt>
      <trkpt lat="38.4790100" lon="-0.6378390">
        <ele>655.0</ele>
        <time>2018-10-27T06:04:50Z</time>
      </trkpt>
      <trkpt lat="38.4789680" lon="-0.6379410">
        <ele>654.6</ele>
        <time>2018-10-27T06:04:53Z</time>
      </trkpt>
      <trkpt lat="38.4789010" lon="-0.6381880">
        <ele>654.2</ele>
        <time>2018-10-27T06:05:00Z</time>
      </trkpt>
      <trkpt lat="38.4788840" lon="-0.6382620">
        <ele>654.2</ele>
        <time>2018-10-27T06:05:02Z</time>
      </trkpt>
      <trkpt lat="38.4788440" lon="-0.6384020">
        <ele>654.0</ele>
        <time>2018-10-27T06:05:06Z</time>
      </trkpt>
      <trkpt lat="38.4788210" lon="-0.6385120">
        <ele>653.8</ele>
        <time>2018-10-27T06:05:09Z</time>
      </trkpt>
      <trkpt lat="38.4787800" lon="-0.6387560">
        <ele>653.2</ele>
        <time>2018-10-27T06:05:16Z</time>
      </trkpt>
      <trkpt lat="38.4787640" lon="-0.6388520">
        <ele>653.2</ele>
        <time>2018-10-27T06:05:19Z</time>
      </trkpt>
      <trkpt lat="38.4787640" lon="-0.6388520">
        <ele>653.0</ele>
        <time>2018-10-27T06:05:22Z</time>
      </trkpt>
      <trkpt lat="38.4787450" lon="-0.6392000">
        <ele>652.8</ele>
        <time>2018-10-27T06:05:28Z</time>
      </trkpt>
      <trkpt lat="38.4787270" lon="-0.6394360">
        <ele>652.4</ele>
        <time>2018-10-27T06:05:34Z</time>
      </trkpt>
      <trkpt lat="38.4787310" lon="-0.6396860">
        <ele>651.8</ele>
        <time>2018-10-27T06:05:40Z</time>
      </trkpt>
      <trkpt lat="38.4787330" lon="-0.6397270">
        <ele>652.0</ele>
        <time>2018-10-27T06:05:41Z</time>
      </trkpt>
      <trkpt lat="38.4787000" lon="-0.6399150">
        <ele>651.0</ele>
        <time>2018-10-27T06:05:47Z</time>
      </trkpt>
      <trkpt lat="38.4787060" lon="-0.6399700">
        <ele>650.8</ele>
        <time>2018-10-27T06:05:48Z</time>
      </trkpt>
      <trkpt lat="38.4787150" lon="-0.6400540">
        <ele>650.2</ele>
        <time>2018-10-27T06:05:50Z</time>
      </trkpt>
      <trkpt lat="38.4787280" lon="-0.6402470">
        <ele>649.8</ele>
        <time>2018-10-27T06:05:55Z</time>
      </trkpt>
      <trkpt lat="38.4787470" lon="-0.6403240">
        <ele>649.8</ele>
        <time>2018-10-27T06:05:57Z</time>
      </trkpt>
      <trkpt lat="38.4788000" lon="-0.6405530">
        <ele>649.6</ele>
        <time>2018-10-27T06:06:03Z</time>
      </trkpt>
      <trkpt lat="38.4788420" lon="-0.6407980">
        <ele>650.2</ele>
        <time>2018-10-27T06:06:10Z</time>
      </trkpt>
      <trkpt lat="38.4788540" lon="-0.6408650">
        <ele>650.2</ele>
        <time>2018-10-27T06:06:12Z</time>
      </trkpt>
      <trkpt lat="38.4788890" lon="-0.6411230">
        <ele>650.2</ele>
        <time>2018-10-27T06:06:19Z</time>
      </trkpt>
      <trkpt lat="38.4788890" lon="-0.6411230">
        <ele>649.6</ele>
        <time>2018-10-27T06:06:25Z</time>
      </trkpt>
      <trkpt lat="38.4788890" lon="-0.6411230">
        <ele>648.8</ele>
        <time>2018-10-27T06:06:30Z</time>
      </trkpt>
      <trkpt lat="38.4788890" lon="-0.6411230">
        <ele>648.0</ele>
        <time>2018-10-27T06:06:36Z</time>
      </trkpt>
      <trkpt lat="38.4788890" lon="-0.6411230">
        <ele>647.8</ele>
        <time>2018-10-27T06:06:37Z</time>
      </trkpt>
      <trkpt lat="38.4788890" lon="-0.6411230">
        <ele>647.2</ele>
        <time>2018-10-27T06:06:43Z</time>
      </trkpt>
      <trkpt lat="38.4788890" lon="-0.6411230">
        <ele>646.8</ele>
        <time>2018-10-27T06:06:47Z</time>
      </trkpt>
      <trkpt lat="38.4788890" lon="-0.6411230">
        <ele>646.0</ele>
        <time>2018-10-27T06:06:54Z</time>
      </trkpt>
      <trkpt lat="38.4788890" lon="-0.6411230">
        <ele>645.8</ele>
        <time>2018-10-27T06:07:00Z</time>
      </trkpt>
      <trkpt lat="38.4788890" lon="-0.6411230">
        <ele>645.6</ele>
        <time>2018-10-27T06:07:03Z</time>
      </trkpt>
      <trkpt lat="38.4788890" lon="-0.6411230">
        <ele>644.8</ele>
        <time>2018-10-27T06:07:10Z</time>
      </trkpt>
      <trkpt lat="38.4788890" lon="-0.6411230">
        <ele>644.6</ele>
        <time>2018-10-27T06:07:13Z</time>
      </trkpt>
      <trkpt lat="38.4788890" lon="-0.6411230">
        <ele>643.6</ele>
        <time>2018-10-27T06:07:20Z</time>
      </trkpt>
      <trkpt lat="38.4788890" lon="-0.6411230">
        <ele>643.6</ele>
        <time>2018-10-27T06:07:21Z</time>
      </trkpt>
      <trkpt lat="38.4788890" lon="-0.6411230">
        <ele>643.2</ele>
        <time>2018-10-27T06:07:28Z</time>
      </trkpt>
      <trkpt lat="38.4788890" lon="-0.6411230">
        <ele>643.0</ele>
        <time>2018-10-27T06:07:35Z</time>
      </trkpt>
      <trkpt lat="38.4783590" lon="-0.6439110">
        <ele>643.0</ele>
        <time>2018-10-27T06:07:37Z</time>
      </trkpt>
      <trkpt lat="38.4783580" lon="-0.6439920">
        <ele>643.0</ele>
        <time>2018-10-27T06:07:38Z</time>
      </trkpt>
      <trkpt lat="38.4782800" lon="-0.6441500">
        <ele>642.8</ele>
        <time>2018-10-27T06:07:43Z</time>
      </trkpt>
      <trkpt lat="38.4781990" lon="-0.6442660">
        <ele>642.6</ele>
        <time>2018-10-27T06:07:47Z</time>
      </trkpt>
      <trkpt lat="38.4781500" lon="-0.6443280">
        <ele>642.2</ele>
        <time>2018-10-27T06:07:49Z</time>
      </trkpt>
      <trkpt lat="38.4780350" lon="-0.6444720">
        <ele>641.4</ele>
        <time>2018-10-27T06:07:54Z</time>
      </trkpt>
      <trkpt lat="38.4779900" lon="-0.6445320">
        <ele>640.8</ele>
        <time>2018-10-27T06:07:56Z</time>
      </trkpt>
      <trkpt lat="38.4778500" lon="-0.6446920">
        <ele>640.6</ele>
        <time>2018-10-27T06:08:02Z</time>
      </trkpt>
      <trkpt lat="38.4776930" lon="-0.6448290">
        <ele>640.6</ele>
        <time>2018-10-27T06:08:08Z</time>
      </trkpt>
      <trkpt lat="38.4775220" lon="-0.6449280">
        <ele>640.4</ele>
        <time>2018-10-27T06:08:14Z</time>
      </trkpt>
      <trkpt lat="38.4774940" lon="-0.6449440">
        <ele>640.4</ele>
        <time>2018-10-27T06:08:15Z</time>
      </trkpt>
      <trkpt lat="38.4773270" lon="-0.6450560">
        <ele>640.2</ele>
        <time>2018-10-27T06:08:21Z</time>
      </trkpt>
      <trkpt lat="38.4773000" lon="-0.6450780">
        <ele>640.2</ele>
        <time>2018-10-27T06:08:22Z</time>
      </trkpt>
      <trkpt lat="38.4771330" lon="-0.6451770">
        <ele>639.4</ele>
        <time>2018-10-27T06:08:28Z</time>
      </trkpt>
      <trkpt lat="38.4771060" lon="-0.6451920">
        <ele>639.4</ele>
        <time>2018-10-27T06:08:29Z</time>
      </trkpt>
      <trkpt lat="38.4770800" lon="-0.6452080">
        <ele>639.4</ele>
        <time>2018-10-27T06:08:30Z</time>
      </trkpt>
      <trkpt lat="38.4769120" lon="-0.6452950">
        <ele>639.4</ele>
        <time>2018-10-27T06:08:36Z</time>
      </trkpt>
      <trkpt lat="38.4769120" lon="-0.6452950">
        <ele>639.2</ele>
        <time>2018-10-27T06:08:42Z</time>
      </trkpt>
      <trkpt lat="38.4769120" lon="-0.6452950">
        <ele>639.4</ele>
        <time>2018-10-27T06:08:46Z</time>
      </trkpt>
      <trkpt lat="38.4769120" lon="-0.6452950">
        <ele>639.0</ele>
        <time>2018-10-27T06:08:49Z</time>
      </trkpt>
      <trkpt lat="38.4769120" lon="-0.6452950">
        <ele>638.6</ele>
        <time>2018-10-27T06:08:55Z</time>
      </trkpt>
      <trkpt lat="38.4769120" lon="-0.6452950">
        <ele>638.2</ele>
        <time>2018-10-27T06:08:57Z</time>
      </trkpt>
      <trkpt lat="38.4769120" lon="-0.6452950">
        <ele>638.0</ele>
        <time>2018-10-27T06:09:03Z</time>
      </trkpt>
      <trkpt lat="38.4769120" lon="-0.6452950">
        <ele>638.0</ele>
        <time>2018-10-27T06:09:09Z</time>
      </trkpt>
      <trkpt lat="38.4769120" lon="-0.6452950">
        <ele>637.6</ele>
        <time>2018-10-27T06:09:15Z</time>
      </trkpt>
      <trkpt lat="38.4769120" lon="-0.6452950">
        <ele>637.2</ele>
        <time>2018-10-27T06:09:22Z</time>
      </trkpt>
      <trkpt lat="38.4769120" lon="-0.6452950">
        <ele>637.2</ele>
        <time>2018-10-27T06:09:23Z</time>
      </trkpt>
      <trkpt lat="38.4769120" lon="-0.6452950">
        <ele>637.2</ele>
        <time>2018-10-27T06:09:26Z</time>
      </trkpt>
      <trkpt lat="38.4769120" lon="-0.6452950">
        <ele>637.2</ele>
        <time>2018-10-27T06:09:29Z</time>
      </trkpt>
      <trkpt lat="38.4758920" lon="-0.6465850">
        <ele>637.0</ele>
        <time>2018-10-27T06:09:32Z</time>
      </trkpt>
      <trkpt lat="38.4759690" lon="-0.6466620">
        <ele>637.0</ele>
        <time>2018-10-27T06:09:33Z</time>
      </trkpt>
      <trkpt lat="38.4758990" lon="-0.6468020">
        <ele>636.8</ele>
        <time>2018-10-27T06:09:37Z</time>
      </trkpt>
      <trkpt lat="38.4758400" lon="-0.6469570">
        <ele>636.0</ele>
        <time>2018-10-27T06:09:42Z</time>
      </trkpt>
      <trkpt lat="38.4757880" lon="-0.6471270">
        <ele>635.0</ele>
        <time>2018-10-27T06:09:47Z</time>
      </trkpt>
      <trkpt lat="38.4757760" lon="-0.6471580">
        <ele>635.0</ele>
        <time>2018-10-27T06:09:48Z</time>
      </trkpt>
      <trkpt lat="38.4757060" lon="-0.6473640">
        <ele>634.6</ele>
        <time>2018-10-27T06:09:54Z</time>
      </trkpt>
      <trkpt lat="38.4756470" lon="-0.6475270">
        <ele>634.4</ele>
        <time>2018-10-27T06:09:59Z</time>
      </trkpt>
      <trkpt lat="38.4755970" lon="-0.6476620">
        <ele>633.8</ele>
        <time>2018-10-27T06:10:03Z</time>
      </trkpt>
      <trkpt lat="38.4755180" lon="-0.6478930">
        <ele>633.2</ele>
        <time>2018-10-27T06:10:10Z</time>
      </trkpt>
      <trkpt lat="38.4755040" lon="-0.6479230">
        <ele>633.0</ele>
        <time>2018-10-27T06:10:11Z</time>
      </trkpt>
      <trkpt lat="38.4754790" lon="-0.6479860">
        <ele>632.8</ele>
        <time>2018-10-27T06:10:13Z</time>
      </trkpt>
      <trkpt lat="38.4754110" lon="-0.6481310">
        <ele>632.6</ele>
        <time>2018-10-27T06:10:18Z</time>
      </trkpt>
      <trkpt lat="38.4753360" lon="-0.6482990">
        <ele>631.8</ele>
        <time>2018-10-27T06:10:24Z</time>
      </trkpt>
      <trkpt lat="38.4753240" lon="-0.6483270">
        <ele>631.8</ele>
        <time>2018-10-27T06:10:25Z</time>
      </trkpt>
      <trkpt lat="38.4753140" lon="-0.6483560">
        <ele>631.6</ele>
        <time>2018-10-27T06:10:26Z</time>
      </trkpt>
      <trkpt lat="38.4752260" lon="-0.6485600">
        <ele>631.2</ele>
        <time>2018-10-27T06:10:33Z</time>
      </trkpt>
      <trkpt lat="38.4752110" lon="-0.6485860">
        <ele>631.0</ele>
        <time>2018-10-27T06:10:34Z</time>
      </trkpt>
      <trkpt lat="38.4751860" lon="-0.6486440">
        <ele>630.6</ele>
        <time>2018-10-27T06:10:36Z</time>
      </trkpt>
      <trkpt lat="38.4751200" lon="-0.6488180">
        <ele>630.6</ele>
        <time>2018-10-27T06:10:42Z</time>
      </trkpt>
      <trkpt lat="38.4750410" lon="-0.6490250">
        <ele>630.2</ele>
        <time>2018-10-27T06:10:49Z</time>
      </trkpt>
      <trkpt lat="38.4749860" lon="-0.6491950">
        <ele>630.0</ele>
        <time>2018-10-27T06:10:55Z</time>
      </trkpt>
      <trkpt lat="38.4749340" lon="-0.6493830">
        <ele>630.4</ele>
        <time>2018-10-27T06:11:01Z</time>
      </trkpt>
      <trkpt lat="38.4749250" lon="-0.6494140">
        <ele>630.4</ele>
        <time>2018-10-27T06:11:02Z</time>
      </trkpt>
      <trkpt lat="38.4748560" lon="-0.6496170">
        <ele>630.8</ele>
        <time>2018-10-27T06:11:09Z</time>
      </trkpt>
      <trkpt lat="38.4748380" lon="-0.6496770">
        <ele>630.8</ele>
        <time>2018-10-27T06:11:11Z</time>
      </trkpt>
      <trkpt lat="38.4748190" lon="-0.6497410">
        <ele>631.0</ele>
        <time>2018-10-27T06:11:13Z</time>
      </trkpt>
      <trkpt lat="38.4747900" lon="-0.6498410">
        <ele>631.2</ele>
        <time>2018-10-27T06:11:16Z</time>
      </trkpt>
      <trkpt lat="38.4747770" lon="-0.6498750">
        <ele>631.2</ele>
        <time>2018-10-27T06:11:17Z</time>
      </trkpt>
      <trkpt lat="38.4746940" lon="-0.6500940">
        <ele>631.0</ele>
        <time>2018-10-27T06:11:24Z</time>
      </trkpt>
      <trkpt lat="38.4746570" lon="-0.6501770">
        <ele>630.6</ele>
        <time>2018-10-27T06:11:27Z</time>
      </trkpt>
      <trkpt lat="38.4746210" lon="-0.6503060">
        <ele>630.4</ele>
        <time>2018-10-27T06:11:31Z</time>
      </trkpt>
      <trkpt lat="38.4746230" lon="-0.6503410">
        <ele>630.2</ele>
        <time>2018-10-27T06:11:32Z</time>
      </trkpt>
      <trkpt lat="38.4746900" lon="-0.6504380">
        <ele>630.4</ele>
        <time>2018-10-27T06:11:36Z</time>
      </trkpt>
      <trkpt lat="38.4748100" lon="-0.6504820">
        <ele>630.6</ele>
        <time>2018-10-27T06:11:41Z</time>
      </trkpt>
      <trkpt lat="38.4749560" lon="-0.6505050">
        <ele>631.0</ele>
        <time>2018-10-27T06:11:48Z</time>
      </trkpt>
      <trkpt lat="38.4750650" lon="-0.6505190">
        <ele>631.6</ele>
        <time>2018-10-27T06:11:53Z</time>
      </trkpt>
      <trkpt lat="38.4750880" lon="-0.6505220">
        <ele>631.8</ele>
        <time>2018-10-27T06:11:54Z</time>
      </trkpt>
      <trkpt lat="38.4751330" lon="-0.6505280">
        <ele>632.0</ele>
        <time>2018-10-27T06:11:56Z</time>
      </trkpt>
      <trkpt lat="38.4752050" lon="-0.6505350">
        <ele>632.8</ele>
        <time>2018-10-27T06:11:59Z</time>
      </trkpt>
      <trkpt lat="38.4752930" lon="-0.6505340">
        <ele>634.0</ele>
        <time>2018-10-27T06:12:03Z</time>
      </trkpt>
      <trkpt lat="38.4753380" lon="-0.6505400">
        <ele>634.4</ele>
        <time>2018-10-27T06:12:05Z</time>
      </trkpt>
      <trkpt lat="38.4753750" lon="-0.6505410">
        <ele>635.0</ele>
        <time>2018-10-27T06:12:07Z</time>
      </trkpt>
      <trkpt lat="38.4754320" lon="-0.6505350">
        <ele>636.2</ele>
        <time>2018-10-27T06:12:10Z</time>
      </trkpt>
      <trkpt lat="38.4755600" lon="-0.6505240">
        <ele>637.2</ele>
        <time>2018-10-27T06:12:16Z</time>
      </trkpt>
      <trkpt lat="38.4755820" lon="-0.6505240">
        <ele>637.4</ele>
        <time>2018-10-27T06:12:17Z</time>
      </trkpt>
      <trkpt lat="38.4756950" lon="-0.6505080">
        <ele>638.0</ele>
        <time>2018-10-27T06:12:22Z</time>
      </trkpt>
      <trkpt lat="38.4757800" lon="-0.6504940">
        <ele>638.2</ele>
        <time>2018-10-27T06:12:26Z</time>
      </trkpt>
      <trkpt lat="38.4758190" lon="-0.6504920">
        <ele>638.6</ele>
        <time>2018-10-27T06:12:28Z</time>
      </trkpt>
      <trkpt lat="38.4759240" lon="-0.6504910">
        <ele>639.0</ele>
        <time>2018-10-27T06:12:33Z</time>
      </trkpt>
      <trkpt lat="38.4759440" lon="-0.6504960">
        <ele>639.4</ele>
        <time>2018-10-27T06:12:34Z</time>
      </trkpt>
      <trkpt lat="38.4760260" lon="-0.6505120">
        <ele>640.0</ele>
        <time>2018-10-27T06:12:38Z</time>
      </trkpt>
      <trkpt lat="38.4760510" lon="-0.6505180">
        <ele>640.0</ele>
        <time>2018-10-27T06:12:39Z</time>
      </trkpt>
      <trkpt lat="38.4761280" lon="-0.6505440">
        <ele>640.4</ele>
        <time>2018-10-27T06:12:42Z</time>
      </trkpt>
      <trkpt lat="38.4761520" lon="-0.6505530">
        <ele>640.4</ele>
        <time>2018-10-27T06:12:43Z</time>
      </trkpt>
      <trkpt lat="38.4762380" lon="-0.6505950">
        <ele>640.8</ele>
        <time>2018-10-27T06:12:47Z</time>
      </trkpt>
      <trkpt lat="38.4762990" lon="-0.6506190">
        <ele>641.4</ele>
        <time>2018-10-27T06:12:50Z</time>
      </trkpt>
      <trkpt lat="38.4763730" lon="-0.6506540">
        <ele>641.8</ele>
        <time>2018-10-27T06:12:54Z</time>
      </trkpt>
      <trkpt lat="38.4764260" lon="-0.6506800">
        <ele>641.8</ele>
        <time>2018-10-27T06:12:57Z</time>
      </trkpt>
      <trkpt lat="38.4764790" lon="-0.6506990">
        <ele>642.2</ele>
        <time>2018-10-27T06:13:00Z</time>
      </trkpt>
      <trkpt lat="38.4764960" lon="-0.6507090">
        <ele>642.6</ele>
        <time>2018-10-27T06:13:01Z</time>
      </trkpt>
      <trkpt lat="38.4765520" lon="-0.6507430">
        <ele>643.8</ele>
        <time>2018-10-27T06:13:04Z</time>
      </trkpt>
      <trkpt lat="38.4765730" lon="-0.6507560">
        <ele>644.2</ele>
        <time>2018-10-27T06:13:05Z</time>
      </trkpt>
      <trkpt lat="38.4766510" lon="-0.6507840">
        <ele>644.8</ele>
        <time>2018-10-27T06:13:09Z</time>
      </trkpt>
      <trkpt lat="38.4766710" lon="-0.6507910">
        <ele>645.0</ele>
        <time>2018-10-27T06:13:10Z</time>
      </trkpt>
      <trkpt lat="38.4767860" lon="-0.6508340">
        <ele>645.2</ele>
        <time>2018-10-27T06:13:15Z</time>
      </trkpt>
      <trkpt lat="38.4768430" lon="-0.6508660">
        <ele>645.4</ele>
        <time>2018-10-27T06:13:18Z</time>
      </trkpt>
      <trkpt lat="38.4769000" lon="-0.6508940">
        <ele>645.6</ele>
        <time>2018-10-27T06:13:21Z</time>
      </trkpt>
      <trkpt lat="38.4769330" lon="-0.6509220">
        <ele>646.0</ele>
        <time>2018-10-27T06:13:23Z</time>
      </trkpt>
      <trkpt lat="38.4770140" lon="-0.6509580">
        <ele>646.8</ele>
        <time>2018-10-27T06:13:27Z</time>
      </trkpt>
      <trkpt lat="38.4770360" lon="-0.6509750">
        <ele>647.2</ele>
        <time>2018-10-27T06:13:28Z</time>
      </trkpt>
      <trkpt lat="38.4771120" lon="-0.6510150">
        <ele>648.0</ele>
        <time>2018-10-27T06:13:32Z</time>
      </trkpt>
      <trkpt lat="38.4771310" lon="-0.6510250">
        <ele>648.4</ele>
        <time>2018-10-27T06:13:33Z</time>
      </trkpt>
      <trkpt lat="38.4772280" lon="-0.6510670">
        <ele>649.4</ele>
        <time>2018-10-27T06:13:38Z</time>
      </trkpt>
      <trkpt lat="38.4772680" lon="-0.6510850">
        <ele>649.8</ele>
        <time>2018-10-27T06:13:40Z</time>
      </trkpt>
      <trkpt lat="38.4773270" lon="-0.6511060">
        <ele>650.4</ele>
        <time>2018-10-27T06:13:43Z</time>
      </trkpt>
      <trkpt lat="38.4773950" lon="-0.6511240">
        <ele>650.4</ele>
        <time>2018-10-27T06:13:46Z</time>
      </trkpt>
      <trkpt lat="38.4775000" lon="-0.6511470">
        <ele>650.8</ele>
        <time>2018-10-27T06:13:51Z</time>
      </trkpt>
      <trkpt lat="38.4775950" lon="-0.6511540">
        <ele>651.2</ele>
        <time>2018-10-27T06:13:56Z</time>
      </trkpt>
      <trkpt lat="38.4777190" lon="-0.6511470">
        <ele>651.6</ele>
        <time>2018-10-27T06:14:02Z</time>
      </trkpt>
      <trkpt lat="38.4777380" lon="-0.6511460">
        <ele>651.6</ele>
        <time>2018-10-27T06:14:03Z</time>
      </trkpt>
      <trkpt lat="38.4778060" lon="-0.6511320">
        <ele>653.0</ele>
        <time>2018-10-27T06:14:06Z</time>
      </trkpt>
      <trkpt lat="38.4778490" lon="-0.6511220">
        <ele>653.4</ele>
        <time>2018-10-27T06:14:08Z</time>
      </trkpt>
      <trkpt lat="38.4778920" lon="-0.6511240">
        <ele>654.2</ele>
        <time>2018-10-27T06:14:10Z</time>
      </trkpt>
      <trkpt lat="38.4779820" lon="-0.6511450">
        <ele>654.6</ele>
        <time>2018-10-27T06:14:14Z</time>
      </trkpt>
      <trkpt lat="38.4781450" lon="-0.6512600">
        <ele>654.6</ele>
        <time>2018-10-27T06:14:22Z</time>
      </trkpt>
      <trkpt lat="38.4781650" lon="-0.6512710">
        <ele>654.6</ele>
        <time>2018-10-27T06:14:23Z</time>
      </trkpt>
      <trkpt lat="38.4782050" lon="-0.6512920">
        <ele>654.4</ele>
        <time>2018-10-27T06:14:25Z</time>
      </trkpt>
      <trkpt lat="38.4782450" lon="-0.6513130">
        <ele>654.4</ele>
        <time>2018-10-27T06:14:27Z</time>
      </trkpt>
      <trkpt lat="38.4783290" lon="-0.6513750">
        <ele>654.8</ele>
        <time>2018-10-27T06:14:31Z</time>
      </trkpt>
      <trkpt lat="38.4783490" lon="-0.6513870">
        <ele>655.2</ele>
        <time>2018-10-27T06:14:32Z</time>
      </trkpt>
      <trkpt lat="38.4784270" lon="-0.6514240">
        <ele>656.0</ele>
        <time>2018-10-27T06:14:36Z</time>
      </trkpt>
      <trkpt lat="38.4784660" lon="-0.6514420">
        <ele>656.2</ele>
        <time>2018-10-27T06:14:38Z</time>
      </trkpt>
      <trkpt lat="38.4785260" lon="-0.6514700">
        <ele>656.6</ele>
        <time>2018-10-27T06:14:41Z</time>
      </trkpt>
      <trkpt lat="38.4786240" lon="-0.6515160">
        <ele>657.2</ele>
        <time>2018-10-27T06:14:46Z</time>
      </trkpt>
      <trkpt lat="38.4786440" lon="-0.6515220">
        <ele>657.4</ele>
        <time>2018-10-27T06:14:47Z</time>
      </trkpt>
      <trkpt lat="38.4787590" lon="-0.6516000">
        <ele>657.6</ele>
        <time>2018-10-27T06:14:53Z</time>
      </trkpt>
      <trkpt lat="38.4788120" lon="-0.6516370">
        <ele>658.8</ele>
        <time>2018-10-27T06:14:56Z</time>
      </trkpt>
      <trkpt lat="38.4788460" lon="-0.6516610">
        <ele>659.4</ele>
        <time>2018-10-27T06:14:58Z</time>
      </trkpt>
      <trkpt lat="38.4788940" lon="-0.6517050">
        <ele>659.8</ele>
        <time>2018-10-27T06:15:01Z</time>
      </trkpt>
      <trkpt lat="38.4789490" lon="-0.6517500">
        <ele>660.4</ele>
        <time>2018-10-27T06:15:04Z</time>
      </trkpt>
      <trkpt lat="38.4790650" lon="-0.6518360">
        <ele>660.6</ele>
        <time>2018-10-27T06:15:10Z</time>
      </trkpt>
      <trkpt lat="38.4791270" lon="-0.6518740">
        <ele>661.0</ele>
        <time>2018-10-27T06:15:13Z</time>
      </trkpt>
      <trkpt lat="38.4792090" lon="-0.6519350">
        <ele>661.6</ele>
        <time>2018-10-27T06:15:17Z</time>
      </trkpt>
      <trkpt lat="38.4792690" lon="-0.6519740">
        <ele>662.2</ele>
        <time>2018-10-27T06:15:20Z</time>
      </trkpt>
      <trkpt lat="38.4793090" lon="-0.6520010">
        <ele>662.4</ele>
        <time>2018-10-27T06:15:22Z</time>
      </trkpt>
      <trkpt lat="38.4793520" lon="-0.6520230">
        <ele>662.6</ele>
        <time>2018-10-27T06:15:24Z</time>
      </trkpt>
      <trkpt lat="38.4793960" lon="-0.6520420">
        <ele>663.2</ele>
        <time>2018-10-27T06:15:26Z</time>
      </trkpt>
      <trkpt lat="38.4794830" lon="-0.6520850">
        <ele>664.4</ele>
        <time>2018-10-27T06:15:30Z</time>
      </trkpt>
      <trkpt lat="38.4795400" lon="-0.6521170">
        <ele>665.0</ele>
        <time>2018-10-27T06:15:33Z</time>
      </trkpt>
      <trkpt lat="38.4796010" lon="-0.6521450">
        <ele>665.2</ele>
        <time>2018-10-27T06:15:36Z</time>
      </trkpt>
      <trkpt lat="38.4796780" lon="-0.6521930">
        <ele>665.4</ele>
        <time>2018-10-27T06:15:40Z</time>
      </trkpt>
      <trkpt lat="38.4797790" lon="-0.6522390">
        <ele>665.8</ele>
        <time>2018-10-27T06:15:45Z</time>
      </trkpt>
      <trkpt lat="38.4798850" lon="-0.6522810">
        <ele>666.4</ele>
        <time>2018-10-27T06:15:50Z</time>
      </trkpt>
      <trkpt lat="38.4799060" lon="-0.6522950">
        <ele>666.6</ele>
        <time>2018-10-27T06:15:51Z</time>
      </trkpt>
      <trkpt lat="38.4800000" lon="-0.6524020">
        <ele>667.2</ele>
        <time>2018-10-27T06:15:57Z</time>
      </trkpt>
      <trkpt lat="38.4800130" lon="-0.6524240">
        <ele>667.6</ele>
        <time>2018-10-27T06:15:58Z</time>
      </trkpt>
      <trkpt lat="38.4800540" lon="-0.6524820">
        <ele>667.4</ele>
        <time>2018-10-27T06:16:01Z</time>
      </trkpt>
      <trkpt lat="38.4800840" lon="-0.6525190">
        <ele>667.4</ele>
        <time>2018-10-27T06:16:03Z</time>
      </trkpt>
      <trkpt lat="38.4802160" lon="-0.6526170">
        <ele>668.6</ele>
        <time>2018-10-27T06:16:10Z</time>
      </trkpt>
      <trkpt lat="38.4802360" lon="-0.6526300">
        <ele>668.8</ele>
        <time>2018-10-27T06:16:11Z</time>
      </trkpt>
      <trkpt lat="38.4802570" lon="-0.6526440">
        <ele>669.0</ele>
        <time>2018-10-27T06:16:12Z</time>
      </trkpt>
      <trkpt lat="38.4803740" lon="-0.6527240">
        <ele>669.2</ele>
        <time>2018-10-27T06:16:18Z</time>
      </trkpt>
      <trkpt lat="38.4804220" lon="-0.6527740">
        <ele>670.0</ele>
        <time>2018-10-27T06:16:21Z</time>
      </trkpt>
      <trkpt lat="38.4804630" lon="-0.6528370">
        <ele>670.6</ele>
        <time>2018-10-27T06:16:24Z</time>
      </trkpt>
      <trkpt lat="38.4805580" lon="-0.6529520">
        <ele>670.8</ele>
        <time>2018-10-27T06:16:30Z</time>
      </trkpt>
      <trkpt lat="38.4805930" lon="-0.6529860">
        <ele>671.2</ele>
        <time>2018-10-27T06:16:32Z</time>
      </trkpt>
      <trkpt lat="38.4806600" lon="-0.6530510">
        <ele>671.4</ele>
        <time>2018-10-27T06:16:36Z</time>
      </trkpt>
      <trkpt lat="38.4807320" lon="-0.6531150">
        <ele>672.2</ele>
        <time>2018-10-27T06:16:40Z</time>
      </trkpt>
      <trkpt lat="38.4807970" lon="-0.6531840">
        <ele>673.2</ele>
        <time>2018-10-27T06:16:44Z</time>
      </trkpt>
      <trkpt lat="38.4808270" lon="-0.6532210">
        <ele>673.8</ele>
        <time>2018-10-27T06:16:46Z</time>
      </trkpt>
      <trkpt lat="38.4809350" lon="-0.6533440">
        <ele>674.4</ele>
        <time>2018-10-27T06:16:53Z</time>
      </trkpt>
      <trkpt lat="38.4810240" lon="-0.6534600">
        <ele>674.8</ele>
        <time>2018-10-27T06:16:59Z</time>
      </trkpt>
      <trkpt lat="38.4811060" lon="-0.6535590">
        <ele>675.2</ele>
        <time>2018-10-27T06:17:05Z</time>
      </trkpt>
      <trkpt lat="38.4811370" lon="-0.6535920">
        <ele>675.6</ele>
        <time>2018-10-27T06:17:07Z</time>
      </trkpt>
      <trkpt lat="38.4812000" lon="-0.6536780">
        <ele>676.2</ele>
        <time>2018-10-27T06:17:11Z</time>
      </trkpt>
      <trkpt lat="38.4812120" lon="-0.6537040">
        <ele>676.2</ele>
        <time>2018-10-27T06:17:12Z</time>
      </trkpt>
      <trkpt lat="38.4812900" lon="-0.6538410">
        <ele>676.2</ele>
        <time>2018-10-27T06:17:18Z</time>
      </trkpt>
      <trkpt lat="38.4813450" lon="-0.6539000">
        <ele>676.6</ele>
        <time>2018-10-27T06:17:21Z</time>
      </trkpt>
      <trkpt lat="38.4814290" lon="-0.6539850">
        <ele>677.2</ele>
        <time>2018-10-27T06:17:26Z</time>
      </trkpt>
      <trkpt lat="38.4814820" lon="-0.6540320">
        <ele>677.6</ele>
        <time>2018-10-27T06:17:29Z</time>
      </trkpt>
      <trkpt lat="38.4816010" lon="-0.6541200">
        <ele>678.6</ele>
        <time>2018-10-27T06:17:35Z</time>
      </trkpt>
      <trkpt lat="38.4816210" lon="-0.6541350">
        <ele>679.2</ele>
        <time>2018-10-27T06:17:36Z</time>
      </trkpt>
      <trkpt lat="38.4816400" lon="-0.6541510">
        <ele>680.2</ele>
        <time>2018-10-27T06:17:37Z</time>
      </trkpt>
      <trkpt lat="38.4816610" lon="-0.6541650">
        <ele>681.4</ele>
        <time>2018-10-27T06:17:38Z</time>
      </trkpt>
      <trkpt lat="38.4817000" lon="-0.6542020">
        <ele>682.4</ele>
        <time>2018-10-27T06:17:40Z</time>
      </trkpt>
      <trkpt lat="38.4818380" lon="-0.6542980">
        <ele>683.6</ele>
        <time>2018-10-27T06:17:46Z</time>
      </trkpt>
      <trkpt lat="38.4819720" lon="-0.6543470">
        <ele>683.6</ele>
        <time>2018-10-27T06:17:51Z</time>
      </trkpt>
      <trkpt lat="38.4821500" lon="-0.6543640">
        <ele>682.2</ele>
        <time>2018-10-27T06:17:58Z</time>
      </trkpt>
      <trkpt lat="38.4822730" lon="-0.6543510">
        <ele>680.8</ele>
        <time>2018-10-27T06:18:03Z</time>
      </trkpt>
      <trkpt lat="38.4823250" lon="-0.6543380">
        <ele>679.4</ele>
        <time>2018-10-27T06:18:05Z</time>
      </trkpt>
      <trkpt lat="38.4824340" lon="-0.6543410">
        <ele>678.4</ele>
        <time>2018-10-27T06:18:10Z</time>
      </trkpt>
      <trkpt lat="38.4824590" lon="-0.6543460">
        <ele>678.4</ele>
        <time>2018-10-27T06:18:11Z</time>
      </trkpt>
      <trkpt lat="38.4825800" lon="-0.6543680">
        <ele>678.2</ele>
        <time>2018-10-27T06:18:16Z</time>
      </trkpt>
      <trkpt lat="38.4827340" lon="-0.6544380">
        <ele>677.8</ele>
        <time>2018-10-27T06:18:23Z</time>
      </trkpt>
      <trkpt lat="38.4827960" lon="-0.6544870">
        <ele>677.8</ele>
        <time>2018-10-27T06:18:26Z</time>
      </trkpt>
      <trkpt lat="38.4828340" lon="-0.6545190">
        <ele>677.6</ele>
        <time>2018-10-27T06:18:28Z</time>
      </trkpt>
      <trkpt lat="38.4828560" lon="-0.6545320">
        <ele>677.4</ele>
        <time>2018-10-27T06:18:29Z</time>
      </trkpt>
      <trkpt lat="38.4829670" lon="-0.6545500">
        <ele>677.0</ele>
        <time>2018-10-27T06:18:34Z</time>
      </trkpt>
      <trkpt lat="38.4830830" lon="-0.6545370">
        <ele>677.0</ele>
        <time>2018-10-27T06:18:40Z</time>
      </trkpt>
      <trkpt lat="38.4832130" lon="-0.6545160">
        <ele>678.0</ele>
        <time>2018-10-27T06:18:47Z</time>
      </trkpt>
      <trkpt lat="38.4832530" lon="-0.6545130">
        <ele>678.4</ele>
        <time>2018-10-27T06:18:49Z</time>
      </trkpt>
      <trkpt lat="38.4833130" lon="-0.6545110">
        <ele>679.6</ele>
        <time>2018-10-27T06:18:52Z</time>
      </trkpt>
      <trkpt lat="38.4833700" lon="-0.6545110">
        <ele>680.6</ele>
        <time>2018-10-27T06:18:55Z</time>
      </trkpt>
      <trkpt lat="38.4835030" lon="-0.6545140">
        <ele>681.4</ele>
        <time>2018-10-27T06:19:01Z</time>
      </trkpt>
      <trkpt lat="38.4835960" lon="-0.6545050">
        <ele>681.6</ele>
        <time>2018-10-27T06:19:05Z</time>
      </trkpt>
      <trkpt lat="38.4836660" lon="-0.6545020">
        <ele>682.0</ele>
        <time>2018-10-27T06:19:08Z</time>
      </trkpt>
      <trkpt lat="38.4838630" lon="-0.6544930">
        <ele>682.6</ele>
        <time>2018-10-27T06:19:16Z</time>
      </trkpt>
      <trkpt lat="38.4838910" lon="-0.6544910">
        <ele>682.8</ele>
        <time>2018-10-27T06:19:17Z</time>
      </trkpt>
      <trkpt lat="38.4840430" lon="-0.6544840">
        <ele>684.0</ele>
        <time>2018-10-27T06:19:23Z</time>
      </trkpt>
      <trkpt lat="38.4840930" lon="-0.6544780">
        <ele>684.2</ele>
        <time>2018-10-27T06:19:25Z</time>
      </trkpt>
      <trkpt lat="38.4842700" lon="-0.6544390">
        <ele>683.8</ele>
        <time>2018-10-27T06:19:33Z</time>
      </trkpt>
      <trkpt lat="38.4844450" lon="-0.6543750">
        <ele>683.0</ele>
        <time>2018-10-27T06:19:40Z</time>
      </trkpt>
      <trkpt lat="38.4844710" lon="-0.6543620">
        <ele>683.0</ele>
        <time>2018-10-27T06:19:41Z</time>
      </trkpt>
      <trkpt lat="38.4845200" lon="-0.6543260">
        <ele>682.8</ele>
        <time>2018-10-27T06:19:43Z</time>
      </trkpt>
      <trkpt lat="38.4845430" lon="-0.6543090">
        <ele>682.6</ele>
        <time>2018-10-27T06:19:44Z</time>
      </trkpt>
      <trkpt lat="38.4846320" lon="-0.6542440">
        <ele>682.0</ele>
        <time>2018-10-27T06:19:48Z</time>
      </trkpt>
      <trkpt lat="38.4846530" lon="-0.6542280">
        <ele>681.8</ele>
        <time>2018-10-27T06:19:49Z</time>
      </trkpt>
      <trkpt lat="38.4847830" lon="-0.6541150">
        <ele>681.4</ele>
        <time>2018-10-27T06:19:55Z</time>
      </trkpt>
      <trkpt lat="38.4848850" lon="-0.6540180">
        <ele>681.0</ele>
        <time>2018-10-27T06:20:00Z</time>
      </trkpt>
      <trkpt lat="38.4849230" lon="-0.6539830">
        <ele>680.8</ele>
        <time>2018-10-27T06:20:02Z</time>
      </trkpt>
      <trkpt lat="38.4849410" lon="-0.6539630">
        <ele>680.8</ele>
        <time>2018-10-27T06:20:03Z</time>
      </trkpt>
      <trkpt lat="38.4850430" lon="-0.6539120">
        <ele>680.6</ele>
        <time>2018-10-27T06:20:08Z</time>
      </trkpt>
      <trkpt lat="38.4852040" lon="-0.6538840">
        <ele>680.0</ele>
        <time>2018-10-27T06:20:15Z</time>
      </trkpt>
      <trkpt lat="38.4852300" lon="-0.6538820">
        <ele>679.8</ele>
        <time>2018-10-27T06:20:16Z</time>
      </trkpt>
      <trkpt lat="38.4852800" lon="-0.6538740">
        <ele>679.8</ele>
        <time>2018-10-27T06:20:18Z</time>
      </trkpt>
      <trkpt lat="38.4853050" lon="-0.6538700">
        <ele>679.8</ele>
        <time>2018-10-27T06:20:19Z</time>
      </trkpt>
      <trkpt lat="38.4853310" lon="-0.6538570">
        <ele>679.6</ele>
        <time>2018-10-27T06:20:20Z</time>
      </trkpt>
      <trkpt lat="38.4853720" lon="-0.6538270">
        <ele>679.6</ele>
        <time>2018-10-27T06:20:22Z</time>
      </trkpt>
      <trkpt lat="38.4855050" lon="-0.6537120">
        <ele>680.0</ele>
        <time>2018-10-27T06:20:30Z</time>
      </trkpt>
      <trkpt lat="38.4855320" lon="-0.6536710">
        <ele>680.0</ele>
        <time>2018-10-27T06:20:32Z</time>
      </trkpt>
      <trkpt lat="38.4855630" lon="-0.6536340">
        <ele>680.4</ele>
        <time>2018-10-27T06:20:34Z</time>
      </trkpt>
      <trkpt lat="38.4856180" lon="-0.6535590">
        <ele>680.4</ele>
        <time>2018-10-27T06:20:38Z</time>
      </trkpt>
      <trkpt lat="38.4856920" lon="-0.6534500">
        <ele>680.4</ele>
        <time>2018-10-27T06:20:43Z</time>
      </trkpt>
      <trkpt lat="38.4857060" lon="-0.6534380">
        <ele>680.4</ele>
        <time>2018-10-27T06:20:44Z</time>
      </trkpt>
      <trkpt lat="38.4857180" lon="-0.6534020">
        <ele>680.4</ele>
        <time>2018-10-27T06:20:46Z</time>
      </trkpt>
      <trkpt lat="38.4857100" lon="-0.6533590">
        <ele>680.6</ele>
        <time>2018-10-27T06:20:48Z</time>
      </trkpt>
      <trkpt lat="38.4857050" lon="-0.6533290">
        <ele>680.8</ele>
        <time>2018-10-27T06:20:50Z</time>
      </trkpt>
      <trkpt lat="38.4857050" lon="-0.6532830">
        <ele>682.2</ele>
        <time>2018-10-27T06:20:53Z</time>
      </trkpt>
      <trkpt lat="38.4857160" lon="-0.6532660">
        <ele>682.4</ele>
        <time>2018-10-27T06:20:54Z</time>
      </trkpt>
      <trkpt lat="38.4857530" lon="-0.6531770">
        <ele>683.2</ele>
        <time>2018-10-27T06:20:58Z</time>
      </trkpt>
      <trkpt lat="38.4857780" lon="-0.6531320">
        <ele>683.6</ele>
        <time>2018-10-27T06:21:00Z</time>
      </trkpt>
      <trkpt lat="38.4858150" lon="-0.6530540">
        <ele>684.6</ele>
        <time>2018-10-27T06:21:03Z</time>
      </trkpt>
      <trkpt lat="38.4858680" lon="-0.6529650">
        <ele>685.0</ele>
        <time>2018-10-27T06:21:07Z</time>
      </trkpt>
      <trkpt lat="38.4859000" lon="-0.6529320">
        <ele>685.8</ele>
        <time>2018-10-27T06:21:09Z</time>
      </trkpt>
      <trkpt lat="38.4860050" lon="-0.6528690">
        <ele>686.0</ele>
        <time>2018-10-27T06:21:14Z</time>
      </trkpt>
      <trkpt lat="38.4860700" lon="-0.6528310">
        <ele>686.0</ele>
        <time>2018-10-27T06:21:17Z</time>
      </trkpt>
      <trkpt lat="38.4861040" lon="-0.6528070">
        <ele>686.0</ele>
        <time>2018-10-27T06:21:19Z</time>
      </trkpt>
      <trkpt lat="38.4861220" lon="-0.6527920">
        <ele>686.2</ele>
        <time>2018-10-27T06:21:20Z</time>
      </trkpt>
      <trkpt lat="38.4862500" lon="-0.6527090">
        <ele>686.0</ele>
        <time>2018-10-27T06:21:27Z</time>
      </trkpt>
      <trkpt lat="38.4863440" lon="-0.6526770">
        <ele>686.8</ele>
        <time>2018-10-27T06:21:32Z</time>
      </trkpt>
      <trkpt lat="38.4864110" lon="-0.6526650">
        <ele>687.4</ele>
        <time>2018-10-27T06:21:35Z</time>
      </trkpt>
      <trkpt lat="38.4864890" lon="-0.6526590">
        <ele>688.0</ele>
        <time>2018-10-27T06:21:39Z</time>
      </trkpt>
      <trkpt lat="38.4866210" lon="-0.6526840">
        <ele>688.2</ele>
        <time>2018-10-27T06:21:44Z</time>
      </trkpt>
      <trkpt lat="38.4867860" lon="-0.6527530">
        <ele>688.8</ele>
        <time>2018-10-27T06:21:51Z</time>
      </trkpt>
      <trkpt lat="38.4868540" lon="-0.6527780">
        <ele>689.0</ele>
        <time>2018-10-27T06:21:54Z</time>
      </trkpt>
      <trkpt lat="38.4869130" lon="-0.6528080">
        <ele>689.4</ele>
        <time>2018-10-27T06:21:57Z</time>
      </trkpt>
      <trkpt lat="38.4869640" lon="-0.6528320">
        <ele>689.6</ele>
        <time>2018-10-27T06:22:00Z</time>
      </trkpt>
      <trkpt lat="38.4870040" lon="-0.6528460">
        <ele>690.0</ele>
        <time>2018-10-27T06:22:02Z</time>
      </trkpt>
      <trkpt lat="38.4870460" lon="-0.6528580">
        <ele>690.2</ele>
        <time>2018-10-27T06:22:04Z</time>
      </trkpt>
      <trkpt lat="38.4871350" lon="-0.6528570">
        <ele>691.2</ele>
        <time>2018-10-27T06:22:08Z</time>
      </trkpt>
      <trkpt lat="38.4871850" lon="-0.6528540">
        <ele>691.6</ele>
        <time>2018-10-27T06:22:10Z</time>
      </trkpt>
      <trkpt lat="38.4872540" lon="-0.6528570">
        <ele>692.2</ele>
        <time>2018-10-27T06:22:13Z</time>
      </trkpt>
      <trkpt lat="38.4873390" lon="-0.6528560">
        <ele>692.4</ele>
        <time>2018-10-27T06:22:17Z</time>
      </trkpt>
      <trkpt lat="38.4875060" lon="-0.6528490">
        <ele>692.2</ele>
        <time>2018-10-27T06:22:24Z</time>
      </trkpt>
      <trkpt lat="38.4876090" lon="-0.6527670">
        <ele>692.4</ele>
        <time>2018-10-27T06:22:30Z</time>
      </trkpt>
      <trkpt lat="38.4876340" lon="-0.6527470">
        <ele>692.4</ele>
        <time>2018-10-27T06:22:32Z</time>
      </trkpt>
      <trkpt lat="38.4877030" lon="-0.6527320">
        <ele>693.2</ele>
        <time>2018-10-27T06:22:36Z</time>
      </trkpt>
      <trkpt lat="38.4877200" lon="-0.6527320">
        <ele>693.4</ele>
        <time>2018-10-27T06:22:37Z</time>
      </trkpt>
      <trkpt lat="38.4878060" lon="-0.6527350">
        <ele>694.8</ele>
        <time>2018-10-27T06:22:41Z</time>
      </trkpt>
      <trkpt lat="38.4878520" lon="-0.6527440">
        <ele>695.0</ele>
        <time>2018-10-27T06:22:43Z</time>
      </trkpt>
      <trkpt lat="38.4878690" lon="-0.6527690">
        <ele>695.2</ele>
        <time>2018-10-27T06:22:44Z</time>
      </trkpt>
      <trkpt lat="38.4879140" lon="-0.6528380">
        <ele>696.0</ele>
        <time>2018-10-27T06:22:47Z</time>
      </trkpt>
      <trkpt lat="38.4879250" lon="-0.6528680">
        <ele>696.0</ele>
        <time>2018-10-27T06:22:48Z</time>
      </trkpt>
      <trkpt lat="38.4879390" lon="-0.6529980">
        <ele>696.2</ele>
        <time>2018-10-27T06:22:52Z</time>
      </trkpt>
      <trkpt lat="38.4879360" lon="-0.6530270">
        <ele>696.2</ele>
        <time>2018-10-27T06:22:53Z</time>
      </trkpt>
      <trkpt lat="38.4879970" lon="-0.6531420">
        <ele>697.0</ele>
        <time>2018-10-27T06:22:58Z</time>
      </trkpt>
      <trkpt lat="38.4881240" lon="-0.6532600">
        <ele>696.2</ele>
        <time>2018-10-27T06:23:05Z</time>
      </trkpt>
      <trkpt lat="38.4881890" lon="-0.6533810">
        <ele>696.2</ele>
        <time>2018-10-27T06:23:11Z</time>
      </trkpt>
      <trkpt lat="38.4882550" lon="-0.6534670">
        <ele>696.2</ele>
        <time>2018-10-27T06:23:16Z</time>
      </trkpt>
      <trkpt lat="38.4882700" lon="-0.6534790">
        <ele>696.2</ele>
        <time>2018-10-27T06:23:17Z</time>
      </trkpt>
      <trkpt lat="38.4883180" lon="-0.6535070">
        <ele>696.4</ele>
        <time>2018-10-27T06:23:20Z</time>
      </trkpt>
      <trkpt lat="38.4883870" lon="-0.6535210">
        <ele>697.0</ele>
        <time>2018-10-27T06:23:24Z</time>
      </trkpt>
      <trkpt lat="38.4884390" lon="-0.6535150">
        <ele>697.8</ele>
        <time>2018-10-27T06:23:27Z</time>
      </trkpt>
      <trkpt lat="38.4884600" lon="-0.6535100">
        <ele>698.4</ele>
        <time>2018-10-27T06:23:28Z</time>
      </trkpt>
      <trkpt lat="38.4885240" lon="-0.6534990">
        <ele>698.6</ele>
        <time>2018-10-27T06:23:31Z</time>
      </trkpt>
      <trkpt lat="38.4886070" lon="-0.6535140">
        <ele>698.8</ele>
        <time>2018-10-27T06:23:35Z</time>
      </trkpt>
      <trkpt lat="38.4886710" lon="-0.6535350">
        <ele>698.8</ele>
        <time>2018-10-27T06:23:38Z</time>
      </trkpt>
      <trkpt lat="38.4886980" lon="-0.6535690">
        <ele>698.8</ele>
        <time>2018-10-27T06:23:40Z</time>
      </trkpt>
      <trkpt lat="38.4887320" lon="-0.6536350">
        <ele>698.8</ele>
        <time>2018-10-27T06:23:43Z</time>
      </trkpt>
      <trkpt lat="38.4887670" lon="-0.6537850">
        <ele>698.8</ele>
        <time>2018-10-27T06:23:49Z</time>
      </trkpt>
      <trkpt lat="38.4887860" lon="-0.6539190">
        <ele>698.8</ele>
        <time>2018-10-27T06:23:54Z</time>
      </trkpt>
      <trkpt lat="38.4888130" lon="-0.6540140">
        <ele>699.2</ele>
        <time>2018-10-27T06:23:58Z</time>
      </trkpt>
      <trkpt lat="38.4888270" lon="-0.6540300">
        <ele>699.4</ele>
        <time>2018-10-27T06:23:59Z</time>
      </trkpt>
      <trkpt lat="38.4888440" lon="-0.6540440">
        <ele>699.4</ele>
        <time>2018-10-27T06:24:00Z</time>
      </trkpt>
      <trkpt lat="38.4889200" lon="-0.6540850">
        <ele>700.4</ele>
        <time>2018-10-27T06:24:04Z</time>
      </trkpt>
      <trkpt lat="38.4889380" lon="-0.6540920">
        <ele>700.6</ele>
        <time>2018-10-27T06:24:05Z</time>
      </trkpt>
      <trkpt lat="38.4890560" lon="-0.6540770">
        <ele>701.2</ele>
        <time>2018-10-27T06:24:12Z</time>
      </trkpt>
      <trkpt lat="38.4890680" lon="-0.6540660">
        <ele>701.4</ele>
        <time>2018-10-27T06:24:13Z</time>
      </trkpt>
      <trkpt lat="38.4890850" lon="-0.6540240">
        <ele>701.8</ele>
        <time>2018-10-27T06:24:17Z</time>
      </trkpt>
      <trkpt lat="38.4890950" lon="-0.6540110">
        <ele>702.0</ele>
        <time>2018-10-27T06:24:20Z</time>
      </trkpt>
      <trkpt lat="38.4890600" lon="-0.6540620">
        <ele>702.8</ele>
        <time>2018-10-27T06:24:27Z</time>
      </trkpt>
      <trkpt lat="38.4890630" lon="-0.6540710">
        <ele>702.4</ele>
        <time>2018-10-27T06:24:28Z</time>
      </trkpt>
      <trkpt lat="38.4890990" lon="-0.6540850">
        <ele>703.0</ele>
        <time>2018-10-27T06:24:31Z</time>
      </trkpt>
      <trkpt lat="38.4891450" lon="-0.6540870">
        <ele>703.2</ele>
        <time>2018-10-27T06:24:34Z</time>
      </trkpt>
      <trkpt lat="38.4892130" lon="-0.6540880">
        <ele>705.2</ele>
        <time>2018-10-27T06:24:38Z</time>
      </trkpt>
      <trkpt lat="38.4892270" lon="-0.6540890">
        <ele>704.0</ele>
        <time>2018-10-27T06:24:39Z</time>
      </trkpt>
      <trkpt lat="38.4892590" lon="-0.6541140">
        <ele>703.4</ele>
        <time>2018-10-27T06:24:42Z</time>
      </trkpt>
      <trkpt lat="38.4892970" lon="-0.6541620">
        <ele>703.8</ele>
        <time>2018-10-27T06:24:46Z</time>
      </trkpt>
      <trkpt lat="38.4893490" lon="-0.6541840">
        <ele>704.8</ele>
        <time>2018-10-27T06:24:49Z</time>
      </trkpt>
      <trkpt lat="38.4893690" lon="-0.6541940">
        <ele>705.0</ele>
        <time>2018-10-27T06:24:50Z</time>
      </trkpt>
      <trkpt lat="38.4894270" lon="-0.6542210">
        <ele>706.2</ele>
        <time>2018-10-27T06:24:53Z</time>
      </trkpt>
      <trkpt lat="38.4894850" lon="-0.6542930">
        <ele>706.8</ele>
        <time>2018-10-27T06:24:57Z</time>
      </trkpt>
      <trkpt lat="38.4895110" lon="-0.6543320">
        <ele>707.2</ele>
        <time>2018-10-27T06:24:59Z</time>
      </trkpt>
      <trkpt lat="38.4895810" lon="-0.6543740">
        <ele>707.6</ele>
        <time>2018-10-27T06:25:03Z</time>
      </trkpt>
      <trkpt lat="38.4896120" lon="-0.6543820">
        <ele>708.4</ele>
        <time>2018-10-27T06:25:06Z</time>
      </trkpt>
      <trkpt lat="38.4896530" lon="-0.6544410">
        <ele>707.6</ele>
        <time>2018-10-27T06:27:28Z</time>
      </trkpt>
      <trkpt lat="38.4896590" lon="-0.6544410">
        <ele>707.8</ele>
        <time>2018-10-27T06:27:29Z</time>
      </trkpt>
      <trkpt lat="38.4897450" lon="-0.6544410">
        <ele>709.0</ele>
        <time>2018-10-27T06:27:34Z</time>
      </trkpt>
      <trkpt lat="38.4897980" lon="-0.6544870">
        <ele>709.6</ele>
        <time>2018-10-27T06:27:37Z</time>
      </trkpt>
      <trkpt lat="38.4898060" lon="-0.6545160">
        <ele>709.8</ele>
        <time>2018-10-27T06:27:38Z</time>
      </trkpt>
      <trkpt lat="38.4898060" lon="-0.6545460">
        <ele>710.0</ele>
        <time>2018-10-27T06:27:39Z</time>
      </trkpt>
      <trkpt lat="38.4897860" lon="-0.6545930">
        <ele>710.2</ele>
        <time>2018-10-27T06:27:41Z</time>
      </trkpt>
      <trkpt lat="38.4897690" lon="-0.6546090">
        <ele>710.6</ele>
        <time>2018-10-27T06:27:42Z</time>
      </trkpt>
      <trkpt lat="38.4897300" lon="-0.6546240">
        <ele>711.0</ele>
        <time>2018-10-27T06:27:44Z</time>
      </trkpt>
      <trkpt lat="38.4897070" lon="-0.6546250">
        <ele>711.2</ele>
        <time>2018-10-27T06:27:45Z</time>
      </trkpt>
      <trkpt lat="38.4896620" lon="-0.6546310">
        <ele>711.6</ele>
        <time>2018-10-27T06:27:47Z</time>
      </trkpt>
      <trkpt lat="38.4896380" lon="-0.6546310">
        <ele>711.8</ele>
        <time>2018-10-27T06:27:48Z</time>
      </trkpt>
      <trkpt lat="38.4895880" lon="-0.6546280">
        <ele>712.0</ele>
        <time>2018-10-27T06:27:50Z</time>
      </trkpt>
      <trkpt lat="38.4895440" lon="-0.6546180">
        <ele>712.2</ele>
        <time>2018-10-27T06:27:52Z</time>
      </trkpt>
      <trkpt lat="38.4894920" lon="-0.6546040">
        <ele>712.6</ele>
        <time>2018-10-27T06:27:54Z</time>
      </trkpt>
      <trkpt lat="38.4894450" lon="-0.6546000">
        <ele>712.8</ele>
        <time>2018-10-27T06:27:56Z</time>
      </trkpt>
      <trkpt lat="38.4894070" lon="-0.6546340">
        <ele>713.4</ele>
        <time>2018-10-27T06:27:58Z</time>
      </trkpt>
      <trkpt lat="38.4893930" lon="-0.6546580">
        <ele>713.6</ele>
        <time>2018-10-27T06:27:59Z</time>
      </trkpt>
      <trkpt lat="38.4893860" lon="-0.6546820">
        <ele>713.6</ele>
        <time>2018-10-27T06:28:00Z</time>
      </trkpt>
      <trkpt lat="38.4893880" lon="-0.6547230">
        <ele>714.0</ele>
        <time>2018-10-27T06:28:02Z</time>
      </trkpt>
      <trkpt lat="38.4893930" lon="-0.6547390">
        <ele>714.0</ele>
        <time>2018-10-27T06:28:03Z</time>
      </trkpt>
      <trkpt lat="38.4894130" lon="-0.6547740">
        <ele>714.2</ele>
        <time>2018-10-27T06:28:05Z</time>
      </trkpt>
      <trkpt lat="38.4894450" lon="-0.6547950">
        <ele>715.2</ele>
        <time>2018-10-27T06:28:07Z</time>
      </trkpt>
      <trkpt lat="38.4894810" lon="-0.6548090">
        <ele>715.4</ele>
        <time>2018-10-27T06:28:09Z</time>
      </trkpt>
      <trkpt lat="38.4895660" lon="-0.6548150">
        <ele>716.6</ele>
        <time>2018-10-27T06:28:13Z</time>
      </trkpt>
      <trkpt lat="38.4896060" lon="-0.6548390">
        <ele>718.0</ele>
        <time>2018-10-27T06:28:15Z</time>
      </trkpt>
      <trkpt lat="38.4896450" lon="-0.6548730">
        <ele>719.2</ele>
        <time>2018-10-27T06:28:17Z</time>
      </trkpt>
      <trkpt lat="38.4897200" lon="-0.6549530">
        <ele>720.2</ele>
        <time>2018-10-27T06:28:22Z</time>
      </trkpt>
      <trkpt lat="38.4897920" lon="-0.6550270">
        <ele>721.2</ele>
        <time>2018-10-27T06:28:27Z</time>
      </trkpt>
      <trkpt lat="38.4898030" lon="-0.6550410">
        <ele>721.6</ele>
        <time>2018-10-27T06:28:28Z</time>
      </trkpt>
      <trkpt lat="38.4898360" lon="-0.6550820">
        <ele>722.4</ele>
        <time>2018-10-27T06:28:31Z</time>
      </trkpt>
      <trkpt lat="38.4898630" lon="-0.6551280">
        <ele>722.8</ele>
        <time>2018-10-27T06:28:34Z</time>
      </trkpt>
      <trkpt lat="38.4898870" lon="-0.6551830">
        <ele>723.6</ele>
        <time>2018-10-27T06:28:38Z</time>
      </trkpt>
      <trkpt lat="38.4898950" lon="-0.6552140">
        <ele>723.8</ele>
        <time>2018-10-27T06:28:40Z</time>
      </trkpt>
      <trkpt lat="38.4899000" lon="-0.6552570">
        <ele>724.2</ele>
        <time>2018-10-27T06:28:42Z</time>
      </trkpt>
      <trkpt lat="38.4899050" lon="-0.6552920">
        <ele>724.6</ele>
        <time>2018-10-27T06:28:44Z</time>
      </trkpt>
      <trkpt lat="38.4899090" lon="-0.6553080">
        <ele>724.8</ele>
        <time>2018-10-27T06:28:45Z</time>
      </trkpt>
      <trkpt lat="38.4899320" lon="-0.6553430">
        <ele>725.8</ele>
        <time>2018-10-27T06:28:48Z</time>
      </trkpt>
      <trkpt lat="38.4899430" lon="-0.6553490">
        <ele>726.2</ele>
        <time>2018-10-27T06:28:49Z</time>
      </trkpt>
      <trkpt lat="38.4899590" lon="-0.6553650">
        <ele>727.2</ele>
        <time>2018-10-27T06:28:51Z</time>
      </trkpt>
      <trkpt lat="38.4899960" lon="-0.6553860">
        <ele>728.4</ele>
        <time>2018-10-27T06:28:54Z</time>
      </trkpt>
      <trkpt lat="38.4900270" lon="-0.6554070">
        <ele>729.8</ele>
        <time>2018-10-27T06:28:57Z</time>
      </trkpt>
      <trkpt lat="38.4900550" lon="-0.6554190">
        <ele>730.6</ele>
        <time>2018-10-27T06:28:59Z</time>
      </trkpt>
      <trkpt lat="38.4900660" lon="-0.6554280">
        <ele>730.8</ele>
        <time>2018-10-27T06:29:00Z</time>
      </trkpt>
      <trkpt lat="38.4900770" lon="-0.6554310">
        <ele>731.0</ele>
        <time>2018-10-27T06:29:01Z</time>
      </trkpt>
      <trkpt lat="38.4901140" lon="-0.6554320">
        <ele>732.2</ele>
        <time>2018-10-27T06:29:05Z</time>
      </trkpt>
      <trkpt lat="38.4901250" lon="-0.6554340">
        <ele>732.4</ele>
        <time>2018-10-27T06:29:06Z</time>
      </trkpt>
      <trkpt lat="38.4901550" lon="-0.6554470">
        <ele>733.4</ele>
        <time>2018-10-27T06:29:09Z</time>
      </trkpt>
      <trkpt lat="38.4901810" lon="-0.6554750">
        <ele>734.2</ele>
        <time>2018-10-27T06:29:12Z</time>
      </trkpt>
      <trkpt lat="38.4901920" lon="-0.6554790">
        <ele>734.4</ele>
        <time>2018-10-27T06:29:13Z</time>
      </trkpt>
      <trkpt lat="38.4902310" lon="-0.6554920">
        <ele>735.2</ele>
        <time>2018-10-27T06:29:16Z</time>
      </trkpt>
      <trkpt lat="38.4902400" lon="-0.6554990">
        <ele>735.6</ele>
        <time>2018-10-27T06:29:17Z</time>
      </trkpt>
      <trkpt lat="38.4902500" lon="-0.6555070">
        <ele>735.8</ele>
        <time>2018-10-27T06:29:18Z</time>
      </trkpt>
      <trkpt lat="38.4903020" lon="-0.6555640">
        <ele>736.8</ele>
        <time>2018-10-27T06:29:23Z</time>
      </trkpt>
      <trkpt lat="38.4903310" lon="-0.6556020">
        <ele>738.0</ele>
        <time>2018-10-27T06:29:27Z</time>
      </trkpt>
      <trkpt lat="38.4903570" lon="-0.6556400">
        <ele>738.8</ele>
        <time>2018-10-27T06:29:30Z</time>
      </trkpt>
      <trkpt lat="38.4903690" lon="-0.6556480">
        <ele>739.4</ele>
        <time>2018-10-27T06:29:31Z</time>
      </trkpt>
      <trkpt lat="38.4904010" lon="-0.6556710">
        <ele>740.4</ele>
        <time>2018-10-27T06:29:35Z</time>
      </trkpt>
      <trkpt lat="38.4904060" lon="-0.6556750">
        <ele>740.4</ele>
        <time>2018-10-27T06:29:36Z</time>
      </trkpt>
      <trkpt lat="38.4904140" lon="-0.6556880">
        <ele>740.8</ele>
        <time>2018-10-27T06:29:38Z</time>
      </trkpt>
      <trkpt lat="38.4904560" lon="-0.6557060">
        <ele>741.4</ele>
        <time>2018-10-27T06:29:42Z</time>
      </trkpt>
      <trkpt lat="38.4904770" lon="-0.6557030">
        <ele>741.8</ele>
        <time>2018-10-27T06:29:43Z</time>
      </trkpt>
      <trkpt lat="38.4905620" lon="-0.6556800">
        <ele>742.8</ele>
        <time>2018-10-27T06:29:47Z</time>
      </trkpt>
      <trkpt lat="38.4905810" lon="-0.6556730">
        <ele>742.8</ele>
        <time>2018-10-27T06:29:48Z</time>
      </trkpt>
      <trkpt lat="38.4906020" lon="-0.6556660">
        <ele>743.0</ele>
        <time>2018-10-27T06:29:49Z</time>
      </trkpt>
      <trkpt lat="38.4906640" lon="-0.6556510">
        <ele>743.2</ele>
        <time>2018-10-27T06:29:52Z</time>
      </trkpt>
      <trkpt lat="38.4907150" lon="-0.6556340">
        <ele>743.8</ele>
        <time>2018-10-27T06:29:55Z</time>
      </trkpt>
      <trkpt lat="38.4907310" lon="-0.6556270">
        <ele>743.8</ele>
        <time>2018-10-27T06:29:56Z</time>
      </trkpt>
      <trkpt lat="38.4907460" lon="-0.6556200">
        <ele>744.0</ele>
        <time>2018-10-27T06:29:57Z</time>
      </trkpt>
      <trkpt lat="38.4907850" lon="-0.6556010">
        <ele>744.2</ele>
        <time>2018-10-27T06:30:00Z</time>
      </trkpt>
      <trkpt lat="38.4907960" lon="-0.6555890">
        <ele>744.2</ele>
        <time>2018-10-27T06:30:01Z</time>
      </trkpt>
      <trkpt lat="38.4908160" lon="-0.6555650">
        <ele>744.6</ele>
        <time>2018-10-27T06:30:03Z</time>
      </trkpt>
      <trkpt lat="38.4908510" lon="-0.6555230">
        <ele>745.2</ele>
        <time>2018-10-27T06:30:06Z</time>
      </trkpt>
      <trkpt lat="38.4908820" lon="-0.6554830">
        <ele>746.0</ele>
        <time>2018-10-27T06:30:09Z</time>
      </trkpt>
      <trkpt lat="38.4908940" lon="-0.6554730">
        <ele>746.4</ele>
        <time>2018-10-27T06:30:10Z</time>
      </trkpt>
      <trkpt lat="38.4909160" lon="-0.6554550">
        <ele>746.6</ele>
        <time>2018-10-27T06:30:12Z</time>
      </trkpt>
      <trkpt lat="38.4909290" lon="-0.6554430">
        <ele>746.8</ele>
        <time>2018-10-27T06:30:13Z</time>
      </trkpt>
      <trkpt lat="38.4909920" lon="-0.6553960">
        <ele>747.6</ele>
        <time>2018-10-27T06:30:17Z</time>
      </trkpt>
      <trkpt lat="38.4911490" lon="-0.6553630">
        <ele>748.4</ele>
        <time>2018-10-27T06:30:24Z</time>
      </trkpt>
      <trkpt lat="38.4911720" lon="-0.6553530">
        <ele>748.8</ele>
        <time>2018-10-27T06:30:25Z</time>
      </trkpt>
      <trkpt lat="38.4912100" lon="-0.6553330">
        <ele>749.6</ele>
        <time>2018-10-27T06:30:27Z</time>
      </trkpt>
      <trkpt lat="38.4912270" lon="-0.6553250">
        <ele>750.2</ele>
        <time>2018-10-27T06:30:28Z</time>
      </trkpt>
      <trkpt lat="38.4912660" lon="-0.6553100">
        <ele>750.8</ele>
        <time>2018-10-27T06:30:30Z</time>
      </trkpt>
      <trkpt lat="38.4913240" lon="-0.6552840">
        <ele>751.2</ele>
        <time>2018-10-27T06:30:33Z</time>
      </trkpt>
      <trkpt lat="38.4914110" lon="-0.6552540">
        <ele>751.4</ele>
        <time>2018-10-27T06:30:38Z</time>
      </trkpt>
      <trkpt lat="38.4915390" lon="-0.6552000">
        <ele>752.0</ele>
        <time>2018-10-27T06:30:45Z</time>
      </trkpt>
      <trkpt lat="38.4915830" lon="-0.6551860">
        <ele>752.0</ele>
        <time>2018-10-27T06:30:47Z</time>
      </trkpt>
      <trkpt lat="38.4916860" lon="-0.6551400">
        <ele>752.0</ele>
        <time>2018-10-27T06:30:52Z</time>
      </trkpt>
      <trkpt lat="38.4917220" lon="-0.6551310">
        <ele>752.2</ele>
        <time>2018-10-27T06:30:54Z</time>
      </trkpt>
      <trkpt lat="38.4918190" lon="-0.6551570">
        <ele>753.0</ele>
        <time>2018-10-27T06:30:59Z</time>
      </trkpt>
      <trkpt lat="38.4918600" lon="-0.6551880">
        <ele>753.2</ele>
        <time>2018-10-27T06:31:02Z</time>
      </trkpt>
      <trkpt lat="38.4919080" lon="-0.6552130">
        <ele>753.8</ele>
        <time>2018-10-27T06:31:05Z</time>
      </trkpt>
      <trkpt lat="38.4919800" lon="-0.6552280">
        <ele>754.2</ele>
        <time>2018-10-27T06:31:09Z</time>
      </trkpt>
      <trkpt lat="38.4920420" lon="-0.6552150">
        <ele>754.6</ele>
        <time>2018-10-27T06:31:12Z</time>
      </trkpt>
      <trkpt lat="38.4921670" lon="-0.6551870">
        <ele>755.2</ele>
        <time>2018-10-27T06:31:18Z</time>
      </trkpt>
      <trkpt lat="38.4922110" lon="-0.6551650">
        <ele>755.4</ele>
        <time>2018-10-27T06:31:20Z</time>
      </trkpt>
      <trkpt lat="38.4923320" lon="-0.6550650">
        <ele>756.4</ele>
        <time>2018-10-27T06:31:27Z</time>
      </trkpt>
      <trkpt lat="38.4923510" lon="-0.6550470">
        <ele>756.4</ele>
        <time>2018-10-27T06:31:28Z</time>
      </trkpt>
      <trkpt lat="38.4924020" lon="-0.6549920">
        <ele>756.6</ele>
        <time>2018-10-27T06:31:31Z</time>
      </trkpt>
      <trkpt lat="38.4924570" lon="-0.6549370">
        <ele>756.8</ele>
        <time>2018-10-27T06:31:34Z</time>
      </trkpt>
      <trkpt lat="38.4925960" lon="-0.6548110">
        <ele>757.2</ele>
        <time>2018-10-27T06:31:42Z</time>
      </trkpt>
      <trkpt lat="38.4926300" lon="-0.6547790">
        <ele>757.6</ele>
        <time>2018-10-27T06:31:44Z</time>
      </trkpt>
      <trkpt lat="38.4927150" lon="-0.6546880">
        <ele>758.8</ele>
        <time>2018-10-27T06:31:49Z</time>
      </trkpt>
      <trkpt lat="38.4927510" lon="-0.6546530">
        <ele>759.4</ele>
        <time>2018-10-27T06:31:51Z</time>
      </trkpt>
      <trkpt lat="38.4927900" lon="-0.6546330">
        <ele>760.0</ele>
        <time>2018-10-27T06:31:53Z</time>
      </trkpt>
      <trkpt lat="38.4928810" lon="-0.6545810">
        <ele>760.4</ele>
        <time>2018-10-27T06:31:58Z</time>
      </trkpt>
      <trkpt lat="38.4929930" lon="-0.6545010">
        <ele>760.8</ele>
        <time>2018-10-27T06:32:03Z</time>
      </trkpt>
      <trkpt lat="38.4930620" lon="-0.6544680">
        <ele>761.0</ele>
        <time>2018-10-27T06:32:06Z</time>
      </trkpt>
      <trkpt lat="38.4930890" lon="-0.6544700">
        <ele>761.0</ele>
        <time>2018-10-27T06:32:07Z</time>
      </trkpt>
      <trkpt lat="38.4932790" lon="-0.6544900">
        <ele>760.6</ele>
        <time>2018-10-27T06:32:14Z</time>
      </trkpt>
      <trkpt lat="38.4933540" lon="-0.6544870">
        <ele>759.6</ele>
        <time>2018-10-27T06:32:17Z</time>
      </trkpt>
      <trkpt lat="38.4934620" lon="-0.6544610">
        <ele>758.6</ele>
        <time>2018-10-27T06:32:22Z</time>
      </trkpt>
      <trkpt lat="38.4936320" lon="-0.6544080">
        <ele>758.6</ele>
        <time>2018-10-27T06:32:31Z</time>
      </trkpt>
      <trkpt lat="38.4936890" lon="-0.6542950">
        <ele>758.8</ele>
        <time>2018-10-27T06:32:37Z</time>
      </trkpt>
      <trkpt lat="38.4937650" lon="-0.6541800">
        <ele>759.4</ele>
        <time>2018-10-27T06:32:45Z</time>
      </trkpt>
      <trkpt lat="38.4938230" lon="-0.6541490">
        <ele>759.8</ele>
        <time>2018-10-27T06:32:47Z</time>
      </trkpt>
      <trkpt lat="38.4939950" lon="-0.6540740">
        <ele>761.0</ele>
        <time>2018-10-27T06:32:50Z</time>
      </trkpt>
      <trkpt lat="38.4940270" lon="-0.6540720">
        <ele>761.4</ele>
        <time>2018-10-27T06:32:51Z</time>
      </trkpt>
      <trkpt lat="38.4941340" lon="-0.6541320">
        <ele>762.2</ele>
        <time>2018-10-27T06:32:57Z</time>
      </trkpt>
      <trkpt lat="38.4941890" lon="-0.6542590">
        <ele>763.2</ele>
        <time>2018-10-27T06:33:02Z</time>
      </trkpt>
      <trkpt lat="38.4942010" lon="-0.6542840">
        <ele>763.4</ele>
        <time>2018-10-27T06:33:03Z</time>
      </trkpt>
      <trkpt lat="38.4942670" lon="-0.6543690">
        <ele>764.2</ele>
        <time>2018-10-27T06:33:07Z</time>
      </trkpt>
      <trkpt lat="38.4942870" lon="-0.6543730">
        <ele>764.2</ele>
        <time>2018-10-27T06:33:08Z</time>
      </trkpt>
      <trkpt lat="38.4942900" lon="-0.6543940">
        <ele>764.4</ele>
        <time>2018-10-27T06:33:09Z</time>
      </trkpt>
      <trkpt lat="38.4943510" lon="-0.6544880">
        <ele>764.6</ele>
        <time>2018-10-27T06:33:16Z</time>
      </trkpt>
      <trkpt lat="38.4943760" lon="-0.6546270">
        <ele>765.0</ele>
        <time>2018-10-27T06:33:21Z</time>
      </trkpt>
      <trkpt lat="38.4943760" lon="-0.6546550">
        <ele>765.4</ele>
        <time>2018-10-27T06:33:22Z</time>
      </trkpt>
      <trkpt lat="38.4943870" lon="-0.6547920">
        <ele>766.4</ele>
        <time>2018-10-27T06:33:27Z</time>
      </trkpt>
      <trkpt lat="38.4943950" lon="-0.6548620">
        <ele>766.8</ele>
        <time>2018-10-27T06:33:31Z</time>
      </trkpt>
      <trkpt lat="38.4943900" lon="-0.6548940">
        <ele>766.8</ele>
        <time>2018-10-27T06:33:32Z</time>
      </trkpt>
      <trkpt lat="38.4943890" lon="-0.6549900">
        <ele>767.2</ele>
        <time>2018-10-27T06:33:36Z</time>
      </trkpt>
      <trkpt lat="38.4943970" lon="-0.6550550">
        <ele>767.4</ele>
        <time>2018-10-27T06:33:39Z</time>
      </trkpt>
      <trkpt lat="38.4944040" lon="-0.6550940">
        <ele>767.6</ele>
        <time>2018-10-27T06:33:41Z</time>
      </trkpt>
      <trkpt lat="38.4944070" lon="-0.6551420">
        <ele>768.0</ele>
        <time>2018-10-27T06:33:43Z</time>
      </trkpt>
      <trkpt lat="38.4944180" lon="-0.6551930">
        <ele>768.8</ele>
        <time>2018-10-27T06:33:45Z</time>
      </trkpt>
      <trkpt lat="38.4944390" lon="-0.6552660">
        <ele>769.8</ele>
        <time>2018-10-27T06:33:49Z</time>
      </trkpt>
      <trkpt lat="38.4944420" lon="-0.6552840">
        <ele>770.0</ele>
        <time>2018-10-27T06:33:50Z</time>
      </trkpt>
      <trkpt lat="38.4944720" lon="-0.6553460">
        <ele>771.2</ele>
        <time>2018-10-27T06:33:54Z</time>
      </trkpt>
      <trkpt lat="38.4944880" lon="-0.6553780">
        <ele>771.4</ele>
        <time>2018-10-27T06:33:56Z</time>
      </trkpt>
      <trkpt lat="38.4945060" lon="-0.6554260">
        <ele>772.2</ele>
        <time>2018-10-27T06:33:59Z</time>
      </trkpt>
      <trkpt lat="38.4945100" lon="-0.6554520">
        <ele>772.4</ele>
        <time>2018-10-27T06:34:00Z</time>
      </trkpt>
      <trkpt lat="38.4945170" lon="-0.6554730">
        <ele>772.6</ele>
        <time>2018-10-27T06:34:01Z</time>
      </trkpt>
      <trkpt lat="38.4945350" lon="-0.6555370">
        <ele>773.4</ele>
        <time>2018-10-27T06:34:04Z</time>
      </trkpt>
      <trkpt lat="38.4945800" lon="-0.6556360">
        <ele>774.4</ele>
        <time>2018-10-27T06:34:09Z</time>
      </trkpt>
      <trkpt lat="38.4946140" lon="-0.6556830">
        <ele>775.4</ele>
        <time>2018-10-27T06:34:12Z</time>
      </trkpt>
      <trkpt lat="38.4946580" lon="-0.6557040">
        <ele>776.6</ele>
        <time>2018-10-27T06:34:15Z</time>
      </trkpt>
      <trkpt lat="38.4946910" lon="-0.6557150">
        <ele>777.0</ele>
        <time>2018-10-27T06:34:18Z</time>
      </trkpt>
      <trkpt lat="38.4947140" lon="-0.6557420">
        <ele>777.4</ele>
        <time>2018-10-27T06:34:20Z</time>
      </trkpt>
      <trkpt lat="38.4947300" lon="-0.6557520">
        <ele>777.6</ele>
        <time>2018-10-27T06:34:21Z</time>
      </trkpt>
      <trkpt lat="38.4947960" lon="-0.6558020">
        <ele>778.0</ele>
        <time>2018-10-27T06:34:26Z</time>
      </trkpt>
      <trkpt lat="38.4948800" lon="-0.6557900">
        <ele>778.4</ele>
        <time>2018-10-27T06:34:31Z</time>
      </trkpt>
      <trkpt lat="38.4949160" lon="-0.6557830">
        <ele>778.8</ele>
        <time>2018-10-27T06:34:33Z</time>
      </trkpt>
      <trkpt lat="38.4949940" lon="-0.6557660">
        <ele>779.8</ele>
        <time>2018-10-27T06:34:37Z</time>
      </trkpt>
      <trkpt lat="38.4950150" lon="-0.6557650">
        <ele>779.8</ele>
        <time>2018-10-27T06:34:38Z</time>
      </trkpt>
      <trkpt lat="38.4951470" lon="-0.6557540">
        <ele>780.4</ele>
        <time>2018-10-27T06:34:43Z</time>
      </trkpt>
      <trkpt lat="38.4952510" lon="-0.6557280">
        <ele>780.6</ele>
        <time>2018-10-27T06:34:48Z</time>
      </trkpt>
      <trkpt lat="38.4954110" lon="-0.6556170">
        <ele>780.6</ele>
        <time>2018-10-27T06:34:55Z</time>
      </trkpt>
      <trkpt lat="38.4955240" lon="-0.6555150">
        <ele>780.2</ele>
        <time>2018-10-27T06:35:01Z</time>
      </trkpt>
      <trkpt lat="38.4955920" lon="-0.6553830">
        <ele>779.8</ele>
        <time>2018-10-27T06:35:07Z</time>
      </trkpt>
      <trkpt lat="38.4956560" lon="-0.6552080">
        <ele>780.0</ele>
        <time>2018-10-27T06:35:14Z</time>
      </trkpt>
      <trkpt lat="38.4956900" lon="-0.6551190">
        <ele>781.0</ele>
        <time>2018-10-27T06:35:18Z</time>
      </trkpt>
      <trkpt lat="38.4957120" lon="-0.6550650">
        <ele>781.4</ele>
        <time>2018-10-27T06:35:20Z</time>
      </trkpt>
      <trkpt lat="38.4957450" lon="-0.6549200">
        <ele>782.0</ele>
        <time>2018-10-27T06:35:26Z</time>
      </trkpt>
      <trkpt lat="38.4957470" lon="-0.6548990">
        <ele>782.2</ele>
        <time>2018-10-27T06:35:27Z</time>
      </trkpt>
      <trkpt lat="38.4957510" lon="-0.6548570">
        <ele>782.2</ele>
        <time>2018-10-27T06:35:29Z</time>
      </trkpt>
      <trkpt lat="38.4957690" lon="-0.6547510">
        <ele>782.8</ele>
        <time>2018-10-27T06:35:35Z</time>
      </trkpt>
      <trkpt lat="38.4957800" lon="-0.6547280">
        <ele>783.0</ele>
        <time>2018-10-27T06:35:37Z</time>
      </trkpt>
      <trkpt lat="38.4958010" lon="-0.6546960">
        <ele>783.6</ele>
        <time>2018-10-27T06:35:40Z</time>
      </trkpt>
      <trkpt lat="38.4958290" lon="-0.6546810">
        <ele>783.8</ele>
        <time>2018-10-27T06:35:42Z</time>
      </trkpt>
      <trkpt lat="38.4958590" lon="-0.6546760">
        <ele>784.2</ele>
        <time>2018-10-27T06:35:44Z</time>
      </trkpt>
      <trkpt lat="38.4959540" lon="-0.6546660">
        <ele>784.8</ele>
        <time>2018-10-27T06:35:49Z</time>
      </trkpt>
      <trkpt lat="38.4960110" lon="-0.6546730">
        <ele>785.6</ele>
        <time>2018-10-27T06:35:52Z</time>
      </trkpt>
      <trkpt lat="38.4960750" lon="-0.6546720">
        <ele>786.2</ele>
        <time>2018-10-27T06:35:56Z</time>
      </trkpt>
      <trkpt lat="38.4961380" lon="-0.6546400">
        <ele>786.6</ele>
        <time>2018-10-27T06:36:00Z</time>
      </trkpt>
      <trkpt lat="38.4961940" lon="-0.6545830">
        <ele>787.0</ele>
        <time>2018-10-27T06:36:04Z</time>
      </trkpt>
      <trkpt lat="38.4962660" lon="-0.6544460">
        <ele>787.2</ele>
        <time>2018-10-27T06:36:10Z</time>
      </trkpt>
      <trkpt lat="38.4963070" lon="-0.6544080">
        <ele>787.8</ele>
        <time>2018-10-27T06:36:13Z</time>
      </trkpt>
      <trkpt lat="38.4963580" lon="-0.6543790">
        <ele>788.6</ele>
        <time>2018-10-27T06:36:17Z</time>
      </trkpt>
      <trkpt lat="38.4963980" lon="-0.6543390">
        <ele>788.8</ele>
        <time>2018-10-27T06:36:20Z</time>
      </trkpt>
      <trkpt lat="38.4964180" lon="-0.6543020">
        <ele>789.0</ele>
        <time>2018-10-27T06:36:22Z</time>
      </trkpt>
      <trkpt lat="38.4964730" lon="-0.6542460">
        <ele>789.6</ele>
        <time>2018-10-27T06:36:26Z</time>
      </trkpt>
      <trkpt lat="38.4964830" lon="-0.6542340">
        <ele>789.8</ele>
        <time>2018-10-27T06:36:27Z</time>
      </trkpt>
      <trkpt lat="38.4964930" lon="-0.6542260">
        <ele>790.2</ele>
        <time>2018-10-27T06:36:28Z</time>
      </trkpt>
      <trkpt lat="38.4965610" lon="-0.6541730">
        <ele>791.4</ele>
        <time>2018-10-27T06:36:34Z</time>
      </trkpt>
      <trkpt lat="38.4966250" lon="-0.6540620">
        <ele>792.0</ele>
        <time>2018-10-27T06:36:41Z</time>
      </trkpt>
      <trkpt lat="38.4966560" lon="-0.6540080">
        <ele>792.4</ele>
        <time>2018-10-27T06:36:44Z</time>
      </trkpt>
      <trkpt lat="38.4966700" lon="-0.6539820">
        <ele>792.6</ele>
        <time>2018-10-27T06:36:46Z</time>
      </trkpt>
      <trkpt lat="38.4967210" lon="-0.6539080">
        <ele>793.4</ele>
        <time>2018-10-27T06:36:51Z</time>
      </trkpt>
      <trkpt lat="38.4967410" lon="-0.6538760">
        <ele>793.8</ele>
        <time>2018-10-27T06:36:53Z</time>
      </trkpt>
      <trkpt lat="38.4967990" lon="-0.6538040">
        <ele>794.6</ele>
        <time>2018-10-27T06:36:58Z</time>
      </trkpt>
      <trkpt lat="38.4968420" lon="-0.6537520">
        <ele>795.0</ele>
        <time>2018-10-27T06:37:01Z</time>
      </trkpt>
      <trkpt lat="38.4969020" lon="-0.6536800">
        <ele>795.6</ele>
        <time>2018-10-27T06:37:06Z</time>
      </trkpt>
      <trkpt lat="38.4969390" lon="-0.6536410">
        <ele>796.2</ele>
        <time>2018-10-27T06:37:09Z</time>
      </trkpt>
      <trkpt lat="38.4969710" lon="-0.6536200">
        <ele>796.8</ele>
        <time>2018-10-27T06:37:12Z</time>
      </trkpt>
      <trkpt lat="38.4970090" lon="-0.6535870">
        <ele>797.6</ele>
        <time>2018-10-27T06:37:15Z</time>
      </trkpt>
      <trkpt lat="38.4970560" lon="-0.6535530">
        <ele>798.0</ele>
        <time>2018-10-27T06:37:19Z</time>
      </trkpt>
      <trkpt lat="38.4970880" lon="-0.6535390">
        <ele>798.4</ele>
        <time>2018-10-27T06:37:21Z</time>
      </trkpt>
      <trkpt lat="38.4971230" lon="-0.6535110">
        <ele>799.0</ele>
        <time>2018-10-27T06:37:24Z</time>
      </trkpt>
      <trkpt lat="38.4971570" lon="-0.6534680">
        <ele>799.6</ele>
        <time>2018-10-27T06:37:28Z</time>
      </trkpt>
      <trkpt lat="38.4971990" lon="-0.6533920">
        <ele>800.2</ele>
        <time>2018-10-27T06:37:33Z</time>
      </trkpt>
      <trkpt lat="38.4972220" lon="-0.6533500">
        <ele>800.6</ele>
        <time>2018-10-27T06:37:36Z</time>
      </trkpt>
      <trkpt lat="38.4972510" lon="-0.6532980">
        <ele>801.2</ele>
        <time>2018-10-27T06:37:39Z</time>
      </trkpt>
      <trkpt lat="38.4972630" lon="-0.6532670">
        <ele>801.6</ele>
        <time>2018-10-27T06:37:41Z</time>
      </trkpt>
      <trkpt lat="38.4972760" lon="-0.6532510">
        <ele>802.0</ele>
        <time>2018-10-27T06:37:42Z</time>
      </trkpt>
      <trkpt lat="38.4972900" lon="-0.6532170">
        <ele>802.2</ele>
        <time>2018-10-27T06:37:44Z</time>
      </trkpt>
      <trkpt lat="38.4973240" lon="-0.6531190">
        <ele>803.2</ele>
        <time>2018-10-27T06:37:49Z</time>
      </trkpt>
      <trkpt lat="38.4973270" lon="-0.6531040">
        <ele>803.4</ele>
        <time>2018-10-27T06:37:50Z</time>
      </trkpt>
      <trkpt lat="38.4973520" lon="-0.6530270">
        <ele>804.6</ele>
        <time>2018-10-27T06:37:54Z</time>
      </trkpt>
      <trkpt lat="38.4973650" lon="-0.6529080">
        <ele>805.6</ele>
        <time>2018-10-27T06:38:00Z</time>
      </trkpt>
      <trkpt lat="38.4973990" lon="-0.6527910">
        <ele>806.8</ele>
        <time>2018-10-27T06:38:06Z</time>
      </trkpt>
      <trkpt lat="38.4974460" lon="-0.6526820">
        <ele>807.6</ele>
        <time>2018-10-27T06:38:11Z</time>
      </trkpt>
      <trkpt lat="38.4974610" lon="-0.6526420">
        <ele>808.2</ele>
        <time>2018-10-27T06:38:13Z</time>
      </trkpt>
      <trkpt lat="38.4974890" lon="-0.6525580">
        <ele>809.2</ele>
        <time>2018-10-27T06:38:17Z</time>
      </trkpt>
      <trkpt lat="38.4975150" lon="-0.6525120">
        <ele>810.2</ele>
        <time>2018-10-27T06:38:20Z</time>
      </trkpt>
      <trkpt lat="38.4975390" lon="-0.6524660">
        <ele>810.8</ele>
        <time>2018-10-27T06:38:23Z</time>
      </trkpt>
      <trkpt lat="38.4975530" lon="-0.6524310">
        <ele>811.2</ele>
        <time>2018-10-27T06:38:25Z</time>
      </trkpt>
      <trkpt lat="38.4976060" lon="-0.6523470">
        <ele>811.6</ele>
        <time>2018-10-27T06:38:30Z</time>
      </trkpt>
      <trkpt lat="38.4976820" lon="-0.6522620">
        <ele>812.2</ele>
        <time>2018-10-27T06:38:36Z</time>
      </trkpt>
      <trkpt lat="38.4977220" lon="-0.6522030">
        <ele>813.0</ele>
        <time>2018-10-27T06:38:40Z</time>
      </trkpt>
      <trkpt lat="38.4977400" lon="-0.6521680">
        <ele>813.4</ele>
        <time>2018-10-27T06:38:42Z</time>
      </trkpt>
      <trkpt lat="38.4977480" lon="-0.6521520">
        <ele>813.6</ele>
        <time>2018-10-27T06:38:43Z</time>
      </trkpt>
      <trkpt lat="38.4978030" lon="-0.6520740">
        <ele>814.4</ele>
        <time>2018-10-27T06:38:48Z</time>
      </trkpt>
      <trkpt lat="38.4978130" lon="-0.6520530">
        <ele>814.6</ele>
        <time>2018-10-27T06:38:50Z</time>
      </trkpt>
      <trkpt lat="38.4978080" lon="-0.6519350">
        <ele>815.6</ele>
        <time>2018-10-27T06:38:57Z</time>
      </trkpt>
      <trkpt lat="38.4978470" lon="-0.6518480">
        <ele>816.4</ele>
        <time>2018-10-27T06:39:02Z</time>
      </trkpt>
      <trkpt lat="38.4978750" lon="-0.6518250">
        <ele>816.6</ele>
        <time>2018-10-27T06:39:04Z</time>
      </trkpt>
      <trkpt lat="38.4979030" lon="-0.6517840">
        <ele>817.2</ele>
        <time>2018-10-27T06:39:07Z</time>
      </trkpt>
      <trkpt lat="38.4979330" lon="-0.6517540">
        <ele>818.0</ele>
        <time>2018-10-27T06:39:09Z</time>
      </trkpt>
      <trkpt lat="38.4979630" lon="-0.6517320">
        <ele>818.6</ele>
        <time>2018-10-27T06:39:12Z</time>
      </trkpt>
      <trkpt lat="38.4980070" lon="-0.6517000">
        <ele>819.0</ele>
        <time>2018-10-27T06:39:18Z</time>
      </trkpt>
      <trkpt lat="38.4980130" lon="-0.6516900">
        <ele>819.2</ele>
        <time>2018-10-27T06:39:20Z</time>
      </trkpt>
      <trkpt lat="38.4980410" lon="-0.6516790">
        <ele>819.6</ele>
        <time>2018-10-27T06:39:23Z</time>
      </trkpt>
      <trkpt lat="38.4980780" lon="-0.6516510">
        <ele>820.0</ele>
        <time>2018-10-27T06:39:26Z</time>
      </trkpt>
      <trkpt lat="38.4980920" lon="-0.6516440">
        <ele>820.2</ele>
        <time>2018-10-27T06:39:27Z</time>
      </trkpt>
      <trkpt lat="38.4981310" lon="-0.6516040">
        <ele>821.2</ele>
        <time>2018-10-27T06:39:31Z</time>
      </trkpt>
      <trkpt lat="38.4981500" lon="-0.6515760">
        <ele>821.4</ele>
        <time>2018-10-27T06:39:33Z</time>
      </trkpt>
      <trkpt lat="38.4981640" lon="-0.6514490">
        <ele>822.4</ele>
        <time>2018-10-27T06:39:40Z</time>
      </trkpt>
      <trkpt lat="38.4981320" lon="-0.6513390">
        <ele>823.4</ele>
        <time>2018-10-27T06:39:46Z</time>
      </trkpt>
      <trkpt lat="38.4981260" lon="-0.6513220">
        <ele>823.6</ele>
        <time>2018-10-27T06:39:47Z</time>
      </trkpt>
      <trkpt lat="38.4980900" lon="-0.6512270">
        <ele>824.6</ele>
        <time>2018-10-27T06:39:53Z</time>
      </trkpt>
      <trkpt lat="38.4980890" lon="-0.6511640">
        <ele>825.4</ele>
        <time>2018-10-27T06:39:56Z</time>
      </trkpt>
      <trkpt lat="38.4980870" lon="-0.6511150">
        <ele>825.8</ele>
        <time>2018-10-27T06:39:58Z</time>
      </trkpt>
      <trkpt lat="38.4980990" lon="-0.6510540">
        <ele>826.6</ele>
        <time>2018-10-27T06:40:01Z</time>
      </trkpt>
      <trkpt lat="38.4981120" lon="-0.6510180">
        <ele>827.0</ele>
        <time>2018-10-27T06:40:03Z</time>
      </trkpt>
      <trkpt lat="38.4981410" lon="-0.6509460">
        <ele>828.0</ele>
        <time>2018-10-27T06:40:07Z</time>
      </trkpt>
      <trkpt lat="38.4981480" lon="-0.6509280">
        <ele>828.2</ele>
        <time>2018-10-27T06:40:08Z</time>
      </trkpt>
      <trkpt lat="38.4982010" lon="-0.6508680">
        <ele>829.0</ele>
        <time>2018-10-27T06:40:12Z</time>
      </trkpt>
      <trkpt lat="38.4982070" lon="-0.6508700">
        <ele>829.2</ele>
        <time>2018-10-27T06:40:13Z</time>
      </trkpt>
      <trkpt lat="38.4982580" lon="-0.6508670">
        <ele>830.0</ele>
        <time>2018-10-27T06:40:18Z</time>
      </trkpt>
      <trkpt lat="38.4982860" lon="-0.6508710">
        <ele>830.4</ele>
        <time>2018-10-27T06:40:20Z</time>
      </trkpt>
      <trkpt lat="38.4983230" lon="-0.6508860">
        <ele>831.2</ele>
        <time>2018-10-27T06:40:23Z</time>
      </trkpt>
      <trkpt lat="38.4983710" lon="-0.6508960">
        <ele>831.8</ele>
        <time>2018-10-27T06:40:26Z</time>
      </trkpt>
      <trkpt lat="38.4984120" lon="-0.6508910">
        <ele>832.2</ele>
        <time>2018-10-27T06:40:29Z</time>
      </trkpt>
      <trkpt lat="38.4984590" lon="-0.6508520">
        <ele>832.4</ele>
        <time>2018-10-27T06:40:32Z</time>
      </trkpt>
      <trkpt lat="38.4985400" lon="-0.6507620">
        <ele>833.4</ele>
        <time>2018-10-27T06:40:38Z</time>
      </trkpt>
      <trkpt lat="38.4985580" lon="-0.6507220">
        <ele>833.6</ele>
        <time>2018-10-27T06:40:40Z</time>
      </trkpt>
      <trkpt lat="38.4985740" lon="-0.6506800">
        <ele>834.2</ele>
        <time>2018-10-27T06:40:42Z</time>
      </trkpt>
      <trkpt lat="38.4985810" lon="-0.6506610">
        <ele>834.4</ele>
        <time>2018-10-27T06:40:43Z</time>
      </trkpt>
      <trkpt lat="38.4986060" lon="-0.6505920">
        <ele>835.0</ele>
        <time>2018-10-27T06:40:46Z</time>
      </trkpt>
      <trkpt lat="38.4986180" lon="-0.6505520">
        <ele>835.6</ele>
        <time>2018-10-27T06:40:48Z</time>
      </trkpt>
      <trkpt lat="38.4986290" lon="-0.6505090">
        <ele>835.8</ele>
        <time>2018-10-27T06:40:50Z</time>
      </trkpt>
      <trkpt lat="38.4986380" lon="-0.6504510">
        <ele>836.8</ele>
        <time>2018-10-27T06:40:53Z</time>
      </trkpt>
      <trkpt lat="38.4986630" lon="-0.6503700">
        <ele>837.6</ele>
        <time>2018-10-27T06:40:57Z</time>
      </trkpt>
      <trkpt lat="38.4987070" lon="-0.6503240">
        <ele>837.8</ele>
        <time>2018-10-27T06:41:00Z</time>
      </trkpt>
      <trkpt lat="38.4987570" lon="-0.6502880">
        <ele>838.2</ele>
        <time>2018-10-27T06:41:03Z</time>
      </trkpt>
      <trkpt lat="38.4987990" lon="-0.6502570">
        <ele>839.0</ele>
        <time>2018-10-27T06:41:06Z</time>
      </trkpt>
      <trkpt lat="38.4988480" lon="-0.6501950">
        <ele>840.0</ele>
        <time>2018-10-27T06:41:10Z</time>
      </trkpt>
      <trkpt lat="38.4988520" lon="-0.6501750">
        <ele>840.2</ele>
        <time>2018-10-27T06:41:11Z</time>
      </trkpt>
      <trkpt lat="38.4988620" lon="-0.6501080">
        <ele>841.4</ele>
        <time>2018-10-27T06:41:15Z</time>
      </trkpt>
      <trkpt lat="38.4988610" lon="-0.6500890">
        <ele>841.6</ele>
        <time>2018-10-27T06:41:16Z</time>
      </trkpt>
      <trkpt lat="38.4988820" lon="-0.6499880">
        <ele>842.2</ele>
        <time>2018-10-27T06:41:21Z</time>
      </trkpt>
      <trkpt lat="38.4988950" lon="-0.6499450">
        <ele>842.8</ele>
        <time>2018-10-27T06:41:23Z</time>
      </trkpt>
      <trkpt lat="38.4989150" lon="-0.6498530">
        <ele>843.6</ele>
        <time>2018-10-27T06:41:28Z</time>
      </trkpt>
      <trkpt lat="38.4989210" lon="-0.6498370">
        <ele>843.8</ele>
        <time>2018-10-27T06:41:29Z</time>
      </trkpt>
      <trkpt lat="38.4989400" lon="-0.6497740">
        <ele>844.6</ele>
        <time>2018-10-27T06:41:33Z</time>
      </trkpt>
      <trkpt lat="38.4989520" lon="-0.6497410">
        <ele>845.0</ele>
        <time>2018-10-27T06:41:35Z</time>
      </trkpt>
      <trkpt lat="38.4989790" lon="-0.6496860">
        <ele>845.8</ele>
        <time>2018-10-27T06:41:39Z</time>
      </trkpt>
      <trkpt lat="38.4990000" lon="-0.6496370">
        <ele>846.2</ele>
        <time>2018-10-27T06:41:42Z</time>
      </trkpt>
      <trkpt lat="38.4990320" lon="-0.6495860">
        <ele>846.8</ele>
        <time>2018-10-27T06:41:46Z</time>
      </trkpt>
      <trkpt lat="38.4990500" lon="-0.6495550">
        <ele>847.2</ele>
        <time>2018-10-27T06:41:48Z</time>
      </trkpt>
      <trkpt lat="38.4990830" lon="-0.6494800">
        <ele>847.6</ele>
        <time>2018-10-27T06:41:52Z</time>
      </trkpt>
      <trkpt lat="38.4990880" lon="-0.6493930">
        <ele>848.2</ele>
        <time>2018-10-27T06:41:58Z</time>
      </trkpt>
      <trkpt lat="38.4990830" lon="-0.6493930">
        <ele>849.4</ele>
        <time>2018-10-27T06:42:02Z</time>
      </trkpt>
      <trkpt lat="38.4990820" lon="-0.6493960">
        <ele>849.4</ele>
        <time>2018-10-27T06:42:03Z</time>
      </trkpt>
      <trkpt lat="38.4991170" lon="-0.6492220">
        <ele>846.8</ele>
        <time>2018-10-27T06:43:53Z</time>
      </trkpt>
      <trkpt lat="38.4991120" lon="-0.6491450">
        <ele>847.0</ele>
        <time>2018-10-27T06:43:56Z</time>
      </trkpt>
      <trkpt lat="38.4991060" lon="-0.6491200">
        <ele>847.2</ele>
        <time>2018-10-27T06:43:57Z</time>
      </trkpt>
      <trkpt lat="38.4990940" lon="-0.6490730">
        <ele>847.6</ele>
        <time>2018-10-27T06:43:59Z</time>
      </trkpt>
      <trkpt lat="38.4990850" lon="-0.6490510">
        <ele>847.8</ele>
        <time>2018-10-27T06:44:00Z</time>
      </trkpt>
      <trkpt lat="38.4990800" lon="-0.6490310">
        <ele>847.8</ele>
        <time>2018-10-27T06:44:01Z</time>
      </trkpt>
      <trkpt lat="38.4990690" lon="-0.6489870">
        <ele>848.8</ele>
        <time>2018-10-27T06:44:03Z</time>
      </trkpt>
      <trkpt lat="38.4990680" lon="-0.6489650">
        <ele>849.2</ele>
        <time>2018-10-27T06:44:04Z</time>
      </trkpt>
      <trkpt lat="38.4990690" lon="-0.6489390">
        <ele>849.6</ele>
        <time>2018-10-27T06:44:05Z</time>
      </trkpt>
      <trkpt lat="38.4990690" lon="-0.6488840">
        <ele>850.6</ele>
        <time>2018-10-27T06:44:07Z</time>
      </trkpt>
      <trkpt lat="38.4990650" lon="-0.6488110">
        <ele>851.8</ele>
        <time>2018-10-27T06:44:10Z</time>
      </trkpt>
      <trkpt lat="38.4990700" lon="-0.6487660">
        <ele>852.4</ele>
        <time>2018-10-27T06:44:12Z</time>
      </trkpt>
      <trkpt lat="38.4990760" lon="-0.6487400">
        <ele>852.6</ele>
        <time>2018-10-27T06:44:13Z</time>
      </trkpt>
      <trkpt lat="38.4990790" lon="-0.6486650">
        <ele>853.2</ele>
        <time>2018-10-27T06:44:16Z</time>
      </trkpt>
      <trkpt lat="38.4990740" lon="-0.6486140">
        <ele>854.0</ele>
        <time>2018-10-27T06:44:18Z</time>
      </trkpt>
      <trkpt lat="38.4990640" lon="-0.6485950">
        <ele>854.4</ele>
        <time>2018-10-27T06:44:19Z</time>
      </trkpt>
      <trkpt lat="38.4990140" lon="-0.6485200">
        <ele>855.4</ele>
        <time>2018-10-27T06:44:24Z</time>
      </trkpt>
      <trkpt lat="38.4990020" lon="-0.6485040">
        <ele>856.0</ele>
        <time>2018-10-27T06:44:25Z</time>
      </trkpt>
      <trkpt lat="38.4989770" lon="-0.6484540">
        <ele>857.4</ele>
        <time>2018-10-27T06:44:28Z</time>
      </trkpt>
      <trkpt lat="38.4989710" lon="-0.6484260">
        <ele>857.8</ele>
        <time>2018-10-27T06:44:30Z</time>
      </trkpt>
      <trkpt lat="38.4989670" lon="-0.6484100">
        <ele>858.0</ele>
        <time>2018-10-27T06:44:31Z</time>
      </trkpt>
      <trkpt lat="38.4989640" lon="-0.6483570">
        <ele>858.6</ele>
        <time>2018-10-27T06:44:34Z</time>
      </trkpt>
      <trkpt lat="38.4989640" lon="-0.6483170">
        <ele>859.6</ele>
        <time>2018-10-27T06:44:36Z</time>
      </trkpt>
      <trkpt lat="38.4989710" lon="-0.6482800">
        <ele>860.8</ele>
        <time>2018-10-27T06:44:38Z</time>
      </trkpt>
      <trkpt lat="38.4989790" lon="-0.6482150">
        <ele>861.6</ele>
        <time>2018-10-27T06:44:41Z</time>
      </trkpt>
      <trkpt lat="38.4989810" lon="-0.6481980">
        <ele>861.8</ele>
        <time>2018-10-27T06:44:42Z</time>
      </trkpt>
      <trkpt lat="38.4989940" lon="-0.6481610">
        <ele>862.6</ele>
        <time>2018-10-27T06:44:44Z</time>
      </trkpt>
      <trkpt lat="38.4990160" lon="-0.6481190">
        <ele>863.0</ele>
        <time>2018-10-27T06:44:46Z</time>
      </trkpt>
      <trkpt lat="38.4990300" lon="-0.6480760">
        <ele>864.0</ele>
        <time>2018-10-27T06:44:48Z</time>
      </trkpt>
      <trkpt lat="38.4990350" lon="-0.6480530">
        <ele>864.2</ele>
        <time>2018-10-27T06:44:49Z</time>
      </trkpt>
      <trkpt lat="38.4990680" lon="-0.6479960">
        <ele>864.6</ele>
        <time>2018-10-27T06:44:52Z</time>
      </trkpt>
      <trkpt lat="38.4990960" lon="-0.6479680">
        <ele>865.0</ele>
        <time>2018-10-27T06:44:54Z</time>
      </trkpt>
      <trkpt lat="38.4991070" lon="-0.6479580">
        <ele>865.2</ele>
        <time>2018-10-27T06:44:55Z</time>
      </trkpt>
      <trkpt lat="38.4991620" lon="-0.6479130">
        <ele>865.8</ele>
        <time>2018-10-27T06:45:00Z</time>
      </trkpt>
      <trkpt lat="38.4991860" lon="-0.6478780">
        <ele>866.4</ele>
        <time>2018-10-27T06:45:02Z</time>
      </trkpt>
      <trkpt lat="38.4991930" lon="-0.6478390">
        <ele>867.0</ele>
        <time>2018-10-27T06:45:04Z</time>
      </trkpt>
      <trkpt lat="38.4991960" lon="-0.6478150">
        <ele>867.2</ele>
        <time>2018-10-27T06:45:05Z</time>
      </trkpt>
      <trkpt lat="38.4991960" lon="-0.6477880">
        <ele>867.4</ele>
        <time>2018-10-27T06:45:06Z</time>
      </trkpt>
      <trkpt lat="38.4991900" lon="-0.6476910">
        <ele>868.4</ele>
        <time>2018-10-27T06:45:11Z</time>
      </trkpt>
      <trkpt lat="38.4991820" lon="-0.6476500">
        <ele>868.8</ele>
        <time>2018-10-27T06:45:13Z</time>
      </trkpt>
      <trkpt lat="38.4991630" lon="-0.6475700">
        <ele>869.6</ele>
        <time>2018-10-27T06:45:17Z</time>
      </trkpt>
      <trkpt lat="38.4991560" lon="-0.6475070">
        <ele>870.2</ele>
        <time>2018-10-27T06:45:20Z</time>
      </trkpt>
      <trkpt lat="38.4991440" lon="-0.6474250">
        <ele>870.8</ele>
        <time>2018-10-27T06:45:24Z</time>
      </trkpt>
      <trkpt lat="38.4991150" lon="-0.6472780">
        <ele>871.8</ele>
        <time>2018-10-27T06:45:31Z</time>
      </trkpt>
      <trkpt lat="38.4991060" lon="-0.6472580">
        <ele>872.0</ele>
        <time>2018-10-27T06:45:32Z</time>
      </trkpt>
      <trkpt lat="38.4990820" lon="-0.6471560">
        <ele>872.8</ele>
        <time>2018-10-27T06:45:37Z</time>
      </trkpt>
      <trkpt lat="38.4990800" lon="-0.6471360">
        <ele>873.0</ele>
        <time>2018-10-27T06:45:38Z</time>
      </trkpt>
      <trkpt lat="38.4990950" lon="-0.6470280">
        <ele>874.4</ele>
        <time>2018-10-27T06:45:43Z</time>
      </trkpt>
      <trkpt lat="38.4991120" lon="-0.6469180">
        <ele>875.4</ele>
        <time>2018-10-27T06:45:48Z</time>
      </trkpt>
      <trkpt lat="38.4991210" lon="-0.6468520">
        <ele>875.8</ele>
        <time>2018-10-27T06:45:51Z</time>
      </trkpt>
      <trkpt lat="38.4991370" lon="-0.6467870">
        <ele>876.6</ele>
        <time>2018-10-27T06:45:54Z</time>
      </trkpt>
      <trkpt lat="38.4991660" lon="-0.6467090">
        <ele>877.6</ele>
        <time>2018-10-27T06:45:58Z</time>
      </trkpt>
      <trkpt lat="38.4991710" lon="-0.6466220">
        <ele>878.4</ele>
        <time>2018-10-27T06:46:02Z</time>
      </trkpt>
      <trkpt lat="38.4991780" lon="-0.6466040">
        <ele>878.6</ele>
        <time>2018-10-27T06:46:03Z</time>
      </trkpt>
      <trkpt lat="38.4991880" lon="-0.6465930">
        <ele>878.6</ele>
        <time>2018-10-27T06:46:04Z</time>
      </trkpt>
      <trkpt lat="38.4992440" lon="-0.6465800">
        <ele>879.2</ele>
        <time>2018-10-27T06:46:08Z</time>
      </trkpt>
      <trkpt lat="38.4992600" lon="-0.6465750">
        <ele>879.4</ele>
        <time>2018-10-27T06:46:09Z</time>
      </trkpt>
      <trkpt lat="38.4992700" lon="-0.6465650">
        <ele>879.6</ele>
        <time>2018-10-27T06:46:10Z</time>
      </trkpt>
      <trkpt lat="38.4992820" lon="-0.6465520">
        <ele>879.6</ele>
        <time>2018-10-27T06:46:11Z</time>
      </trkpt>
      <trkpt lat="38.4993000" lon="-0.6465180">
        <ele>880.0</ele>
        <time>2018-10-27T06:46:13Z</time>
      </trkpt>
      <trkpt lat="38.4993020" lon="-0.6464980">
        <ele>880.4</ele>
        <time>2018-10-27T06:46:14Z</time>
      </trkpt>
      <trkpt lat="38.4993060" lon="-0.6464560">
        <ele>880.8</ele>
        <time>2018-10-27T06:46:16Z</time>
      </trkpt>
      <trkpt lat="38.4993130" lon="-0.6464190">
        <ele>881.0</ele>
        <time>2018-10-27T06:46:18Z</time>
      </trkpt>
      <trkpt lat="38.4993540" lon="-0.6463450">
        <ele>881.6</ele>
        <time>2018-10-27T06:46:22Z</time>
      </trkpt>
      <trkpt lat="38.4993680" lon="-0.6463060">
        <ele>882.0</ele>
        <time>2018-10-27T06:46:24Z</time>
      </trkpt>
      <trkpt lat="38.4993780" lon="-0.6462840">
        <ele>882.4</ele>
        <time>2018-10-27T06:46:25Z</time>
      </trkpt>
      <trkpt lat="38.4993920" lon="-0.6462360">
        <ele>883.2</ele>
        <time>2018-10-27T06:46:27Z</time>
      </trkpt>
      <trkpt lat="38.4994030" lon="-0.6461490">
        <ele>883.8</ele>
        <time>2018-10-27T06:46:31Z</time>
      </trkpt>
      <trkpt lat="38.4994010" lon="-0.6460950">
        <ele>884.2</ele>
        <time>2018-10-27T06:46:33Z</time>
      </trkpt>
      <trkpt lat="38.4993810" lon="-0.6460360">
        <ele>884.6</ele>
        <time>2018-10-27T06:46:36Z</time>
      </trkpt>
      <trkpt lat="38.4993570" lon="-0.6459780">
        <ele>885.2</ele>
        <time>2018-10-27T06:46:39Z</time>
      </trkpt>
      <trkpt lat="38.4992920" lon="-0.6459480">
        <ele>886.2</ele>
        <time>2018-10-27T06:46:43Z</time>
      </trkpt>
      <trkpt lat="38.4992660" lon="-0.6459080">
        <ele>886.6</ele>
        <time>2018-10-27T06:46:46Z</time>
      </trkpt>
      <trkpt lat="38.4992430" lon="-0.6458690">
        <ele>887.0</ele>
        <time>2018-10-27T06:46:49Z</time>
      </trkpt>
      <trkpt lat="38.4992350" lon="-0.6458560">
        <ele>887.2</ele>
        <time>2018-10-27T06:46:50Z</time>
      </trkpt>
      <trkpt lat="38.4992100" lon="-0.6458130">
        <ele>888.0</ele>
        <time>2018-10-27T06:46:53Z</time>
      </trkpt>
      <trkpt lat="38.4992050" lon="-0.6457970">
        <ele>888.4</ele>
        <time>2018-10-27T06:46:54Z</time>
      </trkpt>
      <trkpt lat="38.4992020" lon="-0.6457780">
        <ele>888.6</ele>
        <time>2018-10-27T06:46:55Z</time>
      </trkpt>
      <trkpt lat="38.4991840" lon="-0.6456920">
        <ele>889.4</ele>
        <time>2018-10-27T06:47:00Z</time>
      </trkpt>
      <trkpt lat="38.4991850" lon="-0.6456720">
        <ele>889.4</ele>
        <time>2018-10-27T06:47:01Z</time>
      </trkpt>
      <trkpt lat="38.4992010" lon="-0.6455800">
        <ele>890.2</ele>
        <time>2018-10-27T06:47:06Z</time>
      </trkpt>
      <trkpt lat="38.4992070" lon="-0.6455590">
        <ele>890.4</ele>
        <time>2018-10-27T06:47:07Z</time>
      </trkpt>
      <trkpt lat="38.4992260" lon="-0.6454750">
        <ele>891.0</ele>
        <time>2018-10-27T06:47:11Z</time>
      </trkpt>
      <trkpt lat="38.4992560" lon="-0.6454440">
        <ele>891.4</ele>
        <time>2018-10-27T06:47:14Z</time>
      </trkpt>
      <trkpt lat="38.4992700" lon="-0.6454370">
        <ele>892.0</ele>
        <time>2018-10-27T06:47:15Z</time>
      </trkpt>
      <trkpt lat="38.4993000" lon="-0.6454280">
        <ele>892.6</ele>
        <time>2018-10-27T06:47:17Z</time>
      </trkpt>
      <trkpt lat="38.4993270" lon="-0.6454000">
        <ele>893.0</ele>
        <time>2018-10-27T06:47:20Z</time>
      </trkpt>
      <trkpt lat="38.4993390" lon="-0.6453770">
        <ele>893.4</ele>
        <time>2018-10-27T06:47:22Z</time>
      </trkpt>
      <trkpt lat="38.4993460" lon="-0.6453240">
        <ele>894.2</ele>
        <time>2018-10-27T06:47:26Z</time>
      </trkpt>
      <trkpt lat="38.4993480" lon="-0.6452930">
        <ele>894.8</ele>
        <time>2018-10-27T06:47:29Z</time>
      </trkpt>
      <trkpt lat="38.4993400" lon="-0.6452640">
        <ele>895.2</ele>
        <time>2018-10-27T06:47:32Z</time>
      </trkpt>
      <trkpt lat="38.4993300" lon="-0.6452500">
        <ele>895.4</ele>
        <time>2018-10-27T06:47:33Z</time>
      </trkpt>
      <trkpt lat="38.4993260" lon="-0.6452390">
        <ele>895.6</ele>
        <time>2018-10-27T06:47:34Z</time>
      </trkpt>
      <trkpt lat="38.4993100" lon="-0.6452050">
        <ele>896.4</ele>
        <time>2018-10-27T06:47:37Z</time>
      </trkpt>
      <trkpt lat="38.4992900" lon="-0.6451680">
        <ele>897.4</ele>
        <time>2018-10-27T06:47:40Z</time>
      </trkpt>
      <trkpt lat="38.4992820" lon="-0.6451530">
        <ele>897.6</ele>
        <time>2018-10-27T06:47:41Z</time>
      </trkpt>
      <trkpt lat="38.4992790" lon="-0.6451280">
        <ele>898.2</ele>
        <time>2018-10-27T06:47:43Z</time>
      </trkpt>
      <trkpt lat="38.4992730" lon="-0.6451040">
        <ele>898.6</ele>
        <time>2018-10-27T06:47:45Z</time>
      </trkpt>
      <trkpt lat="38.4992740" lon="-0.6450930">
        <ele>898.8</ele>
        <time>2018-10-27T06:47:46Z</time>
      </trkpt>
      <trkpt lat="38.4992730" lon="-0.6450220">
        <ele>899.8</ele>
        <time>2018-10-27T06:47:51Z</time>
      </trkpt>
      <trkpt lat="38.4992750" lon="-0.6450110">
        <ele>900.0</ele>
        <time>2018-10-27T06:47:52Z</time>
      </trkpt>
      <trkpt lat="38.4992690" lon="-0.6450010">
        <ele>900.0</ele>
        <time>2018-10-27T06:47:53Z</time>
      </trkpt>
      <trkpt lat="38.4992510" lon="-0.6449870">
        <ele>901.0</ele>
        <time>2018-10-27T06:47:56Z</time>
      </trkpt>
      <trkpt lat="38.4992430" lon="-0.6449910">
        <ele>901.2</ele>
        <time>2018-10-27T06:47:57Z</time>
      </trkpt>
      <trkpt lat="38.4992340" lon="-0.6449940">
        <ele>901.4</ele>
        <time>2018-10-27T06:47:58Z</time>
      </trkpt>
      <trkpt lat="38.4992030" lon="-0.6450000">
        <ele>902.4</ele>
        <time>2018-10-27T06:48:02Z</time>
      </trkpt>
      <trkpt lat="38.4991870" lon="-0.6450130">
        <ele>903.2</ele>
        <time>2018-10-27T06:48:05Z</time>
      </trkpt>
      <trkpt lat="38.4991840" lon="-0.6450170">
        <ele>903.4</ele>
        <time>2018-10-27T06:48:06Z</time>
      </trkpt>
      <trkpt lat="38.4991750" lon="-0.6450260">
        <ele>903.6</ele>
        <time>2018-10-27T06:48:08Z</time>
      </trkpt>
      <trkpt lat="38.4991700" lon="-0.6450670">
        <ele>899.8</ele>
        <time>2018-10-27T06:51:12Z</time>
      </trkpt>
      <trkpt lat="38.4991560" lon="-0.6450610">
        <ele>899.2</ele>
        <time>2018-10-27T06:51:13Z</time>
      </trkpt>
      <trkpt lat="38.4989620" lon="-0.6453230">
        <ele>901.4</ele>
        <time>2018-10-27T06:51:40Z</time>
      </trkpt>
      <trkpt lat="38.4989490" lon="-0.6453250">
        <ele>901.6</ele>
        <time>2018-10-27T06:51:41Z</time>
      </trkpt>
      <trkpt lat="38.4989180" lon="-0.6453160">
        <ele>902.2</ele>
        <time>2018-10-27T06:51:44Z</time>
      </trkpt>
      <trkpt lat="38.4989060" lon="-0.6453070">
        <ele>902.8</ele>
        <time>2018-10-27T06:51:45Z</time>
      </trkpt>
      <trkpt lat="38.4988950" lon="-0.6452970">
        <ele>903.4</ele>
        <time>2018-10-27T06:51:46Z</time>
      </trkpt>
      <trkpt lat="38.4988710" lon="-0.6452690">
        <ele>903.8</ele>
        <time>2018-10-27T06:51:48Z</time>
      </trkpt>
      <trkpt lat="38.4988620" lon="-0.6452520">
        <ele>904.0</ele>
        <time>2018-10-27T06:51:49Z</time>
      </trkpt>
      <trkpt lat="38.4988340" lon="-0.6451890">
        <ele>905.2</ele>
        <time>2018-10-27T06:51:52Z</time>
      </trkpt>
      <trkpt lat="38.4988200" lon="-0.6451470">
        <ele>906.0</ele>
        <time>2018-10-27T06:51:54Z</time>
      </trkpt>
      <trkpt lat="38.4988130" lon="-0.6451280">
        <ele>906.4</ele>
        <time>2018-10-27T06:51:55Z</time>
      </trkpt>
      <trkpt lat="38.4988000" lon="-0.6450750">
        <ele>908.0</ele>
        <time>2018-10-27T06:51:58Z</time>
      </trkpt>
      <trkpt lat="38.4987950" lon="-0.6450400">
        <ele>908.6</ele>
        <time>2018-10-27T06:52:00Z</time>
      </trkpt>
      <trkpt lat="38.4987950" lon="-0.6450240">
        <ele>909.0</ele>
        <time>2018-10-27T06:52:01Z</time>
      </trkpt>
      <trkpt lat="38.4987980" lon="-0.6450080">
        <ele>909.2</ele>
        <time>2018-10-27T06:52:02Z</time>
      </trkpt>
      <trkpt lat="38.4988040" lon="-0.6449780">
        <ele>910.4</ele>
        <time>2018-10-27T06:52:04Z</time>
      </trkpt>
      <trkpt lat="38.4988060" lon="-0.6449480">
        <ele>911.6</ele>
        <time>2018-10-27T06:52:06Z</time>
      </trkpt>
      <trkpt lat="38.4988120" lon="-0.6449060">
        <ele>912.2</ele>
        <time>2018-10-27T06:52:09Z</time>
      </trkpt>
      <trkpt lat="38.4988150" lon="-0.6448810">
        <ele>912.8</ele>
        <time>2018-10-27T06:52:11Z</time>
      </trkpt>
      <trkpt lat="38.4988180" lon="-0.6448250">
        <ele>914.0</ele>
        <time>2018-10-27T06:52:15Z</time>
      </trkpt>
      <trkpt lat="38.4988170" lon="-0.6448000">
        <ele>914.8</ele>
        <time>2018-10-27T06:52:17Z</time>
      </trkpt>
      <trkpt lat="38.4988120" lon="-0.6447840">
        <ele>915.4</ele>
        <time>2018-10-27T06:52:18Z</time>
      </trkpt>
      <trkpt lat="38.4987970" lon="-0.6447370">
        <ele>916.0</ele>
        <time>2018-10-27T06:52:21Z</time>
      </trkpt>
      <trkpt lat="38.4987760" lon="-0.6446960">
        <ele>916.4</ele>
        <time>2018-10-27T06:52:24Z</time>
      </trkpt>
      <trkpt lat="38.4987670" lon="-0.6446820">
        <ele>916.6</ele>
        <time>2018-10-27T06:52:25Z</time>
      </trkpt>
      <trkpt lat="38.4987390" lon="-0.6446390">
        <ele>917.4</ele>
        <time>2018-10-27T06:52:28Z</time>
      </trkpt>
      <trkpt lat="38.4987300" lon="-0.6446270">
        <ele>917.8</ele>
        <time>2018-10-27T06:52:29Z</time>
      </trkpt>
      <trkpt lat="38.4986960" lon="-0.6445910">
        <ele>918.8</ele>
        <time>2018-10-27T06:52:32Z</time>
      </trkpt>
      <trkpt lat="38.4986880" lon="-0.6445760">
        <ele>919.0</ele>
        <time>2018-10-27T06:52:33Z</time>
      </trkpt>
      <trkpt lat="38.4986560" lon="-0.6445200">
        <ele>920.2</ele>
        <time>2018-10-27T06:52:37Z</time>
      </trkpt>
      <trkpt lat="38.4986380" lon="-0.6444940">
        <ele>920.8</ele>
        <time>2018-10-27T06:52:39Z</time>
      </trkpt>
      <trkpt lat="38.4986290" lon="-0.6444640">
        <ele>921.2</ele>
        <time>2018-10-27T06:52:41Z</time>
      </trkpt>
      <trkpt lat="38.4986310" lon="-0.6444450">
        <ele>921.4</ele>
        <time>2018-10-27T06:52:42Z</time>
      </trkpt>
      <trkpt lat="38.4986580" lon="-0.6443900">
        <ele>922.2</ele>
        <time>2018-10-27T06:52:45Z</time>
      </trkpt>
      <trkpt lat="38.4986700" lon="-0.6443750">
        <ele>922.4</ele>
        <time>2018-10-27T06:52:46Z</time>
      </trkpt>
      <trkpt lat="38.4987420" lon="-0.6443090">
        <ele>923.6</ele>
        <time>2018-10-27T06:52:52Z</time>
      </trkpt>
      <trkpt lat="38.4988030" lon="-0.6442200">
        <ele>924.8</ele>
        <time>2018-10-27T06:52:59Z</time>
      </trkpt>
      <trkpt lat="38.4988070" lon="-0.6442090">
        <ele>925.0</ele>
        <time>2018-10-27T06:53:00Z</time>
      </trkpt>
      <trkpt lat="38.4988220" lon="-0.6441790">
        <ele>925.0</ele>
        <time>2018-10-27T06:53:02Z</time>
      </trkpt>
      <trkpt lat="38.4988560" lon="-0.6440480">
        <ele>927.2</ele>
        <time>2018-10-27T06:53:09Z</time>
      </trkpt>
      <trkpt lat="38.4988560" lon="-0.6439920">
        <ele>928.2</ele>
        <time>2018-10-27T06:53:12Z</time>
      </trkpt>
      <trkpt lat="38.4988530" lon="-0.6439700">
        <ele>928.6</ele>
        <time>2018-10-27T06:53:13Z</time>
      </trkpt>
      <trkpt lat="38.4988520" lon="-0.6439170">
        <ele>929.8</ele>
        <time>2018-10-27T06:53:16Z</time>
      </trkpt>
      <trkpt lat="38.4988470" lon="-0.6438630">
        <ele>930.8</ele>
        <time>2018-10-27T06:53:19Z</time>
      </trkpt>
      <trkpt lat="38.4988440" lon="-0.6438290">
        <ele>931.4</ele>
        <time>2018-10-27T06:53:21Z</time>
      </trkpt>
      <trkpt lat="38.4988450" lon="-0.6437950">
        <ele>931.8</ele>
        <time>2018-10-27T06:53:23Z</time>
      </trkpt>
      <trkpt lat="38.4988510" lon="-0.6437180">
        <ele>933.0</ele>
        <time>2018-10-27T06:53:28Z</time>
      </trkpt>
      <trkpt lat="38.4988470" lon="-0.6436150">
        <ele>934.0</ele>
        <time>2018-10-27T06:53:34Z</time>
      </trkpt>
      <trkpt lat="38.4988460" lon="-0.6435980">
        <ele>934.2</ele>
        <time>2018-10-27T06:53:35Z</time>
      </trkpt>
      <trkpt lat="38.4988180" lon="-0.6434950">
        <ele>935.0</ele>
        <time>2018-10-27T06:53:41Z</time>
      </trkpt>
      <trkpt lat="38.4988080" lon="-0.6434680">
        <ele>935.4</ele>
        <time>2018-10-27T06:53:43Z</time>
      </trkpt>
      <trkpt lat="38.4987780" lon="-0.6433910">
        <ele>936.6</ele>
        <time>2018-10-27T06:53:48Z</time>
      </trkpt>
      <trkpt lat="38.4987780" lon="-0.6432740">
        <ele>937.2</ele>
        <time>2018-10-27T06:53:55Z</time>
      </trkpt>
      <trkpt lat="38.4987440" lon="-0.6431760">
        <ele>937.6</ele>
        <time>2018-10-27T06:54:01Z</time>
      </trkpt>
      <trkpt lat="38.4987380" lon="-0.6431640">
        <ele>937.6</ele>
        <time>2018-10-27T06:54:02Z</time>
      </trkpt>
      <trkpt lat="38.4986920" lon="-0.6430960">
        <ele>938.8</ele>
        <time>2018-10-27T06:54:07Z</time>
      </trkpt>
      <trkpt lat="38.4986840" lon="-0.6430830">
        <ele>938.8</ele>
        <time>2018-10-27T06:54:08Z</time>
      </trkpt>
      <trkpt lat="38.4986500" lon="-0.6429910">
        <ele>939.6</ele>
        <time>2018-10-27T06:54:13Z</time>
      </trkpt>
      <trkpt lat="38.4986540" lon="-0.6429710">
        <ele>939.8</ele>
        <time>2018-10-27T06:54:14Z</time>
      </trkpt>
      <trkpt lat="38.4986570" lon="-0.6429520">
        <ele>940.0</ele>
        <time>2018-10-27T06:54:15Z</time>
      </trkpt>
      <trkpt lat="38.4987080" lon="-0.6428430">
        <ele>941.2</ele>
        <time>2018-10-27T06:54:22Z</time>
      </trkpt>
      <trkpt lat="38.4987230" lon="-0.6428320">
        <ele>941.2</ele>
        <time>2018-10-27T06:54:23Z</time>
      </trkpt>
      <trkpt lat="38.4987650" lon="-0.6427830">
        <ele>942.0</ele>
        <time>2018-10-27T06:54:27Z</time>
      </trkpt>
      <trkpt lat="38.4987730" lon="-0.6427680">
        <ele>942.2</ele>
        <time>2018-10-27T06:54:28Z</time>
      </trkpt>
      <trkpt lat="38.4988080" lon="-0.6427060">
        <ele>942.6</ele>
        <time>2018-10-27T06:54:32Z</time>
      </trkpt>
      <trkpt lat="38.4988550" lon="-0.6426120">
        <ele>943.2</ele>
        <time>2018-10-27T06:54:38Z</time>
      </trkpt>
      <trkpt lat="38.4988650" lon="-0.6425980">
        <ele>943.6</ele>
        <time>2018-10-27T06:54:39Z</time>
      </trkpt>
      <trkpt lat="38.4989080" lon="-0.6425100">
        <ele>944.4</ele>
        <time>2018-10-27T06:54:44Z</time>
      </trkpt>
      <trkpt lat="38.4989190" lon="-0.6424640">
        <ele>944.6</ele>
        <time>2018-10-27T06:54:46Z</time>
      </trkpt>
      <trkpt lat="38.4989310" lon="-0.6423770">
        <ele>945.6</ele>
        <time>2018-10-27T06:54:51Z</time>
      </trkpt>
      <trkpt lat="38.4989310" lon="-0.6423400">
        <ele>945.8</ele>
        <time>2018-10-27T06:54:53Z</time>
      </trkpt>
      <trkpt lat="38.4989230" lon="-0.6422980">
        <ele>946.2</ele>
        <time>2018-10-27T06:54:56Z</time>
      </trkpt>
      <trkpt lat="38.4989080" lon="-0.6422790">
        <ele>946.6</ele>
        <time>2018-10-27T06:54:58Z</time>
      </trkpt>
      <trkpt lat="38.4988960" lon="-0.6422690">
        <ele>946.8</ele>
        <time>2018-10-27T06:54:59Z</time>
      </trkpt>
      <trkpt lat="38.4988540" lon="-0.6422540">
        <ele>947.6</ele>
        <time>2018-10-27T06:55:02Z</time>
      </trkpt>
      <trkpt lat="38.4988000" lon="-0.6422620">
        <ele>948.6</ele>
        <time>2018-10-27T06:55:06Z</time>
      </trkpt>
      <trkpt lat="38.4987900" lon="-0.6422630">
        <ele>949.0</ele>
        <time>2018-10-27T06:55:07Z</time>
      </trkpt>
      <trkpt lat="38.4987650" lon="-0.6422670">
        <ele>950.2</ele>
        <time>2018-10-27T06:55:09Z</time>
      </trkpt>
      <trkpt lat="38.4986960" lon="-0.6423170">
        <ele>951.0</ele>
        <time>2018-10-27T06:55:14Z</time>
      </trkpt>
      <trkpt lat="38.4986690" lon="-0.6423360">
        <ele>951.2</ele>
        <time>2018-10-27T06:55:16Z</time>
      </trkpt>
      <trkpt lat="38.4985900" lon="-0.6423420">
        <ele>952.4</ele>
        <time>2018-10-27T06:55:22Z</time>
      </trkpt>
      <trkpt lat="38.4985590" lon="-0.6422950">
        <ele>953.2</ele>
        <time>2018-10-27T06:55:26Z</time>
      </trkpt>
      <trkpt lat="38.4985550" lon="-0.6422780">
        <ele>953.4</ele>
        <time>2018-10-27T06:55:27Z</time>
      </trkpt>
      <trkpt lat="38.4985570" lon="-0.6422560">
        <ele>953.6</ele>
        <time>2018-10-27T06:55:28Z</time>
      </trkpt>
      <trkpt lat="38.4985990" lon="-0.6421790">
        <ele>954.4</ele>
        <time>2018-10-27T06:55:33Z</time>
      </trkpt>
      <trkpt lat="38.4986130" lon="-0.6421640">
        <ele>954.6</ele>
        <time>2018-10-27T06:55:34Z</time>
      </trkpt>
      <trkpt lat="38.4986550" lon="-0.6420570">
        <ele>955.2</ele>
        <time>2018-10-27T06:55:39Z</time>
      </trkpt>
      <trkpt lat="38.4986740" lon="-0.6420140">
        <ele>955.8</ele>
        <time>2018-10-27T06:55:41Z</time>
      </trkpt>
      <trkpt lat="38.4987090" lon="-0.6419310">
        <ele>956.2</ele>
        <time>2018-10-27T06:55:45Z</time>
      </trkpt>
      <trkpt lat="38.4987580" lon="-0.6418380">
        <ele>957.0</ele>
        <time>2018-10-27T06:55:50Z</time>
      </trkpt>
      <trkpt lat="38.4987670" lon="-0.6417880">
        <ele>957.8</ele>
        <time>2018-10-27T06:55:53Z</time>
      </trkpt>
      <trkpt lat="38.4987700" lon="-0.6417570">
        <ele>958.2</ele>
        <time>2018-10-27T06:55:55Z</time>
      </trkpt>
      <trkpt lat="38.4987820" lon="-0.6416890">
        <ele>959.0</ele>
        <time>2018-10-27T06:55:59Z</time>
      </trkpt>
      <trkpt lat="38.4987880" lon="-0.6416690">
        <ele>959.2</ele>
        <time>2018-10-27T06:56:00Z</time>
      </trkpt>
      <trkpt lat="38.4988100" lon="-0.6416050">
        <ele>960.2</ele>
        <time>2018-10-27T06:56:04Z</time>
      </trkpt>
      <trkpt lat="38.4988160" lon="-0.6415870">
        <ele>960.4</ele>
        <time>2018-10-27T06:56:05Z</time>
      </trkpt>
      <trkpt lat="38.4988240" lon="-0.6415680">
        <ele>960.4</ele>
        <time>2018-10-27T06:56:06Z</time>
      </trkpt>
      <trkpt lat="38.4988650" lon="-0.6415000">
        <ele>961.4</ele>
        <time>2018-10-27T06:56:10Z</time>
      </trkpt>
      <trkpt lat="38.4989010" lon="-0.6414520">
        <ele>962.0</ele>
        <time>2018-10-27T06:56:13Z</time>
      </trkpt>
      <trkpt lat="38.4989360" lon="-0.6413990">
        <ele>962.4</ele>
        <time>2018-10-27T06:56:16Z</time>
      </trkpt>
      <trkpt lat="38.4989580" lon="-0.6413660">
        <ele>962.8</ele>
        <time>2018-10-27T06:56:18Z</time>
      </trkpt>
      <trkpt lat="38.4989820" lon="-0.6413150">
        <ele>963.4</ele>
        <time>2018-10-27T06:56:21Z</time>
      </trkpt>
      <trkpt lat="38.4990010" lon="-0.6412410">
        <ele>964.0</ele>
        <time>2018-10-27T06:56:25Z</time>
      </trkpt>
      <trkpt lat="38.4989970" lon="-0.6412080">
        <ele>964.4</ele>
        <time>2018-10-27T06:56:27Z</time>
      </trkpt>
      <trkpt lat="38.4989660" lon="-0.6411370">
        <ele>965.0</ele>
        <time>2018-10-27T06:56:31Z</time>
      </trkpt>
      <trkpt lat="38.4989420" lon="-0.6410900">
        <ele>965.4</ele>
        <time>2018-10-27T06:56:34Z</time>
      </trkpt>
      <trkpt lat="38.4989280" lon="-0.6410380">
        <ele>966.4</ele>
        <time>2018-10-27T06:56:37Z</time>
      </trkpt>
      <trkpt lat="38.4989220" lon="-0.6409980">
        <ele>966.8</ele>
        <time>2018-10-27T06:56:39Z</time>
      </trkpt>
      <trkpt lat="38.4989170" lon="-0.6409280">
        <ele>967.4</ele>
        <time>2018-10-27T06:56:42Z</time>
      </trkpt>
      <trkpt lat="38.4989310" lon="-0.6408660">
        <ele>967.8</ele>
        <time>2018-10-27T06:56:45Z</time>
      </trkpt>
      <trkpt lat="38.4989440" lon="-0.6408510">
        <ele>968.0</ele>
        <time>2018-10-27T06:56:46Z</time>
      </trkpt>
      <trkpt lat="38.4990220" lon="-0.6407890">
        <ele>969.0</ele>
        <time>2018-10-27T06:56:51Z</time>
      </trkpt>
      <trkpt lat="38.4990360" lon="-0.6407770">
        <ele>969.0</ele>
        <time>2018-10-27T06:56:52Z</time>
      </trkpt>
      <trkpt lat="38.4990620" lon="-0.6407580">
        <ele>969.4</ele>
        <time>2018-10-27T06:56:54Z</time>
      </trkpt>
      <trkpt lat="38.4991170" lon="-0.6407060">
        <ele>970.0</ele>
        <time>2018-10-27T06:56:58Z</time>
      </trkpt>
      <trkpt lat="38.4991270" lon="-0.6406910">
        <ele>970.0</ele>
        <time>2018-10-27T06:56:59Z</time>
      </trkpt>
      <trkpt lat="38.4991570" lon="-0.6406270">
        <ele>970.6</ele>
        <time>2018-10-27T06:57:02Z</time>
      </trkpt>
      <trkpt lat="38.4991870" lon="-0.6405690">
        <ele>971.2</ele>
        <time>2018-10-27T06:57:05Z</time>
      </trkpt>
      <trkpt lat="38.4991990" lon="-0.6405080">
        <ele>971.8</ele>
        <time>2018-10-27T06:57:08Z</time>
      </trkpt>
      <trkpt lat="38.4992310" lon="-0.6404260">
        <ele>972.2</ele>
        <time>2018-10-27T06:57:12Z</time>
      </trkpt>
      <trkpt lat="38.4992400" lon="-0.6404050">
        <ele>972.6</ele>
        <time>2018-10-27T06:57:13Z</time>
      </trkpt>
      <trkpt lat="38.4992980" lon="-0.6402970">
        <ele>973.2</ele>
        <time>2018-10-27T06:57:19Z</time>
      </trkpt>
      <trkpt lat="38.4993170" lon="-0.6402620">
        <ele>973.4</ele>
        <time>2018-10-27T06:57:21Z</time>
      </trkpt>
      <trkpt lat="38.4993490" lon="-0.6401760">
        <ele>974.4</ele>
        <time>2018-10-27T06:57:26Z</time>
      </trkpt>
      <trkpt lat="38.4993600" lon="-0.6401620">
        <ele>974.4</ele>
        <time>2018-10-27T06:57:27Z</time>
      </trkpt>
      <trkpt lat="38.4994110" lon="-0.6400560">
        <ele>974.8</ele>
        <time>2018-10-27T06:57:33Z</time>
      </trkpt>
      <trkpt lat="38.4994330" lon="-0.6400030">
        <ele>975.0</ele>
        <time>2018-10-27T06:57:36Z</time>
      </trkpt>
      <trkpt lat="38.4994530" lon="-0.6399730">
        <ele>975.4</ele>
        <time>2018-10-27T06:57:38Z</time>
      </trkpt>
      <trkpt lat="38.4994700" lon="-0.6399380">
        <ele>975.6</ele>
        <time>2018-10-27T06:57:40Z</time>
      </trkpt>
      <trkpt lat="38.4994950" lon="-0.6398600">
        <ele>976.6</ele>
        <time>2018-10-27T06:57:44Z</time>
      </trkpt>
      <trkpt lat="38.4995200" lon="-0.6397840">
        <ele>977.4</ele>
        <time>2018-10-27T06:57:48Z</time>
      </trkpt>
      <trkpt lat="38.4995290" lon="-0.6397530">
        <ele>977.8</ele>
        <time>2018-10-27T06:57:50Z</time>
      </trkpt>
      <trkpt lat="38.4995470" lon="-0.6396960">
        <ele>979.2</ele>
        <time>2018-10-27T06:57:53Z</time>
      </trkpt>
      <trkpt lat="38.4995570" lon="-0.6396550">
        <ele>979.8</ele>
        <time>2018-10-27T06:57:55Z</time>
      </trkpt>
      <trkpt lat="38.4995640" lon="-0.6396240">
        <ele>980.2</ele>
        <time>2018-10-27T06:57:57Z</time>
      </trkpt>
      <trkpt lat="38.4995780" lon="-0.6395900">
        <ele>981.4</ele>
        <time>2018-10-27T06:58:01Z</time>
      </trkpt>
      <trkpt lat="38.4995780" lon="-0.6395820">
        <ele>981.6</ele>
        <time>2018-10-27T06:58:02Z</time>
      </trkpt>
      <trkpt lat="38.4996100" lon="-0.6395120">
        <ele>982.6</ele>
        <time>2018-10-27T06:58:07Z</time>
      </trkpt>
      <trkpt lat="38.4996160" lon="-0.6394970">
        <ele>982.8</ele>
        <time>2018-10-27T06:58:08Z</time>
      </trkpt>
      <trkpt lat="38.4996170" lon="-0.6394250">
        <ele>983.6</ele>
        <time>2018-10-27T06:58:12Z</time>
      </trkpt>
      <trkpt lat="38.4996260" lon="-0.6393940">
        <ele>984.8</ele>
        <time>2018-10-27T06:58:14Z</time>
      </trkpt>
      <trkpt lat="38.4996340" lon="-0.6393850">
        <ele>985.2</ele>
        <time>2018-10-27T06:58:15Z</time>
      </trkpt>
      <trkpt lat="38.4996430" lon="-0.6393740">
        <ele>985.4</ele>
        <time>2018-10-27T06:58:16Z</time>
      </trkpt>
      <trkpt lat="38.4996630" lon="-0.6393530">
        <ele>986.0</ele>
        <time>2018-10-27T06:58:18Z</time>
      </trkpt>
      <trkpt lat="38.4996810" lon="-0.6393500">
        <ele>986.6</ele>
        <time>2018-10-27T06:58:21Z</time>
      </trkpt>
      <trkpt lat="38.4996860" lon="-0.6393520">
        <ele>987.2</ele>
        <time>2018-10-27T06:58:23Z</time>
      </trkpt>
      <trkpt lat="38.4996870" lon="-0.6393830">
        <ele>988.0</ele>
        <time>2018-10-27T06:58:29Z</time>
      </trkpt>
      <trkpt lat="38.4996860" lon="-0.6393880">
        <ele>988.2</ele>
        <time>2018-10-27T06:58:30Z</time>
      </trkpt>
      <trkpt lat="38.4996810" lon="-0.6393940">
        <ele>988.4</ele>
        <time>2018-10-27T06:58:32Z</time>
      </trkpt>
      <trkpt lat="38.4996800" lon="-0.6393950">
        <ele>988.4</ele>
        <time>2018-10-27T06:58:33Z</time>
      </trkpt>
      <trkpt lat="38.4996800" lon="-0.6393920">
        <ele>988.4</ele>
        <time>2018-10-27T06:58:34Z</time>
      </trkpt>
      <trkpt lat="38.4996770" lon="-0.6393940">
        <ele>988.4</ele>
        <time>2018-10-27T06:58:35Z</time>
      </trkpt>
      <trkpt lat="38.4997490" lon="-0.6392140">
        <ele>990.0</ele>
        <time>2018-10-27T06:58:53Z</time>
      </trkpt>
      <trkpt lat="38.4997540" lon="-0.6391970">
        <ele>990.2</ele>
        <time>2018-10-27T06:58:54Z</time>
      </trkpt>
      <trkpt lat="38.4997570" lon="-0.6391470">
        <ele>991.2</ele>
        <time>2018-10-27T06:58:57Z</time>
      </trkpt>
      <trkpt lat="38.4997480" lon="-0.6391020">
        <ele>992.0</ele>
        <time>2018-10-27T06:59:00Z</time>
      </trkpt>
      <trkpt lat="38.4997430" lon="-0.6390900">
        <ele>992.4</ele>
        <time>2018-10-27T06:59:01Z</time>
      </trkpt>
      <trkpt lat="38.4997210" lon="-0.6390470">
        <ele>993.6</ele>
        <time>2018-10-27T06:59:04Z</time>
      </trkpt>
      <trkpt lat="38.4996980" lon="-0.6389940">
        <ele>994.6</ele>
        <time>2018-10-27T06:59:08Z</time>
      </trkpt>
      <trkpt lat="38.4996950" lon="-0.6389830">
        <ele>995.0</ele>
        <time>2018-10-27T06:59:09Z</time>
      </trkpt>
      <trkpt lat="38.4996920" lon="-0.6389740">
        <ele>995.6</ele>
        <time>2018-10-27T06:59:10Z</time>
      </trkpt>
      <trkpt lat="38.4996860" lon="-0.6389570">
        <ele>996.4</ele>
        <time>2018-10-27T06:59:12Z</time>
      </trkpt>
      <trkpt lat="38.4996700" lon="-0.6389220">
        <ele>997.4</ele>
        <time>2018-10-27T06:59:16Z</time>
      </trkpt>
      <trkpt lat="38.4996580" lon="-0.6389030">
        <ele>997.6</ele>
        <time>2018-10-27T06:59:17Z</time>
      </trkpt>
      <trkpt lat="38.4996510" lon="-0.6388800">
        <ele>998.0</ele>
        <time>2018-10-27T06:59:18Z</time>
      </trkpt>
      <trkpt lat="38.4996500" lon="-0.6388360">
        <ele>998.4</ele>
        <time>2018-10-27T06:59:20Z</time>
      </trkpt>
      <trkpt lat="38.4996580" lon="-0.6387790">
        <ele>998.6</ele>
        <time>2018-10-27T06:59:22Z</time>
      </trkpt>
      <trkpt lat="38.4996680" lon="-0.6387210">
        <ele>999.8</ele>
        <time>2018-10-27T06:59:24Z</time>
      </trkpt>
      <trkpt lat="38.4996830" lon="-0.6386500">
        <ele>1001.0</ele>
        <time>2018-10-27T06:59:27Z</time>
      </trkpt>
      <trkpt lat="38.4996930" lon="-0.6386080">
        <ele>1002.0</ele>
        <time>2018-10-27T06:59:29Z</time>
      </trkpt>
      <trkpt lat="38.4996980" lon="-0.6385870">
        <ele>1002.2</ele>
        <time>2018-10-27T06:59:30Z</time>
      </trkpt>
      <trkpt lat="38.4997330" lon="-0.6384880">
        <ele>1003.0</ele>
        <time>2018-10-27T06:59:35Z</time>
      </trkpt>
      <trkpt lat="38.4997590" lon="-0.6384550">
        <ele>1003.4</ele>
        <time>2018-10-27T06:59:37Z</time>
      </trkpt>
      <trkpt lat="38.4998090" lon="-0.6383870">
        <ele>1004.0</ele>
        <time>2018-10-27T06:59:42Z</time>
      </trkpt>
      <trkpt lat="38.4998600" lon="-0.6383380">
        <ele>1004.8</ele>
        <time>2018-10-27T06:59:47Z</time>
      </trkpt>
      <trkpt lat="38.4999010" lon="-0.6383090">
        <ele>1005.2</ele>
        <time>2018-10-27T06:59:50Z</time>
      </trkpt>
      <trkpt lat="38.4999080" lon="-0.6382970">
        <ele>1005.2</ele>
        <time>2018-10-27T06:59:51Z</time>
      </trkpt>
      <trkpt lat="38.4999440" lon="-0.6382450">
        <ele>1005.8</ele>
        <time>2018-10-27T06:59:54Z</time>
      </trkpt>
      <trkpt lat="38.4999530" lon="-0.6382290">
        <ele>1005.8</ele>
        <time>2018-10-27T06:59:55Z</time>
      </trkpt>
      <trkpt lat="38.5000140" lon="-0.6380940">
        <ele>1006.6</ele>
        <time>2018-10-27T07:00:02Z</time>
      </trkpt>
      <trkpt lat="38.5000400" lon="-0.6380570">
        <ele>1006.8</ele>
        <time>2018-10-27T07:00:04Z</time>
      </trkpt>
      <trkpt lat="38.5001200" lon="-0.6379880">
        <ele>1007.4</ele>
        <time>2018-10-27T07:00:09Z</time>
      </trkpt>
      <trkpt lat="38.5001420" lon="-0.6379910">
        <ele>1007.4</ele>
        <time>2018-10-27T07:00:10Z</time>
      </trkpt>
      <trkpt lat="38.5001570" lon="-0.6380050">
        <ele>1007.4</ele>
        <time>2018-10-27T07:00:11Z</time>
      </trkpt>
      <trkpt lat="38.5001660" lon="-0.6380550">
        <ele>1007.2</ele>
        <time>2018-10-27T07:00:13Z</time>
      </trkpt>
      <trkpt lat="38.5001690" lon="-0.6380860">
        <ele>1007.2</ele>
        <time>2018-10-27T07:00:14Z</time>
      </trkpt>
      <trkpt lat="38.5001760" lon="-0.6382610">
        <ele>1007.4</ele>
        <time>2018-10-27T07:00:20Z</time>
      </trkpt>
      <trkpt lat="38.5001790" lon="-0.6382870">
        <ele>1007.4</ele>
        <time>2018-10-27T07:00:21Z</time>
      </trkpt>
      <trkpt lat="38.5002100" lon="-0.6384080">
        <ele>1007.2</ele>
        <time>2018-10-27T07:00:26Z</time>
      </trkpt>
      <trkpt lat="38.5002160" lon="-0.6384170">
        <ele>1007.2</ele>
        <time>2018-10-27T07:00:27Z</time>
      </trkpt>
      <trkpt lat="38.5002250" lon="-0.6384240">
        <ele>1007.4</ele>
        <time>2018-10-27T07:00:30Z</time>
      </trkpt>
      <trkpt lat="38.5003250" lon="-0.6384280">
        <ele>1007.2</ele>
        <time>2018-10-27T07:00:59Z</time>
      </trkpt>
      <trkpt lat="38.5003380" lon="-0.6384190">
        <ele>1007.2</ele>
        <time>2018-10-27T07:01:00Z</time>
      </trkpt>
      <trkpt lat="38.5003510" lon="-0.6384090">
        <ele>1007.2</ele>
        <time>2018-10-27T07:01:01Z</time>
      </trkpt>
      <trkpt lat="38.5003740" lon="-0.6383980">
        <ele>1007.6</ele>
        <time>2018-10-27T07:01:03Z</time>
      </trkpt>
      <trkpt lat="38.5003950" lon="-0.6383790">
        <ele>1008.0</ele>
        <time>2018-10-27T07:01:05Z</time>
      </trkpt>
      <trkpt lat="38.5004060" lon="-0.6383630">
        <ele>1009.4</ele>
        <time>2018-10-27T07:01:08Z</time>
      </trkpt>
      <trkpt lat="38.5004210" lon="-0.6383660">
        <ele>1010.0</ele>
        <time>2018-10-27T07:01:12Z</time>
      </trkpt>
      <trkpt lat="38.5004250" lon="-0.6383710">
        <ele>1010.2</ele>
        <time>2018-10-27T07:01:13Z</time>
      </trkpt>
      <trkpt lat="38.5004280" lon="-0.6383630">
        <ele>1010.4</ele>
        <time>2018-10-27T07:01:16Z</time>
      </trkpt>
      <trkpt lat="38.5004310" lon="-0.6383530">
        <ele>1010.4</ele>
        <time>2018-10-27T07:01:17Z</time>
      </trkpt>
      <trkpt lat="38.5004700" lon="-0.6382610">
        <ele>1010.8</ele>
        <time>2018-10-27T07:01:23Z</time>
      </trkpt>
      <trkpt lat="38.5004900" lon="-0.6381820">
        <ele>1011.4</ele>
        <time>2018-10-27T07:01:27Z</time>
      </trkpt>
      <trkpt lat="38.5005020" lon="-0.6381280">
        <ele>1012.6</ele>
        <time>2018-10-27T07:01:30Z</time>
      </trkpt>
      <trkpt lat="38.5005070" lon="-0.6381090">
        <ele>1012.8</ele>
        <time>2018-10-27T07:01:31Z</time>
      </trkpt>
      <trkpt lat="38.5005290" lon="-0.6380760">
        <ele>1013.8</ele>
        <time>2018-10-27T07:01:33Z</time>
      </trkpt>
      <trkpt lat="38.5005740" lon="-0.6380100">
        <ele>1014.8</ele>
        <time>2018-10-27T07:01:37Z</time>
      </trkpt>
      <trkpt lat="38.5005920" lon="-0.6379790">
        <ele>1015.6</ele>
        <time>2018-10-27T07:01:39Z</time>
      </trkpt>
      <trkpt lat="38.5006200" lon="-0.6379380">
        <ele>1016.4</ele>
        <time>2018-10-27T07:01:42Z</time>
      </trkpt>
      <trkpt lat="38.5006570" lon="-0.6379050">
        <ele>1017.6</ele>
        <time>2018-10-27T07:01:45Z</time>
      </trkpt>
      <trkpt lat="38.5006830" lon="-0.6378850">
        <ele>1018.2</ele>
        <time>2018-10-27T07:01:47Z</time>
      </trkpt>
      <trkpt lat="38.5007340" lon="-0.6378410">
        <ele>1018.8</ele>
        <time>2018-10-27T07:01:51Z</time>
      </trkpt>
      <trkpt lat="38.5007930" lon="-0.6377940">
        <ele>1019.2</ele>
        <time>2018-10-27T07:01:55Z</time>
      </trkpt>
      <trkpt lat="38.5008220" lon="-0.6377530">
        <ele>1019.8</ele>
        <time>2018-10-27T07:01:58Z</time>
      </trkpt>
      <trkpt lat="38.5008450" lon="-0.6377120">
        <ele>1020.4</ele>
        <time>2018-10-27T07:02:01Z</time>
      </trkpt>
      <trkpt lat="38.5008550" lon="-0.6376810">
        <ele>1020.6</ele>
        <time>2018-10-27T07:02:03Z</time>
      </trkpt>
      <trkpt lat="38.5008590" lon="-0.6376660">
        <ele>1020.8</ele>
        <time>2018-10-27T07:02:04Z</time>
      </trkpt>
      <trkpt lat="38.5008790" lon="-0.6376400">
        <ele>1021.6</ele>
        <time>2018-10-27T07:02:06Z</time>
      </trkpt>
      <trkpt lat="38.5009030" lon="-0.6376210">
        <ele>1022.2</ele>
        <time>2018-10-27T07:02:08Z</time>
      </trkpt>
      <trkpt lat="38.5009120" lon="-0.6376110">
        <ele>1022.4</ele>
        <time>2018-10-27T07:02:09Z</time>
      </trkpt>
      <trkpt lat="38.5009580" lon="-0.6375520">
        <ele>1023.2</ele>
        <time>2018-10-27T07:02:14Z</time>
      </trkpt>
      <trkpt lat="38.5009740" lon="-0.6375290">
        <ele>1023.8</ele>
        <time>2018-10-27T07:02:16Z</time>
      </trkpt>
      <trkpt lat="38.5009870" lon="-0.6375050">
        <ele>1024.4</ele>
        <time>2018-10-27T07:02:18Z</time>
      </trkpt>
      <trkpt lat="38.5010120" lon="-0.6374720">
        <ele>1025.6</ele>
        <time>2018-10-27T07:02:21Z</time>
      </trkpt>
      <trkpt lat="38.5010300" lon="-0.6374500">
        <ele>1026.2</ele>
        <time>2018-10-27T07:02:23Z</time>
      </trkpt>
      <trkpt lat="38.5010470" lon="-0.6374230">
        <ele>1026.8</ele>
        <time>2018-10-27T07:02:25Z</time>
      </trkpt>
      <trkpt lat="38.5010570" lon="-0.6374010">
        <ele>1027.0</ele>
        <time>2018-10-27T07:02:27Z</time>
      </trkpt>
      <trkpt lat="38.5010630" lon="-0.6373780">
        <ele>1027.6</ele>
        <time>2018-10-27T07:02:29Z</time>
      </trkpt>
      <trkpt lat="38.5010680" lon="-0.6373660">
        <ele>1028.0</ele>
        <time>2018-10-27T07:02:30Z</time>
      </trkpt>
      <trkpt lat="38.5010990" lon="-0.6373240">
        <ele>1029.0</ele>
        <time>2018-10-27T07:02:34Z</time>
      </trkpt>
      <trkpt lat="38.5011110" lon="-0.6373130">
        <ele>1029.2</ele>
        <time>2018-10-27T07:02:35Z</time>
      </trkpt>
      <trkpt lat="38.5011590" lon="-0.6372560">
        <ele>1030.2</ele>
        <time>2018-10-27T07:02:40Z</time>
      </trkpt>
      <trkpt lat="38.5011650" lon="-0.6372460">
        <ele>1030.6</ele>
        <time>2018-10-27T07:02:41Z</time>
      </trkpt>
      <trkpt lat="38.5011840" lon="-0.6372250">
        <ele>1031.4</ele>
        <time>2018-10-27T07:02:43Z</time>
      </trkpt>
      <trkpt lat="38.5012300" lon="-0.6371950">
        <ele>1032.6</ele>
        <time>2018-10-27T07:02:47Z</time>
      </trkpt>
      <trkpt lat="38.5012460" lon="-0.6371940">
        <ele>1032.8</ele>
        <time>2018-10-27T07:02:48Z</time>
      </trkpt>
      <trkpt lat="38.5012910" lon="-0.6371750">
        <ele>1033.8</ele>
        <time>2018-10-27T07:02:52Z</time>
      </trkpt>
      <trkpt lat="38.5013220" lon="-0.6371540">
        <ele>1034.6</ele>
        <time>2018-10-27T07:02:55Z</time>
      </trkpt>
      <trkpt lat="38.5013440" lon="-0.6371420">
        <ele>1034.8</ele>
        <time>2018-10-27T07:02:57Z</time>
      </trkpt>
      <trkpt lat="38.5013960" lon="-0.6371080">
        <ele>1035.8</ele>
        <time>2018-10-27T07:03:01Z</time>
      </trkpt>
      <trkpt lat="38.5014050" lon="-0.6371010">
        <ele>1036.0</ele>
        <time>2018-10-27T07:03:02Z</time>
      </trkpt>
      <trkpt lat="38.5014500" lon="-0.6370760">
        <ele>1037.2</ele>
        <time>2018-10-27T07:03:06Z</time>
      </trkpt>
      <trkpt lat="38.5014610" lon="-0.6370710">
        <ele>1037.4</ele>
        <time>2018-10-27T07:03:07Z</time>
      </trkpt>
      <trkpt lat="38.5015020" lon="-0.6370460">
        <ele>1038.4</ele>
        <time>2018-10-27T07:03:12Z</time>
      </trkpt>
      <trkpt lat="38.5015250" lon="-0.6370340">
        <ele>1039.0</ele>
        <time>2018-10-27T07:03:14Z</time>
      </trkpt>
      <trkpt lat="38.5015450" lon="-0.6370210">
        <ele>1039.6</ele>
        <time>2018-10-27T07:03:16Z</time>
      </trkpt>
      <trkpt lat="38.5015840" lon="-0.6370120">
        <ele>1040.6</ele>
        <time>2018-10-27T07:03:20Z</time>
      </trkpt>
      <trkpt lat="38.5016080" lon="-0.6370140">
        <ele>1041.4</ele>
        <time>2018-10-27T07:03:23Z</time>
      </trkpt>
      <trkpt lat="38.5016200" lon="-0.6370050">
        <ele>1041.8</ele>
        <time>2018-10-27T07:03:25Z</time>
      </trkpt>
      <trkpt lat="38.5016610" lon="-0.6369910">
        <ele>1042.8</ele>
        <time>2018-10-27T07:03:29Z</time>
      </trkpt>
      <trkpt lat="38.5016980" lon="-0.6369740">
        <ele>1043.8</ele>
        <time>2018-10-27T07:03:33Z</time>
      </trkpt>
      <trkpt lat="38.5017260" lon="-0.6369650">
        <ele>1044.8</ele>
        <time>2018-10-27T07:03:37Z</time>
      </trkpt>
      <trkpt lat="38.5017290" lon="-0.6369630">
        <ele>1045.0</ele>
        <time>2018-10-27T07:03:38Z</time>
      </trkpt>
      <trkpt lat="38.5017350" lon="-0.6369480">
        <ele>1046.0</ele>
        <time>2018-10-27T07:03:40Z</time>
      </trkpt>
      <trkpt lat="38.5017500" lon="-0.6369230">
        <ele>1047.0</ele>
        <time>2018-10-27T07:03:44Z</time>
      </trkpt>
      <trkpt lat="38.5017530" lon="-0.6369170">
        <ele>1047.4</ele>
        <time>2018-10-27T07:03:45Z</time>
      </trkpt>
      <trkpt lat="38.5017580" lon="-0.6369080">
        <ele>1047.8</ele>
        <time>2018-10-27T07:03:46Z</time>
      </trkpt>
      <trkpt lat="38.5017640" lon="-0.6369000">
        <ele>1048.2</ele>
        <time>2018-10-27T07:03:47Z</time>
      </trkpt>
      <trkpt lat="38.5017920" lon="-0.6368580">
        <ele>1049.6</ele>
        <time>2018-10-27T07:03:52Z</time>
      </trkpt>
      <trkpt lat="38.5018180" lon="-0.6368270">
        <ele>1050.6</ele>
        <time>2018-10-27T07:03:58Z</time>
      </trkpt>
      <trkpt lat="38.5018210" lon="-0.6368190">
        <ele>1050.8</ele>
        <time>2018-10-27T07:03:59Z</time>
      </trkpt>
      <trkpt lat="38.5018290" lon="-0.6367820">
        <ele>1051.4</ele>
        <time>2018-10-27T07:04:02Z</time>
      </trkpt>
      <trkpt lat="38.5018400" lon="-0.6367620">
        <ele>1051.8</ele>
        <time>2018-10-27T07:04:04Z</time>
      </trkpt>
      <trkpt lat="38.5018510" lon="-0.6367260">
        <ele>1052.8</ele>
        <time>2018-10-27T07:04:08Z</time>
      </trkpt>
      <trkpt lat="38.5018720" lon="-0.6367070">
        <ele>1053.6</ele>
        <time>2018-10-27T07:04:11Z</time>
      </trkpt>
      <trkpt lat="38.5018820" lon="-0.6366930">
        <ele>1054.0</ele>
        <time>2018-10-27T07:04:13Z</time>
      </trkpt>
      <trkpt lat="38.5019210" lon="-0.6366660">
        <ele>1055.0</ele>
        <time>2018-10-27T07:04:17Z</time>
      </trkpt>
      <trkpt lat="38.5019620" lon="-0.6366520">
        <ele>1056.0</ele>
        <time>2018-10-27T07:04:21Z</time>
      </trkpt>
      <trkpt lat="38.5019720" lon="-0.6366540">
        <ele>1056.2</ele>
        <time>2018-10-27T07:04:22Z</time>
      </trkpt>
      <trkpt lat="38.5020280" lon="-0.6366980">
        <ele>1057.2</ele>
        <time>2018-10-27T07:04:28Z</time>
      </trkpt>
      <trkpt lat="38.5020380" lon="-0.6367060">
        <ele>1057.6</ele>
        <time>2018-10-27T07:04:29Z</time>
      </trkpt>
      <trkpt lat="38.5020710" lon="-0.6367510">
        <ele>1058.2</ele>
        <time>2018-10-27T07:04:33Z</time>
      </trkpt>
      <trkpt lat="38.5020820" lon="-0.6367780">
        <ele>1058.6</ele>
        <time>2018-10-27T07:04:35Z</time>
      </trkpt>
      <trkpt lat="38.5020850" lon="-0.6368050">
        <ele>1059.4</ele>
        <time>2018-10-27T07:04:37Z</time>
      </trkpt>
      <trkpt lat="38.5020960" lon="-0.6368680">
        <ele>1060.6</ele>
        <time>2018-10-27T07:04:42Z</time>
      </trkpt>
      <trkpt lat="38.5021340" lon="-0.6369740">
        <ele>1061.8</ele>
        <time>2018-10-27T07:04:49Z</time>
      </trkpt>
      <trkpt lat="38.5021390" lon="-0.6369860">
        <ele>1062.0</ele>
        <time>2018-10-27T07:04:50Z</time>
      </trkpt>
      <trkpt lat="38.5021600" lon="-0.6370100">
        <ele>1062.8</ele>
        <time>2018-10-27T07:04:53Z</time>
      </trkpt>
      <trkpt lat="38.5021690" lon="-0.6370110">
        <ele>1063.0</ele>
        <time>2018-10-27T07:04:54Z</time>
      </trkpt>
      <trkpt lat="38.5021800" lon="-0.6370080">
        <ele>1063.2</ele>
        <time>2018-10-27T07:04:55Z</time>
      </trkpt>
      <trkpt lat="38.5022190" lon="-0.6369840">
        <ele>1064.2</ele>
        <time>2018-10-27T07:04:58Z</time>
      </trkpt>
      <trkpt lat="38.5022560" lon="-0.6369470">
        <ele>1065.4</ele>
        <time>2018-10-27T07:05:01Z</time>
      </trkpt>
      <trkpt lat="38.5022670" lon="-0.6369390">
        <ele>1065.4</ele>
        <time>2018-10-27T07:05:02Z</time>
      </trkpt>
      <trkpt lat="38.5023050" lon="-0.6368970">
        <ele>1066.4</ele>
        <time>2018-10-27T07:05:06Z</time>
      </trkpt>
      <trkpt lat="38.5023410" lon="-0.6368370">
        <ele>1067.6</ele>
        <time>2018-10-27T07:05:10Z</time>
      </trkpt>
      <trkpt lat="38.5023580" lon="-0.6367990">
        <ele>1068.8</ele>
        <time>2018-10-27T07:05:13Z</time>
      </trkpt>
      <trkpt lat="38.5023690" lon="-0.6367810">
        <ele>1069.8</ele>
        <time>2018-10-27T07:05:15Z</time>
      </trkpt>
      <trkpt lat="38.5023810" lon="-0.6367740">
        <ele>1070.0</ele>
        <time>2018-10-27T07:05:16Z</time>
      </trkpt>
      <trkpt lat="38.5024070" lon="-0.6367350">
        <ele>1071.2</ele>
        <time>2018-10-27T07:05:19Z</time>
      </trkpt>
      <trkpt lat="38.5024200" lon="-0.6367010">
        <ele>1072.0</ele>
        <time>2018-10-27T07:05:22Z</time>
      </trkpt>
      <trkpt lat="38.5024260" lon="-0.6366910">
        <ele>1072.4</ele>
        <time>2018-10-27T07:05:23Z</time>
      </trkpt>
      <trkpt lat="38.5024600" lon="-0.6366630">
        <ele>1073.4</ele>
        <time>2018-10-27T07:05:27Z</time>
      </trkpt>
      <trkpt lat="38.5024780" lon="-0.6366460">
        <ele>1074.2</ele>
        <time>2018-10-27T07:05:29Z</time>
      </trkpt>
      <trkpt lat="38.5024950" lon="-0.6366300">
        <ele>1074.4</ele>
        <time>2018-10-27T07:05:31Z</time>
      </trkpt>
      <trkpt lat="38.5025260" lon="-0.6365900">
        <ele>1075.2</ele>
        <time>2018-10-27T07:05:35Z</time>
      </trkpt>
      <trkpt lat="38.5025320" lon="-0.6365780">
        <ele>1075.6</ele>
        <time>2018-10-27T07:05:36Z</time>
      </trkpt>
      <trkpt lat="38.5025390" lon="-0.6365670">
        <ele>1075.8</ele>
        <time>2018-10-27T07:05:37Z</time>
      </trkpt>
      <trkpt lat="38.5025420" lon="-0.6365550">
        <ele>1076.2</ele>
        <time>2018-10-27T07:05:38Z</time>
      </trkpt>
      <trkpt lat="38.5025460" lon="-0.6365400">
        <ele>1076.2</ele>
        <time>2018-10-27T07:05:39Z</time>
      </trkpt>
      <trkpt lat="38.5025520" lon="-0.6365130">
        <ele>1076.8</ele>
        <time>2018-10-27T07:05:41Z</time>
      </trkpt>
      <trkpt lat="38.5025580" lon="-0.6364730">
        <ele>1077.6</ele>
        <time>2018-10-27T07:05:44Z</time>
      </trkpt>
      <trkpt lat="38.5025610" lon="-0.6364580">
        <ele>1078.0</ele>
        <time>2018-10-27T07:05:45Z</time>
      </trkpt>
      <trkpt lat="38.5025630" lon="-0.6364000">
        <ele>1079.0</ele>
        <time>2018-10-27T07:05:50Z</time>
      </trkpt>
      <trkpt lat="38.5025710" lon="-0.6363640">
        <ele>1080.4</ele>
        <time>2018-10-27T07:05:53Z</time>
      </trkpt>
      <trkpt lat="38.5025790" lon="-0.6363210">
        <ele>1081.2</ele>
        <time>2018-10-27T07:05:56Z</time>
      </trkpt>
      <trkpt lat="38.5025830" lon="-0.6363090">
        <ele>1081.4</ele>
        <time>2018-10-27T07:05:57Z</time>
      </trkpt>
      <trkpt lat="38.5025850" lon="-0.6362840">
        <ele>1082.6</ele>
        <time>2018-10-27T07:05:59Z</time>
      </trkpt>
      <trkpt lat="38.5026070" lon="-0.6361850">
        <ele>1083.8</ele>
        <time>2018-10-27T07:06:06Z</time>
      </trkpt>
      <trkpt lat="38.5026170" lon="-0.6361320">
        <ele>1084.8</ele>
        <time>2018-10-27T07:06:10Z</time>
      </trkpt>
      <trkpt lat="38.5026170" lon="-0.6360700">
        <ele>1085.8</ele>
        <time>2018-10-27T07:06:14Z</time>
      </trkpt>
      <trkpt lat="38.5026180" lon="-0.6360430">
        <ele>1086.0</ele>
        <time>2018-10-27T07:06:16Z</time>
      </trkpt>
      <trkpt lat="38.5026160" lon="-0.6360060">
        <ele>1087.4</ele>
        <time>2018-10-27T07:06:20Z</time>
      </trkpt>
      <trkpt lat="38.5026100" lon="-0.6359970">
        <ele>1087.6</ele>
        <time>2018-10-27T07:06:21Z</time>
      </trkpt>
      <trkpt lat="38.5026020" lon="-0.6359890">
        <ele>1087.8</ele>
        <time>2018-10-27T07:06:22Z</time>
      </trkpt>
      <trkpt lat="38.5025910" lon="-0.6359680">
        <ele>1088.0</ele>
        <time>2018-10-27T07:06:24Z</time>
      </trkpt>
      <trkpt lat="38.5025460" lon="-0.6359180">
        <ele>1088.4</ele>
        <time>2018-10-27T07:06:27Z</time>
      </trkpt>
      <trkpt lat="38.5025040" lon="-0.6358960">
        <ele>1088.8</ele>
        <time>2018-10-27T07:06:30Z</time>
      </trkpt>
      <trkpt lat="38.5024710" lon="-0.6358960">
        <ele>1089.2</ele>
        <time>2018-10-27T07:06:32Z</time>
      </trkpt>
      <trkpt lat="38.5024520" lon="-0.6358940">
        <ele>1089.4</ele>
        <time>2018-10-27T07:06:33Z</time>
      </trkpt>
      <trkpt lat="38.5023860" lon="-0.6359050">
        <ele>1090.6</ele>
        <time>2018-10-27T07:06:38Z</time>
      </trkpt>
      <trkpt lat="38.5023710" lon="-0.6359130">
        <ele>1090.8</ele>
        <time>2018-10-27T07:06:39Z</time>
      </trkpt>
      <trkpt lat="38.5023420" lon="-0.6359120">
        <ele>1091.0</ele>
        <time>2018-10-27T07:06:41Z</time>
      </trkpt>
      <trkpt lat="38.5023180" lon="-0.6358990">
        <ele>1091.4</ele>
        <time>2018-10-27T07:06:43Z</time>
      </trkpt>
      <trkpt lat="38.5023080" lon="-0.6358880">
        <ele>1091.6</ele>
        <time>2018-10-27T07:06:44Z</time>
      </trkpt>
      <trkpt lat="38.5023030" lon="-0.6358730">
        <ele>1091.8</ele>
        <time>2018-10-27T07:06:45Z</time>
      </trkpt>
      <trkpt lat="38.5023040" lon="-0.6358430">
        <ele>1092.2</ele>
        <time>2018-10-27T07:06:47Z</time>
      </trkpt>
      <trkpt lat="38.5023130" lon="-0.6358220">
        <ele>1092.6</ele>
        <time>2018-10-27T07:06:49Z</time>
      </trkpt>
      <trkpt lat="38.5023180" lon="-0.6358100">
        <ele>1093.0</ele>
        <time>2018-10-27T07:06:50Z</time>
      </trkpt>
      <trkpt lat="38.5023840" lon="-0.6357610">
        <ele>1093.8</ele>
        <time>2018-10-27T07:06:55Z</time>
      </trkpt>
      <trkpt lat="38.5024160" lon="-0.6357410">
        <ele>1094.2</ele>
        <time>2018-10-27T07:06:57Z</time>
      </trkpt>
      <trkpt lat="38.5024790" lon="-0.6357020">
        <ele>1094.8</ele>
        <time>2018-10-27T07:07:01Z</time>
      </trkpt>
      <trkpt lat="38.5025120" lon="-0.6356880">
        <ele>1095.2</ele>
        <time>2018-10-27T07:07:03Z</time>
      </trkpt>
      <trkpt lat="38.5025210" lon="-0.6356780">
        <ele>1095.4</ele>
        <time>2018-10-27T07:07:04Z</time>
      </trkpt>
      <trkpt lat="38.5025820" lon="-0.6356270">
        <ele>1095.8</ele>
        <time>2018-10-27T07:07:09Z</time>
      </trkpt>
      <trkpt lat="38.5026040" lon="-0.6356030">
        <ele>1096.4</ele>
        <time>2018-10-27T07:07:12Z</time>
      </trkpt>
      <trkpt lat="38.5026190" lon="-0.6355890">
        <ele>1096.8</ele>
        <time>2018-10-27T07:07:14Z</time>
      </trkpt>
      <trkpt lat="38.5026380" lon="-0.6355790">
        <ele>1097.0</ele>
        <time>2018-10-27T07:07:16Z</time>
      </trkpt>
      <trkpt lat="38.5026700" lon="-0.6355690">
        <ele>1097.6</ele>
        <time>2018-10-27T07:07:19Z</time>
      </trkpt>
      <trkpt lat="38.5026950" lon="-0.6355650">
        <ele>1098.0</ele>
        <time>2018-10-27T07:07:21Z</time>
      </trkpt>
      <trkpt lat="38.5027400" lon="-0.6355740">
        <ele>1098.6</ele>
        <time>2018-10-27T07:07:24Z</time>
      </trkpt>
      <trkpt lat="38.5028110" lon="-0.6356470">
        <ele>1099.6</ele>
        <time>2018-10-27T07:07:30Z</time>
      </trkpt>
      <trkpt lat="38.5028170" lon="-0.6356720">
        <ele>1099.8</ele>
        <time>2018-10-27T07:07:31Z</time>
      </trkpt>
      <trkpt lat="38.5028310" lon="-0.6357810">
        <ele>1100.4</ele>
        <time>2018-10-27T07:07:36Z</time>
      </trkpt>
      <trkpt lat="38.5028380" lon="-0.6358260">
        <ele>1101.0</ele>
        <time>2018-10-27T07:07:39Z</time>
      </trkpt>
      <trkpt lat="38.5028450" lon="-0.6358870">
        <ele>1101.4</ele>
        <time>2018-10-27T07:07:42Z</time>
      </trkpt>
      <trkpt lat="38.5028610" lon="-0.6359570">
        <ele>1101.8</ele>
        <time>2018-10-27T07:07:45Z</time>
      </trkpt>
      <trkpt lat="38.5028700" lon="-0.6359750">
        <ele>1102.0</ele>
        <time>2018-10-27T07:07:46Z</time>
      </trkpt>
      <trkpt lat="38.5028780" lon="-0.6359900">
        <ele>1102.2</ele>
        <time>2018-10-27T07:07:47Z</time>
      </trkpt>
      <trkpt lat="38.5029040" lon="-0.6360480">
        <ele>1103.0</ele>
        <time>2018-10-27T07:07:51Z</time>
      </trkpt>
      <trkpt lat="38.5029370" lon="-0.6360700">
        <ele>1104.4</ele>
        <time>2018-10-27T07:07:54Z</time>
      </trkpt>
      <trkpt lat="38.5029700" lon="-0.6360740">
        <ele>1105.0</ele>
        <time>2018-10-27T07:07:57Z</time>
      </trkpt>
      <trkpt lat="38.5029810" lon="-0.6360730">
        <ele>1105.4</ele>
        <time>2018-10-27T07:07:58Z</time>
      </trkpt>
      <trkpt lat="38.5030010" lon="-0.6360600">
        <ele>1106.2</ele>
        <time>2018-10-27T07:08:00Z</time>
      </trkpt>
      <trkpt lat="38.5030110" lon="-0.6360420">
        <ele>1106.4</ele>
        <time>2018-10-27T07:08:01Z</time>
      </trkpt>
      <trkpt lat="38.5030160" lon="-0.6360270">
        <ele>1106.6</ele>
        <time>2018-10-27T07:08:02Z</time>
      </trkpt>
      <trkpt lat="38.5030200" lon="-0.6359670">
        <ele>1108.0</ele>
        <time>2018-10-27T07:08:06Z</time>
      </trkpt>
      <trkpt lat="38.5030180" lon="-0.6359530">
        <ele>1108.4</ele>
        <time>2018-10-27T07:08:07Z</time>
      </trkpt>
      <trkpt lat="38.5029930" lon="-0.6358830">
        <ele>1109.2</ele>
        <time>2018-10-27T07:08:11Z</time>
      </trkpt>
      <trkpt lat="38.5029700" lon="-0.6358320">
        <ele>1109.8</ele>
        <time>2018-10-27T07:08:14Z</time>
      </trkpt>
      <trkpt lat="38.5029580" lon="-0.6358010">
        <ele>1110.4</ele>
        <time>2018-10-27T07:08:16Z</time>
      </trkpt>
      <trkpt lat="38.5029440" lon="-0.6357150">
        <ele>1111.4</ele>
        <time>2018-10-27T07:08:21Z</time>
      </trkpt>
      <trkpt lat="38.5029500" lon="-0.6356900">
        <ele>1111.6</ele>
        <time>2018-10-27T07:08:22Z</time>
      </trkpt>
      <trkpt lat="38.5029620" lon="-0.6356040">
        <ele>1112.4</ele>
        <time>2018-10-27T07:08:26Z</time>
      </trkpt>
      <trkpt lat="38.5029700" lon="-0.6355820">
        <ele>1112.6</ele>
        <time>2018-10-27T07:08:27Z</time>
      </trkpt>
      <trkpt lat="38.5029730" lon="-0.6355630">
        <ele>1112.6</ele>
        <time>2018-10-27T07:08:28Z</time>
      </trkpt>
      <trkpt lat="38.5030060" lon="-0.6353740">
        <ele>1113.0</ele>
        <time>2018-10-27T07:08:36Z</time>
      </trkpt>
      <trkpt lat="38.5030050" lon="-0.6352910">
        <ele>1113.6</ele>
        <time>2018-10-27T07:08:40Z</time>
      </trkpt>
      <trkpt lat="38.5030060" lon="-0.6352730">
        <ele>1113.6</ele>
        <time>2018-10-27T07:08:41Z</time>
      </trkpt>
      <trkpt lat="38.5030070" lon="-0.6352540">
        <ele>1113.8</ele>
        <time>2018-10-27T07:08:42Z</time>
      </trkpt>
      <trkpt lat="38.5030010" lon="-0.6351980">
        <ele>1114.2</ele>
        <time>2018-10-27T07:08:45Z</time>
      </trkpt>
      <trkpt lat="38.5029770" lon="-0.6351520">
        <ele>1114.6</ele>
        <time>2018-10-27T07:08:48Z</time>
      </trkpt>
      <trkpt lat="38.5029720" lon="-0.6351350">
        <ele>1114.6</ele>
        <time>2018-10-27T07:08:49Z</time>
      </trkpt>
      <trkpt lat="38.5029220" lon="-0.6350700">
        <ele>1115.8</ele>
        <time>2018-10-27T07:08:55Z</time>
      </trkpt>
      <trkpt lat="38.5029090" lon="-0.6350660">
        <ele>1116.0</ele>
        <time>2018-10-27T07:08:56Z</time>
      </trkpt>
      <trkpt lat="38.5028460" lon="-0.6350240">
        <ele>1116.8</ele>
        <time>2018-10-27T07:09:01Z</time>
      </trkpt>
      <trkpt lat="38.5028330" lon="-0.6350170">
        <ele>1117.2</ele>
        <time>2018-10-27T07:09:02Z</time>
      </trkpt>
      <trkpt lat="38.5027920" lon="-0.6349970">
        <ele>1117.8</ele>
        <time>2018-10-27T07:09:05Z</time>
      </trkpt>
      <trkpt lat="38.5027560" lon="-0.6349710">
        <ele>1118.4</ele>
        <time>2018-10-27T07:09:09Z</time>
      </trkpt>
      <trkpt lat="38.5026820" lon="-0.6349850">
        <ele>1119.0</ele>
        <time>2018-10-27T07:09:14Z</time>
      </trkpt>
      <trkpt lat="38.5026630" lon="-0.6349820">
        <ele>1119.4</ele>
        <time>2018-10-27T07:09:16Z</time>
      </trkpt>
      <trkpt lat="38.5026230" lon="-0.6350010">
        <ele>1120.2</ele>
        <time>2018-10-27T07:09:20Z</time>
      </trkpt>
      <trkpt lat="38.5025990" lon="-0.6350170">
        <ele>1120.8</ele>
        <time>2018-10-27T07:09:22Z</time>
      </trkpt>
      <trkpt lat="38.5025890" lon="-0.6350210">
        <ele>1121.0</ele>
        <time>2018-10-27T07:09:23Z</time>
      </trkpt>
      <trkpt lat="38.5025710" lon="-0.6350240">
        <ele>1121.2</ele>
        <time>2018-10-27T07:09:25Z</time>
      </trkpt>
      <trkpt lat="38.5025190" lon="-0.6350340">
        <ele>1122.0</ele>
        <time>2018-10-27T07:09:30Z</time>
      </trkpt>
      <trkpt lat="38.5025150" lon="-0.6350300">
        <ele>1122.2</ele>
        <time>2018-10-27T07:09:31Z</time>
      </trkpt>
      <trkpt lat="38.5025140" lon="-0.6350230">
        <ele>1122.2</ele>
        <time>2018-10-27T07:09:32Z</time>
      </trkpt>
      <trkpt lat="38.5025140" lon="-0.6350140">
        <ele>1122.4</ele>
        <time>2018-10-27T07:09:33Z</time>
      </trkpt>
      <trkpt lat="38.5025360" lon="-0.6349590">
        <ele>1123.2</ele>
        <time>2018-10-27T07:09:37Z</time>
      </trkpt>
      <trkpt lat="38.5025430" lon="-0.6349450">
        <ele>1123.4</ele>
        <time>2018-10-27T07:09:38Z</time>
      </trkpt>
      <trkpt lat="38.5026020" lon="-0.6348900">
        <ele>1124.0</ele>
        <time>2018-10-27T07:09:43Z</time>
      </trkpt>
      <trkpt lat="38.5026280" lon="-0.6348700">
        <ele>1124.6</ele>
        <time>2018-10-27T07:09:47Z</time>
      </trkpt>
      <trkpt lat="38.5026330" lon="-0.6348770">
        <ele>1125.4</ele>
        <time>2018-10-27T07:09:49Z</time>
      </trkpt>
      <trkpt lat="38.5026420" lon="-0.6348600">
        <ele>1125.4</ele>
        <time>2018-10-27T07:09:51Z</time>
      </trkpt>
      <trkpt lat="38.5027830" lon="-0.6347250">
        <ele>1127.6</ele>
        <time>2018-10-27T07:10:04Z</time>
      </trkpt>
      <trkpt lat="38.5028150" lon="-0.6347200">
        <ele>1128.6</ele>
        <time>2018-10-27T07:10:06Z</time>
      </trkpt>
      <trkpt lat="38.5028300" lon="-0.6347160">
        <ele>1129.0</ele>
        <time>2018-10-27T07:10:07Z</time>
      </trkpt>
      <trkpt lat="38.5028860" lon="-0.6347280">
        <ele>1130.0</ele>
        <time>2018-10-27T07:10:11Z</time>
      </trkpt>
      <trkpt lat="38.5029280" lon="-0.6347370">
        <ele>1130.6</ele>
        <time>2018-10-27T07:10:13Z</time>
      </trkpt>
      <trkpt lat="38.5029670" lon="-0.6347450">
        <ele>1131.0</ele>
        <time>2018-10-27T07:10:15Z</time>
      </trkpt>
      <trkpt lat="38.5030540" lon="-0.6347650">
        <ele>1132.0</ele>
        <time>2018-10-27T07:10:20Z</time>
      </trkpt>
      <trkpt lat="38.5030700" lon="-0.6347680">
        <ele>1132.2</ele>
        <time>2018-10-27T07:10:21Z</time>
      </trkpt>
      <trkpt lat="38.5031130" lon="-0.6347800">
        <ele>1133.4</ele>
        <time>2018-10-27T07:10:24Z</time>
      </trkpt>
      <trkpt lat="38.5031630" lon="-0.6347830">
        <ele>1134.4</ele>
        <time>2018-10-27T07:10:28Z</time>
      </trkpt>
      <trkpt lat="38.5032010" lon="-0.6347900">
        <ele>1135.6</ele>
        <time>2018-10-27T07:10:32Z</time>
      </trkpt>
      <trkpt lat="38.5032160" lon="-0.6348040">
        <ele>1136.0</ele>
        <time>2018-10-27T07:10:34Z</time>
      </trkpt>
      <trkpt lat="38.5032350" lon="-0.6348420">
        <ele>1136.6</ele>
        <time>2018-10-27T07:10:39Z</time>
      </trkpt>
      <trkpt lat="38.5032450" lon="-0.6348910">
        <ele>1137.6</ele>
        <time>2018-10-27T07:10:43Z</time>
      </trkpt>
      <trkpt lat="38.5032530" lon="-0.6349030">
        <ele>1138.0</ele>
        <time>2018-10-27T07:10:45Z</time>
      </trkpt>
      <trkpt lat="38.5032780" lon="-0.6349130">
        <ele>1139.0</ele>
        <time>2018-10-27T07:10:48Z</time>
      </trkpt>
      <trkpt lat="38.5033110" lon="-0.6349170">
        <ele>1139.4</ele>
        <time>2018-10-27T07:10:50Z</time>
      </trkpt>
      <trkpt lat="38.5033420" lon="-0.6349780">
        <ele>1139.8</ele>
        <time>2018-10-27T07:10:53Z</time>
      </trkpt>
      <trkpt lat="38.5033540" lon="-0.6350190">
        <ele>1140.0</ele>
        <time>2018-10-27T07:10:55Z</time>
      </trkpt>
      <trkpt lat="38.5033830" lon="-0.6351270">
        <ele>1141.8</ele>
        <time>2018-10-27T07:11:01Z</time>
      </trkpt>
      <trkpt lat="38.5033900" lon="-0.6351430">
        <ele>1142.2</ele>
        <time>2018-10-27T07:11:02Z</time>
      </trkpt>
      <trkpt lat="38.5034060" lon="-0.6351790">
        <ele>1142.8</ele>
        <time>2018-10-27T07:11:04Z</time>
      </trkpt>
      <trkpt lat="38.5034390" lon="-0.6352600">
        <ele>1144.2</ele>
        <time>2018-10-27T07:11:09Z</time>
      </trkpt>
      <trkpt lat="38.5034610" lon="-0.6353080">
        <ele>1145.4</ele>
        <time>2018-10-27T07:11:12Z</time>
      </trkpt>
      <trkpt lat="38.5034850" lon="-0.6353540">
        <ele>1146.0</ele>
        <time>2018-10-27T07:11:15Z</time>
      </trkpt>
      <trkpt lat="38.5034950" lon="-0.6353700">
        <ele>1146.2</ele>
        <time>2018-10-27T07:11:16Z</time>
      </trkpt>
      <trkpt lat="38.5035140" lon="-0.6354080">
        <ele>1146.4</ele>
        <time>2018-10-27T07:11:19Z</time>
      </trkpt>
      <trkpt lat="38.5035300" lon="-0.6354390">
        <ele>1146.8</ele>
        <time>2018-10-27T07:11:22Z</time>
      </trkpt>
      <trkpt lat="38.5035640" lon="-0.6354440">
        <ele>1147.6</ele>
        <time>2018-10-27T07:11:25Z</time>
      </trkpt>
      <trkpt lat="38.5035820" lon="-0.6354150">
        <ele>1148.0</ele>
        <time>2018-10-27T07:11:27Z</time>
      </trkpt>
      <trkpt lat="38.5035870" lon="-0.6353610">
        <ele>1148.6</ele>
        <time>2018-10-27T07:11:30Z</time>
      </trkpt>
      <trkpt lat="38.5035820" lon="-0.6353450">
        <ele>1148.8</ele>
        <time>2018-10-27T07:11:31Z</time>
      </trkpt>
      <trkpt lat="38.5035580" lon="-0.6352770">
        <ele>1150.0</ele>
        <time>2018-10-27T07:11:35Z</time>
      </trkpt>
      <trkpt lat="38.5035350" lon="-0.6352490">
        <ele>1150.8</ele>
        <time>2018-10-27T07:11:37Z</time>
      </trkpt>
      <trkpt lat="38.5035240" lon="-0.6352340">
        <ele>1151.0</ele>
        <time>2018-10-27T07:11:38Z</time>
      </trkpt>
      <trkpt lat="38.5034950" lon="-0.6351750">
        <ele>1152.0</ele>
        <time>2018-10-27T07:11:42Z</time>
      </trkpt>
      <trkpt lat="38.5034670" lon="-0.6351020">
        <ele>1153.0</ele>
        <time>2018-10-27T07:11:47Z</time>
      </trkpt>
      <trkpt lat="38.5034640" lon="-0.6350670">
        <ele>1153.4</ele>
        <time>2018-10-27T07:11:49Z</time>
      </trkpt>
      <trkpt lat="38.5034830" lon="-0.6349690">
        <ele>1154.4</ele>
        <time>2018-10-27T07:11:53Z</time>
      </trkpt>
      <trkpt lat="38.5035130" lon="-0.6348960">
        <ele>1154.6</ele>
        <time>2018-10-27T07:11:56Z</time>
      </trkpt>
      <trkpt lat="38.5035580" lon="-0.6347730">
        <ele>1155.0</ele>
        <time>2018-10-27T07:12:02Z</time>
      </trkpt>
      <trkpt lat="38.5035670" lon="-0.6347230">
        <ele>1155.4</ele>
        <time>2018-10-27T07:12:05Z</time>
      </trkpt>
      <trkpt lat="38.5035850" lon="-0.6346560">
        <ele>1156.0</ele>
        <time>2018-10-27T07:12:09Z</time>
      </trkpt>
      <trkpt lat="38.5035940" lon="-0.6345950">
        <ele>1156.4</ele>
        <time>2018-10-27T07:12:12Z</time>
      </trkpt>
      <trkpt lat="38.5035940" lon="-0.6345470">
        <ele>1156.8</ele>
        <time>2018-10-27T07:12:14Z</time>
      </trkpt>
      <trkpt lat="38.5035940" lon="-0.6345250">
        <ele>1156.8</ele>
        <time>2018-10-27T07:12:15Z</time>
      </trkpt>
      <trkpt lat="38.5035890" lon="-0.6344440">
        <ele>1157.6</ele>
        <time>2018-10-27T07:12:19Z</time>
      </trkpt>
      <trkpt lat="38.5035870" lon="-0.6343890">
        <ele>1158.6</ele>
        <time>2018-10-27T07:12:22Z</time>
      </trkpt>
      <trkpt lat="38.5036020" lon="-0.6343200">
        <ele>1159.8</ele>
        <time>2018-10-27T07:12:27Z</time>
      </trkpt>
      <trkpt lat="38.5036230" lon="-0.6342790">
        <ele>1160.0</ele>
        <time>2018-10-27T07:12:30Z</time>
      </trkpt>
      <trkpt lat="38.5036540" lon="-0.6342180">
        <ele>1160.8</ele>
        <time>2018-10-27T07:12:35Z</time>
      </trkpt>
      <trkpt lat="38.5036690" lon="-0.6341970">
        <ele>1161.6</ele>
        <time>2018-10-27T07:12:37Z</time>
      </trkpt>
      <trkpt lat="38.5036860" lon="-0.6341790">
        <ele>1161.8</ele>
        <time>2018-10-27T07:12:39Z</time>
      </trkpt>
      <trkpt lat="38.5037240" lon="-0.6341510">
        <ele>1162.2</ele>
        <time>2018-10-27T07:12:45Z</time>
      </trkpt>
      <trkpt lat="38.5037360" lon="-0.6341490">
        <ele>1162.4</ele>
        <time>2018-10-27T07:12:53Z</time>
      </trkpt>
      <trkpt lat="38.5037390" lon="-0.6341520">
        <ele>1162.4</ele>
        <time>2018-10-27T07:12:59Z</time>
      </trkpt>
      <trkpt lat="38.5037390" lon="-0.6341510">
        <ele>1162.2</ele>
        <time>2018-10-27T07:13:02Z</time>
      </trkpt>
      <trkpt lat="38.5038010" lon="-0.6341260">
        <ele>1161.8</ele>
        <time>2018-10-27T07:13:09Z</time>
      </trkpt>
      <trkpt lat="38.5038300" lon="-0.6340960">
        <ele>1161.8</ele>
        <time>2018-10-27T07:13:11Z</time>
      </trkpt>
      <trkpt lat="38.5039210" lon="-0.6340610">
        <ele>1161.6</ele>
        <time>2018-10-27T07:13:14Z</time>
      </trkpt>
      <trkpt lat="38.5039570" lon="-0.6340530">
        <ele>1161.6</ele>
        <time>2018-10-27T07:13:15Z</time>
      </trkpt>
      <trkpt lat="38.5041320" lon="-0.6340110">
        <ele>1161.2</ele>
        <time>2018-10-27T07:13:21Z</time>
      </trkpt>
      <trkpt lat="38.5041560" lon="-0.6340020">
        <ele>1161.0</ele>
        <time>2018-10-27T07:13:22Z</time>
      </trkpt>
      <trkpt lat="38.5042130" lon="-0.6339850">
        <ele>1160.8</ele>
        <time>2018-10-27T07:13:24Z</time>
      </trkpt>
      <trkpt lat="38.5043750" lon="-0.6339640">
        <ele>1160.4</ele>
        <time>2018-10-27T07:13:28Z</time>
      </trkpt>
      <trkpt lat="38.5045480" lon="-0.6339300">
        <ele>1160.2</ele>
        <time>2018-10-27T07:13:33Z</time>
      </trkpt>
      <trkpt lat="38.5046120" lon="-0.6339180">
        <ele>1160.0</ele>
        <time>2018-10-27T07:13:35Z</time>
      </trkpt>
      <trkpt lat="38.5047630" lon="-0.6338860">
        <ele>1159.8</ele>
        <time>2018-10-27T07:13:40Z</time>
      </trkpt>
      <trkpt lat="38.5048290" lon="-0.6338720">
        <ele>1159.6</ele>
        <time>2018-10-27T07:13:42Z</time>
      </trkpt>
      <trkpt lat="38.5050260" lon="-0.6338920">
        <ele>1158.8</ele>
        <time>2018-10-27T07:13:48Z</time>
      </trkpt>
      <trkpt lat="38.5050590" lon="-0.6339060">
        <ele>1158.6</ele>
        <time>2018-10-27T07:13:49Z</time>
      </trkpt>
      <trkpt lat="38.5052010" lon="-0.6339920">
        <ele>1157.8</ele>
        <time>2018-10-27T07:13:54Z</time>
      </trkpt>
      <trkpt lat="38.5052630" lon="-0.6340220">
        <ele>1157.4</ele>
        <time>2018-10-27T07:13:56Z</time>
      </trkpt>
      <trkpt lat="38.5053300" lon="-0.6340480">
        <ele>1157.0</ele>
        <time>2018-10-27T07:13:58Z</time>
      </trkpt>
      <trkpt lat="38.5054290" lon="-0.6340850">
        <ele>1156.4</ele>
        <time>2018-10-27T07:14:01Z</time>
      </trkpt>
      <trkpt lat="38.5054630" lon="-0.6340960">
        <ele>1156.2</ele>
        <time>2018-10-27T07:14:02Z</time>
      </trkpt>
      <trkpt lat="38.5056020" lon="-0.6341280">
        <ele>1155.2</ele>
        <time>2018-10-27T07:14:06Z</time>
      </trkpt>
      <trkpt lat="38.5056850" lon="-0.6341560">
        <ele>1154.4</ele>
        <time>2018-10-27T07:14:09Z</time>
      </trkpt>
      <trkpt lat="38.5057120" lon="-0.6341650">
        <ele>1154.2</ele>
        <time>2018-10-27T07:14:10Z</time>
      </trkpt>
      <trkpt lat="38.5058140" lon="-0.6342100">
        <ele>1153.0</ele>
        <time>2018-10-27T07:14:14Z</time>
      </trkpt>
      <trkpt lat="38.5059350" lon="-0.6342860">
        <ele>1151.8</ele>
        <time>2018-10-27T07:14:18Z</time>
      </trkpt>
      <trkpt lat="38.5060760" lon="-0.6343560">
        <ele>1150.6</ele>
        <time>2018-10-27T07:14:22Z</time>
      </trkpt>
      <trkpt lat="38.5061750" lon="-0.6344050">
        <ele>1149.6</ele>
        <time>2018-10-27T07:14:25Z</time>
      </trkpt>
      <trkpt lat="38.5062100" lon="-0.6344210">
        <ele>1149.4</ele>
        <time>2018-10-27T07:14:26Z</time>
      </trkpt>
      <trkpt lat="38.5063150" lon="-0.6344780">
        <ele>1148.2</ele>
        <time>2018-10-27T07:14:30Z</time>
      </trkpt>
      <trkpt lat="38.5063400" lon="-0.6344920">
        <ele>1147.8</ele>
        <time>2018-10-27T07:14:31Z</time>
      </trkpt>
      <trkpt lat="38.5063640" lon="-0.6344930">
        <ele>1147.4</ele>
        <time>2018-10-27T07:14:32Z</time>
      </trkpt>
      <trkpt lat="38.5063710" lon="-0.6344500">
        <ele>1146.8</ele>
        <time>2018-10-27T07:14:34Z</time>
      </trkpt>
      <trkpt lat="38.5063330" lon="-0.6344000">
        <ele>1146.2</ele>
        <time>2018-10-27T07:14:36Z</time>
      </trkpt>
      <trkpt lat="38.5062830" lon="-0.6343550">
        <ele>1145.6</ele>
        <time>2018-10-27T07:14:38Z</time>
      </trkpt>
      <trkpt lat="38.5061900" lon="-0.6342640">
        <ele>1144.4</ele>
        <time>2018-10-27T07:14:42Z</time>
      </trkpt>
      <trkpt lat="38.5061030" lon="-0.6341760">
        <ele>1143.4</ele>
        <time>2018-10-27T07:14:45Z</time>
      </trkpt>
      <trkpt lat="38.5060700" lon="-0.6341510">
        <ele>1143.0</ele>
        <time>2018-10-27T07:14:46Z</time>
      </trkpt>
      <trkpt lat="38.5060060" lon="-0.6340690">
        <ele>1142.0</ele>
        <time>2018-10-27T07:14:49Z</time>
      </trkpt>
      <trkpt lat="38.5059400" lon="-0.6339780">
        <ele>1141.0</ele>
        <time>2018-10-27T07:14:52Z</time>
      </trkpt>
      <trkpt lat="38.5058670" lon="-0.6339060">
        <ele>1140.0</ele>
        <time>2018-10-27T07:14:55Z</time>
      </trkpt>
      <trkpt lat="38.5057900" lon="-0.6338200">
        <ele>1139.0</ele>
        <time>2018-10-27T07:14:58Z</time>
      </trkpt>
      <trkpt lat="38.5057150" lon="-0.6337200">
        <ele>1137.8</ele>
        <time>2018-10-27T07:15:01Z</time>
      </trkpt>
      <trkpt lat="38.5056570" lon="-0.6336240">
        <ele>1136.8</ele>
        <time>2018-10-27T07:15:04Z</time>
      </trkpt>
      <trkpt lat="38.5056410" lon="-0.6335910">
        <ele>1136.4</ele>
        <time>2018-10-27T07:15:05Z</time>
      </trkpt>
      <trkpt lat="38.5056040" lon="-0.6335200">
        <ele>1135.8</ele>
        <time>2018-10-27T07:15:07Z</time>
      </trkpt>
      <trkpt lat="38.5055370" lon="-0.6334070">
        <ele>1134.6</ele>
        <time>2018-10-27T07:15:10Z</time>
      </trkpt>
      <trkpt lat="38.5054700" lon="-0.6333000">
        <ele>1133.6</ele>
        <time>2018-10-27T07:15:13Z</time>
      </trkpt>
      <trkpt lat="38.5053990" lon="-0.6332130">
        <ele>1132.6</ele>
        <time>2018-10-27T07:15:16Z</time>
      </trkpt>
      <trkpt lat="38.5053470" lon="-0.6331550">
        <ele>1131.8</ele>
        <time>2018-10-27T07:15:18Z</time>
      </trkpt>
      <trkpt lat="38.5053280" lon="-0.6331230">
        <ele>1131.4</ele>
        <time>2018-10-27T07:15:19Z</time>
      </trkpt>
      <trkpt lat="38.5053070" lon="-0.6330880">
        <ele>1131.2</ele>
        <time>2018-10-27T07:15:20Z</time>
      </trkpt>
      <trkpt lat="38.5052720" lon="-0.6330190">
        <ele>1130.4</ele>
        <time>2018-10-27T07:15:22Z</time>
      </trkpt>
      <trkpt lat="38.5052420" lon="-0.6328880">
        <ele>1129.2</ele>
        <time>2018-10-27T07:15:25Z</time>
      </trkpt>
      <trkpt lat="38.5052260" lon="-0.6327970">
        <ele>1128.4</ele>
        <time>2018-10-27T07:15:27Z</time>
      </trkpt>
      <trkpt lat="38.5052290" lon="-0.6327500">
        <ele>1128.0</ele>
        <time>2018-10-27T07:15:28Z</time>
      </trkpt>
      <trkpt lat="38.5052500" lon="-0.6326290">
        <ele>1126.8</ele>
        <time>2018-10-27T07:15:31Z</time>
      </trkpt>
      <trkpt lat="38.5052670" lon="-0.6325880">
        <ele>1126.4</ele>
        <time>2018-10-27T07:15:32Z</time>
      </trkpt>
      <trkpt lat="38.5053030" lon="-0.6325120">
        <ele>1125.6</ele>
        <time>2018-10-27T07:15:34Z</time>
      </trkpt>
      <trkpt lat="38.5053460" lon="-0.6324100">
        <ele>1124.4</ele>
        <time>2018-10-27T07:15:37Z</time>
      </trkpt>
      <trkpt lat="38.5053630" lon="-0.6323810">
        <ele>1124.0</ele>
        <time>2018-10-27T07:15:38Z</time>
      </trkpt>
      <trkpt lat="38.5054020" lon="-0.6323190">
        <ele>1123.0</ele>
        <time>2018-10-27T07:15:40Z</time>
      </trkpt>
      <trkpt lat="38.5054710" lon="-0.6322410">
        <ele>1121.8</ele>
        <time>2018-10-27T07:15:43Z</time>
      </trkpt>
      <trkpt lat="38.5054940" lon="-0.6322150">
        <ele>1121.4</ele>
        <time>2018-10-27T07:15:44Z</time>
      </trkpt>
      <trkpt lat="38.5055410" lon="-0.6321610">
        <ele>1120.6</ele>
        <time>2018-10-27T07:15:46Z</time>
      </trkpt>
      <trkpt lat="38.5056340" lon="-0.6320770">
        <ele>1119.2</ele>
        <time>2018-10-27T07:15:49Z</time>
      </trkpt>
      <trkpt lat="38.5056600" lon="-0.6320440">
        <ele>1118.8</ele>
        <time>2018-10-27T07:15:50Z</time>
      </trkpt>
      <trkpt lat="38.5057140" lon="-0.6319800">
        <ele>1118.0</ele>
        <time>2018-10-27T07:15:52Z</time>
      </trkpt>
      <trkpt lat="38.5057640" lon="-0.6319230">
        <ele>1117.2</ele>
        <time>2018-10-27T07:15:54Z</time>
      </trkpt>
      <trkpt lat="38.5057830" lon="-0.6318940">
        <ele>1116.8</ele>
        <time>2018-10-27T07:15:55Z</time>
      </trkpt>
      <trkpt lat="38.5057990" lon="-0.6318640">
        <ele>1116.4</ele>
        <time>2018-10-27T07:15:56Z</time>
      </trkpt>
      <trkpt lat="38.5058530" lon="-0.6318040">
        <ele>1115.4</ele>
        <time>2018-10-27T07:15:58Z</time>
      </trkpt>
      <trkpt lat="38.5059180" lon="-0.6317230">
        <ele>1114.2</ele>
        <time>2018-10-27T07:16:01Z</time>
      </trkpt>
      <trkpt lat="38.5059620" lon="-0.6316290">
        <ele>1112.8</ele>
        <time>2018-10-27T07:16:04Z</time>
      </trkpt>
      <trkpt lat="38.5060230" lon="-0.6315200">
        <ele>1111.6</ele>
        <time>2018-10-27T07:16:07Z</time>
      </trkpt>
      <trkpt lat="38.5060810" lon="-0.6314140">
        <ele>1110.2</ele>
        <time>2018-10-27T07:16:10Z</time>
      </trkpt>
      <trkpt lat="38.5061370" lon="-0.6313450">
        <ele>1109.2</ele>
        <time>2018-10-27T07:16:12Z</time>
      </trkpt>
      <trkpt lat="38.5061650" lon="-0.6313130">
        <ele>1108.8</ele>
        <time>2018-10-27T07:16:13Z</time>
      </trkpt>
      <trkpt lat="38.5062410" lon="-0.6312290">
        <ele>1107.2</ele>
        <time>2018-10-27T07:16:16Z</time>
      </trkpt>
      <trkpt lat="38.5063220" lon="-0.6311460">
        <ele>1105.8</ele>
        <time>2018-10-27T07:16:19Z</time>
      </trkpt>
      <trkpt lat="38.5063770" lon="-0.6310960">
        <ele>1104.6</ele>
        <time>2018-10-27T07:16:21Z</time>
      </trkpt>
      <trkpt lat="38.5064340" lon="-0.6310370">
        <ele>1103.6</ele>
        <time>2018-10-27T07:16:23Z</time>
      </trkpt>
      <trkpt lat="38.5064930" lon="-0.6309700">
        <ele>1102.6</ele>
        <time>2018-10-27T07:16:25Z</time>
      </trkpt>
      <trkpt lat="38.5065490" lon="-0.6309080">
        <ele>1101.6</ele>
        <time>2018-10-27T07:16:27Z</time>
      </trkpt>
      <trkpt lat="38.5065730" lon="-0.6308800">
        <ele>1101.2</ele>
        <time>2018-10-27T07:16:28Z</time>
      </trkpt>
      <trkpt lat="38.5065960" lon="-0.6308530">
        <ele>1100.6</ele>
        <time>2018-10-27T07:16:29Z</time>
      </trkpt>
      <trkpt lat="38.5066400" lon="-0.6307990">
        <ele>1099.6</ele>
        <time>2018-10-27T07:16:31Z</time>
      </trkpt>
      <trkpt lat="38.5066960" lon="-0.6307570">
        <ele>1098.4</ele>
        <time>2018-10-27T07:16:33Z</time>
      </trkpt>
      <trkpt lat="38.5067510" lon="-0.6307220">
        <ele>1097.4</ele>
        <time>2018-10-27T07:16:35Z</time>
      </trkpt>
      <trkpt lat="38.5067830" lon="-0.6307090">
        <ele>1096.8</ele>
        <time>2018-10-27T07:16:36Z</time>
      </trkpt>
      <trkpt lat="38.5068100" lon="-0.6306950">
        <ele>1096.2</ele>
        <time>2018-10-27T07:16:37Z</time>
      </trkpt>
      <trkpt lat="38.5068610" lon="-0.6306660">
        <ele>1095.2</ele>
        <time>2018-10-27T07:16:39Z</time>
      </trkpt>
      <trkpt lat="38.5069200" lon="-0.6306680">
        <ele>1094.0</ele>
        <time>2018-10-27T07:16:41Z</time>
      </trkpt>
      <trkpt lat="38.5069300" lon="-0.6306660">
        <ele>1093.4</ele>
        <time>2018-10-27T07:16:42Z</time>
      </trkpt>
      <trkpt lat="38.5069360" lon="-0.6306550">
        <ele>1093.0</ele>
        <time>2018-10-27T07:16:43Z</time>
      </trkpt>
      <trkpt lat="38.5069530" lon="-0.6306130">
        <ele>1091.8</ele>
        <time>2018-10-27T07:16:45Z</time>
      </trkpt>
      <trkpt lat="38.5069930" lon="-0.6305670">
        <ele>1090.6</ele>
        <time>2018-10-27T07:16:47Z</time>
      </trkpt>
      <trkpt lat="38.5070050" lon="-0.6305410">
        <ele>1089.6</ele>
        <time>2018-10-27T07:16:49Z</time>
      </trkpt>
      <trkpt lat="38.5070130" lon="-0.6305410">
        <ele>1088.4</ele>
        <time>2018-10-27T07:16:51Z</time>
      </trkpt>
      <trkpt lat="38.5070130" lon="-0.6305390">
        <ele>1087.8</ele>
        <time>2018-10-27T07:16:52Z</time>
      </trkpt>
      <trkpt lat="38.5070030" lon="-0.6303160">
        <ele>1081.0</ele>
        <time>2018-10-27T07:17:05Z</time>
      </trkpt>
      <trkpt lat="38.5070060" lon="-0.6302640">
        <ele>1080.0</ele>
        <time>2018-10-27T07:17:07Z</time>
      </trkpt>
      <trkpt lat="38.5070080" lon="-0.6302390">
        <ele>1079.4</ele>
        <time>2018-10-27T07:17:08Z</time>
      </trkpt>
      <trkpt lat="38.5070030" lon="-0.6301940">
        <ele>1078.6</ele>
        <time>2018-10-27T07:17:10Z</time>
      </trkpt>
      <trkpt lat="38.5069980" lon="-0.6301760">
        <ele>1078.0</ele>
        <time>2018-10-27T07:17:11Z</time>
      </trkpt>
      <trkpt lat="38.5069860" lon="-0.6301260">
        <ele>1076.8</ele>
        <time>2018-10-27T07:17:14Z</time>
      </trkpt>
      <trkpt lat="38.5069740" lon="-0.6301110">
        <ele>1076.4</ele>
        <time>2018-10-27T07:17:15Z</time>
      </trkpt>
      <trkpt lat="38.5069460" lon="-0.6300810">
        <ele>1075.6</ele>
        <time>2018-10-27T07:17:17Z</time>
      </trkpt>
      <trkpt lat="38.5069190" lon="-0.6300550">
        <ele>1074.4</ele>
        <time>2018-10-27T07:17:20Z</time>
      </trkpt>
      <trkpt lat="38.5069130" lon="-0.6300480">
        <ele>1074.0</ele>
        <time>2018-10-27T07:17:21Z</time>
      </trkpt>
      <trkpt lat="38.5069030" lon="-0.6300320">
        <ele>1073.2</ele>
        <time>2018-10-27T07:17:23Z</time>
      </trkpt>
      <trkpt lat="38.5068690" lon="-0.6300050">
        <ele>1072.0</ele>
        <time>2018-10-27T07:17:26Z</time>
      </trkpt>
      <trkpt lat="38.5068530" lon="-0.6299960">
        <ele>1071.8</ele>
        <time>2018-10-27T07:17:27Z</time>
      </trkpt>
      <trkpt lat="38.5068210" lon="-0.6299740">
        <ele>1071.0</ele>
        <time>2018-10-27T07:17:29Z</time>
      </trkpt>
      <trkpt lat="38.5067760" lon="-0.6299410">
        <ele>1070.0</ele>
        <time>2018-10-27T07:17:32Z</time>
      </trkpt>
      <trkpt lat="38.5067610" lon="-0.6299290">
        <ele>1069.8</ele>
        <time>2018-10-27T07:17:33Z</time>
      </trkpt>
      <trkpt lat="38.5067260" lon="-0.6298760">
        <ele>1068.6</ele>
        <time>2018-10-27T07:17:37Z</time>
      </trkpt>
      <trkpt lat="38.5067180" lon="-0.6298640">
        <ele>1068.2</ele>
        <time>2018-10-27T07:17:38Z</time>
      </trkpt>
      <trkpt lat="38.5066880" lon="-0.6298290">
        <ele>1067.4</ele>
        <time>2018-10-27T07:17:41Z</time>
      </trkpt>
      <trkpt lat="38.5066710" lon="-0.6298140">
        <ele>1066.8</ele>
        <time>2018-10-27T07:17:43Z</time>
      </trkpt>
      <trkpt lat="38.5066500" lon="-0.6297980">
        <ele>1066.4</ele>
        <time>2018-10-27T07:17:45Z</time>
      </trkpt>
      <trkpt lat="38.5065970" lon="-0.6297450">
        <ele>1065.2</ele>
        <time>2018-10-27T07:17:50Z</time>
      </trkpt>
      <trkpt lat="38.5065740" lon="-0.6297150">
        <ele>1064.6</ele>
        <time>2018-10-27T07:17:53Z</time>
      </trkpt>
      <trkpt lat="38.5065360" lon="-0.6296930">
        <ele>1064.2</ele>
        <time>2018-10-27T07:17:56Z</time>
      </trkpt>
      <trkpt lat="38.5064710" lon="-0.6296740">
        <ele>1063.4</ele>
        <time>2018-10-27T07:18:00Z</time>
      </trkpt>
      <trkpt lat="38.5064550" lon="-0.6296500">
        <ele>1063.0</ele>
        <time>2018-10-27T07:18:03Z</time>
      </trkpt>
      <trkpt lat="38.5064330" lon="-0.6295920">
        <ele>1062.2</ele>
        <time>2018-10-27T07:18:08Z</time>
      </trkpt>
      <trkpt lat="38.5064150" lon="-0.6295680">
        <ele>1062.0</ele>
        <time>2018-10-27T07:18:10Z</time>
      </trkpt>
      <trkpt lat="38.5063980" lon="-0.6295320">
        <ele>1061.4</ele>
        <time>2018-10-27T07:18:14Z</time>
      </trkpt>
      <trkpt lat="38.5063590" lon="-0.6294780">
        <ele>1061.0</ele>
        <time>2018-10-27T07:18:18Z</time>
      </trkpt>
      <trkpt lat="38.5063340" lon="-0.6294350">
        <ele>1060.6</ele>
        <time>2018-10-27T07:18:21Z</time>
      </trkpt>
      <trkpt lat="38.5063590" lon="-0.6292560">
        <ele>1059.8</ele>
        <time>2018-10-27T07:18:28Z</time>
      </trkpt>
      <trkpt lat="38.5063730" lon="-0.6292300">
        <ele>1059.8</ele>
        <time>2018-10-27T07:18:29Z</time>
      </trkpt>
      <trkpt lat="38.5063970" lon="-0.6291420">
        <ele>1059.4</ele>
        <time>2018-10-27T07:18:33Z</time>
      </trkpt>
      <trkpt lat="38.5063850" lon="-0.6290700">
        <ele>1059.2</ele>
        <time>2018-10-27T07:18:36Z</time>
      </trkpt>
      <trkpt lat="38.5063730" lon="-0.6289330">
        <ele>1059.0</ele>
        <time>2018-10-27T07:18:43Z</time>
      </trkpt>
      <trkpt lat="38.5063760" lon="-0.6289160">
        <ele>1058.8</ele>
        <time>2018-10-27T07:18:44Z</time>
      </trkpt>
      <trkpt lat="38.5063620" lon="-0.6288130">
        <ele>1058.8</ele>
        <time>2018-10-27T07:18:49Z</time>
      </trkpt>
      <trkpt lat="38.5063610" lon="-0.6287690">
        <ele>1058.6</ele>
        <time>2018-10-27T07:18:51Z</time>
      </trkpt>
      <trkpt lat="38.5063070" lon="-0.6286300">
        <ele>1058.6</ele>
        <time>2018-10-27T07:18:58Z</time>
      </trkpt>
      <trkpt lat="38.5062360" lon="-0.6284590">
        <ele>1058.4</ele>
        <time>2018-10-27T07:19:05Z</time>
      </trkpt>
      <trkpt lat="38.5061470" lon="-0.6282750">
        <ele>1058.4</ele>
        <time>2018-10-27T07:19:12Z</time>
      </trkpt>
      <trkpt lat="38.5061110" lon="-0.6281000">
        <ele>1058.4</ele>
        <time>2018-10-27T07:19:18Z</time>
      </trkpt>
      <trkpt lat="38.5061260" lon="-0.6279880">
        <ele>1058.4</ele>
        <time>2018-10-27T07:19:22Z</time>
      </trkpt>
      <trkpt lat="38.5061290" lon="-0.6279630">
        <ele>1058.4</ele>
        <time>2018-10-27T07:19:23Z</time>
      </trkpt>
      <trkpt lat="38.5061370" lon="-0.6279400">
        <ele>1058.4</ele>
        <time>2018-10-27T07:19:24Z</time>
      </trkpt>
      <trkpt lat="38.5061520" lon="-0.6279220">
        <ele>1058.4</ele>
        <time>2018-10-27T07:19:25Z</time>
      </trkpt>
      <trkpt lat="38.5062390" lon="-0.6277830">
        <ele>1058.6</ele>
        <time>2018-10-27T07:19:33Z</time>
      </trkpt>
      <trkpt lat="38.5062920" lon="-0.6276940">
        <ele>1059.0</ele>
        <time>2018-10-27T07:19:39Z</time>
      </trkpt>
      <trkpt lat="38.5063780" lon="-0.6276430">
        <ele>1059.2</ele>
        <time>2018-10-27T07:19:46Z</time>
      </trkpt>
      <trkpt lat="38.5064970" lon="-0.6275920">
        <ele>1059.8</ele>
        <time>2018-10-27T07:19:54Z</time>
      </trkpt>
      <trkpt lat="38.5065320" lon="-0.6275790">
        <ele>1060.0</ele>
        <time>2018-10-27T07:19:56Z</time>
      </trkpt>
      <trkpt lat="38.5066250" lon="-0.6275280">
        <ele>1060.4</ele>
        <time>2018-10-27T07:20:02Z</time>
      </trkpt>
      <trkpt lat="38.5066930" lon="-0.6274520">
        <ele>1061.0</ele>
        <time>2018-10-27T07:20:08Z</time>
      </trkpt>
      <trkpt lat="38.5067070" lon="-0.6274230">
        <ele>1061.2</ele>
        <time>2018-10-27T07:20:10Z</time>
      </trkpt>
      <trkpt lat="38.5067660" lon="-0.6272850">
        <ele>1061.8</ele>
        <time>2018-10-27T07:20:17Z</time>
      </trkpt>
      <trkpt lat="38.5067680" lon="-0.6272420">
        <ele>1062.0</ele>
        <time>2018-10-27T07:20:19Z</time>
      </trkpt>
      <trkpt lat="38.5067920" lon="-0.6271660">
        <ele>1062.4</ele>
        <time>2018-10-27T07:20:23Z</time>
      </trkpt>
      <trkpt lat="38.5068220" lon="-0.6270800">
        <ele>1062.8</ele>
        <time>2018-10-27T07:20:27Z</time>
      </trkpt>
      <trkpt lat="38.5068320" lon="-0.6270350">
        <ele>1063.0</ele>
        <time>2018-10-27T07:20:29Z</time>
      </trkpt>
      <trkpt lat="38.5068340" lon="-0.6270120">
        <ele>1063.0</ele>
        <time>2018-10-27T07:20:30Z</time>
      </trkpt>
      <trkpt lat="38.5068370" lon="-0.6268800">
        <ele>1063.6</ele>
        <time>2018-10-27T07:20:36Z</time>
      </trkpt>
      <trkpt lat="38.5068580" lon="-0.6268030">
        <ele>1064.0</ele>
        <time>2018-10-27T07:20:40Z</time>
      </trkpt>
      <trkpt lat="38.5068640" lon="-0.6267680">
        <ele>1064.2</ele>
        <time>2018-10-27T07:20:42Z</time>
      </trkpt>
      <trkpt lat="38.5068790" lon="-0.6266980">
        <ele>1064.8</ele>
        <time>2018-10-27T07:20:46Z</time>
      </trkpt>
      <trkpt lat="38.5068760" lon="-0.6266780">
        <ele>1065.0</ele>
        <time>2018-10-27T07:20:47Z</time>
      </trkpt>
      <trkpt lat="38.5068760" lon="-0.6266350">
        <ele>1065.2</ele>
        <time>2018-10-27T07:20:49Z</time>
      </trkpt>
      <trkpt lat="38.5068900" lon="-0.6265950">
        <ele>1065.4</ele>
        <time>2018-10-27T07:20:51Z</time>
      </trkpt>
      <trkpt lat="38.5069010" lon="-0.6264730">
        <ele>1066.2</ele>
        <time>2018-10-27T07:20:57Z</time>
      </trkpt>
      <trkpt lat="38.5068950" lon="-0.6264550">
        <ele>1066.4</ele>
        <time>2018-10-27T07:20:58Z</time>
      </trkpt>
      <trkpt lat="38.5068850" lon="-0.6263140">
        <ele>1067.4</ele>
        <time>2018-10-27T07:21:05Z</time>
      </trkpt>
      <trkpt lat="38.5068820" lon="-0.6262690">
        <ele>1067.6</ele>
        <time>2018-10-27T07:21:07Z</time>
      </trkpt>
      <trkpt lat="38.5069000" lon="-0.6261890">
        <ele>1068.0</ele>
        <time>2018-10-27T07:21:10Z</time>
      </trkpt>
      <trkpt lat="38.5069100" lon="-0.6261100">
        <ele>1068.4</ele>
        <time>2018-10-27T07:21:13Z</time>
      </trkpt>
      <trkpt lat="38.5069130" lon="-0.6260820">
        <ele>1068.6</ele>
        <time>2018-10-27T07:21:14Z</time>
      </trkpt>
      <trkpt lat="38.5069810" lon="-0.6258360">
        <ele>1069.4</ele>
        <time>2018-10-27T07:21:21Z</time>
      </trkpt>
      <trkpt lat="38.5069920" lon="-0.6258050">
        <ele>1069.6</ele>
        <time>2018-10-27T07:21:22Z</time>
      </trkpt>
      <trkpt lat="38.5069980" lon="-0.6255890">
        <ele>1070.2</ele>
        <time>2018-10-27T07:21:28Z</time>
      </trkpt>
      <trkpt lat="38.5069990" lon="-0.6255150">
        <ele>1070.6</ele>
        <time>2018-10-27T07:21:30Z</time>
      </trkpt>
      <trkpt lat="38.5069880" lon="-0.6253040">
        <ele>1071.0</ele>
        <time>2018-10-27T07:21:35Z</time>
      </trkpt>
      <trkpt lat="38.5069830" lon="-0.6251460">
        <ele>1071.6</ele>
        <time>2018-10-27T07:21:39Z</time>
      </trkpt>
      <trkpt lat="38.5069920" lon="-0.6250690">
        <ele>1071.8</ele>
        <time>2018-10-27T07:21:41Z</time>
      </trkpt>
      <trkpt lat="38.5070100" lon="-0.6249030">
        <ele>1072.2</ele>
        <time>2018-10-27T07:21:46Z</time>
      </trkpt>
      <trkpt lat="38.5070050" lon="-0.6248660">
        <ele>1072.4</ele>
        <time>2018-10-27T07:21:47Z</time>
      </trkpt>
      <trkpt lat="38.5069880" lon="-0.6247520">
        <ele>1072.6</ele>
        <time>2018-10-27T07:21:50Z</time>
      </trkpt>
      <trkpt lat="38.5069300" lon="-0.6245620">
        <ele>1073.0</ele>
        <time>2018-10-27T07:21:56Z</time>
      </trkpt>
      <trkpt lat="38.5068630" lon="-0.6243780">
        <ele>1073.2</ele>
        <time>2018-10-27T07:22:03Z</time>
      </trkpt>
      <trkpt lat="38.5067790" lon="-0.6241380">
        <ele>1073.6</ele>
        <time>2018-10-27T07:22:11Z</time>
      </trkpt>
      <trkpt lat="38.5067560" lon="-0.6241030">
        <ele>1073.6</ele>
        <time>2018-10-27T07:22:12Z</time>
      </trkpt>
      <trkpt lat="38.5067360" lon="-0.6240670">
        <ele>1073.6</ele>
        <time>2018-10-27T07:22:13Z</time>
      </trkpt>
      <trkpt lat="38.5066410" lon="-0.6238550">
        <ele>1073.8</ele>
        <time>2018-10-27T07:22:19Z</time>
      </trkpt>
      <trkpt lat="38.5065750" lon="-0.6237030">
        <ele>1074.0</ele>
        <time>2018-10-27T07:22:24Z</time>
      </trkpt>
      <trkpt lat="38.5065510" lon="-0.6236370">
        <ele>1074.0</ele>
        <time>2018-10-27T07:22:26Z</time>
      </trkpt>
      <trkpt lat="38.5064570" lon="-0.6234230">
        <ele>1074.2</ele>
        <time>2018-10-27T07:22:33Z</time>
      </trkpt>
      <trkpt lat="38.5064490" lon="-0.6233930">
        <ele>1074.2</ele>
        <time>2018-10-27T07:22:34Z</time>
      </trkpt>
      <trkpt lat="38.5064070" lon="-0.6232450">
        <ele>1074.4</ele>
        <time>2018-10-27T07:22:39Z</time>
      </trkpt>
      <trkpt lat="38.5063630" lon="-0.6231560">
        <ele>1074.4</ele>
        <time>2018-10-27T07:22:42Z</time>
      </trkpt>
      <trkpt lat="38.5063530" lon="-0.6231230">
        <ele>1074.4</ele>
        <time>2018-10-27T07:22:43Z</time>
      </trkpt>
      <trkpt lat="38.5062480" lon="-0.6229160">
        <ele>1074.4</ele>
        <time>2018-10-27T07:22:50Z</time>
      </trkpt>
      <trkpt lat="38.5061460" lon="-0.6227130">
        <ele>1074.4</ele>
        <time>2018-10-27T07:22:58Z</time>
      </trkpt>
      <trkpt lat="38.5061330" lon="-0.6226890">
        <ele>1074.4</ele>
        <time>2018-10-27T07:22:59Z</time>
      </trkpt>
      <trkpt lat="38.5061170" lon="-0.6226440">
        <ele>1074.4</ele>
        <time>2018-10-27T07:23:01Z</time>
      </trkpt>
      <trkpt lat="38.5060990" lon="-0.6225950">
        <ele>1074.4</ele>
        <time>2018-10-27T07:23:03Z</time>
      </trkpt>
      <trkpt lat="38.5059960" lon="-0.6224730">
        <ele>1074.4</ele>
        <time>2018-10-27T07:23:09Z</time>
      </trkpt>
      <trkpt lat="38.5058310" lon="-0.6223090">
        <ele>1074.4</ele>
        <time>2018-10-27T07:23:16Z</time>
      </trkpt>
      <trkpt lat="38.5056820" lon="-0.6221320">
        <ele>1074.6</ele>
        <time>2018-10-27T07:23:23Z</time>
      </trkpt>
      <trkpt lat="38.5056410" lon="-0.6220820">
        <ele>1074.6</ele>
        <time>2018-10-27T07:23:25Z</time>
      </trkpt>
      <trkpt lat="38.5054880" lon="-0.6219290">
        <ele>1074.6</ele>
        <time>2018-10-27T07:23:32Z</time>
      </trkpt>
      <trkpt lat="38.5053000" lon="-0.6218410">
        <ele>1074.6</ele>
        <time>2018-10-27T07:23:39Z</time>
      </trkpt>
      <trkpt lat="38.5052130" lon="-0.6218040">
        <ele>1074.8</ele>
        <time>2018-10-27T07:23:42Z</time>
      </trkpt>
      <trkpt lat="38.5051520" lon="-0.6217870">
        <ele>1074.8</ele>
        <time>2018-10-27T07:23:44Z</time>
      </trkpt>
      <trkpt lat="38.5050930" lon="-0.6217800">
        <ele>1074.8</ele>
        <time>2018-10-27T07:23:46Z</time>
      </trkpt>
      <trkpt lat="38.5049100" lon="-0.6217610">
        <ele>1074.8</ele>
        <time>2018-10-27T07:23:53Z</time>
      </trkpt>
      <trkpt lat="38.5048580" lon="-0.6217610">
        <ele>1074.8</ele>
        <time>2018-10-27T07:23:55Z</time>
      </trkpt>
      <trkpt lat="38.5047690" lon="-0.6217510">
        <ele>1074.8</ele>
        <time>2018-10-27T07:23:58Z</time>
      </trkpt>
      <trkpt lat="38.5047090" lon="-0.6217430">
        <ele>1074.8</ele>
        <time>2018-10-27T07:24:00Z</time>
      </trkpt>
      <trkpt lat="38.5046240" lon="-0.6217390">
        <ele>1074.8</ele>
        <time>2018-10-27T07:24:03Z</time>
      </trkpt>
      <trkpt lat="38.5044160" lon="-0.6217650">
        <ele>1074.8</ele>
        <time>2018-10-27T07:24:10Z</time>
      </trkpt>
      <trkpt lat="38.5043840" lon="-0.6217640">
        <ele>1074.8</ele>
        <time>2018-10-27T07:24:11Z</time>
      </trkpt>
      <trkpt lat="38.5042520" lon="-0.6217000">
        <ele>1074.8</ele>
        <time>2018-10-27T07:24:16Z</time>
      </trkpt>
      <trkpt lat="38.5041720" lon="-0.6216690">
        <ele>1074.6</ele>
        <time>2018-10-27T07:24:20Z</time>
      </trkpt>
      <trkpt lat="38.5041580" lon="-0.6217250">
        <ele>1074.6</ele>
        <time>2018-10-27T07:24:22Z</time>
      </trkpt>
      <trkpt lat="38.5041620" lon="-0.6217680">
        <ele>1074.6</ele>
        <time>2018-10-27T07:24:24Z</time>
      </trkpt>
      <trkpt lat="38.5041920" lon="-0.6217720">
        <ele>1074.4</ele>
        <time>2018-10-27T07:24:28Z</time>
      </trkpt>
      <trkpt lat="38.5042070" lon="-0.6217550">
        <ele>1074.2</ele>
        <time>2018-10-27T07:24:34Z</time>
      </trkpt>
      <trkpt lat="38.5042070" lon="-0.6217550">
        <ele>1074.2</ele>
        <time>2018-10-27T07:24:35Z</time>
      </trkpt>
      <trkpt lat="38.5011120" lon="-0.6198350">
        <ele>975.0</ele>
        <time>2018-10-27T07:31:24Z</time>
      </trkpt>
      <trkpt lat="38.5011050" lon="-0.6198300">
        <ele>974.6</ele>
        <time>2018-10-27T07:31:25Z</time>
      </trkpt>
      <trkpt lat="38.5010620" lon="-0.6197220">
        <ele>972.0</ele>
        <time>2018-10-27T07:31:31Z</time>
      </trkpt>
      <trkpt lat="38.5010480" lon="-0.6197040">
        <ele>971.4</ele>
        <time>2018-10-27T07:31:32Z</time>
      </trkpt>
      <trkpt lat="38.5010190" lon="-0.6196770">
        <ele>970.6</ele>
        <time>2018-10-27T07:31:34Z</time>
      </trkpt>
      <trkpt lat="38.5009790" lon="-0.6196420">
        <ele>969.4</ele>
        <time>2018-10-27T07:31:37Z</time>
      </trkpt>
      <trkpt lat="38.5009660" lon="-0.6196290">
        <ele>969.0</ele>
        <time>2018-10-27T07:31:38Z</time>
      </trkpt>
      <trkpt lat="38.5009580" lon="-0.6196210">
        <ele>968.0</ele>
        <time>2018-10-27T07:31:40Z</time>
      </trkpt>
      <trkpt lat="38.5009550" lon="-0.6196190">
        <ele>966.6</ele>
        <time>2018-10-27T07:31:43Z</time>
      </trkpt>
      <trkpt lat="38.5009090" lon="-0.6195320">
        <ele>952.4</ele>
        <time>2018-10-27T07:32:19Z</time>
      </trkpt>
      <trkpt lat="38.5008980" lon="-0.6195270">
        <ele>952.0</ele>
        <time>2018-10-27T07:32:20Z</time>
      </trkpt>
      <trkpt lat="38.5008780" lon="-0.6195170">
        <ele>951.4</ele>
        <time>2018-10-27T07:32:22Z</time>
      </trkpt>
      <trkpt lat="38.5008720" lon="-0.6195100">
        <ele>951.0</ele>
        <time>2018-10-27T07:32:23Z</time>
      </trkpt>
      <trkpt lat="38.5008470" lon="-0.6195000">
        <ele>950.4</ele>
        <time>2018-10-27T07:32:25Z</time>
      </trkpt>
      <trkpt lat="38.5008110" lon="-0.6194970">
        <ele>949.4</ele>
        <time>2018-10-27T07:32:28Z</time>
      </trkpt>
      <trkpt lat="38.5008000" lon="-0.6194920">
        <ele>949.0</ele>
        <time>2018-10-27T07:32:29Z</time>
      </trkpt>
      <trkpt lat="38.5007890" lon="-0.6194920">
        <ele>948.6</ele>
        <time>2018-10-27T07:32:30Z</time>
      </trkpt>
      <trkpt lat="38.5007750" lon="-0.6194970">
        <ele>948.0</ele>
        <time>2018-10-27T07:32:32Z</time>
      </trkpt>
      <trkpt lat="38.5007760" lon="-0.6194970">
        <ele>947.2</ele>
        <time>2018-10-27T07:32:34Z</time>
      </trkpt>
      <trkpt lat="38.5007780" lon="-0.6194970">
        <ele>947.0</ele>
        <time>2018-10-27T07:32:35Z</time>
      </trkpt>
      <trkpt lat="38.5006120" lon="-0.6194620">
        <ele>939.8</ele>
        <time>2018-10-27T07:32:56Z</time>
      </trkpt>
      <trkpt lat="38.5005870" lon="-0.6194430">
        <ele>938.8</ele>
        <time>2018-10-27T07:32:59Z</time>
      </trkpt>
      <trkpt lat="38.5005850" lon="-0.6194340">
        <ele>938.6</ele>
        <time>2018-10-27T07:33:00Z</time>
      </trkpt>
      <trkpt lat="38.5005530" lon="-0.6194040">
        <ele>937.6</ele>
        <time>2018-10-27T07:33:03Z</time>
      </trkpt>
      <trkpt lat="38.5005420" lon="-0.6194020">
        <ele>937.2</ele>
        <time>2018-10-27T07:33:04Z</time>
      </trkpt>
      <trkpt lat="38.5004950" lon="-0.6193790">
        <ele>936.0</ele>
        <time>2018-10-27T07:33:08Z</time>
      </trkpt>
      <trkpt lat="38.5004770" lon="-0.6193560">
        <ele>935.2</ele>
        <time>2018-10-27T07:33:10Z</time>
      </trkpt>
      <trkpt lat="38.5004650" lon="-0.6193490">
        <ele>935.0</ele>
        <time>2018-10-27T07:33:11Z</time>
      </trkpt>
      <trkpt lat="38.5004500" lon="-0.6193470">
        <ele>934.6</ele>
        <time>2018-10-27T07:33:12Z</time>
      </trkpt>
      <trkpt lat="38.5004410" lon="-0.6193400">
        <ele>934.4</ele>
        <time>2018-10-27T07:33:13Z</time>
      </trkpt>
      <trkpt lat="38.5004220" lon="-0.6193290">
        <ele>933.8</ele>
        <time>2018-10-27T07:33:15Z</time>
      </trkpt>
      <trkpt lat="38.5004100" lon="-0.6193240">
        <ele>933.4</ele>
        <time>2018-10-27T07:33:16Z</time>
      </trkpt>
      <trkpt lat="38.5003590" lon="-0.6192790">
        <ele>932.2</ele>
        <time>2018-10-27T07:33:20Z</time>
      </trkpt>
      <trkpt lat="38.5003280" lon="-0.6192570">
        <ele>931.4</ele>
        <time>2018-10-27T07:33:22Z</time>
      </trkpt>
      <trkpt lat="38.5002990" lon="-0.6192280">
        <ele>930.8</ele>
        <time>2018-10-27T07:33:24Z</time>
      </trkpt>
      <trkpt lat="38.5002410" lon="-0.6191810">
        <ele>929.6</ele>
        <time>2018-10-27T07:33:28Z</time>
      </trkpt>
      <trkpt lat="38.5002330" lon="-0.6191620">
        <ele>929.2</ele>
        <time>2018-10-27T07:33:29Z</time>
      </trkpt>
      <trkpt lat="38.5002080" lon="-0.6191370">
        <ele>928.6</ele>
        <time>2018-10-27T07:33:31Z</time>
      </trkpt>
      <trkpt lat="38.5001770" lon="-0.6191350">
        <ele>927.8</ele>
        <time>2018-10-27T07:33:33Z</time>
      </trkpt>
      <trkpt lat="38.5001560" lon="-0.6191250">
        <ele>927.2</ele>
        <time>2018-10-27T07:33:35Z</time>
      </trkpt>
      <trkpt lat="38.5001140" lon="-0.6190940">
        <ele>926.2</ele>
        <time>2018-10-27T07:33:38Z</time>
      </trkpt>
      <trkpt lat="38.5001010" lon="-0.6190810">
        <ele>925.8</ele>
        <time>2018-10-27T07:33:39Z</time>
      </trkpt>
      <trkpt lat="38.5000770" lon="-0.6190490">
        <ele>925.2</ele>
        <time>2018-10-27T07:33:41Z</time>
      </trkpt>
      <trkpt lat="38.5000320" lon="-0.6190000">
        <ele>924.0</ele>
        <time>2018-10-27T07:33:44Z</time>
      </trkpt>
      <trkpt lat="38.5000150" lon="-0.6189810">
        <ele>923.8</ele>
        <time>2018-10-27T07:33:45Z</time>
      </trkpt>
      <trkpt lat="38.4999730" lon="-0.6189400">
        <ele>923.0</ele>
        <time>2018-10-27T07:33:47Z</time>
      </trkpt>
      <trkpt lat="38.4999100" lon="-0.6188910">
        <ele>921.8</ele>
        <time>2018-10-27T07:33:50Z</time>
      </trkpt>
      <trkpt lat="38.4998900" lon="-0.6188730">
        <ele>921.6</ele>
        <time>2018-10-27T07:33:51Z</time>
      </trkpt>
      <trkpt lat="38.4998540" lon="-0.6188320">
        <ele>920.8</ele>
        <time>2018-10-27T07:33:53Z</time>
      </trkpt>
      <trkpt lat="38.4998080" lon="-0.6187860">
        <ele>920.0</ele>
        <time>2018-10-27T07:33:55Z</time>
      </trkpt>
      <trkpt lat="38.4997890" lon="-0.6187610">
        <ele>919.8</ele>
        <time>2018-10-27T07:33:56Z</time>
      </trkpt>
      <trkpt lat="38.4997270" lon="-0.6187020">
        <ele>918.6</ele>
        <time>2018-10-27T07:33:59Z</time>
      </trkpt>
      <trkpt lat="38.4996660" lon="-0.6186640">
        <ele>917.6</ele>
        <time>2018-10-27T07:34:02Z</time>
      </trkpt>
      <trkpt lat="38.4996040" lon="-0.6186330">
        <ele>916.4</ele>
        <time>2018-10-27T07:34:05Z</time>
      </trkpt>
      <trkpt lat="38.4995830" lon="-0.6186290">
        <ele>916.0</ele>
        <time>2018-10-27T07:34:06Z</time>
      </trkpt>
      <trkpt lat="38.4995410" lon="-0.6186220">
        <ele>915.4</ele>
        <time>2018-10-27T07:34:08Z</time>
      </trkpt>
      <trkpt lat="38.4994730" lon="-0.6186200">
        <ele>914.2</ele>
        <time>2018-10-27T07:34:11Z</time>
      </trkpt>
      <trkpt lat="38.4994240" lon="-0.6186220">
        <ele>913.4</ele>
        <time>2018-10-27T07:34:13Z</time>
      </trkpt>
      <trkpt lat="38.4994020" lon="-0.6186180">
        <ele>913.0</ele>
        <time>2018-10-27T07:34:14Z</time>
      </trkpt>
      <trkpt lat="38.4993330" lon="-0.6186120">
        <ele>911.8</ele>
        <time>2018-10-27T07:34:17Z</time>
      </trkpt>
      <trkpt lat="38.4992880" lon="-0.6186120">
        <ele>911.0</ele>
        <time>2018-10-27T07:34:19Z</time>
      </trkpt>
      <trkpt lat="38.4992580" lon="-0.6186140">
        <ele>910.6</ele>
        <time>2018-10-27T07:34:20Z</time>
      </trkpt>
      <trkpt lat="38.4991770" lon="-0.6186090">
        <ele>909.4</ele>
        <time>2018-10-27T07:34:23Z</time>
      </trkpt>
      <trkpt lat="38.4991240" lon="-0.6186000">
        <ele>908.6</ele>
        <time>2018-10-27T07:34:25Z</time>
      </trkpt>
      <trkpt lat="38.4991010" lon="-0.6185970">
        <ele>908.2</ele>
        <time>2018-10-27T07:34:26Z</time>
      </trkpt>
      <trkpt lat="38.4990330" lon="-0.6185960">
        <ele>907.0</ele>
        <time>2018-10-27T07:34:29Z</time>
      </trkpt>
      <trkpt lat="38.4989860" lon="-0.6185980">
        <ele>906.2</ele>
        <time>2018-10-27T07:34:31Z</time>
      </trkpt>
      <trkpt lat="38.4989670" lon="-0.6185920">
        <ele>905.8</ele>
        <time>2018-10-27T07:34:32Z</time>
      </trkpt>
      <trkpt lat="38.4989100" lon="-0.6185790">
        <ele>904.8</ele>
        <time>2018-10-27T07:34:35Z</time>
      </trkpt>
      <trkpt lat="38.4988720" lon="-0.6185800">
        <ele>903.8</ele>
        <time>2018-10-27T07:34:37Z</time>
      </trkpt>
      <trkpt lat="38.4988500" lon="-0.6185900">
        <ele>903.4</ele>
        <time>2018-10-27T07:34:38Z</time>
      </trkpt>
      <trkpt lat="38.4987930" lon="-0.6186300">
        <ele>902.2</ele>
        <time>2018-10-27T07:34:41Z</time>
      </trkpt>
      <trkpt lat="38.4987800" lon="-0.6186410">
        <ele>901.8</ele>
        <time>2018-10-27T07:34:42Z</time>
      </trkpt>
      <trkpt lat="38.4987460" lon="-0.6186590">
        <ele>901.0</ele>
        <time>2018-10-27T07:34:44Z</time>
      </trkpt>
      <trkpt lat="38.4986970" lon="-0.6186840">
        <ele>899.6</ele>
        <time>2018-10-27T07:34:47Z</time>
      </trkpt>
      <trkpt lat="38.4986590" lon="-0.6187120">
        <ele>898.8</ele>
        <time>2018-10-27T07:34:49Z</time>
      </trkpt>
      <trkpt lat="38.4986390" lon="-0.6187270">
        <ele>898.2</ele>
        <time>2018-10-27T07:34:50Z</time>
      </trkpt>
      <trkpt lat="38.4985910" lon="-0.6187400">
        <ele>897.0</ele>
        <time>2018-10-27T07:34:53Z</time>
      </trkpt>
      <trkpt lat="38.4985580" lon="-0.6187460">
        <ele>896.0</ele>
        <time>2018-10-27T07:34:55Z</time>
      </trkpt>
      <trkpt lat="38.4985360" lon="-0.6187520">
        <ele>895.6</ele>
        <time>2018-10-27T07:34:56Z</time>
      </trkpt>
      <trkpt lat="38.4984810" lon="-0.6187810">
        <ele>894.2</ele>
        <time>2018-10-27T07:34:59Z</time>
      </trkpt>
      <trkpt lat="38.4984220" lon="-0.6188270">
        <ele>892.8</ele>
        <time>2018-10-27T07:35:02Z</time>
      </trkpt>
      <trkpt lat="38.4983570" lon="-0.6188580">
        <ele>891.4</ele>
        <time>2018-10-27T07:35:05Z</time>
      </trkpt>
      <trkpt lat="38.4983380" lon="-0.6188580">
        <ele>891.0</ele>
        <time>2018-10-27T07:35:06Z</time>
      </trkpt>
      <trkpt lat="38.4982880" lon="-0.6188230">
        <ele>890.0</ele>
        <time>2018-10-27T07:35:08Z</time>
      </trkpt>
      <trkpt lat="38.4982090" lon="-0.6187580">
        <ele>888.6</ele>
        <time>2018-10-27T07:35:11Z</time>
      </trkpt>
      <trkpt lat="38.4981460" lon="-0.6186630">
        <ele>887.2</ele>
        <time>2018-10-27T07:35:14Z</time>
      </trkpt>
      <trkpt lat="38.4981290" lon="-0.6186290">
        <ele>886.8</ele>
        <time>2018-10-27T07:35:15Z</time>
      </trkpt>
      <trkpt lat="38.4980970" lon="-0.6185730">
        <ele>885.8</ele>
        <time>2018-10-27T07:35:17Z</time>
      </trkpt>
      <trkpt lat="38.4980560" lon="-0.6185010">
        <ele>884.4</ele>
        <time>2018-10-27T07:35:20Z</time>
      </trkpt>
      <trkpt lat="38.4979970" lon="-0.6184320">
        <ele>883.0</ele>
        <time>2018-10-27T07:35:23Z</time>
      </trkpt>
      <trkpt lat="38.4979620" lon="-0.6184160">
        <ele>882.0</ele>
        <time>2018-10-27T07:35:25Z</time>
      </trkpt>
      <trkpt lat="38.4979460" lon="-0.6184180">
        <ele>881.6</ele>
        <time>2018-10-27T07:35:26Z</time>
      </trkpt>
      <trkpt lat="38.4979140" lon="-0.6184170">
        <ele>880.2</ele>
        <time>2018-10-27T07:35:29Z</time>
      </trkpt>
      <trkpt lat="38.4979020" lon="-0.6184160">
        <ele>879.6</ele>
        <time>2018-10-27T07:35:30Z</time>
      </trkpt>
      <trkpt lat="38.4978310" lon="-0.6183910">
        <ele>877.2</ele>
        <time>2018-10-27T07:35:35Z</time>
      </trkpt>
      <trkpt lat="38.4978210" lon="-0.6183740">
        <ele>876.6</ele>
        <time>2018-10-27T07:35:36Z</time>
      </trkpt>
      <trkpt lat="38.4978080" lon="-0.6183560">
        <ele>876.2</ele>
        <time>2018-10-27T07:35:37Z</time>
      </trkpt>
      <trkpt lat="38.4977740" lon="-0.6183270">
        <ele>875.2</ele>
        <time>2018-10-27T07:35:39Z</time>
      </trkpt>
      <trkpt lat="38.4977540" lon="-0.6183200">
        <ele>874.6</ele>
        <time>2018-10-27T07:35:40Z</time>
      </trkpt>
      <trkpt lat="38.4977290" lon="-0.6183210">
        <ele>874.2</ele>
        <time>2018-10-27T07:35:41Z</time>
      </trkpt>
      <trkpt lat="38.4976420" lon="-0.6183370">
        <ele>872.6</ele>
        <time>2018-10-27T07:35:44Z</time>
      </trkpt>
      <trkpt lat="38.4975960" lon="-0.6183480">
        <ele>871.6</ele>
        <time>2018-10-27T07:35:46Z</time>
      </trkpt>
      <trkpt lat="38.4975780" lon="-0.6183530">
        <ele>871.2</ele>
        <time>2018-10-27T07:35:47Z</time>
      </trkpt>
      <trkpt lat="38.4975010" lon="-0.6183820">
        <ele>869.8</ele>
        <time>2018-10-27T07:35:50Z</time>
      </trkpt>
      <trkpt lat="38.4974430" lon="-0.6184010">
        <ele>868.8</ele>
        <time>2018-10-27T07:35:52Z</time>
      </trkpt>
      <trkpt lat="38.4974150" lon="-0.6184080">
        <ele>868.4</ele>
        <time>2018-10-27T07:35:53Z</time>
      </trkpt>
      <trkpt lat="38.4973470" lon="-0.6184350">
        <ele>867.2</ele>
        <time>2018-10-27T07:35:56Z</time>
      </trkpt>
      <trkpt lat="38.4972890" lon="-0.6184610">
        <ele>865.8</ele>
        <time>2018-10-27T07:35:59Z</time>
      </trkpt>
      <trkpt lat="38.4972750" lon="-0.6184860">
        <ele>864.6</ele>
        <time>2018-10-27T07:36:02Z</time>
      </trkpt>
      <trkpt lat="38.4972630" lon="-0.6185010">
        <ele>864.2</ele>
        <time>2018-10-27T07:36:03Z</time>
      </trkpt>
      <trkpt lat="38.4972470" lon="-0.6185120">
        <ele>863.4</ele>
        <time>2018-10-27T07:36:05Z</time>
      </trkpt>
      <trkpt lat="38.4972340" lon="-0.6185090">
        <ele>862.6</ele>
        <time>2018-10-27T07:36:07Z</time>
      </trkpt>
      <trkpt lat="38.4972260" lon="-0.6185080">
        <ele>862.2</ele>
        <time>2018-10-27T07:36:08Z</time>
      </trkpt>
      <trkpt lat="38.4972130" lon="-0.6185110">
        <ele>861.2</ele>
        <time>2018-10-27T07:36:11Z</time>
      </trkpt>
      <trkpt lat="38.4971990" lon="-0.6185150">
        <ele>860.0</ele>
        <time>2018-10-27T07:36:14Z</time>
      </trkpt>
      <trkpt lat="38.4971860" lon="-0.6185160">
        <ele>859.6</ele>
        <time>2018-10-27T07:36:15Z</time>
      </trkpt>
      <trkpt lat="38.4971500" lon="-0.6185400">
        <ele>858.8</ele>
        <time>2018-10-27T07:36:17Z</time>
      </trkpt>
      <trkpt lat="38.4971050" lon="-0.6185610">
        <ele>858.2</ele>
        <time>2018-10-27T07:36:19Z</time>
      </trkpt>
      <trkpt lat="38.4970790" lon="-0.6185640">
        <ele>857.8</ele>
        <time>2018-10-27T07:36:20Z</time>
      </trkpt>
      <trkpt lat="38.4970050" lon="-0.6185440">
        <ele>856.6</ele>
        <time>2018-10-27T07:36:23Z</time>
      </trkpt>
      <trkpt lat="38.4969540" lon="-0.6185410">
        <ele>855.8</ele>
        <time>2018-10-27T07:36:25Z</time>
      </trkpt>
      <trkpt lat="38.4969260" lon="-0.6185380">
        <ele>855.4</ele>
        <time>2018-10-27T07:36:26Z</time>
      </trkpt>
      <trkpt lat="38.4968430" lon="-0.6185330">
        <ele>854.4</ele>
        <time>2018-10-27T07:36:29Z</time>
      </trkpt>
      <trkpt lat="38.4967620" lon="-0.6185220">
        <ele>853.2</ele>
        <time>2018-10-27T07:36:32Z</time>
      </trkpt>
      <trkpt lat="38.4967360" lon="-0.6185180">
        <ele>852.8</ele>
        <time>2018-10-27T07:36:33Z</time>
      </trkpt>
      <trkpt lat="38.4966880" lon="-0.6185030">
        <ele>852.2</ele>
        <time>2018-10-27T07:36:35Z</time>
      </trkpt>
      <trkpt lat="38.4966090" lon="-0.6184700">
        <ele>851.0</ele>
        <time>2018-10-27T07:36:38Z</time>
      </trkpt>
      <trkpt lat="38.4965840" lon="-0.6184540">
        <ele>850.6</ele>
        <time>2018-10-27T07:36:39Z</time>
      </trkpt>
      <trkpt lat="38.4965440" lon="-0.6184270">
        <ele>850.0</ele>
        <time>2018-10-27T07:36:41Z</time>
      </trkpt>
      <trkpt lat="38.4964840" lon="-0.6183750">
        <ele>848.8</ele>
        <time>2018-10-27T07:36:44Z</time>
      </trkpt>
      <trkpt lat="38.4964220" lon="-0.6183050">
        <ele>847.8</ele>
        <time>2018-10-27T07:36:47Z</time>
      </trkpt>
      <trkpt lat="38.4963690" lon="-0.6182470">
        <ele>846.8</ele>
        <time>2018-10-27T07:36:50Z</time>
      </trkpt>
      <trkpt lat="38.4963210" lon="-0.6181810">
        <ele>845.6</ele>
        <time>2018-10-27T07:36:53Z</time>
      </trkpt>
      <trkpt lat="38.4962980" lon="-0.6181610">
        <ele>845.2</ele>
        <time>2018-10-27T07:36:54Z</time>
      </trkpt>
      <trkpt lat="38.4962540" lon="-0.6181260">
        <ele>844.6</ele>
        <time>2018-10-27T07:36:56Z</time>
      </trkpt>
      <trkpt lat="38.4961810" lon="-0.6180820">
        <ele>843.4</ele>
        <time>2018-10-27T07:36:59Z</time>
      </trkpt>
      <trkpt lat="38.4961330" lon="-0.6180490">
        <ele>842.6</ele>
        <time>2018-10-27T07:37:01Z</time>
      </trkpt>
      <trkpt lat="38.4961170" lon="-0.6180320">
        <ele>842.2</ele>
        <time>2018-10-27T07:37:02Z</time>
      </trkpt>
      <trkpt lat="38.4960680" lon="-0.6179670">
        <ele>841.2</ele>
        <time>2018-10-27T07:37:05Z</time>
      </trkpt>
      <trkpt lat="38.4960120" lon="-0.6179010">
        <ele>840.0</ele>
        <time>2018-10-27T07:37:08Z</time>
      </trkpt>
      <trkpt lat="38.4959500" lon="-0.6178410">
        <ele>839.0</ele>
        <time>2018-10-27T07:37:11Z</time>
      </trkpt>
      <trkpt lat="38.4959030" lon="-0.6177910">
        <ele>837.8</ele>
        <time>2018-10-27T07:37:14Z</time>
      </trkpt>
      <trkpt lat="38.4958540" lon="-0.6177550">
        <ele>837.0</ele>
        <time>2018-10-27T07:37:16Z</time>
      </trkpt>
      <trkpt lat="38.4958300" lon="-0.6177310">
        <ele>836.6</ele>
        <time>2018-10-27T07:37:17Z</time>
      </trkpt>
      <trkpt lat="38.4957690" lon="-0.6176640">
        <ele>835.4</ele>
        <time>2018-10-27T07:37:20Z</time>
      </trkpt>
      <trkpt lat="38.4957050" lon="-0.6176110">
        <ele>834.2</ele>
        <time>2018-10-27T07:37:23Z</time>
      </trkpt>
      <trkpt lat="38.4956430" lon="-0.6175370">
        <ele>833.0</ele>
        <time>2018-10-27T07:37:26Z</time>
      </trkpt>
      <trkpt lat="38.4955780" lon="-0.6173970">
        <ele>831.8</ele>
        <time>2018-10-27T07:37:29Z</time>
      </trkpt>
      <trkpt lat="38.4955680" lon="-0.6173640">
        <ele>831.4</ele>
        <time>2018-10-27T07:37:30Z</time>
      </trkpt>
      <trkpt lat="38.4955400" lon="-0.6173020">
        <ele>830.6</ele>
        <time>2018-10-27T07:37:32Z</time>
      </trkpt>
      <trkpt lat="38.4954770" lon="-0.6172260">
        <ele>829.4</ele>
        <time>2018-10-27T07:37:35Z</time>
      </trkpt>
      <trkpt lat="38.4954480" lon="-0.6171950">
        <ele>829.2</ele>
        <time>2018-10-27T07:37:36Z</time>
      </trkpt>
      <trkpt lat="38.4954070" lon="-0.6171250">
        <ele>828.4</ele>
        <time>2018-10-27T07:37:38Z</time>
      </trkpt>
      <trkpt lat="38.4953950" lon="-0.6170720">
        <ele>828.0</ele>
        <time>2018-10-27T07:37:39Z</time>
      </trkpt>
      <trkpt lat="38.4953930" lon="-0.6170220">
        <ele>827.6</ele>
        <time>2018-10-27T07:37:40Z</time>
      </trkpt>
      <trkpt lat="38.4953930" lon="-0.6169740">
        <ele>827.2</ele>
        <time>2018-10-27T07:37:41Z</time>
      </trkpt>
      <trkpt lat="38.4953960" lon="-0.6168830">
        <ele>826.2</ele>
        <time>2018-10-27T07:37:43Z</time>
      </trkpt>
      <trkpt lat="38.4953940" lon="-0.6168370">
        <ele>825.8</ele>
        <time>2018-10-27T07:37:44Z</time>
      </trkpt>
      <trkpt lat="38.4953970" lon="-0.6167060">
        <ele>824.6</ele>
        <time>2018-10-27T07:37:47Z</time>
      </trkpt>
      <trkpt lat="38.4953990" lon="-0.6166650">
        <ele>824.2</ele>
        <time>2018-10-27T07:37:48Z</time>
      </trkpt>
      <trkpt lat="38.4954060" lon="-0.6165810">
        <ele>823.2</ele>
        <time>2018-10-27T07:37:50Z</time>
      </trkpt>
      <trkpt lat="38.4954220" lon="-0.6164660">
        <ele>822.0</ele>
        <time>2018-10-27T07:37:53Z</time>
      </trkpt>
      <trkpt lat="38.4954390" lon="-0.6163910">
        <ele>821.2</ele>
        <time>2018-10-27T07:37:55Z</time>
      </trkpt>
      <trkpt lat="38.4954500" lon="-0.6163540">
        <ele>820.8</ele>
        <time>2018-10-27T07:37:56Z</time>
      </trkpt>
      <trkpt lat="38.4954850" lon="-0.6162450">
        <ele>819.4</ele>
        <time>2018-10-27T07:37:59Z</time>
      </trkpt>
      <trkpt lat="38.4955150" lon="-0.6161320">
        <ele>818.2</ele>
        <time>2018-10-27T07:38:02Z</time>
      </trkpt>
      <trkpt lat="38.4955400" lon="-0.6160230">
        <ele>816.8</ele>
        <time>2018-10-27T07:38:05Z</time>
      </trkpt>
      <trkpt lat="38.4955530" lon="-0.6159190">
        <ele>815.6</ele>
        <time>2018-10-27T07:38:08Z</time>
      </trkpt>
      <trkpt lat="38.4955530" lon="-0.6158850">
        <ele>815.2</ele>
        <time>2018-10-27T07:38:09Z</time>
      </trkpt>
      <trkpt lat="38.4955380" lon="-0.6158210">
        <ele>814.4</ele>
        <time>2018-10-27T07:38:11Z</time>
      </trkpt>
      <trkpt lat="38.4955340" lon="-0.6157180">
        <ele>813.0</ele>
        <time>2018-10-27T07:38:14Z</time>
      </trkpt>
      <trkpt lat="38.4955350" lon="-0.6156840">
        <ele>812.6</ele>
        <time>2018-10-27T07:38:15Z</time>
      </trkpt>
      <trkpt lat="38.4955210" lon="-0.6156170">
        <ele>811.8</ele>
        <time>2018-10-27T07:38:17Z</time>
      </trkpt>
      <trkpt lat="38.4954860" lon="-0.6155200">
        <ele>810.4</ele>
        <time>2018-10-27T07:38:20Z</time>
      </trkpt>
      <trkpt lat="38.4954730" lon="-0.6154900">
        <ele>810.0</ele>
        <time>2018-10-27T07:38:21Z</time>
      </trkpt>
      <trkpt lat="38.4954310" lon="-0.6154390">
        <ele>809.2</ele>
        <time>2018-10-27T07:38:23Z</time>
      </trkpt>
      <trkpt lat="38.4953730" lon="-0.6153640">
        <ele>807.8</ele>
        <time>2018-10-27T07:38:26Z</time>
      </trkpt>
      <trkpt lat="38.4953240" lon="-0.6152960">
        <ele>806.4</ele>
        <time>2018-10-27T07:38:29Z</time>
      </trkpt>
      <trkpt lat="38.4952820" lon="-0.6152280">
        <ele>805.2</ele>
        <time>2018-10-27T07:38:32Z</time>
      </trkpt>
      <trkpt lat="38.4952660" lon="-0.6152030">
        <ele>804.6</ele>
        <time>2018-10-27T07:38:33Z</time>
      </trkpt>
      <trkpt lat="38.4952300" lon="-0.6151450">
        <ele>803.8</ele>
        <time>2018-10-27T07:38:35Z</time>
      </trkpt>
      <trkpt lat="38.4951650" lon="-0.6150740">
        <ele>802.6</ele>
        <time>2018-10-27T07:38:38Z</time>
      </trkpt>
      <trkpt lat="38.4951280" lon="-0.6150250">
        <ele>801.6</ele>
        <time>2018-10-27T07:38:40Z</time>
      </trkpt>
      <trkpt lat="38.4951070" lon="-0.6150040">
        <ele>801.2</ele>
        <time>2018-10-27T07:38:41Z</time>
      </trkpt>
      <trkpt lat="38.4950570" lon="-0.6149480">
        <ele>800.0</ele>
        <time>2018-10-27T07:38:44Z</time>
      </trkpt>
      <trkpt lat="38.4950140" lon="-0.6148840">
        <ele>799.0</ele>
        <time>2018-10-27T07:38:46Z</time>
      </trkpt>
      <trkpt lat="38.4949940" lon="-0.6148490">
        <ele>798.6</ele>
        <time>2018-10-27T07:38:47Z</time>
      </trkpt>
      <trkpt lat="38.4949380" lon="-0.6147600">
        <ele>797.2</ele>
        <time>2018-10-27T07:38:50Z</time>
      </trkpt>
      <trkpt lat="38.4948730" lon="-0.6146790">
        <ele>796.0</ele>
        <time>2018-10-27T07:38:53Z</time>
      </trkpt>
      <trkpt lat="38.4948530" lon="-0.6146510">
        <ele>795.6</ele>
        <time>2018-10-27T07:38:54Z</time>
      </trkpt>
      <trkpt lat="38.4948110" lon="-0.6145810">
        <ele>794.6</ele>
        <time>2018-10-27T07:38:56Z</time>
      </trkpt>
      <trkpt lat="38.4947430" lon="-0.6144900">
        <ele>793.4</ele>
        <time>2018-10-27T07:38:59Z</time>
      </trkpt>
      <trkpt lat="38.4946970" lon="-0.6144260">
        <ele>792.4</ele>
        <time>2018-10-27T07:39:01Z</time>
      </trkpt>
      <trkpt lat="38.4946750" lon="-0.6143950">
        <ele>792.0</ele>
        <time>2018-10-27T07:39:02Z</time>
      </trkpt>
      <trkpt lat="38.4946070" lon="-0.6143140">
        <ele>790.8</ele>
        <time>2018-10-27T07:39:05Z</time>
      </trkpt>
      <trkpt lat="38.4945350" lon="-0.6142290">
        <ele>789.4</ele>
        <time>2018-10-27T07:39:08Z</time>
      </trkpt>
      <trkpt lat="38.4944720" lon="-0.6141510">
        <ele>788.0</ele>
        <time>2018-10-27T07:39:11Z</time>
      </trkpt>
      <trkpt lat="38.4944210" lon="-0.6140680">
        <ele>786.6</ele>
        <time>2018-10-27T07:39:14Z</time>
      </trkpt>
      <trkpt lat="38.4944050" lon="-0.6140450">
        <ele>786.2</ele>
        <time>2018-10-27T07:39:15Z</time>
      </trkpt>
      <trkpt lat="38.4943660" lon="-0.6139930">
        <ele>785.2</ele>
        <time>2018-10-27T07:39:17Z</time>
      </trkpt>
      <trkpt lat="38.4942990" lon="-0.6139120">
        <ele>783.8</ele>
        <time>2018-10-27T07:39:20Z</time>
      </trkpt>
      <trkpt lat="38.4942560" lon="-0.6138570">
        <ele>783.0</ele>
        <time>2018-10-27T07:39:22Z</time>
      </trkpt>
      <trkpt lat="38.4942360" lon="-0.6138300">
        <ele>782.4</ele>
        <time>2018-10-27T07:39:23Z</time>
      </trkpt>
      <trkpt lat="38.4941790" lon="-0.6137400">
        <ele>781.2</ele>
        <time>2018-10-27T07:39:26Z</time>
      </trkpt>
      <trkpt lat="38.4941240" lon="-0.6136610">
        <ele>779.8</ele>
        <time>2018-10-27T07:39:29Z</time>
      </trkpt>
      <trkpt lat="38.4940680" lon="-0.6135880">
        <ele>778.4</ele>
        <time>2018-10-27T07:39:32Z</time>
      </trkpt>
      <trkpt lat="38.4940110" lon="-0.6135170">
        <ele>776.8</ele>
        <time>2018-10-27T07:39:35Z</time>
      </trkpt>
      <trkpt lat="38.4939770" lon="-0.6134720">
        <ele>775.8</ele>
        <time>2018-10-27T07:39:37Z</time>
      </trkpt>
      <trkpt lat="38.4939500" lon="-0.6134220">
        <ele>774.8</ele>
        <time>2018-10-27T07:39:39Z</time>
      </trkpt>
      <trkpt lat="38.4939210" lon="-0.6133780">
        <ele>773.8</ele>
        <time>2018-10-27T07:39:41Z</time>
      </trkpt>
      <trkpt lat="38.4938890" lon="-0.6133330">
        <ele>772.8</ele>
        <time>2018-10-27T07:39:43Z</time>
      </trkpt>
      <trkpt lat="38.4938750" lon="-0.6133100">
        <ele>772.2</ele>
        <time>2018-10-27T07:39:44Z</time>
      </trkpt>
      <trkpt lat="38.4938440" lon="-0.6132660">
        <ele>771.2</ele>
        <time>2018-10-27T07:39:46Z</time>
      </trkpt>
      <trkpt lat="38.4938040" lon="-0.6132040">
        <ele>769.8</ele>
        <time>2018-10-27T07:39:49Z</time>
      </trkpt>
      <trkpt lat="38.4937670" lon="-0.6131260">
        <ele>768.2</ele>
        <time>2018-10-27T07:39:52Z</time>
      </trkpt>
      <trkpt lat="38.4937490" lon="-0.6130740">
        <ele>767.4</ele>
        <time>2018-10-27T07:39:54Z</time>
      </trkpt>
      <trkpt lat="38.4937380" lon="-0.6130500">
        <ele>766.8</ele>
        <time>2018-10-27T07:39:55Z</time>
      </trkpt>
      <trkpt lat="38.4936890" lon="-0.6129660">
        <ele>765.4</ele>
        <time>2018-10-27T07:39:58Z</time>
      </trkpt>
      <trkpt lat="38.4936400" lon="-0.6128940">
        <ele>763.8</ele>
        <time>2018-10-27T07:40:01Z</time>
      </trkpt>
      <trkpt lat="38.4935690" lon="-0.6128120">
        <ele>762.4</ele>
        <time>2018-10-27T07:40:04Z</time>
      </trkpt>
      <trkpt lat="38.4934970" lon="-0.6127240">
        <ele>761.0</ele>
        <time>2018-10-27T07:40:07Z</time>
      </trkpt>
      <trkpt lat="38.4934760" lon="-0.6126880">
        <ele>760.6</ele>
        <time>2018-10-27T07:40:08Z</time>
      </trkpt>
      <trkpt lat="38.4934320" lon="-0.6126180">
        <ele>759.6</ele>
        <time>2018-10-27T07:40:10Z</time>
      </trkpt>
      <trkpt lat="38.4933670" lon="-0.6125160">
        <ele>758.2</ele>
        <time>2018-10-27T07:40:13Z</time>
      </trkpt>
      <trkpt lat="38.4933210" lon="-0.6124600">
        <ele>757.2</ele>
        <time>2018-10-27T07:40:15Z</time>
      </trkpt>
      <trkpt lat="38.4932980" lon="-0.6124300">
        <ele>756.8</ele>
        <time>2018-10-27T07:40:16Z</time>
      </trkpt>
      <trkpt lat="38.4932290" lon="-0.6123400">
        <ele>755.4</ele>
        <time>2018-10-27T07:40:19Z</time>
      </trkpt>
      <trkpt lat="38.4931700" lon="-0.6122500">
        <ele>754.2</ele>
        <time>2018-10-27T07:40:22Z</time>
      </trkpt>
      <trkpt lat="38.4931310" lon="-0.6121900">
        <ele>753.2</ele>
        <time>2018-10-27T07:40:24Z</time>
      </trkpt>
      <trkpt lat="38.4931130" lon="-0.6121600">
        <ele>752.8</ele>
        <time>2018-10-27T07:40:25Z</time>
      </trkpt>
      <trkpt lat="38.4930540" lon="-0.6120740">
        <ele>751.4</ele>
        <time>2018-10-27T07:40:28Z</time>
      </trkpt>
      <trkpt lat="38.4930180" lon="-0.6120140">
        <ele>750.6</ele>
        <time>2018-10-27T07:40:30Z</time>
      </trkpt>
      <trkpt lat="38.4930080" lon="-0.6119870">
        <ele>750.2</ele>
        <time>2018-10-27T07:40:31Z</time>
      </trkpt>
      <trkpt lat="38.4929920" lon="-0.6119590">
        <ele>749.8</ele>
        <time>2018-10-27T07:40:32Z</time>
      </trkpt>
      <trkpt lat="38.4929710" lon="-0.6119300">
        <ele>749.2</ele>
        <time>2018-10-27T07:40:33Z</time>
      </trkpt>
      <trkpt lat="38.4929530" lon="-0.6118990">
        <ele>748.8</ele>
        <time>2018-10-27T07:40:34Z</time>
      </trkpt>
      <trkpt lat="38.4929440" lon="-0.6117940">
        <ele>747.6</ele>
        <time>2018-10-27T07:40:37Z</time>
      </trkpt>
      <trkpt lat="38.4929530" lon="-0.6117540">
        <ele>747.2</ele>
        <time>2018-10-27T07:40:38Z</time>
      </trkpt>
      <trkpt lat="38.4929870" lon="-0.6116880">
        <ele>746.4</ele>
        <time>2018-10-27T07:40:40Z</time>
      </trkpt>
      <trkpt lat="38.4930430" lon="-0.6116010">
        <ele>745.2</ele>
        <time>2018-10-27T07:40:43Z</time>
      </trkpt>
      <trkpt lat="38.4931050" lon="-0.6115250">
        <ele>743.8</ele>
        <time>2018-10-27T07:40:46Z</time>
      </trkpt>
      <trkpt lat="38.4931680" lon="-0.6114550">
        <ele>742.6</ele>
        <time>2018-10-27T07:40:49Z</time>
      </trkpt>
      <trkpt lat="38.4932120" lon="-0.6114060">
        <ele>741.8</ele>
        <time>2018-10-27T07:40:51Z</time>
      </trkpt>
      <trkpt lat="38.4932340" lon="-0.6113840">
        <ele>741.4</ele>
        <time>2018-10-27T07:40:52Z</time>
      </trkpt>
      <trkpt lat="38.4932950" lon="-0.6113150">
        <ele>740.4</ele>
        <time>2018-10-27T07:40:55Z</time>
      </trkpt>
      <trkpt lat="38.4933460" lon="-0.6112420">
        <ele>739.2</ele>
        <time>2018-10-27T07:40:58Z</time>
      </trkpt>
      <trkpt lat="38.4934010" lon="-0.6111730">
        <ele>738.0</ele>
        <time>2018-10-27T07:41:01Z</time>
      </trkpt>
      <trkpt lat="38.4934690" lon="-0.6111040">
        <ele>737.0</ele>
        <time>2018-10-27T07:41:04Z</time>
      </trkpt>
      <trkpt lat="38.4935470" lon="-0.6110440">
        <ele>736.0</ele>
        <time>2018-10-27T07:41:07Z</time>
      </trkpt>
      <trkpt lat="38.4936170" lon="-0.6109760">
        <ele>735.0</ele>
        <time>2018-10-27T07:41:10Z</time>
      </trkpt>
      <trkpt lat="38.4936950" lon="-0.6108880">
        <ele>733.6</ele>
        <time>2018-10-27T07:41:14Z</time>
      </trkpt>
      <trkpt lat="38.4937870" lon="-0.6108060">
        <ele>732.4</ele>
        <time>2018-10-27T07:41:18Z</time>
      </trkpt>
      <trkpt lat="38.4938680" lon="-0.6107210">
        <ele>731.0</ele>
        <time>2018-10-27T07:41:22Z</time>
      </trkpt>
      <trkpt lat="38.4939600" lon="-0.6106360">
        <ele>729.8</ele>
        <time>2018-10-27T07:41:26Z</time>
      </trkpt>
      <trkpt lat="38.4940370" lon="-0.6105520">
        <ele>728.6</ele>
        <time>2018-10-27T07:41:30Z</time>
      </trkpt>
      <trkpt lat="38.4940580" lon="-0.6105240">
        <ele>728.4</ele>
        <time>2018-10-27T07:41:31Z</time>
      </trkpt>
      <trkpt lat="38.4941170" lon="-0.6104310">
        <ele>727.6</ele>
        <time>2018-10-27T07:41:34Z</time>
      </trkpt>
      <trkpt lat="38.4941890" lon="-0.6103700">
        <ele>726.8</ele>
        <time>2018-10-27T07:41:37Z</time>
      </trkpt>
      <trkpt lat="38.4942160" lon="-0.6103530">
        <ele>726.4</ele>
        <time>2018-10-27T07:41:38Z</time>
      </trkpt>
      <trkpt lat="38.4943280" lon="-0.6102890">
        <ele>725.4</ele>
        <time>2018-10-27T07:41:42Z</time>
      </trkpt>
      <trkpt lat="38.4944310" lon="-0.6102540">
        <ele>724.6</ele>
        <time>2018-10-27T07:41:45Z</time>
      </trkpt>
      <trkpt lat="38.4944600" lon="-0.6102370">
        <ele>724.4</ele>
        <time>2018-10-27T07:41:46Z</time>
      </trkpt>
      <trkpt lat="38.4945850" lon="-0.6101740">
        <ele>723.4</ele>
        <time>2018-10-27T07:41:50Z</time>
      </trkpt>
      <trkpt lat="38.4946740" lon="-0.6101360">
        <ele>722.6</ele>
        <time>2018-10-27T07:41:53Z</time>
      </trkpt>
      <trkpt lat="38.4947230" lon="-0.6100970">
        <ele>722.2</ele>
        <time>2018-10-27T07:41:55Z</time>
      </trkpt>
      <trkpt lat="38.4947930" lon="-0.6100270">
        <ele>710.0</ele>
        <time>2018-10-27T07:41:58Z</time>
      </trkpt>
      <trkpt lat="38.4948180" lon="-0.6100030">
        <ele>704.0</ele>
        <time>2018-10-27T07:41:59Z</time>
      </trkpt>
      <trkpt lat="38.4948410" lon="-0.6099800">
        <ele>701.0</ele>
        <time>2018-10-27T07:42:00Z</time>
      </trkpt>
      <trkpt lat="38.4948680" lon="-0.6099590">
        <ele>699.6</ele>
        <time>2018-10-27T07:42:01Z</time>
      </trkpt>
      <trkpt lat="38.4949120" lon="-0.6099160">
        <ele>698.4</ele>
        <time>2018-10-27T07:42:03Z</time>
      </trkpt>
      <trkpt lat="38.4949770" lon="-0.6098550">
        <ele>698.0</ele>
        <time>2018-10-27T07:42:06Z</time>
      </trkpt>
      <trkpt lat="38.4951380" lon="-0.6097300">
        <ele>697.6</ele>
        <time>2018-10-27T07:42:13Z</time>
      </trkpt>
      <trkpt lat="38.4951680" lon="-0.6097130">
        <ele>697.6</ele>
        <time>2018-10-27T07:42:14Z</time>
      </trkpt>
      <trkpt lat="38.4953190" lon="-0.6095630">
        <ele>697.8</ele>
        <time>2018-10-27T07:42:21Z</time>
      </trkpt>
      <trkpt lat="38.4953350" lon="-0.6095390">
        <ele>697.8</ele>
        <time>2018-10-27T07:42:22Z</time>
      </trkpt>
      <trkpt lat="38.4954660" lon="-0.6093410">
        <ele>698.2</ele>
        <time>2018-10-27T07:42:30Z</time>
      </trkpt>
      <trkpt lat="38.4954830" lon="-0.6093150">
        <ele>698.2</ele>
        <time>2018-10-27T07:42:31Z</time>
      </trkpt>
      <trkpt lat="38.4956100" lon="-0.6091110">
        <ele>698.2</ele>
        <time>2018-10-27T07:42:39Z</time>
      </trkpt>
      <trkpt lat="38.4957280" lon="-0.6089280">
        <ele>698.0</ele>
        <time>2018-10-27T07:42:46Z</time>
      </trkpt>
      <trkpt lat="38.4957410" lon="-0.6089010">
        <ele>698.0</ele>
        <time>2018-10-27T07:42:47Z</time>
      </trkpt>
      <trkpt lat="38.4958550" lon="-0.6087250">
        <ele>698.2</ele>
        <time>2018-10-27T07:42:54Z</time>
      </trkpt>
      <trkpt lat="38.4959870" lon="-0.6085280">
        <ele>698.0</ele>
        <time>2018-10-27T07:43:02Z</time>
      </trkpt>
      <trkpt lat="38.4960480" lon="-0.6084270">
        <ele>697.4</ele>
        <time>2018-10-27T07:43:06Z</time>
      </trkpt>
      <trkpt lat="38.4961260" lon="-0.6083050">
        <ele>697.4</ele>
        <time>2018-10-27T07:43:11Z</time>
      </trkpt>
      <trkpt lat="38.4962330" lon="-0.6081040">
        <ele>697.2</ele>
        <time>2018-10-27T07:43:19Z</time>
      </trkpt>
      <trkpt lat="38.4963480" lon="-0.6079250">
        <ele>697.2</ele>
        <time>2018-10-27T07:43:26Z</time>
      </trkpt>
      <trkpt lat="38.4964030" lon="-0.6078500">
        <ele>697.2</ele>
        <time>2018-10-27T07:43:29Z</time>
      </trkpt>
      <trkpt lat="38.4965030" lon="-0.6076760">
        <ele>697.2</ele>
        <time>2018-10-27T07:43:36Z</time>
      </trkpt>
      <trkpt lat="38.4965670" lon="-0.6075810">
        <ele>697.0</ele>
        <time>2018-10-27T07:43:40Z</time>
      </trkpt>
      <trkpt lat="38.4966110" lon="-0.6075110">
        <ele>697.0</ele>
        <time>2018-10-27T07:43:43Z</time>
      </trkpt>
      <trkpt lat="38.4967520" lon="-0.6073280">
        <ele>697.0</ele>
        <time>2018-10-27T07:43:51Z</time>
      </trkpt>
      <trkpt lat="38.4967680" lon="-0.6073070">
        <ele>697.0</ele>
        <time>2018-10-27T07:43:52Z</time>
      </trkpt>
      <trkpt lat="38.4968940" lon="-0.6071150">
        <ele>697.0</ele>
        <time>2018-10-27T07:44:00Z</time>
      </trkpt>
      <trkpt lat="38.4969040" lon="-0.6070860">
        <ele>697.0</ele>
        <time>2018-10-27T07:44:01Z</time>
      </trkpt>
      <trkpt lat="38.4970070" lon="-0.6069180">
        <ele>697.0</ele>
        <time>2018-10-27T07:44:08Z</time>
      </trkpt>
      <trkpt lat="38.4971280" lon="-0.6067390">
        <ele>696.8</ele>
        <time>2018-10-27T07:44:15Z</time>
      </trkpt>
      <trkpt lat="38.4971440" lon="-0.6067120">
        <ele>696.8</ele>
        <time>2018-10-27T07:44:16Z</time>
      </trkpt>
      <trkpt lat="38.4972410" lon="-0.6065110">
        <ele>696.8</ele>
        <time>2018-10-27T07:44:23Z</time>
      </trkpt>
      <trkpt lat="38.4972670" lon="-0.6064570">
        <ele>696.8</ele>
        <time>2018-10-27T07:44:25Z</time>
      </trkpt>
      <trkpt lat="38.4973860" lon="-0.6062630">
        <ele>696.6</ele>
        <time>2018-10-27T07:44:33Z</time>
      </trkpt>
      <trkpt lat="38.4974010" lon="-0.6062390">
        <ele>696.6</ele>
        <time>2018-10-27T07:44:34Z</time>
      </trkpt>
      <trkpt lat="38.4974970" lon="-0.6060890">
        <ele>696.6</ele>
        <time>2018-10-27T07:44:40Z</time>
      </trkpt>
      <trkpt lat="38.4975340" lon="-0.6060360">
        <ele>696.6</ele>
        <time>2018-10-27T07:44:42Z</time>
      </trkpt>
      <trkpt lat="38.4975860" lon="-0.6059600">
        <ele>696.6</ele>
        <time>2018-10-27T07:44:45Z</time>
      </trkpt>
      <trkpt lat="38.4976250" lon="-0.6058830">
        <ele>696.4</ele>
        <time>2018-10-27T07:44:48Z</time>
      </trkpt>
      <trkpt lat="38.4976680" lon="-0.6058060">
        <ele>696.4</ele>
        <time>2018-10-27T07:44:51Z</time>
      </trkpt>
      <trkpt lat="38.4977840" lon="-0.6056140">
        <ele>696.4</ele>
        <time>2018-10-27T07:44:59Z</time>
      </trkpt>
      <trkpt lat="38.4978000" lon="-0.6055920">
        <ele>696.4</ele>
        <time>2018-10-27T07:45:00Z</time>
      </trkpt>
      <trkpt lat="38.4978820" lon="-0.6054450">
        <ele>696.2</ele>
        <time>2018-10-27T07:45:06Z</time>
      </trkpt>
      <trkpt lat="38.4979670" lon="-0.6052810">
        <ele>696.2</ele>
        <time>2018-10-27T07:45:12Z</time>
      </trkpt>
      <trkpt lat="38.4980890" lon="-0.6050780">
        <ele>696.0</ele>
        <time>2018-10-27T07:45:19Z</time>
      </trkpt>
      <trkpt lat="38.4981260" lon="-0.6050270">
        <ele>696.0</ele>
        <time>2018-10-27T07:45:21Z</time>
      </trkpt>
      <trkpt lat="38.4982450" lon="-0.6048290">
        <ele>695.8</ele>
        <time>2018-10-27T07:45:28Z</time>
      </trkpt>
      <trkpt lat="38.4982610" lon="-0.6048010">
        <ele>695.6</ele>
        <time>2018-10-27T07:45:29Z</time>
      </trkpt>
      <trkpt lat="38.4983750" lon="-0.6046410">
        <ele>695.4</ele>
        <time>2018-10-27T07:45:35Z</time>
      </trkpt>
      <trkpt lat="38.4984170" lon="-0.6045840">
        <ele>695.4</ele>
        <time>2018-10-27T07:45:37Z</time>
      </trkpt>
      <trkpt lat="38.4985450" lon="-0.6043950">
        <ele>695.2</ele>
        <time>2018-10-27T07:45:44Z</time>
      </trkpt>
      <trkpt lat="38.4985910" lon="-0.6043070">
        <ele>695.0</ele>
        <time>2018-10-27T07:45:47Z</time>
      </trkpt>
      <trkpt lat="38.4986630" lon="-0.6041550">
        <ele>695.0</ele>
        <time>2018-10-27T07:45:52Z</time>
      </trkpt>
      <trkpt lat="38.4987940" lon="-0.6039670">
        <ele>695.0</ele>
        <time>2018-10-27T07:46:00Z</time>
      </trkpt>
      <trkpt lat="38.4988120" lon="-0.6039530">
        <ele>695.0</ele>
        <time>2018-10-27T07:46:01Z</time>
      </trkpt>
      <trkpt lat="38.4989620" lon="-0.6038590">
        <ele>694.8</ele>
        <time>2018-10-27T07:46:10Z</time>
      </trkpt>
      <trkpt lat="38.4990910" lon="-0.6038050">
        <ele>694.8</ele>
        <time>2018-10-27T07:46:18Z</time>
      </trkpt>
      <trkpt lat="38.4992160" lon="-0.6037530">
        <ele>695.0</ele>
        <time>2018-10-27T07:46:25Z</time>
      </trkpt>
      <trkpt lat="38.4993130" lon="-0.6036640">
        <ele>695.0</ele>
        <time>2018-10-27T07:46:31Z</time>
      </trkpt>
      <trkpt lat="38.4994410" lon="-0.6035570">
        <ele>695.2</ele>
        <time>2018-10-27T07:46:40Z</time>
      </trkpt>
      <trkpt lat="38.4995750" lon="-0.6034540">
        <ele>695.6</ele>
        <time>2018-10-27T07:46:48Z</time>
      </trkpt>
      <trkpt lat="38.4996910" lon="-0.6033670">
        <ele>696.0</ele>
        <time>2018-10-27T07:46:55Z</time>
      </trkpt>
      <trkpt lat="38.4998200" lon="-0.6032720">
        <ele>696.6</ele>
        <time>2018-10-27T07:47:02Z</time>
      </trkpt>
      <trkpt lat="38.4998410" lon="-0.6032550">
        <ele>696.6</ele>
        <time>2018-10-27T07:47:03Z</time>
      </trkpt>
      <trkpt lat="38.4999820" lon="-0.6031150">
        <ele>697.2</ele>
        <time>2018-10-27T07:47:11Z</time>
      </trkpt>
      <trkpt lat="38.5000460" lon="-0.6030450">
        <ele>697.6</ele>
        <time>2018-10-27T07:47:15Z</time>
      </trkpt>
      <trkpt lat="38.5001510" lon="-0.6029570">
        <ele>698.0</ele>
        <time>2018-10-27T07:47:21Z</time>
      </trkpt>
      <trkpt lat="38.5003000" lon="-0.6028490">
        <ele>698.6</ele>
        <time>2018-10-27T07:47:29Z</time>
      </trkpt>
      <trkpt lat="38.5003160" lon="-0.6028290">
        <ele>698.6</ele>
        <time>2018-10-27T07:47:30Z</time>
      </trkpt>
      <trkpt lat="38.5003240" lon="-0.6028070">
        <ele>698.6</ele>
        <time>2018-10-27T07:47:31Z</time>
      </trkpt>
      <trkpt lat="38.5003920" lon="-0.6027230">
        <ele>699.0</ele>
        <time>2018-10-27T07:47:36Z</time>
      </trkpt>
      <trkpt lat="38.5005380" lon="-0.6026320">
        <ele>699.4</ele>
        <time>2018-10-27T07:47:43Z</time>
      </trkpt>
      <trkpt lat="38.5005820" lon="-0.6025490">
        <ele>699.6</ele>
        <time>2018-10-27T07:47:46Z</time>
      </trkpt>
      <trkpt lat="38.5005840" lon="-0.6025130">
        <ele>699.6</ele>
        <time>2018-10-27T07:47:47Z</time>
      </trkpt>
      <trkpt lat="38.5005810" lon="-0.6024410">
        <ele>699.8</ele>
        <time>2018-10-27T07:47:49Z</time>
      </trkpt>
      <trkpt lat="38.5006040" lon="-0.6022750">
        <ele>700.0</ele>
        <time>2018-10-27T07:47:54Z</time>
      </trkpt>
      <trkpt lat="38.5007100" lon="-0.6021530">
        <ele>700.4</ele>
        <time>2018-10-27T07:48:00Z</time>
      </trkpt>
      <trkpt lat="38.5008760" lon="-0.6021520">
        <ele>700.8</ele>
        <time>2018-10-27T07:48:06Z</time>
      </trkpt>
      <trkpt lat="38.5009430" lon="-0.6020740">
        <ele>701.0</ele>
        <time>2018-10-27T07:48:10Z</time>
      </trkpt>
      <trkpt lat="38.5010100" lon="-0.6018680">
        <ele>701.2</ele>
        <time>2018-10-27T07:48:16Z</time>
      </trkpt>
      <trkpt lat="38.5010000" lon="-0.6016130">
        <ele>701.4</ele>
        <time>2018-10-27T07:48:23Z</time>
      </trkpt>
      <trkpt lat="38.5009960" lon="-0.6013760">
        <ele>701.4</ele>
        <time>2018-10-27T07:48:30Z</time>
      </trkpt>
      <trkpt lat="38.5009980" lon="-0.6013410">
        <ele>701.4</ele>
        <time>2018-10-27T07:48:31Z</time>
      </trkpt>
      <trkpt lat="38.5008740" lon="-0.6012720">
        <ele>701.4</ele>
        <time>2018-10-27T07:48:35Z</time>
      </trkpt>
      <trkpt lat="38.5008380" lon="-0.6012700">
        <ele>701.4</ele>
        <time>2018-10-27T07:48:36Z</time>
      </trkpt>
      <trkpt lat="38.5007070" lon="-0.6013310">
        <ele>701.4</ele>
        <time>2018-10-27T07:48:40Z</time>
      </trkpt>
      <trkpt lat="38.5006480" lon="-0.6013670">
        <ele>701.2</ele>
        <time>2018-10-27T07:48:42Z</time>
      </trkpt>
      <trkpt lat="38.5005500" lon="-0.6014110">
        <ele>701.2</ele>
        <time>2018-10-27T07:48:46Z</time>
      </trkpt>
      <trkpt lat="38.5005240" lon="-0.6014150">
        <ele>701.2</ele>
        <time>2018-10-27T07:48:47Z</time>
      </trkpt>
      <trkpt lat="38.5003960" lon="-0.6015080">
        <ele>701.2</ele>
        <time>2018-10-27T07:48:52Z</time>
      </trkpt>
      <trkpt lat="38.5002380" lon="-0.6016300">
        <ele>701.0</ele>
        <time>2018-10-27T07:48:58Z</time>
      </trkpt>
      <trkpt lat="38.5001880" lon="-0.6016720">
        <ele>701.0</ele>
        <time>2018-10-27T07:49:00Z</time>
      </trkpt>
      <trkpt lat="38.5000250" lon="-0.6018280">
        <ele>700.8</ele>
        <time>2018-10-27T07:49:07Z</time>
      </trkpt>
      <trkpt lat="38.5000000" lon="-0.6018490">
        <ele>700.8</ele>
        <time>2018-10-27T07:49:08Z</time>
      </trkpt>
      <trkpt lat="38.4998310" lon="-0.6019880">
        <ele>700.6</ele>
        <time>2018-10-27T07:49:15Z</time>
      </trkpt>
      <trkpt lat="38.4997880" lon="-0.6020230">
        <ele>700.4</ele>
        <time>2018-10-27T07:49:17Z</time>
      </trkpt>
      <trkpt lat="38.4996690" lon="-0.6021080">
        <ele>700.2</ele>
        <time>2018-10-27T07:49:22Z</time>
      </trkpt>
      <trkpt lat="38.4996240" lon="-0.6021360">
        <ele>700.2</ele>
        <time>2018-10-27T07:49:24Z</time>
      </trkpt>
      <trkpt lat="38.4995380" lon="-0.6021640">
        <ele>700.0</ele>
        <time>2018-10-27T07:49:28Z</time>
      </trkpt>
      <trkpt lat="38.4995010" lon="-0.6021400">
        <ele>699.8</ele>
        <time>2018-10-27T07:49:30Z</time>
      </trkpt>
      <trkpt lat="38.4994670" lon="-0.6021560">
        <ele>699.8</ele>
        <time>2018-10-27T07:49:32Z</time>
      </trkpt>
      <trkpt lat="38.4994460" lon="-0.6021760">
        <ele>699.8</ele>
        <time>2018-10-27T07:49:33Z</time>
      </trkpt>
      <trkpt lat="38.4994280" lon="-0.6021930">
        <ele>699.6</ele>
        <time>2018-10-27T07:49:34Z</time>
      </trkpt>
      <trkpt lat="38.4992920" lon="-0.6023550">
        <ele>699.2</ele>
        <time>2018-10-27T07:49:41Z</time>
      </trkpt>
      <trkpt lat="38.4991400" lon="-0.6024930">
        <ele>698.8</ele>
        <time>2018-10-27T07:49:48Z</time>
      </trkpt>
      <trkpt lat="38.4991180" lon="-0.6025120">
        <ele>698.8</ele>
        <time>2018-10-27T07:49:49Z</time>
      </trkpt>
      <trkpt lat="38.4990740" lon="-0.6025500">
        <ele>698.6</ele>
        <time>2018-10-27T07:49:51Z</time>
      </trkpt>
      <trkpt lat="38.4989100" lon="-0.6026970">
        <ele>698.2</ele>
        <time>2018-10-27T07:49:58Z</time>
      </trkpt>
      <trkpt lat="38.4988840" lon="-0.6027210">
        <ele>698.2</ele>
        <time>2018-10-27T07:49:59Z</time>
      </trkpt>
      <trkpt lat="38.4987300" lon="-0.6028810">
        <ele>697.6</ele>
        <time>2018-10-27T07:50:06Z</time>
      </trkpt>
      <trkpt lat="38.4987100" lon="-0.6028960">
        <ele>697.6</ele>
        <time>2018-10-27T07:50:07Z</time>
      </trkpt>
      <trkpt lat="38.4986740" lon="-0.6029420">
        <ele>697.2</ele>
        <time>2018-10-27T07:50:12Z</time>
      </trkpt>
      <trkpt lat="38.4986790" lon="-0.6029440">
        <ele>697.2</ele>
        <time>2018-10-27T07:50:13Z</time>
      </trkpt>
      <trkpt lat="38.4988580" lon="-0.6028200">
        <ele>687.2</ele>
        <time>2018-10-27T08:02:12Z</time>
      </trkpt>
      <trkpt lat="38.4988720" lon="-0.6027940">
        <ele>687.6</ele>
        <time>2018-10-27T08:02:14Z</time>
      </trkpt>
      <trkpt lat="38.4988860" lon="-0.6027670">
        <ele>612.0</ele>
        <time>2018-10-27T08:02:15Z</time>
      </trkpt>
      <trkpt lat="38.4989000" lon="-0.6027410">
        <ele>612.2</ele>
        <time>2018-10-27T08:02:16Z</time>
      </trkpt>
      <trkpt lat="38.4989220" lon="-0.6027320">
        <ele>613.6</ele>
        <time>2018-10-27T08:02:17Z</time>
      </trkpt>
      <trkpt lat="38.4989430" lon="-0.6027260">
        <ele>614.4</ele>
        <time>2018-10-27T08:02:18Z</time>
      </trkpt>
      <trkpt lat="38.4989630" lon="-0.6027280">
        <ele>612.4</ele>
        <time>2018-10-27T08:02:21Z</time>
      </trkpt>
      <trkpt lat="38.4989890" lon="-0.6027290">
        <ele>615.4</ele>
        <time>2018-10-27T08:02:22Z</time>
      </trkpt>
      <trkpt lat="38.4990160" lon="-0.6027230">
        <ele>616.2</ele>
        <time>2018-10-27T08:02:23Z</time>
      </trkpt>
      <trkpt lat="38.4990420" lon="-0.6027090">
        <ele>613.4</ele>
        <time>2018-10-27T08:02:24Z</time>
      </trkpt>
      <trkpt lat="38.4990950" lon="-0.6026890">
        <ele>613.4</ele>
        <time>2018-10-27T08:02:26Z</time>
      </trkpt>
      <trkpt lat="38.4991360" lon="-0.6026620">
        <ele>613.2</ele>
        <time>2018-10-27T08:02:28Z</time>
      </trkpt>
      <trkpt lat="38.4991950" lon="-0.6026200">
        <ele>616.4</ele>
        <time>2018-10-27T08:02:31Z</time>
      </trkpt>
      <trkpt lat="38.4992350" lon="-0.6025980">
        <ele>616.4</ele>
        <time>2018-10-27T08:02:33Z</time>
      </trkpt>
      <trkpt lat="38.4992870" lon="-0.6025400">
        <ele>616.2</ele>
        <time>2018-10-27T08:02:36Z</time>
      </trkpt>
      <trkpt lat="38.4993210" lon="-0.6025070">
        <ele>616.2</ele>
        <time>2018-10-27T08:02:38Z</time>
      </trkpt>
      <trkpt lat="38.4993430" lon="-0.6024890">
        <ele>616.2</ele>
        <time>2018-10-27T08:02:39Z</time>
      </trkpt>
      <trkpt lat="38.4994580" lon="-0.6024030">
        <ele>616.0</ele>
        <time>2018-10-27T08:02:45Z</time>
      </trkpt>
      <trkpt lat="38.4994910" lon="-0.6023780">
        <ele>616.0</ele>
        <time>2018-10-27T08:02:47Z</time>
      </trkpt>
      <trkpt lat="38.4996370" lon="-0.6022610">
        <ele>616.0</ele>
        <time>2018-10-27T08:02:55Z</time>
      </trkpt>
      <trkpt lat="38.4997370" lon="-0.6021770">
        <ele>616.0</ele>
        <time>2018-10-27T08:03:01Z</time>
      </trkpt>
      <trkpt lat="38.4998840" lon="-0.6020460">
        <ele>616.0</ele>
        <time>2018-10-27T08:03:10Z</time>
      </trkpt>
      <trkpt lat="38.4999010" lon="-0.6020310">
        <ele>616.0</ele>
        <time>2018-10-27T08:03:11Z</time>
      </trkpt>
      <trkpt lat="38.5000000" lon="-0.6019470">
        <ele>616.2</ele>
        <time>2018-10-27T08:03:17Z</time>
      </trkpt>
      <trkpt lat="38.5000490" lon="-0.6019100">
        <ele>616.2</ele>
        <time>2018-10-27T08:03:20Z</time>
      </trkpt>
      <trkpt lat="38.5001930" lon="-0.6017790">
        <ele>616.4</ele>
        <time>2018-10-27T08:03:29Z</time>
      </trkpt>
      <trkpt lat="38.5003430" lon="-0.6016520">
        <ele>616.8</ele>
        <time>2018-10-27T08:03:38Z</time>
      </trkpt>
      <trkpt lat="38.5004600" lon="-0.6015520">
        <ele>617.2</ele>
        <time>2018-10-27T08:03:45Z</time>
      </trkpt>
      <trkpt lat="38.5005130" lon="-0.6015090">
        <ele>617.4</ele>
        <time>2018-10-27T08:03:48Z</time>
      </trkpt>
      <trkpt lat="38.5006020" lon="-0.6014260">
        <ele>617.6</ele>
        <time>2018-10-27T08:03:53Z</time>
      </trkpt>
      <trkpt lat="38.5007470" lon="-0.6013080">
        <ele>618.0</ele>
        <time>2018-10-27T08:04:01Z</time>
      </trkpt>
      <trkpt lat="38.5007680" lon="-0.6012960">
        <ele>618.0</ele>
        <time>2018-10-27T08:04:02Z</time>
      </trkpt>
      <trkpt lat="38.5008390" lon="-0.6012650">
        <ele>618.2</ele>
        <time>2018-10-27T08:04:06Z</time>
      </trkpt>
      <trkpt lat="38.5008560" lon="-0.6012700">
        <ele>618.2</ele>
        <time>2018-10-27T08:04:07Z</time>
      </trkpt>
      <trkpt lat="38.5009180" lon="-0.6013270">
        <ele>618.4</ele>
        <time>2018-10-27T08:04:11Z</time>
      </trkpt>
      <trkpt lat="38.5009400" lon="-0.6013660">
        <ele>618.6</ele>
        <time>2018-10-27T08:04:13Z</time>
      </trkpt>
      <trkpt lat="38.5010080" lon="-0.6015500">
        <ele>619.0</ele>
        <time>2018-10-27T08:04:20Z</time>
      </trkpt>
      <trkpt lat="38.5010220" lon="-0.6017390">
        <ele>619.4</ele>
        <time>2018-10-27T08:04:27Z</time>
      </trkpt>
      <trkpt lat="38.5010260" lon="-0.6017680">
        <ele>619.4</ele>
        <time>2018-10-27T08:04:28Z</time>
      </trkpt>
      <trkpt lat="38.5010970" lon="-0.6019530">
        <ele>620.0</ele>
        <time>2018-10-27T08:04:35Z</time>
      </trkpt>
      <trkpt lat="38.5010850" lon="-0.6020540">
        <ele>620.4</ele>
        <time>2018-10-27T08:04:40Z</time>
      </trkpt>
      <trkpt lat="38.5010760" lon="-0.6020750">
        <ele>620.4</ele>
        <time>2018-10-27T08:04:41Z</time>
      </trkpt>
      <trkpt lat="38.5010410" lon="-0.6021540">
        <ele>620.8</ele>
        <time>2018-10-27T08:04:45Z</time>
      </trkpt>
      <trkpt lat="38.5010190" lon="-0.6021900">
        <ele>621.0</ele>
        <time>2018-10-27T08:04:47Z</time>
      </trkpt>
      <trkpt lat="38.5009620" lon="-0.6022860">
        <ele>621.6</ele>
        <time>2018-10-27T08:04:52Z</time>
      </trkpt>
      <trkpt lat="38.5009580" lon="-0.6023120">
        <ele>621.6</ele>
        <time>2018-10-27T08:04:53Z</time>
      </trkpt>
      <trkpt lat="38.5009620" lon="-0.6023380">
        <ele>621.8</ele>
        <time>2018-10-27T08:04:54Z</time>
      </trkpt>
      <trkpt lat="38.5009860" lon="-0.6024360">
        <ele>622.0</ele>
        <time>2018-10-27T08:04:58Z</time>
      </trkpt>
      <trkpt lat="38.5010040" lon="-0.6025160">
        <ele>622.4</ele>
        <time>2018-10-27T08:05:01Z</time>
      </trkpt>
      <trkpt lat="38.5010030" lon="-0.6025690">
        <ele>622.6</ele>
        <time>2018-10-27T08:05:03Z</time>
      </trkpt>
      <trkpt lat="38.5009920" lon="-0.6026150">
        <ele>622.8</ele>
        <time>2018-10-27T08:05:05Z</time>
      </trkpt>
      <trkpt lat="38.5009710" lon="-0.6026600">
        <ele>623.0</ele>
        <time>2018-10-27T08:05:07Z</time>
      </trkpt>
      <trkpt lat="38.5008680" lon="-0.6027680">
        <ele>623.4</ele>
        <time>2018-10-27T08:05:13Z</time>
      </trkpt>
      <trkpt lat="38.5008500" lon="-0.6027800">
        <ele>623.6</ele>
        <time>2018-10-27T08:05:14Z</time>
      </trkpt>
      <trkpt lat="38.5007650" lon="-0.6028170">
        <ele>624.2</ele>
        <time>2018-10-27T08:05:19Z</time>
      </trkpt>
      <trkpt lat="38.5006770" lon="-0.6027580">
        <ele>624.6</ele>
        <time>2018-10-27T08:05:24Z</time>
      </trkpt>
      <trkpt lat="38.5006580" lon="-0.6027530">
        <ele>624.8</ele>
        <time>2018-10-27T08:05:25Z</time>
      </trkpt>
      <trkpt lat="38.5005560" lon="-0.6027880">
        <ele>625.2</ele>
        <time>2018-10-27T08:05:30Z</time>
      </trkpt>
      <trkpt lat="38.5004760" lon="-0.6028240">
        <ele>625.6</ele>
        <time>2018-10-27T08:05:34Z</time>
      </trkpt>
      <trkpt lat="38.5003930" lon="-0.6028490">
        <ele>626.0</ele>
        <time>2018-10-27T08:05:38Z</time>
      </trkpt>
      <trkpt lat="38.5003130" lon="-0.6029350">
        <ele>626.6</ele>
        <time>2018-10-27T08:05:43Z</time>
      </trkpt>
      <trkpt lat="38.5002960" lon="-0.6029580">
        <ele>626.6</ele>
        <time>2018-10-27T08:05:44Z</time>
      </trkpt>
      <trkpt lat="38.5002270" lon="-0.6030330">
        <ele>627.0</ele>
        <time>2018-10-27T08:05:48Z</time>
      </trkpt>
      <trkpt lat="38.5000630" lon="-0.6031510">
        <ele>627.6</ele>
        <time>2018-10-27T08:05:56Z</time>
      </trkpt>
      <trkpt lat="38.5000460" lon="-0.6031640">
        <ele>627.8</ele>
        <time>2018-10-27T08:05:57Z</time>
      </trkpt>
      <trkpt lat="38.4998970" lon="-0.6033110">
        <ele>628.4</ele>
        <time>2018-10-27T08:06:06Z</time>
      </trkpt>
      <trkpt lat="38.4998800" lon="-0.6033280">
        <ele>628.4</ele>
        <time>2018-10-27T08:06:07Z</time>
      </trkpt>
      <trkpt lat="38.4997830" lon="-0.6034060">
        <ele>628.8</ele>
        <time>2018-10-27T08:06:12Z</time>
      </trkpt>
      <trkpt lat="38.4997410" lon="-0.6034320">
        <ele>628.8</ele>
        <time>2018-10-27T08:06:14Z</time>
      </trkpt>
      <trkpt lat="38.4995970" lon="-0.6035460">
        <ele>629.2</ele>
        <time>2018-10-27T08:06:21Z</time>
      </trkpt>
      <trkpt lat="38.4994720" lon="-0.6036720">
        <ele>629.6</ele>
        <time>2018-10-27T08:06:28Z</time>
      </trkpt>
      <trkpt lat="38.4993280" lon="-0.6037820">
        <ele>629.8</ele>
        <time>2018-10-27T08:06:35Z</time>
      </trkpt>
      <trkpt lat="38.4992850" lon="-0.6038130">
        <ele>629.8</ele>
        <time>2018-10-27T08:06:37Z</time>
      </trkpt>
      <trkpt lat="38.4991540" lon="-0.6038900">
        <ele>630.0</ele>
        <time>2018-10-27T08:06:43Z</time>
      </trkpt>
      <trkpt lat="38.4990750" lon="-0.6039280">
        <ele>630.0</ele>
        <time>2018-10-27T08:06:47Z</time>
      </trkpt>
      <trkpt lat="38.4989890" lon="-0.6039570">
        <ele>630.0</ele>
        <time>2018-10-27T08:06:51Z</time>
      </trkpt>
      <trkpt lat="38.4988600" lon="-0.6040100">
        <ele>630.0</ele>
        <time>2018-10-27T08:06:57Z</time>
      </trkpt>
      <trkpt lat="38.4987220" lon="-0.6041090">
        <ele>629.8</ele>
        <time>2018-10-27T08:07:03Z</time>
      </trkpt>
      <trkpt lat="38.4986100" lon="-0.6042850">
        <ele>629.4</ele>
        <time>2018-10-27T08:07:10Z</time>
      </trkpt>
      <trkpt lat="38.4985440" lon="-0.6044040">
        <ele>629.2</ele>
        <time>2018-10-27T08:07:15Z</time>
      </trkpt>
      <trkpt lat="38.4984610" lon="-0.6045580">
        <ele>629.0</ele>
        <time>2018-10-27T08:07:21Z</time>
      </trkpt>
      <trkpt lat="38.4983730" lon="-0.6046790">
        <ele>628.8</ele>
        <time>2018-10-27T08:07:26Z</time>
      </trkpt>
      <trkpt lat="38.4983360" lon="-0.6047240">
        <ele>628.8</ele>
        <time>2018-10-27T08:07:28Z</time>
      </trkpt>
      <trkpt lat="38.4983040" lon="-0.6047680">
        <ele>628.8</ele>
        <time>2018-10-27T08:07:30Z</time>
      </trkpt>
      <trkpt lat="38.4981810" lon="-0.6049190">
        <ele>628.4</ele>
        <time>2018-10-27T08:07:37Z</time>
      </trkpt>
      <trkpt lat="38.4980530" lon="-0.6051030">
        <ele>628.0</ele>
        <time>2018-10-27T08:07:45Z</time>
      </trkpt>
      <trkpt lat="38.4980390" lon="-0.6051280">
        <ele>627.8</ele>
        <time>2018-10-27T08:07:46Z</time>
      </trkpt>
      <trkpt lat="38.4979840" lon="-0.6052240">
        <ele>627.6</ele>
        <time>2018-10-27T08:07:50Z</time>
      </trkpt>
      <trkpt lat="38.4979550" lon="-0.6052680">
        <ele>627.6</ele>
        <time>2018-10-27T08:07:52Z</time>
      </trkpt>
      <trkpt lat="38.4978450" lon="-0.6054740">
        <ele>627.2</ele>
        <time>2018-10-27T08:08:00Z</time>
      </trkpt>
      <trkpt lat="38.4978170" lon="-0.6055230">
        <ele>627.0</ele>
        <time>2018-10-27T08:08:02Z</time>
      </trkpt>
      <trkpt lat="38.4977640" lon="-0.6056220">
        <ele>626.8</ele>
        <time>2018-10-27T08:08:06Z</time>
      </trkpt>
      <trkpt lat="38.4977050" lon="-0.6057220">
        <ele>626.6</ele>
        <time>2018-10-27T08:08:10Z</time>
      </trkpt>
      <trkpt lat="38.4976480" lon="-0.6058090">
        <ele>626.4</ele>
        <time>2018-10-27T08:08:14Z</time>
      </trkpt>
      <trkpt lat="38.4975330" lon="-0.6060190">
        <ele>626.0</ele>
        <time>2018-10-27T08:08:23Z</time>
      </trkpt>
      <trkpt lat="38.4974230" lon="-0.6061770">
        <ele>625.8</ele>
        <time>2018-10-27T08:08:30Z</time>
      </trkpt>
      <trkpt lat="38.4973970" lon="-0.6062190">
        <ele>625.6</ele>
        <time>2018-10-27T08:08:32Z</time>
      </trkpt>
      <trkpt lat="38.4973120" lon="-0.6063480">
        <ele>625.4</ele>
        <time>2018-10-27T08:08:38Z</time>
      </trkpt>
      <trkpt lat="38.4972060" lon="-0.6065040">
        <ele>625.0</ele>
        <time>2018-10-27T08:08:45Z</time>
      </trkpt>
      <trkpt lat="38.4970740" lon="-0.6066970">
        <ele>624.8</ele>
        <time>2018-10-27T08:08:54Z</time>
      </trkpt>
      <trkpt lat="38.4970350" lon="-0.6067590">
        <ele>624.6</ele>
        <time>2018-10-27T08:08:57Z</time>
      </trkpt>
      <trkpt lat="38.4969740" lon="-0.6068920">
        <ele>624.4</ele>
        <time>2018-10-27T08:09:03Z</time>
      </trkpt>
      <trkpt lat="38.4969450" lon="-0.6069580">
        <ele>624.4</ele>
        <time>2018-10-27T08:09:06Z</time>
      </trkpt>
      <trkpt lat="38.4968910" lon="-0.6070690">
        <ele>624.2</ele>
        <time>2018-10-27T08:09:11Z</time>
      </trkpt>
      <trkpt lat="38.4967790" lon="-0.6072570">
        <ele>624.0</ele>
        <time>2018-10-27T08:09:20Z</time>
      </trkpt>
      <trkpt lat="38.4966740" lon="-0.6074290">
        <ele>623.8</ele>
        <time>2018-10-27T08:09:28Z</time>
      </trkpt>
      <trkpt lat="38.4965900" lon="-0.6075630">
        <ele>623.6</ele>
        <time>2018-10-27T08:09:34Z</time>
      </trkpt>
      <trkpt lat="38.4965450" lon="-0.6076390">
        <ele>623.6</ele>
        <time>2018-10-27T08:09:37Z</time>
      </trkpt>
      <trkpt lat="38.4965040" lon="-0.6077090">
        <ele>623.6</ele>
        <time>2018-10-27T08:09:40Z</time>
      </trkpt>
      <trkpt lat="38.4963790" lon="-0.6078950">
        <ele>623.6</ele>
        <time>2018-10-27T08:09:48Z</time>
      </trkpt>
      <trkpt lat="38.4963480" lon="-0.6079450">
        <ele>623.6</ele>
        <time>2018-10-27T08:09:50Z</time>
      </trkpt>
      <trkpt lat="38.4962740" lon="-0.6080680">
        <ele>623.4</ele>
        <time>2018-10-27T08:09:55Z</time>
      </trkpt>
      <trkpt lat="38.4961600" lon="-0.6082600">
        <ele>623.4</ele>
        <time>2018-10-27T08:10:03Z</time>
      </trkpt>
      <trkpt lat="38.4960670" lon="-0.6084180">
        <ele>623.2</ele>
        <time>2018-10-27T08:10:10Z</time>
      </trkpt>
      <trkpt lat="38.4959630" lon="-0.6085920">
        <ele>623.2</ele>
        <time>2018-10-27T08:10:18Z</time>
      </trkpt>
      <trkpt lat="38.4958540" lon="-0.6087500">
        <ele>623.0</ele>
        <time>2018-10-27T08:10:25Z</time>
      </trkpt>
      <trkpt lat="38.4957580" lon="-0.6088950">
        <ele>622.8</ele>
        <time>2018-10-27T08:10:31Z</time>
      </trkpt>
      <trkpt lat="38.4957300" lon="-0.6089430">
        <ele>622.8</ele>
        <time>2018-10-27T08:10:33Z</time>
      </trkpt>
      <trkpt lat="38.4956480" lon="-0.6091160">
        <ele>622.8</ele>
        <time>2018-10-27T08:10:40Z</time>
      </trkpt>
      <trkpt lat="38.4956030" lon="-0.6091920">
        <ele>622.6</ele>
        <time>2018-10-27T08:10:43Z</time>
      </trkpt>
      <trkpt lat="38.4955060" lon="-0.6093450">
        <ele>622.6</ele>
        <time>2018-10-27T08:10:49Z</time>
      </trkpt>
      <trkpt lat="38.4953800" lon="-0.6095340">
        <ele>622.4</ele>
        <time>2018-10-27T08:10:57Z</time>
      </trkpt>
      <trkpt lat="38.4952460" lon="-0.6097000">
        <ele>622.2</ele>
        <time>2018-10-27T08:11:05Z</time>
      </trkpt>
      <trkpt lat="38.4951040" lon="-0.6098830">
        <ele>622.0</ele>
        <time>2018-10-27T08:11:14Z</time>
      </trkpt>
      <trkpt lat="38.4949570" lon="-0.6099880">
        <ele>622.0</ele>
        <time>2018-10-27T08:11:21Z</time>
      </trkpt>
      <trkpt lat="38.4948190" lon="-0.6100900">
        <ele>621.8</ele>
        <time>2018-10-27T08:11:28Z</time>
      </trkpt>
      <trkpt lat="38.4946690" lon="-0.6102110">
        <ele>621.6</ele>
        <time>2018-10-27T08:11:36Z</time>
      </trkpt>
      <trkpt lat="38.4946520" lon="-0.6102260">
        <ele>621.6</ele>
        <time>2018-10-27T08:11:37Z</time>
      </trkpt>
      <trkpt lat="38.4945390" lon="-0.6102840">
        <ele>621.4</ele>
        <time>2018-10-27T08:11:43Z</time>
      </trkpt>
      <trkpt lat="38.4943910" lon="-0.6103470">
        <ele>621.4</ele>
        <time>2018-10-27T08:11:50Z</time>
      </trkpt>
      <trkpt lat="38.4942920" lon="-0.6104040">
        <ele>621.2</ele>
        <time>2018-10-27T08:11:55Z</time>
      </trkpt>
      <trkpt lat="38.4942060" lon="-0.6104500">
        <ele>621.2</ele>
        <time>2018-10-27T08:11:59Z</time>
      </trkpt>
      <trkpt lat="38.4941380" lon="-0.6104770">
        <ele>621.2</ele>
        <time>2018-10-27T08:12:02Z</time>
      </trkpt>
      <trkpt lat="38.4940180" lon="-0.6105250">
        <ele>621.0</ele>
        <time>2018-10-27T08:12:07Z</time>
      </trkpt>
      <trkpt lat="38.4939200" lon="-0.6105660">
        <ele>621.0</ele>
        <time>2018-10-27T08:12:11Z</time>
      </trkpt>
      <trkpt lat="38.4938480" lon="-0.6105930">
        <ele>621.0</ele>
        <time>2018-10-27T08:12:14Z</time>
      </trkpt>
      <trkpt lat="38.4936770" lon="-0.6106640">
        <ele>620.8</ele>
        <time>2018-10-27T08:12:21Z</time>
      </trkpt>
      <trkpt lat="38.4936540" lon="-0.6106720">
        <ele>620.8</ele>
        <time>2018-10-27T08:12:22Z</time>
      </trkpt>
      <trkpt lat="38.4934870" lon="-0.6107280">
        <ele>620.8</ele>
        <time>2018-10-27T08:12:29Z</time>
      </trkpt>
      <trkpt lat="38.4933070" lon="-0.6107890">
        <ele>620.6</ele>
        <time>2018-10-27T08:12:37Z</time>
      </trkpt>
      <trkpt lat="38.4931690" lon="-0.6108400">
        <ele>620.6</ele>
        <time>2018-10-27T08:12:43Z</time>
      </trkpt>
      <trkpt lat="38.4931040" lon="-0.6108730">
        <ele>620.6</ele>
        <time>2018-10-27T08:12:46Z</time>
      </trkpt>
      <trkpt lat="38.4930110" lon="-0.6109100">
        <ele>620.4</ele>
        <time>2018-10-27T08:12:50Z</time>
      </trkpt>
      <trkpt lat="38.4929620" lon="-0.6109250">
        <ele>620.4</ele>
        <time>2018-10-27T08:12:52Z</time>
      </trkpt>
      <trkpt lat="38.4928480" lon="-0.6109680">
        <ele>620.4</ele>
        <time>2018-10-27T08:12:57Z</time>
      </trkpt>
      <trkpt lat="38.4927820" lon="-0.6109960">
        <ele>620.4</ele>
        <time>2018-10-27T08:13:00Z</time>
      </trkpt>
      <trkpt lat="38.4925900" lon="-0.6110630">
        <ele>620.4</ele>
        <time>2018-10-27T08:13:09Z</time>
      </trkpt>
      <trkpt lat="38.4925710" lon="-0.6110690">
        <ele>620.4</ele>
        <time>2018-10-27T08:13:10Z</time>
      </trkpt>
      <trkpt lat="38.4925310" lon="-0.6110770">
        <ele>620.4</ele>
        <time>2018-10-27T08:13:12Z</time>
      </trkpt>
      <trkpt lat="38.4924470" lon="-0.6111270">
        <ele>620.4</ele>
        <time>2018-10-27T08:13:16Z</time>
      </trkpt>
      <trkpt lat="38.4922970" lon="-0.6111880">
        <ele>620.6</ele>
        <time>2018-10-27T08:13:23Z</time>
      </trkpt>
      <trkpt lat="38.4922700" lon="-0.6112010">
        <ele>620.6</ele>
        <time>2018-10-27T08:13:24Z</time>
      </trkpt>
      <trkpt lat="38.4920780" lon="-0.6112520">
        <ele>620.8</ele>
        <time>2018-10-27T08:13:31Z</time>
      </trkpt>
      <trkpt lat="38.4918990" lon="-0.6113040">
        <ele>621.0</ele>
        <time>2018-10-27T08:13:38Z</time>
      </trkpt>
      <trkpt lat="38.4917010" lon="-0.6113750">
        <ele>621.2</ele>
        <time>2018-10-27T08:13:45Z</time>
      </trkpt>
      <trkpt lat="38.4916730" lon="-0.6113840">
        <ele>621.2</ele>
        <time>2018-10-27T08:13:46Z</time>
      </trkpt>
      <trkpt lat="38.4915260" lon="-0.6114430">
        <ele>621.4</ele>
        <time>2018-10-27T08:13:52Z</time>
      </trkpt>
      <trkpt lat="38.4914770" lon="-0.6114580">
        <ele>621.4</ele>
        <time>2018-10-27T08:13:54Z</time>
      </trkpt>
      <trkpt lat="38.4913400" lon="-0.6115060">
        <ele>621.6</ele>
        <time>2018-10-27T08:14:00Z</time>
      </trkpt>
      <trkpt lat="38.4913000" lon="-0.6115210">
        <ele>621.6</ele>
        <time>2018-10-27T08:14:02Z</time>
      </trkpt>
      <trkpt lat="38.4911900" lon="-0.6115620">
        <ele>621.8</ele>
        <time>2018-10-27T08:14:07Z</time>
      </trkpt>
      <trkpt lat="38.4911320" lon="-0.6115920">
        <ele>621.8</ele>
        <time>2018-10-27T08:14:10Z</time>
      </trkpt>
      <trkpt lat="38.4909830" lon="-0.6116430">
        <ele>622.0</ele>
        <time>2018-10-27T08:14:17Z</time>
      </trkpt>
      <trkpt lat="38.4907950" lon="-0.6117300">
        <ele>622.4</ele>
        <time>2018-10-27T08:14:26Z</time>
      </trkpt>
      <trkpt lat="38.4907680" lon="-0.6117360">
        <ele>622.4</ele>
        <time>2018-10-27T08:14:27Z</time>
      </trkpt>
      <trkpt lat="38.4905940" lon="-0.6117920">
        <ele>622.6</ele>
        <time>2018-10-27T08:14:35Z</time>
      </trkpt>
      <trkpt lat="38.4905730" lon="-0.6118010">
        <ele>622.6</ele>
        <time>2018-10-27T08:14:36Z</time>
      </trkpt>
      <trkpt lat="38.4903950" lon="-0.6118590">
        <ele>622.8</ele>
        <time>2018-10-27T08:14:44Z</time>
      </trkpt>
      <trkpt lat="38.4903510" lon="-0.6118750">
        <ele>622.8</ele>
        <time>2018-10-27T08:14:46Z</time>
      </trkpt>
      <trkpt lat="38.4902450" lon="-0.6119200">
        <ele>623.0</ele>
        <time>2018-10-27T08:14:51Z</time>
      </trkpt>
      <trkpt lat="38.4900670" lon="-0.6119980">
        <ele>623.2</ele>
        <time>2018-10-27T08:14:59Z</time>
      </trkpt>
      <trkpt lat="38.4899170" lon="-0.6120460">
        <ele>623.4</ele>
        <time>2018-10-27T08:15:06Z</time>
      </trkpt>
      <trkpt lat="38.4897860" lon="-0.6120730">
        <ele>623.6</ele>
        <time>2018-10-27T08:15:12Z</time>
      </trkpt>
      <trkpt lat="38.4897630" lon="-0.6120810">
        <ele>623.6</ele>
        <time>2018-10-27T08:15:13Z</time>
      </trkpt>
      <trkpt lat="38.4896030" lon="-0.6121550">
        <ele>623.8</ele>
        <time>2018-10-27T08:15:20Z</time>
      </trkpt>
      <trkpt lat="38.4894500" lon="-0.6122140">
        <ele>624.0</ele>
        <time>2018-10-27T08:15:27Z</time>
      </trkpt>
      <trkpt lat="38.4894090" lon="-0.6122270">
        <ele>624.0</ele>
        <time>2018-10-27T08:15:29Z</time>
      </trkpt>
      <trkpt lat="38.4893620" lon="-0.6122400">
        <ele>624.2</ele>
        <time>2018-10-27T08:15:31Z</time>
      </trkpt>
      <trkpt lat="38.4892220" lon="-0.6122810">
        <ele>624.2</ele>
        <time>2018-10-27T08:15:37Z</time>
      </trkpt>
      <trkpt lat="38.4890670" lon="-0.6123300">
        <ele>624.4</ele>
        <time>2018-10-27T08:15:44Z</time>
      </trkpt>
      <trkpt lat="38.4888940" lon="-0.6123840">
        <ele>624.6</ele>
        <time>2018-10-27T08:15:51Z</time>
      </trkpt>
      <trkpt lat="38.4888720" lon="-0.6123950">
        <ele>624.6</ele>
        <time>2018-10-27T08:15:52Z</time>
      </trkpt>
      <trkpt lat="38.4887540" lon="-0.6124310">
        <ele>624.8</ele>
        <time>2018-10-27T08:15:57Z</time>
      </trkpt>
      <trkpt lat="38.4887130" lon="-0.6124490">
        <ele>624.8</ele>
        <time>2018-10-27T08:15:59Z</time>
      </trkpt>
      <trkpt lat="38.4885970" lon="-0.6125160">
        <ele>625.0</ele>
        <time>2018-10-27T08:16:05Z</time>
      </trkpt>
      <trkpt lat="38.4885370" lon="-0.6125420">
        <ele>625.0</ele>
        <time>2018-10-27T08:16:08Z</time>
      </trkpt>
      <trkpt lat="38.4884120" lon="-0.6126250">
        <ele>625.0</ele>
        <time>2018-10-27T08:16:14Z</time>
      </trkpt>
      <trkpt lat="38.4882570" lon="-0.6127520">
        <ele>625.2</ele>
        <time>2018-10-27T08:16:21Z</time>
      </trkpt>
      <trkpt lat="38.4882350" lon="-0.6127630">
        <ele>625.2</ele>
        <time>2018-10-27T08:16:22Z</time>
      </trkpt>
      <trkpt lat="38.4881810" lon="-0.6127970">
        <ele>625.2</ele>
        <time>2018-10-27T08:16:25Z</time>
      </trkpt>
      <trkpt lat="38.4881400" lon="-0.6128250">
        <ele>625.2</ele>
        <time>2018-10-27T08:16:27Z</time>
      </trkpt>
      <trkpt lat="38.4880960" lon="-0.6128530">
        <ele>625.2</ele>
        <time>2018-10-27T08:16:29Z</time>
      </trkpt>
      <trkpt lat="38.4879060" lon="-0.6129420">
        <ele>625.2</ele>
        <time>2018-10-27T08:16:37Z</time>
      </trkpt>
      <trkpt lat="38.4877800" lon="-0.6130200">
        <ele>625.2</ele>
        <time>2018-10-27T08:16:43Z</time>
      </trkpt>
      <trkpt lat="38.4877610" lon="-0.6130350">
        <ele>625.0</ele>
        <time>2018-10-27T08:16:44Z</time>
      </trkpt>
      <trkpt lat="38.4876350" lon="-0.6131310">
        <ele>625.0</ele>
        <time>2018-10-27T08:16:50Z</time>
      </trkpt>
      <trkpt lat="38.4876170" lon="-0.6131480">
        <ele>625.0</ele>
        <time>2018-10-27T08:16:51Z</time>
      </trkpt>
      <trkpt lat="38.4874920" lon="-0.6132810">
        <ele>625.0</ele>
        <time>2018-10-27T08:16:58Z</time>
      </trkpt>
      <trkpt lat="38.4874500" lon="-0.6133160">
        <ele>624.8</ele>
        <time>2018-10-27T08:17:00Z</time>
      </trkpt>
      <trkpt lat="38.4872970" lon="-0.6134500">
        <ele>624.6</ele>
        <time>2018-10-27T08:17:08Z</time>
      </trkpt>
      <trkpt lat="38.4871490" lon="-0.6135870">
        <ele>624.6</ele>
        <time>2018-10-27T08:17:15Z</time>
      </trkpt>
      <trkpt lat="38.4870310" lon="-0.6136950">
        <ele>624.4</ele>
        <time>2018-10-27T08:17:21Z</time>
      </trkpt>
      <trkpt lat="38.4869940" lon="-0.6137300">
        <ele>624.2</ele>
        <time>2018-10-27T08:17:23Z</time>
      </trkpt>
      <trkpt lat="38.4868310" lon="-0.6138480">
        <ele>624.0</ele>
        <time>2018-10-27T08:17:31Z</time>
      </trkpt>
      <trkpt lat="38.4867020" lon="-0.6139310">
        <ele>623.8</ele>
        <time>2018-10-27T08:17:37Z</time>
      </trkpt>
      <trkpt lat="38.4866800" lon="-0.6139490">
        <ele>623.8</ele>
        <time>2018-10-27T08:17:38Z</time>
      </trkpt>
      <trkpt lat="38.4866170" lon="-0.6140040">
        <ele>623.6</ele>
        <time>2018-10-27T08:17:41Z</time>
      </trkpt>
      <trkpt lat="38.4865140" lon="-0.6140870">
        <ele>623.4</ele>
        <time>2018-10-27T08:17:46Z</time>
      </trkpt>
      <trkpt lat="38.4863480" lon="-0.6142320">
        <ele>623.2</ele>
        <time>2018-10-27T08:17:54Z</time>
      </trkpt>
      <trkpt lat="38.4863260" lon="-0.6142520">
        <ele>623.2</ele>
        <time>2018-10-27T08:17:55Z</time>
      </trkpt>
      <trkpt lat="38.4861630" lon="-0.6143990">
        <ele>623.0</ele>
        <time>2018-10-27T08:18:03Z</time>
      </trkpt>
      <trkpt lat="38.4861200" lon="-0.6144340">
        <ele>623.0</ele>
        <time>2018-10-27T08:18:05Z</time>
      </trkpt>
      <trkpt lat="38.4860370" lon="-0.6145010">
        <ele>622.8</ele>
        <time>2018-10-27T08:18:09Z</time>
      </trkpt>
      <trkpt lat="38.4859660" lon="-0.6145830">
        <ele>622.6</ele>
        <time>2018-10-27T08:18:13Z</time>
      </trkpt>
      <trkpt lat="38.4859490" lon="-0.6146020">
        <ele>622.6</ele>
        <time>2018-10-27T08:18:14Z</time>
      </trkpt>
      <trkpt lat="38.4858050" lon="-0.6147630">
        <ele>622.4</ele>
        <time>2018-10-27T08:18:22Z</time>
      </trkpt>
      <trkpt lat="38.4856610" lon="-0.6149450">
        <ele>622.0</ele>
        <time>2018-10-27T08:18:30Z</time>
      </trkpt>
      <trkpt lat="38.4855650" lon="-0.6150560">
        <ele>622.0</ele>
        <time>2018-10-27T08:18:35Z</time>
      </trkpt>
      <trkpt lat="38.4855130" lon="-0.6151290">
        <ele>621.8</ele>
        <time>2018-10-27T08:18:38Z</time>
      </trkpt>
      <trkpt lat="38.4854210" lon="-0.6152570">
        <ele>621.6</ele>
        <time>2018-10-27T08:18:44Z</time>
      </trkpt>
      <trkpt lat="38.4854070" lon="-0.6152840">
        <ele>621.6</ele>
        <time>2018-10-27T08:18:45Z</time>
      </trkpt>
      <trkpt lat="38.4853520" lon="-0.6154100">
        <ele>621.4</ele>
        <time>2018-10-27T08:18:50Z</time>
      </trkpt>
      <trkpt lat="38.4853440" lon="-0.6154370">
        <ele>621.4</ele>
        <time>2018-10-27T08:18:51Z</time>
      </trkpt>
      <trkpt lat="38.4853320" lon="-0.6154630">
        <ele>621.4</ele>
        <time>2018-10-27T08:18:52Z</time>
      </trkpt>
      <trkpt lat="38.4852560" lon="-0.6156800">
        <ele>621.0</ele>
        <time>2018-10-27T08:18:59Z</time>
      </trkpt>
      <trkpt lat="38.4852270" lon="-0.6158030">
        <ele>620.8</ele>
        <time>2018-10-27T08:19:03Z</time>
      </trkpt>
      <trkpt lat="38.4851880" lon="-0.6159450">
        <ele>620.8</ele>
        <time>2018-10-27T08:19:08Z</time>
      </trkpt>
      <trkpt lat="38.4851730" lon="-0.6160500">
        <ele>620.6</ele>
        <time>2018-10-27T08:19:12Z</time>
      </trkpt>
      <trkpt lat="38.4851580" lon="-0.6161320">
        <ele>620.4</ele>
        <time>2018-10-27T08:19:15Z</time>
      </trkpt>
      <trkpt lat="38.4851280" lon="-0.6163070">
        <ele>620.2</ele>
        <time>2018-10-27T08:19:21Z</time>
      </trkpt>
      <trkpt lat="38.4851150" lon="-0.6164090">
        <ele>620.2</ele>
        <time>2018-10-27T08:19:24Z</time>
      </trkpt>
      <trkpt lat="38.4850800" lon="-0.6165970">
        <ele>619.8</ele>
        <time>2018-10-27T08:19:30Z</time>
      </trkpt>
      <trkpt lat="38.4850500" lon="-0.6168250">
        <ele>619.6</ele>
        <time>2018-10-27T08:19:38Z</time>
      </trkpt>
      <trkpt lat="38.4850470" lon="-0.6168530">
        <ele>619.6</ele>
        <time>2018-10-27T08:19:39Z</time>
      </trkpt>
      <trkpt lat="38.4850400" lon="-0.6169100">
        <ele>619.6</ele>
        <time>2018-10-27T08:19:41Z</time>
      </trkpt>
      <trkpt lat="38.4850260" lon="-0.6170750">
        <ele>619.4</ele>
        <time>2018-10-27T08:19:46Z</time>
      </trkpt>
      <trkpt lat="38.4850100" lon="-0.6172960">
        <ele>619.2</ele>
        <time>2018-10-27T08:19:53Z</time>
      </trkpt>
      <trkpt lat="38.4849730" lon="-0.6175200">
        <ele>619.0</ele>
        <time>2018-10-27T08:20:00Z</time>
      </trkpt>
      <trkpt lat="38.4849590" lon="-0.6176440">
        <ele>618.8</ele>
        <time>2018-10-27T08:20:04Z</time>
      </trkpt>
      <trkpt lat="38.4849420" lon="-0.6177630">
        <ele>618.8</ele>
        <time>2018-10-27T08:20:08Z</time>
      </trkpt>
      <trkpt lat="38.4849250" lon="-0.6179510">
        <ele>618.6</ele>
        <time>2018-10-27T08:20:15Z</time>
      </trkpt>
      <trkpt lat="38.4849230" lon="-0.6179800">
        <ele>618.6</ele>
        <time>2018-10-27T08:20:16Z</time>
      </trkpt>
      <trkpt lat="38.4849150" lon="-0.6181580">
        <ele>618.4</ele>
        <time>2018-10-27T08:20:22Z</time>
      </trkpt>
      <trkpt lat="38.4849190" lon="-0.6181890">
        <ele>618.2</ele>
        <time>2018-10-27T08:20:23Z</time>
      </trkpt>
      <trkpt lat="38.4849190" lon="-0.6181890">
        <ele>618.0</ele>
        <time>2018-10-27T08:20:30Z</time>
      </trkpt>
      <trkpt lat="38.4849190" lon="-0.6181890">
        <ele>617.6</ele>
        <time>2018-10-27T08:20:38Z</time>
      </trkpt>
      <trkpt lat="38.4849190" lon="-0.6181890">
        <ele>617.6</ele>
        <time>2018-10-27T08:20:41Z</time>
      </trkpt>
      <trkpt lat="38.4849190" lon="-0.6181890">
        <ele>617.0</ele>
        <time>2018-10-27T08:20:49Z</time>
      </trkpt>
      <trkpt lat="38.4849190" lon="-0.6181890">
        <ele>616.8</ele>
        <time>2018-10-27T08:20:54Z</time>
      </trkpt>
      <trkpt lat="38.4849190" lon="-0.6181890">
        <ele>616.4</ele>
        <time>2018-10-27T08:21:00Z</time>
      </trkpt>
      <trkpt lat="38.4849190" lon="-0.6181890">
        <ele>616.0</ele>
        <time>2018-10-27T08:21:08Z</time>
      </trkpt>
      <trkpt lat="38.4849190" lon="-0.6181890">
        <ele>615.8</ele>
        <time>2018-10-27T08:21:16Z</time>
      </trkpt>
      <trkpt lat="38.4849190" lon="-0.6181890">
        <ele>615.4</ele>
        <time>2018-10-27T08:21:22Z</time>
      </trkpt>
      <trkpt lat="38.4849190" lon="-0.6181890">
        <ele>615.2</ele>
        <time>2018-10-27T08:21:24Z</time>
      </trkpt>
      <trkpt lat="38.4849190" lon="-0.6181890">
        <ele>614.8</ele>
        <time>2018-10-27T08:21:32Z</time>
      </trkpt>
      <trkpt lat="38.4849190" lon="-0.6181890">
        <ele>614.4</ele>
        <time>2018-10-27T08:21:39Z</time>
      </trkpt>
      <trkpt lat="38.4849190" lon="-0.6181890">
        <ele>614.4</ele>
        <time>2018-10-27T08:21:40Z</time>
      </trkpt>
      <trkpt lat="38.4849190" lon="-0.6181890">
        <ele>614.2</ele>
        <time>2018-10-27T08:21:43Z</time>
      </trkpt>
      <trkpt lat="38.4849190" lon="-0.6181890">
        <ele>614.2</ele>
        <time>2018-10-27T08:21:44Z</time>
      </trkpt>
      <trkpt lat="38.4849190" lon="-0.6181890">
        <ele>610.4</ele>
        <time>2018-10-27T08:21:52Z</time>
      </trkpt>
      <trkpt lat="38.4849190" lon="-0.6181890">
        <ele>608.8</ele>
        <time>2018-10-27T08:21:53Z</time>
      </trkpt>
      <trkpt lat="38.4849190" lon="-0.6181890">
        <ele>607.4</ele>
        <time>2018-10-27T08:21:55Z</time>
      </trkpt>
      <trkpt lat="38.4849190" lon="-0.6181890">
        <ele>606.8</ele>
        <time>2018-10-27T08:22:01Z</time>
      </trkpt>
      <trkpt lat="38.4849190" lon="-0.6181890">
        <ele>606.8</ele>
        <time>2018-10-27T08:22:04Z</time>
      </trkpt>
      <trkpt lat="38.4849190" lon="-0.6181890">
        <ele>606.8</ele>
        <time>2018-10-27T08:22:05Z</time>
      </trkpt>
      <trkpt lat="38.4849190" lon="-0.6181890">
        <ele>606.8</ele>
        <time>2018-10-27T08:22:07Z</time>
      </trkpt>
      <trkpt lat="38.4849190" lon="-0.6181890">
        <ele>607.2</ele>
        <time>2018-10-27T08:22:15Z</time>
      </trkpt>
      <trkpt lat="38.4849190" lon="-0.6181890">
        <ele>607.4</ele>
        <time>2018-10-27T08:22:18Z</time>
      </trkpt>
      <trkpt lat="38.4849190" lon="-0.6181890">
        <ele>606.8</ele>
        <time>2018-10-27T08:22:25Z</time>
      </trkpt>
      <trkpt lat="38.4849190" lon="-0.6181890">
        <ele>606.4</ele>
        <time>2018-10-27T08:22:30Z</time>
      </trkpt>
      <trkpt lat="38.4849190" lon="-0.6181890">
        <ele>606.4</ele>
        <time>2018-10-27T08:22:38Z</time>
      </trkpt>
      <trkpt lat="38.4849190" lon="-0.6181890">
        <ele>607.4</ele>
        <time>2018-10-27T08:22:46Z</time>
      </trkpt>
      <trkpt lat="38.4849190" lon="-0.6181890">
        <ele>605.2</ele>
        <time>2018-10-27T08:22:52Z</time>
      </trkpt>
      <trkpt lat="38.4849190" lon="-0.6181890">
        <ele>604.2</ele>
        <time>2018-10-27T08:23:00Z</time>
      </trkpt>
      <trkpt lat="38.4849190" lon="-0.6181890">
        <ele>603.6</ele>
        <time>2018-10-27T08:23:05Z</time>
      </trkpt>
      <trkpt lat="38.4849190" lon="-0.6181890">
        <ele>603.0</ele>
        <time>2018-10-27T08:23:12Z</time>
      </trkpt>
      <trkpt lat="38.4849190" lon="-0.6181890">
        <ele>602.8</ele>
        <time>2018-10-27T08:23:20Z</time>
      </trkpt>
      <trkpt lat="38.4849190" lon="-0.6181890">
        <ele>602.6</ele>
        <time>2018-10-27T08:23:28Z</time>
      </trkpt>
      <trkpt lat="38.4849190" lon="-0.6181890">
        <ele>602.4</ele>
        <time>2018-10-27T08:23:36Z</time>
      </trkpt>
      <trkpt lat="38.4849190" lon="-0.6181890">
        <ele>602.0</ele>
        <time>2018-10-27T08:23:43Z</time>
      </trkpt>
      <trkpt lat="38.4849190" lon="-0.6181890">
        <ele>602.0</ele>
        <time>2018-10-27T08:23:46Z</time>
      </trkpt>
      <trkpt lat="38.4849190" lon="-0.6181890">
        <ele>602.0</ele>
        <time>2018-10-27T08:23:52Z</time>
      </trkpt>
      <trkpt lat="38.4839240" lon="-0.6238710">
        <ele>602.0</ele>
        <time>2018-10-27T08:23:53Z</time>
      </trkpt>
      <trkpt lat="38.4838700" lon="-0.6239910">
        <ele>601.8</ele>
        <time>2018-10-27T08:23:55Z</time>
      </trkpt>
      <trkpt lat="38.4838440" lon="-0.6240760">
        <ele>601.8</ele>
        <time>2018-10-27T08:23:58Z</time>
      </trkpt>
      <trkpt lat="38.4838310" lon="-0.6241120">
        <ele>601.8</ele>
        <time>2018-10-27T08:23:59Z</time>
      </trkpt>
      <trkpt lat="38.4837810" lon="-0.6242360">
        <ele>601.6</ele>
        <time>2018-10-27T08:24:03Z</time>
      </trkpt>
      <trkpt lat="38.4837410" lon="-0.6244200">
        <ele>601.2</ele>
        <time>2018-10-27T08:24:09Z</time>
      </trkpt>
      <trkpt lat="38.4837280" lon="-0.6244840">
        <ele>601.2</ele>
        <time>2018-10-27T08:24:11Z</time>
      </trkpt>
      <trkpt lat="38.4837090" lon="-0.6245830">
        <ele>601.2</ele>
        <time>2018-10-27T08:24:14Z</time>
      </trkpt>
      <trkpt lat="38.4837010" lon="-0.6246440">
        <ele>601.2</ele>
        <time>2018-10-27T08:24:16Z</time>
      </trkpt>
      <trkpt lat="38.4836930" lon="-0.6246740">
        <ele>601.2</ele>
        <time>2018-10-27T08:24:17Z</time>
      </trkpt>
      <trkpt lat="38.4836880" lon="-0.6247040">
        <ele>601.0</ele>
        <time>2018-10-27T08:24:18Z</time>
      </trkpt>
      <trkpt lat="38.4836480" lon="-0.6248820">
        <ele>600.2</ele>
        <time>2018-10-27T08:24:24Z</time>
      </trkpt>
      <trkpt lat="38.4836240" lon="-0.6249740">
        <ele>600.0</ele>
        <time>2018-10-27T08:24:27Z</time>
      </trkpt>
      <trkpt lat="38.4836000" lon="-0.6250920">
        <ele>599.8</ele>
        <time>2018-10-27T08:24:31Z</time>
      </trkpt>
      <trkpt lat="38.4835930" lon="-0.6251220">
        <ele>599.8</ele>
        <time>2018-10-27T08:24:32Z</time>
      </trkpt>
      <trkpt lat="38.4835240" lon="-0.6253360">
        <ele>599.2</ele>
        <time>2018-10-27T08:24:39Z</time>
      </trkpt>
      <trkpt lat="38.4834470" lon="-0.6255520">
        <ele>599.2</ele>
        <time>2018-10-27T08:24:46Z</time>
      </trkpt>
      <trkpt lat="38.4834410" lon="-0.6255820">
        <ele>599.0</ele>
        <time>2018-10-27T08:24:47Z</time>
      </trkpt>
      <trkpt lat="38.4834130" lon="-0.6257680">
        <ele>598.6</ele>
        <time>2018-10-27T08:24:53Z</time>
      </trkpt>
      <trkpt lat="38.4833690" lon="-0.6259740">
        <ele>598.4</ele>
        <time>2018-10-27T08:25:00Z</time>
      </trkpt>
      <trkpt lat="38.4833270" lon="-0.6261450">
        <ele>598.2</ele>
        <time>2018-10-27T08:25:06Z</time>
      </trkpt>
      <trkpt lat="38.4833050" lon="-0.6262420">
        <ele>598.2</ele>
        <time>2018-10-27T08:25:09Z</time>
      </trkpt>
      <trkpt lat="38.4832780" lon="-0.6263330">
        <ele>598.2</ele>
        <time>2018-10-27T08:25:12Z</time>
      </trkpt>
      <trkpt lat="38.4832650" lon="-0.6263940">
        <ele>597.8</ele>
        <time>2018-10-27T08:25:14Z</time>
      </trkpt>
      <trkpt lat="38.4832200" lon="-0.6265820">
        <ele>597.4</ele>
        <time>2018-10-27T08:25:20Z</time>
      </trkpt>
      <trkpt lat="38.4832090" lon="-0.6266400">
        <ele>596.8</ele>
        <time>2018-10-27T08:25:22Z</time>
      </trkpt>
      <trkpt lat="38.4831590" lon="-0.6268210">
        <ele>596.2</ele>
        <time>2018-10-27T08:25:28Z</time>
      </trkpt>
      <trkpt lat="38.4831210" lon="-0.6270240">
        <ele>596.4</ele>
        <time>2018-10-27T08:25:35Z</time>
      </trkpt>
      <trkpt lat="38.4830860" lon="-0.6271950">
        <ele>596.2</ele>
        <time>2018-10-27T08:25:41Z</time>
      </trkpt>
      <trkpt lat="38.4830780" lon="-0.6272240">
        <ele>596.0</ele>
        <time>2018-10-27T08:25:42Z</time>
      </trkpt>
      <trkpt lat="38.4830620" lon="-0.6272820">
        <ele>595.6</ele>
        <time>2018-10-27T08:25:44Z</time>
      </trkpt>
      <trkpt lat="38.4830060" lon="-0.6274480">
        <ele>595.4</ele>
        <time>2018-10-27T08:25:50Z</time>
      </trkpt>
      <trkpt lat="38.4829880" lon="-0.6275300">
        <ele>594.6</ele>
        <time>2018-10-27T08:25:53Z</time>
      </trkpt>
      <trkpt lat="38.4829730" lon="-0.6276100">
        <ele>594.2</ele>
        <time>2018-10-27T08:25:56Z</time>
      </trkpt>
      <trkpt lat="38.4829670" lon="-0.6276650">
        <ele>594.2</ele>
        <time>2018-10-27T08:25:58Z</time>
      </trkpt>
      <trkpt lat="38.4829640" lon="-0.6276930">
        <ele>594.2</ele>
        <time>2018-10-27T08:25:59Z</time>
      </trkpt>
      <trkpt lat="38.4829540" lon="-0.6277800">
        <ele>593.6</ele>
        <time>2018-10-27T08:26:02Z</time>
      </trkpt>
      <trkpt lat="38.4829520" lon="-0.6278080">
        <ele>593.4</ele>
        <time>2018-10-27T08:26:03Z</time>
      </trkpt>
      <trkpt lat="38.4829460" lon="-0.6279240">
        <ele>593.0</ele>
        <time>2018-10-27T08:26:07Z</time>
      </trkpt>
      <trkpt lat="38.4829350" lon="-0.6280780">
        <ele>592.4</ele>
        <time>2018-10-27T08:26:12Z</time>
      </trkpt>
      <trkpt lat="38.4829360" lon="-0.6281370">
        <ele>592.0</ele>
        <time>2018-10-27T08:26:14Z</time>
      </trkpt>
      <trkpt lat="38.4829350" lon="-0.6282190">
        <ele>591.8</ele>
        <time>2018-10-27T08:26:17Z</time>
      </trkpt>
      <trkpt lat="38.4829410" lon="-0.6283360">
        <ele>591.8</ele>
        <time>2018-10-27T08:26:21Z</time>
      </trkpt>
      <trkpt lat="38.4829430" lon="-0.6284490">
        <ele>591.8</ele>
        <time>2018-10-27T08:26:25Z</time>
      </trkpt>
      <trkpt lat="38.4829580" lon="-0.6286720">
        <ele>592.6</ele>
        <time>2018-10-27T08:26:32Z</time>
      </trkpt>
      <trkpt lat="38.4829920" lon="-0.6288950">
        <ele>591.4</ele>
        <time>2018-10-27T08:26:39Z</time>
      </trkpt>
      <trkpt lat="38.4829920" lon="-0.6288950">
        <ele>591.2</ele>
        <time>2018-10-27T08:26:47Z</time>
      </trkpt>
      <trkpt lat="38.4829920" lon="-0.6288950">
        <ele>590.4</ele>
        <time>2018-10-27T08:26:52Z</time>
      </trkpt>
      <trkpt lat="38.4829920" lon="-0.6288950">
        <ele>590.2</ele>
        <time>2018-10-27T08:27:00Z</time>
      </trkpt>
      <trkpt lat="38.4829920" lon="-0.6288950">
        <ele>589.8</ele>
        <time>2018-10-27T08:27:02Z</time>
      </trkpt>
      <trkpt lat="38.4829920" lon="-0.6288950">
        <ele>589.2</ele>
        <time>2018-10-27T08:27:06Z</time>
      </trkpt>
      <trkpt lat="38.4829920" lon="-0.6288950">
        <ele>588.4</ele>
        <time>2018-10-27T08:27:14Z</time>
      </trkpt>
      <trkpt lat="38.4829920" lon="-0.6288950">
        <ele>588.2</ele>
        <time>2018-10-27T08:27:16Z</time>
      </trkpt>
      <trkpt lat="38.4829920" lon="-0.6288950">
        <ele>587.2</ele>
        <time>2018-10-27T08:27:22Z</time>
      </trkpt>
      <trkpt lat="38.4829920" lon="-0.6288950">
        <ele>587.0</ele>
        <time>2018-10-27T08:27:23Z</time>
      </trkpt>
      <trkpt lat="38.4829920" lon="-0.6288950">
        <ele>587.0</ele>
        <time>2018-10-27T08:27:30Z</time>
      </trkpt>
      <trkpt lat="38.4829920" lon="-0.6288950">
        <ele>586.4</ele>
        <time>2018-10-27T08:27:32Z</time>
      </trkpt>
      <trkpt lat="38.4829920" lon="-0.6288950">
        <ele>586.2</ele>
        <time>2018-10-27T08:27:40Z</time>
      </trkpt>
      <trkpt lat="38.4829920" lon="-0.6288950">
        <ele>586.0</ele>
        <time>2018-10-27T08:27:44Z</time>
      </trkpt>
      <trkpt lat="38.4829920" lon="-0.6288950">
        <ele>585.0</ele>
        <time>2018-10-27T08:27:50Z</time>
      </trkpt>
      <trkpt lat="38.4829920" lon="-0.6288950">
        <ele>584.4</ele>
        <time>2018-10-27T08:27:58Z</time>
      </trkpt>
      <trkpt lat="38.4829920" lon="-0.6288950">
        <ele>584.4</ele>
        <time>2018-10-27T08:28:01Z</time>
      </trkpt>
      <trkpt lat="38.4829920" lon="-0.6288950">
        <ele>584.2</ele>
        <time>2018-10-27T08:28:06Z</time>
      </trkpt>
      <trkpt lat="38.4829920" lon="-0.6288950">
        <ele>584.2</ele>
        <time>2018-10-27T08:28:10Z</time>
      </trkpt>
      <trkpt lat="38.4829920" lon="-0.6288950">
        <ele>584.0</ele>
        <time>2018-10-27T08:28:15Z</time>
      </trkpt>
      <trkpt lat="38.4829920" lon="-0.6288950">
        <ele>583.8</ele>
        <time>2018-10-27T08:28:17Z</time>
      </trkpt>
      <trkpt lat="38.4829920" lon="-0.6288950">
        <ele>583.6</ele>
        <time>2018-10-27T08:28:21Z</time>
      </trkpt>
      <trkpt lat="38.4829920" lon="-0.6288950">
        <ele>582.8</ele>
        <time>2018-10-27T08:28:28Z</time>
      </trkpt>
      <trkpt lat="38.4829920" lon="-0.6288950">
        <ele>582.6</ele>
        <time>2018-10-27T08:28:32Z</time>
      </trkpt>
      <trkpt lat="38.4829920" lon="-0.6288950">
        <ele>582.6</ele>
        <time>2018-10-27T08:28:35Z</time>
      </trkpt>
      <trkpt lat="38.4829920" lon="-0.6288950">
        <ele>582.4</ele>
        <time>2018-10-27T08:28:41Z</time>
      </trkpt>
      <trkpt lat="38.4829920" lon="-0.6288950">
        <ele>582.4</ele>
        <time>2018-10-27T08:28:43Z</time>
      </trkpt>
      <trkpt lat="38.4829920" lon="-0.6288950">
        <ele>583.0</ele>
        <time>2018-10-27T08:28:51Z</time>
      </trkpt>
      <trkpt lat="38.4829920" lon="-0.6288950">
        <ele>583.4</ele>
        <time>2018-10-27T08:28:59Z</time>
      </trkpt>
      <trkpt lat="38.4839280" lon="-0.6329370">
        <ele>583.4</ele>
        <time>2018-10-27T08:29:02Z</time>
      </trkpt>
      <trkpt lat="38.4839750" lon="-0.6330550">
        <ele>583.4</ele>
        <time>2018-10-27T08:29:06Z</time>
      </trkpt>
      <trkpt lat="38.4839940" lon="-0.6331510">
        <ele>583.2</ele>
        <time>2018-10-27T08:29:10Z</time>
      </trkpt>
      <trkpt lat="38.4839880" lon="-0.6331910">
        <ele>582.8</ele>
        <time>2018-10-27T08:29:12Z</time>
      </trkpt>
      <trkpt lat="38.4839730" lon="-0.6332740">
        <ele>582.6</ele>
        <time>2018-10-27T08:29:15Z</time>
      </trkpt>
      <trkpt lat="38.4839200" lon="-0.6334880">
        <ele>582.6</ele>
        <time>2018-10-27T08:29:22Z</time>
      </trkpt>
      <trkpt lat="38.4838730" lon="-0.6336860">
        <ele>582.8</ele>
        <time>2018-10-27T08:29:29Z</time>
      </trkpt>
      <trkpt lat="38.4837800" lon="-0.6339100">
        <ele>582.0</ele>
        <time>2018-10-27T08:29:37Z</time>
      </trkpt>
      <trkpt lat="38.4837680" lon="-0.6339400">
        <ele>581.8</ele>
        <time>2018-10-27T08:29:38Z</time>
      </trkpt>
      <trkpt lat="38.4837320" lon="-0.6340370">
        <ele>581.8</ele>
        <time>2018-10-27T08:29:41Z</time>
      </trkpt>
      <trkpt lat="38.4836850" lon="-0.6341580">
        <ele>581.4</ele>
        <time>2018-10-27T08:29:45Z</time>
      </trkpt>
      <trkpt lat="38.4836690" lon="-0.6341860">
        <ele>581.2</ele>
        <time>2018-10-27T08:29:46Z</time>
      </trkpt>
      <trkpt lat="38.4835640" lon="-0.6344040">
        <ele>580.8</ele>
        <time>2018-10-27T08:29:54Z</time>
      </trkpt>
      <trkpt lat="38.4835490" lon="-0.6344290">
        <ele>580.6</ele>
        <time>2018-10-27T08:29:55Z</time>
      </trkpt>
      <trkpt lat="38.4834440" lon="-0.6346190">
        <ele>580.0</ele>
        <time>2018-10-27T08:30:02Z</time>
      </trkpt>
      <trkpt lat="38.4833380" lon="-0.6347980">
        <ele>579.4</ele>
        <time>2018-10-27T08:30:08Z</time>
      </trkpt>
      <trkpt lat="38.4833210" lon="-0.6348250">
        <ele>579.4</ele>
        <time>2018-10-27T08:30:09Z</time>
      </trkpt>
      <trkpt lat="38.4832710" lon="-0.6349020">
        <ele>579.0</ele>
        <time>2018-10-27T08:30:12Z</time>
      </trkpt>
      <trkpt lat="38.4831980" lon="-0.6349980">
        <ele>578.8</ele>
        <time>2018-10-27T08:30:16Z</time>
      </trkpt>
      <trkpt lat="38.4831600" lon="-0.6350440">
        <ele>578.4</ele>
        <time>2018-10-27T08:30:18Z</time>
      </trkpt>
      <trkpt lat="38.4831000" lon="-0.6351080">
        <ele>578.0</ele>
        <time>2018-10-27T08:30:21Z</time>
      </trkpt>
      <trkpt lat="38.4830190" lon="-0.6351950">
        <ele>577.4</ele>
        <time>2018-10-27T08:30:25Z</time>
      </trkpt>
      <trkpt lat="38.4829790" lon="-0.6352360">
        <ele>576.8</ele>
        <time>2018-10-27T08:30:27Z</time>
      </trkpt>
      <trkpt lat="38.4829370" lon="-0.6352780">
        <ele>576.2</ele>
        <time>2018-10-27T08:30:29Z</time>
      </trkpt>
      <trkpt lat="38.4828040" lon="-0.6353940">
        <ele>575.4</ele>
        <time>2018-10-27T08:30:35Z</time>
      </trkpt>
      <trkpt lat="38.4827010" lon="-0.6355040">
        <ele>574.8</ele>
        <time>2018-10-27T08:30:40Z</time>
      </trkpt>
      <trkpt lat="38.4826250" lon="-0.6355780">
        <ele>574.4</ele>
        <time>2018-10-27T08:30:44Z</time>
      </trkpt>
      <trkpt lat="38.4825500" lon="-0.6356410">
        <ele>574.6</ele>
        <time>2018-10-27T08:30:48Z</time>
      </trkpt>
      <trkpt lat="38.4824350" lon="-0.6356810">
        <ele>574.4</ele>
        <time>2018-10-27T08:30:53Z</time>
      </trkpt>
      <trkpt lat="38.4822770" lon="-0.6357470">
        <ele>574.4</ele>
        <time>2018-10-27T08:31:00Z</time>
      </trkpt>
      <trkpt lat="38.4822380" lon="-0.6357740">
        <ele>574.4</ele>
        <time>2018-10-27T08:31:02Z</time>
      </trkpt>
      <trkpt lat="38.4821760" lon="-0.6358110">
        <ele>574.4</ele>
        <time>2018-10-27T08:31:05Z</time>
      </trkpt>
      <trkpt lat="38.4821050" lon="-0.6358390">
        <ele>574.6</ele>
        <time>2018-10-27T08:31:08Z</time>
      </trkpt>
      <trkpt lat="38.4820820" lon="-0.6358490">
        <ele>574.6</ele>
        <time>2018-10-27T08:31:09Z</time>
      </trkpt>
      <trkpt lat="38.4820590" lon="-0.6358570">
        <ele>574.6</ele>
        <time>2018-10-27T08:31:10Z</time>
      </trkpt>
      <trkpt lat="38.4819660" lon="-0.6358930">
        <ele>575.0</ele>
        <time>2018-10-27T08:31:14Z</time>
      </trkpt>
      <trkpt lat="38.4818960" lon="-0.6359180">
        <ele>575.2</ele>
        <time>2018-10-27T08:31:17Z</time>
      </trkpt>
      <trkpt lat="38.4816990" lon="-0.6359550">
        <ele>575.6</ele>
        <time>2018-10-27T08:31:25Z</time>
      </trkpt>
      <trkpt lat="38.4816210" lon="-0.6359540">
        <ele>576.0</ele>
        <time>2018-10-27T08:31:28Z</time>
      </trkpt>
      <trkpt lat="38.4815450" lon="-0.6359700">
        <ele>576.4</ele>
        <time>2018-10-27T08:31:31Z</time>
      </trkpt>
      <trkpt lat="38.4814940" lon="-0.6359860">
        <ele>576.4</ele>
        <time>2018-10-27T08:31:33Z</time>
      </trkpt>
      <trkpt lat="38.4813120" lon="-0.6360150">
        <ele>575.4</ele>
        <time>2018-10-27T08:31:40Z</time>
      </trkpt>
      <trkpt lat="38.4812850" lon="-0.6360190">
        <ele>575.4</ele>
        <time>2018-10-27T08:31:41Z</time>
      </trkpt>
      <trkpt lat="38.4811620" lon="-0.6360240">
        <ele>574.8</ele>
        <time>2018-10-27T08:31:46Z</time>
      </trkpt>
      <trkpt lat="38.4810890" lon="-0.6360140">
        <ele>573.6</ele>
        <time>2018-10-27T08:31:49Z</time>
      </trkpt>
      <trkpt lat="38.4808900" lon="-0.6360280">
        <ele>573.2</ele>
        <time>2018-10-27T08:31:57Z</time>
      </trkpt>
      <trkpt lat="38.4807400" lon="-0.6360760">
        <ele>573.4</ele>
        <time>2018-10-27T08:32:03Z</time>
      </trkpt>
      <trkpt lat="38.4806900" lon="-0.6360950">
        <ele>573.0</ele>
        <time>2018-10-27T08:32:05Z</time>
      </trkpt>
      <trkpt lat="38.4806120" lon="-0.6361250">
        <ele>572.4</ele>
        <time>2018-10-27T08:32:08Z</time>
      </trkpt>
      <trkpt lat="38.4805100" lon="-0.6361560">
        <ele>572.0</ele>
        <time>2018-10-27T08:32:12Z</time>
      </trkpt>
      <trkpt lat="38.4804840" lon="-0.6361600">
        <ele>572.0</ele>
        <time>2018-10-27T08:32:13Z</time>
      </trkpt>
      <trkpt lat="38.4804050" lon="-0.6361830">
        <ele>571.8</ele>
        <time>2018-10-27T08:32:16Z</time>
      </trkpt>
      <trkpt lat="38.4803080" lon="-0.6362100">
        <ele>571.8</ele>
        <time>2018-10-27T08:32:20Z</time>
      </trkpt>
      <trkpt lat="38.4802880" lon="-0.6362200">
        <ele>571.8</ele>
        <time>2018-10-27T08:32:21Z</time>
      </trkpt>
      <trkpt lat="38.4801900" lon="-0.6362970">
        <ele>572.4</ele>
        <time>2018-10-27T08:32:26Z</time>
      </trkpt>
      <trkpt lat="38.4801330" lon="-0.6363570">
        <ele>572.6</ele>
        <time>2018-10-27T08:32:29Z</time>
      </trkpt>
      <trkpt lat="38.4799810" lon="-0.6364820">
        <ele>572.4</ele>
        <time>2018-10-27T08:32:36Z</time>
      </trkpt>
      <trkpt lat="38.4799590" lon="-0.6364990">
        <ele>572.2</ele>
        <time>2018-10-27T08:32:37Z</time>
      </trkpt>
      <trkpt lat="38.4798530" lon="-0.6365810">
        <ele>571.2</ele>
        <time>2018-10-27T08:32:42Z</time>
      </trkpt>
      <trkpt lat="38.4797680" lon="-0.6366490">
        <ele>570.0</ele>
        <time>2018-10-27T08:32:46Z</time>
      </trkpt>
      <trkpt lat="38.4795960" lon="-0.6367820">
        <ele>569.0</ele>
        <time>2018-10-27T08:32:54Z</time>
      </trkpt>
      <trkpt lat="38.4795500" lon="-0.6368240">
        <ele>568.8</ele>
        <time>2018-10-27T08:32:56Z</time>
      </trkpt>
      <trkpt lat="38.4794920" lon="-0.6368910">
        <ele>568.6</ele>
        <time>2018-10-27T08:32:59Z</time>
      </trkpt>
      <trkpt lat="38.4794020" lon="-0.6370200">
        <ele>568.2</ele>
        <time>2018-10-27T08:33:04Z</time>
      </trkpt>
      <trkpt lat="38.4793460" lon="-0.6370950">
        <ele>568.0</ele>
        <time>2018-10-27T08:33:07Z</time>
      </trkpt>
      <trkpt lat="38.4792780" lon="-0.6371860">
        <ele>567.2</ele>
        <time>2018-10-27T08:33:11Z</time>
      </trkpt>
      <trkpt lat="38.4791900" lon="-0.6373070">
        <ele>566.8</ele>
        <time>2018-10-27T08:33:16Z</time>
      </trkpt>
      <trkpt lat="38.4791280" lon="-0.6374060">
        <ele>566.4</ele>
        <time>2018-10-27T08:33:20Z</time>
      </trkpt>
      <trkpt lat="38.4790160" lon="-0.6376030">
        <ele>566.2</ele>
        <time>2018-10-27T08:33:28Z</time>
      </trkpt>
      <trkpt lat="38.4789420" lon="-0.6377540">
        <ele>565.8</ele>
        <time>2018-10-27T08:33:34Z</time>
      </trkpt>
      <trkpt lat="38.4789240" lon="-0.6378060">
        <ele>566.0</ele>
        <time>2018-10-27T08:33:36Z</time>
      </trkpt>
      <trkpt lat="38.4788270" lon="-0.6380210">
        <ele>565.8</ele>
        <time>2018-10-27T08:33:44Z</time>
      </trkpt>
      <trkpt lat="38.4787810" lon="-0.6381680">
        <ele>565.2</ele>
        <time>2018-10-27T08:33:49Z</time>
      </trkpt>
      <trkpt lat="38.4787560" lon="-0.6382550">
        <ele>565.2</ele>
        <time>2018-10-27T08:33:52Z</time>
      </trkpt>
      <trkpt lat="38.4786980" lon="-0.6384970">
        <ele>564.6</ele>
        <time>2018-10-27T08:34:00Z</time>
      </trkpt>
      <trkpt lat="38.4786740" lon="-0.6386500">
        <ele>564.4</ele>
        <time>2018-10-27T08:34:05Z</time>
      </trkpt>
      <trkpt lat="38.4786720" lon="-0.6386810">
        <ele>564.4</ele>
        <time>2018-10-27T08:34:06Z</time>
      </trkpt>
      <trkpt lat="38.4786440" lon="-0.6388970">
        <ele>564.2</ele>
        <time>2018-10-27T08:34:13Z</time>
      </trkpt>
      <trkpt lat="38.4786300" lon="-0.6390670">
        <ele>564.0</ele>
        <time>2018-10-27T08:34:19Z</time>
      </trkpt>
      <trkpt lat="38.4786320" lon="-0.6390960">
        <ele>564.0</ele>
        <time>2018-10-27T08:34:20Z</time>
      </trkpt>
      <trkpt lat="38.4786280" lon="-0.6391870">
        <ele>564.0</ele>
        <time>2018-10-27T08:34:23Z</time>
      </trkpt>
      <trkpt lat="38.4786350" lon="-0.6393050">
        <ele>564.2</ele>
        <time>2018-10-27T08:34:27Z</time>
      </trkpt>
      <trkpt lat="38.4786570" lon="-0.6394990">
        <ele>563.8</ele>
        <time>2018-10-27T08:34:34Z</time>
      </trkpt>
      <trkpt lat="38.4786660" lon="-0.6396180">
        <ele>563.6</ele>
        <time>2018-10-27T08:34:38Z</time>
      </trkpt>
      <trkpt lat="38.4786650" lon="-0.6396770">
        <ele>563.4</ele>
        <time>2018-10-27T08:34:40Z</time>
      </trkpt>
      <trkpt lat="38.4786680" lon="-0.6397060">
        <ele>563.2</ele>
        <time>2018-10-27T08:34:41Z</time>
      </trkpt>
      <trkpt lat="38.4786760" lon="-0.6397630">
        <ele>562.4</ele>
        <time>2018-10-27T08:34:43Z</time>
      </trkpt>
      <trkpt lat="38.4786870" lon="-0.6398840">
        <ele>562.0</ele>
        <time>2018-10-27T08:34:47Z</time>
      </trkpt>
      <trkpt lat="38.4786930" lon="-0.6399790">
        <ele>562.0</ele>
        <time>2018-10-27T08:34:50Z</time>
      </trkpt>
      <trkpt lat="38.4787100" lon="-0.6401640">
        <ele>561.6</ele>
        <time>2018-10-27T08:34:56Z</time>
      </trkpt>
      <trkpt lat="38.4787380" lon="-0.6403750">
        <ele>562.0</ele>
        <time>2018-10-27T08:35:03Z</time>
      </trkpt>
      <trkpt lat="38.4787740" lon="-0.6405970">
        <ele>561.6</ele>
        <time>2018-10-27T08:35:10Z</time>
      </trkpt>
      <trkpt lat="38.4788000" lon="-0.6407970">
        <ele>561.4</ele>
        <time>2018-10-27T08:35:16Z</time>
      </trkpt>
      <trkpt lat="38.4788110" lon="-0.6408620">
        <ele>561.0</ele>
        <time>2018-10-27T08:35:18Z</time>
      </trkpt>
      <trkpt lat="38.4788400" lon="-0.6409870">
        <ele>560.8</ele>
        <time>2018-10-27T08:35:22Z</time>
      </trkpt>
      <trkpt lat="38.4788760" lon="-0.6411120">
        <ele>560.6</ele>
        <time>2018-10-27T08:35:26Z</time>
      </trkpt>
      <trkpt lat="38.4788760" lon="-0.6411120">
        <ele>560.6</ele>
        <time>2018-10-27T08:35:34Z</time>
      </trkpt>
      <trkpt lat="38.4788760" lon="-0.6411120">
        <ele>560.6</ele>
        <time>2018-10-27T08:35:42Z</time>
      </trkpt>
      <trkpt lat="38.4788760" lon="-0.6411120">
        <ele>560.2</ele>
        <time>2018-10-27T08:35:46Z</time>
      </trkpt>
      <trkpt lat="38.4788760" lon="-0.6411120">
        <ele>559.0</ele>
        <time>2018-10-27T08:35:54Z</time>
      </trkpt>
      <trkpt lat="38.4788760" lon="-0.6411120">
        <ele>559.0</ele>
        <time>2018-10-27T08:35:56Z</time>
      </trkpt>
      <trkpt lat="38.4788760" lon="-0.6411120">
        <ele>558.8</ele>
        <time>2018-10-27T08:35:58Z</time>
      </trkpt>
      <trkpt lat="38.4788760" lon="-0.6411120">
        <ele>558.0</ele>
        <time>2018-10-27T08:36:03Z</time>
      </trkpt>
      <trkpt lat="38.4788760" lon="-0.6411120">
        <ele>557.6</ele>
        <time>2018-10-27T08:36:09Z</time>
      </trkpt>
      <trkpt lat="38.4788760" lon="-0.6411120">
        <ele>557.2</ele>
        <time>2018-10-27T08:36:17Z</time>
      </trkpt>
      <trkpt lat="38.4788760" lon="-0.6411120">
        <ele>557.2</ele>
        <time>2018-10-27T08:36:25Z</time>
      </trkpt>
      <trkpt lat="38.4788760" lon="-0.6411120">
        <ele>557.0</ele>
        <time>2018-10-27T08:36:30Z</time>
      </trkpt>
      <trkpt lat="38.4788760" lon="-0.6411120">
        <ele>556.6</ele>
        <time>2018-10-27T08:36:38Z</time>
      </trkpt>
      <trkpt lat="38.4788760" lon="-0.6411120">
        <ele>556.6</ele>
        <time>2018-10-27T08:36:46Z</time>
      </trkpt>
      <trkpt lat="38.4788760" lon="-0.6411120">
        <ele>556.4</ele>
        <time>2018-10-27T08:36:54Z</time>
      </trkpt>
      <trkpt lat="38.4783500" lon="-0.6438270">
        <ele>556.4</ele>
        <time>2018-10-27T08:36:55Z</time>
      </trkpt>
      <trkpt lat="38.4783400" lon="-0.6438460">
        <ele>556.4</ele>
        <time>2018-10-27T08:36:57Z</time>
      </trkpt>
      <trkpt lat="38.4783210" lon="-0.6438900">
        <ele>556.2</ele>
        <time>2018-10-27T08:37:00Z</time>
      </trkpt>
      <trkpt lat="38.4782780" lon="-0.6439440">
        <ele>556.0</ele>
        <time>2018-10-27T08:37:02Z</time>
      </trkpt>
      <trkpt lat="38.4782380" lon="-0.6440070">
        <ele>556.4</ele>
        <time>2018-10-27T08:37:04Z</time>
      </trkpt>
      <trkpt lat="38.4782050" lon="-0.6440550">
        <ele>556.0</ele>
        <time>2018-10-27T08:37:06Z</time>
      </trkpt>
      <trkpt lat="38.4781780" lon="-0.6441020">
        <ele>555.8</ele>
        <time>2018-10-27T08:37:08Z</time>
      </trkpt>
      <trkpt lat="38.4781080" lon="-0.6441920">
        <ele>555.0</ele>
        <time>2018-10-27T08:37:12Z</time>
      </trkpt>
      <trkpt lat="38.4780520" lon="-0.6442590">
        <ele>554.8</ele>
        <time>2018-10-27T08:37:15Z</time>
      </trkpt>
      <trkpt lat="38.4780150" lon="-0.6443030">
        <ele>554.6</ele>
        <time>2018-10-27T08:37:17Z</time>
      </trkpt>
      <trkpt lat="38.4779800" lon="-0.6443510">
        <ele>554.4</ele>
        <time>2018-10-27T08:37:19Z</time>
      </trkpt>
      <trkpt lat="38.4778540" lon="-0.6445220">
        <ele>553.6</ele>
        <time>2018-10-27T08:37:26Z</time>
      </trkpt>
      <trkpt lat="38.4778360" lon="-0.6445450">
        <ele>553.6</ele>
        <time>2018-10-27T08:37:27Z</time>
      </trkpt>
      <trkpt lat="38.4777130" lon="-0.6446760">
        <ele>553.0</ele>
        <time>2018-10-27T08:37:33Z</time>
      </trkpt>
      <trkpt lat="38.4776480" lon="-0.6447380">
        <ele>553.0</ele>
        <time>2018-10-27T08:37:36Z</time>
      </trkpt>
      <trkpt lat="38.4775570" lon="-0.6448160">
        <ele>552.6</ele>
        <time>2018-10-27T08:37:40Z</time>
      </trkpt>
      <trkpt lat="38.4774670" lon="-0.6448840">
        <ele>552.4</ele>
        <time>2018-10-27T08:37:44Z</time>
      </trkpt>
      <trkpt lat="38.4773260" lon="-0.6450010">
        <ele>552.4</ele>
        <time>2018-10-27T08:37:50Z</time>
      </trkpt>
      <trkpt lat="38.4771470" lon="-0.6451290">
        <ele>552.0</ele>
        <time>2018-10-27T08:37:57Z</time>
      </trkpt>
      <trkpt lat="38.4771000" lon="-0.6451610">
        <ele>552.0</ele>
        <time>2018-10-27T08:37:59Z</time>
      </trkpt>
      <trkpt lat="38.4770250" lon="-0.6452160">
        <ele>551.4</ele>
        <time>2018-10-27T08:38:02Z</time>
      </trkpt>
      <trkpt lat="38.4769060" lon="-0.6453240">
        <ele>551.2</ele>
        <time>2018-10-27T08:38:07Z</time>
      </trkpt>
      <trkpt lat="38.4769060" lon="-0.6453240">
        <ele>550.8</ele>
        <time>2018-10-27T08:38:14Z</time>
      </trkpt>
      <trkpt lat="38.4769060" lon="-0.6453240">
        <ele>550.8</ele>
        <time>2018-10-27T08:38:17Z</time>
      </trkpt>
      <trkpt lat="38.4769060" lon="-0.6453240">
        <ele>550.4</ele>
        <time>2018-10-27T08:38:21Z</time>
      </trkpt>
      <trkpt lat="38.4769060" lon="-0.6453240">
        <ele>550.2</ele>
        <time>2018-10-27T08:38:26Z</time>
      </trkpt>
      <trkpt lat="38.4769060" lon="-0.6453240">
        <ele>549.8</ele>
        <time>2018-10-27T08:38:33Z</time>
      </trkpt>
      <trkpt lat="38.4769060" lon="-0.6453240">
        <ele>549.6</ele>
        <time>2018-10-27T08:38:40Z</time>
      </trkpt>
      <trkpt lat="38.4769060" lon="-0.6453240">
        <ele>549.2</ele>
        <time>2018-10-27T08:38:43Z</time>
      </trkpt>
      <trkpt lat="38.4769060" lon="-0.6453240">
        <ele>548.6</ele>
        <time>2018-10-27T08:38:50Z</time>
      </trkpt>
      <trkpt lat="38.4769060" lon="-0.6453240">
        <ele>548.2</ele>
        <time>2018-10-27T08:38:56Z</time>
      </trkpt>
      <trkpt lat="38.4769060" lon="-0.6453240">
        <ele>547.8</ele>
        <time>2018-10-27T08:38:59Z</time>
      </trkpt>
      <trkpt lat="38.4759400" lon="-0.6466140">
        <ele>547.6</ele>
        <time>2018-10-27T08:39:01Z</time>
      </trkpt>
      <trkpt lat="38.4759410" lon="-0.6466170">
        <ele>547.6</ele>
        <time>2018-10-27T08:39:02Z</time>
      </trkpt>
      <trkpt lat="38.4759440" lon="-0.6466570">
        <ele>547.6</ele>
        <time>2018-10-27T08:39:03Z</time>
      </trkpt>
      <trkpt lat="38.4758570" lon="-0.6468430">
        <ele>547.4</ele>
        <time>2018-10-27T08:39:09Z</time>
      </trkpt>
      <trkpt lat="38.4758220" lon="-0.6469330">
        <ele>547.2</ele>
        <time>2018-10-27T08:39:12Z</time>
      </trkpt>
      <trkpt lat="38.4757870" lon="-0.6470140">
        <ele>546.6</ele>
        <time>2018-10-27T08:39:15Z</time>
      </trkpt>
      <trkpt lat="38.4757270" lon="-0.6471730">
        <ele>546.2</ele>
        <time>2018-10-27T08:39:21Z</time>
      </trkpt>
      <trkpt lat="38.4757140" lon="-0.6472020">
        <ele>546.0</ele>
        <time>2018-10-27T08:39:22Z</time>
      </trkpt>
      <trkpt lat="38.4756760" lon="-0.6472840">
        <ele>545.8</ele>
        <time>2018-10-27T08:39:25Z</time>
      </trkpt>
      <trkpt lat="38.4756460" lon="-0.6473370">
        <ele>545.6</ele>
        <time>2018-10-27T08:39:27Z</time>
      </trkpt>
      <trkpt lat="38.4756210" lon="-0.6473940">
        <ele>545.4</ele>
        <time>2018-10-27T08:39:29Z</time>
      </trkpt>
      <trkpt lat="38.4755880" lon="-0.6474760">
        <ele>545.0</ele>
        <time>2018-10-27T08:39:32Z</time>
      </trkpt>
      <trkpt lat="38.4755340" lon="-0.6476150">
        <ele>544.4</ele>
        <time>2018-10-27T08:39:37Z</time>
      </trkpt>
      <trkpt lat="38.4755150" lon="-0.6476730">
        <ele>544.0</ele>
        <time>2018-10-27T08:39:39Z</time>
      </trkpt>
      <trkpt lat="38.4754730" lon="-0.6477900">
        <ele>544.0</ele>
        <time>2018-10-27T08:39:43Z</time>
      </trkpt>
      <trkpt lat="38.4754610" lon="-0.6478230">
        <ele>544.0</ele>
        <time>2018-10-27T08:39:44Z</time>
      </trkpt>
      <trkpt lat="38.4754110" lon="-0.6479750">
        <ele>543.8</ele>
        <time>2018-10-27T08:39:49Z</time>
      </trkpt>
      <trkpt lat="38.4753730" lon="-0.6480650">
        <ele>543.6</ele>
        <time>2018-10-27T08:39:52Z</time>
      </trkpt>
      <trkpt lat="38.4753160" lon="-0.6481700">
        <ele>543.6</ele>
        <time>2018-10-27T08:39:56Z</time>
      </trkpt>
      <trkpt lat="38.4752910" lon="-0.6482300">
        <ele>543.6</ele>
        <time>2018-10-27T08:39:58Z</time>
      </trkpt>
      <trkpt lat="38.4752800" lon="-0.6482580">
        <ele>543.6</ele>
        <time>2018-10-27T08:39:59Z</time>
      </trkpt>
      <trkpt lat="38.4752630" lon="-0.6483110">
        <ele>543.2</ele>
        <time>2018-10-27T08:40:01Z</time>
      </trkpt>
      <trkpt lat="38.4752520" lon="-0.6483390">
        <ele>543.0</ele>
        <time>2018-10-27T08:40:02Z</time>
      </trkpt>
      <trkpt lat="38.4752150" lon="-0.6484490">
        <ele>542.6</ele>
        <time>2018-10-27T08:40:06Z</time>
      </trkpt>
      <trkpt lat="38.4751990" lon="-0.6485040">
        <ele>542.2</ele>
        <time>2018-10-27T08:40:08Z</time>
      </trkpt>
      <trkpt lat="38.4751830" lon="-0.6485600">
        <ele>542.0</ele>
        <time>2018-10-27T08:40:10Z</time>
      </trkpt>
      <trkpt lat="38.4751230" lon="-0.6487530">
        <ele>541.8</ele>
        <time>2018-10-27T08:40:17Z</time>
      </trkpt>
      <trkpt lat="38.4751040" lon="-0.6488160">
        <ele>542.2</ele>
        <time>2018-10-27T08:40:19Z</time>
      </trkpt>
      <trkpt lat="38.4750490" lon="-0.6489890">
        <ele>542.8</ele>
        <time>2018-10-27T08:40:25Z</time>
      </trkpt>
      <trkpt lat="38.4750010" lon="-0.6491210">
        <ele>543.0</ele>
        <time>2018-10-27T08:40:30Z</time>
      </trkpt>
      <trkpt lat="38.4749810" lon="-0.6491720">
        <ele>543.0</ele>
        <time>2018-10-27T08:40:32Z</time>
      </trkpt>
      <trkpt lat="38.4749020" lon="-0.6493750">
        <ele>543.2</ele>
        <time>2018-10-27T08:40:40Z</time>
      </trkpt>
      <trkpt lat="38.4748210" lon="-0.6495580">
        <ele>543.8</ele>
        <time>2018-10-27T08:40:47Z</time>
      </trkpt>
      <trkpt lat="38.4748010" lon="-0.6496090">
        <ele>544.0</ele>
        <time>2018-10-27T08:40:49Z</time>
      </trkpt>
      <trkpt lat="38.4747840" lon="-0.6496630">
        <ele>544.2</ele>
        <time>2018-10-27T08:40:51Z</time>
      </trkpt>
      <trkpt lat="38.4747530" lon="-0.6497380">
        <ele>544.0</ele>
        <time>2018-10-27T08:40:54Z</time>
      </trkpt>
      <trkpt lat="38.4746730" lon="-0.6499190">
        <ele>543.2</ele>
        <time>2018-10-27T08:41:01Z</time>
      </trkpt>
      <trkpt lat="38.4746640" lon="-0.6499470">
        <ele>543.0</ele>
        <time>2018-10-27T08:41:02Z</time>
      </trkpt>
      <trkpt lat="38.4746360" lon="-0.6500250">
        <ele>542.8</ele>
        <time>2018-10-27T08:41:05Z</time>
      </trkpt>
      <trkpt lat="38.4746030" lon="-0.6501250">
        <ele>542.4</ele>
        <time>2018-10-27T08:41:09Z</time>
      </trkpt>
      <trkpt lat="38.4745510" lon="-0.6503170">
        <ele>542.2</ele>
        <time>2018-10-27T08:41:16Z</time>
      </trkpt>
      <trkpt lat="38.4745920" lon="-0.6504270">
        <ele>542.0</ele>
        <time>2018-10-27T08:41:20Z</time>
      </trkpt>
      <trkpt lat="38.4746080" lon="-0.6504480">
        <ele>541.8</ele>
        <time>2018-10-27T08:41:21Z</time>
      </trkpt>
      <trkpt lat="38.4747570" lon="-0.6505460">
        <ele>542.2</ele>
        <time>2018-10-27T08:41:29Z</time>
      </trkpt>
      <trkpt lat="38.4748420" lon="-0.6505530">
        <ele>542.0</ele>
        <time>2018-10-27T08:41:33Z</time>
      </trkpt>
      <trkpt lat="38.4749090" lon="-0.6505580">
        <ele>542.2</ele>
        <time>2018-10-27T08:41:36Z</time>
      </trkpt>
      <trkpt lat="38.4749780" lon="-0.6505570">
        <ele>542.6</ele>
        <time>2018-10-27T08:41:39Z</time>
      </trkpt>
      <trkpt lat="38.4750010" lon="-0.6505540">
        <ele>543.0</ele>
        <time>2018-10-27T08:41:40Z</time>
      </trkpt>
      <trkpt lat="38.4750860" lon="-0.6505600">
        <ele>544.0</ele>
        <time>2018-10-27T08:41:44Z</time>
      </trkpt>
      <trkpt lat="38.4751480" lon="-0.6505620">
        <ele>544.6</ele>
        <time>2018-10-27T08:41:47Z</time>
      </trkpt>
      <trkpt lat="38.4751660" lon="-0.6505640">
        <ele>544.8</ele>
        <time>2018-10-27T08:41:48Z</time>
      </trkpt>
      <trkpt lat="38.4751840" lon="-0.6505650">
        <ele>545.0</ele>
        <time>2018-10-27T08:41:49Z</time>
      </trkpt>
      <trkpt lat="38.4752820" lon="-0.6505660">
        <ele>546.0</ele>
        <time>2018-10-27T08:41:54Z</time>
      </trkpt>
      <trkpt lat="38.4753010" lon="-0.6505650">
        <ele>546.4</ele>
        <time>2018-10-27T08:41:55Z</time>
      </trkpt>
      <trkpt lat="38.4753800" lon="-0.6505530">
        <ele>547.4</ele>
        <time>2018-10-27T08:41:59Z</time>
      </trkpt>
      <trkpt lat="38.4754430" lon="-0.6505460">
        <ele>547.8</ele>
        <time>2018-10-27T08:42:02Z</time>
      </trkpt>
      <trkpt lat="38.4755060" lon="-0.6505360">
        <ele>548.4</ele>
        <time>2018-10-27T08:42:05Z</time>
      </trkpt>
      <trkpt lat="38.4756090" lon="-0.6505280">
        <ele>549.6</ele>
        <time>2018-10-27T08:42:10Z</time>
      </trkpt>
      <trkpt lat="38.4756290" lon="-0.6505260">
        <ele>549.8</ele>
        <time>2018-10-27T08:42:11Z</time>
      </trkpt>
      <trkpt lat="38.4757350" lon="-0.6505160">
        <ele>550.8</ele>
        <time>2018-10-27T08:42:16Z</time>
      </trkpt>
      <trkpt lat="38.4757980" lon="-0.6505200">
        <ele>551.2</ele>
        <time>2018-10-27T08:42:19Z</time>
      </trkpt>
      <trkpt lat="38.4758400" lon="-0.6505200">
        <ele>551.4</ele>
        <time>2018-10-27T08:42:21Z</time>
      </trkpt>
      <trkpt lat="38.4759390" lon="-0.6505490">
        <ele>551.6</ele>
        <time>2018-10-27T08:42:26Z</time>
      </trkpt>
      <trkpt lat="38.4759770" lon="-0.6505610">
        <ele>551.8</ele>
        <time>2018-10-27T08:42:28Z</time>
      </trkpt>
      <trkpt lat="38.4760690" lon="-0.6505820">
        <ele>552.2</ele>
        <time>2018-10-27T08:42:33Z</time>
      </trkpt>
      <trkpt lat="38.4761230" lon="-0.6505990">
        <ele>552.8</ele>
        <time>2018-10-27T08:42:36Z</time>
      </trkpt>
      <trkpt lat="38.4761820" lon="-0.6506170">
        <ele>554.0</ele>
        <time>2018-10-27T08:42:39Z</time>
      </trkpt>
      <trkpt lat="38.4762170" lon="-0.6506360">
        <ele>554.2</ele>
        <time>2018-10-27T08:42:41Z</time>
      </trkpt>
      <trkpt lat="38.4762730" lon="-0.6506620">
        <ele>555.0</ele>
        <time>2018-10-27T08:42:44Z</time>
      </trkpt>
      <trkpt lat="38.4763290" lon="-0.6506880">
        <ele>555.6</ele>
        <time>2018-10-27T08:42:47Z</time>
      </trkpt>
      <trkpt lat="38.4763790" lon="-0.6507110">
        <ele>556.2</ele>
        <time>2018-10-27T08:42:50Z</time>
      </trkpt>
      <trkpt lat="38.4764470" lon="-0.6507400">
        <ele>556.8</ele>
        <time>2018-10-27T08:42:54Z</time>
      </trkpt>
      <trkpt lat="38.4764810" lon="-0.6507620">
        <ele>557.2</ele>
        <time>2018-10-27T08:42:56Z</time>
      </trkpt>
      <trkpt lat="38.4765540" lon="-0.6508050">
        <ele>557.6</ele>
        <time>2018-10-27T08:43:00Z</time>
      </trkpt>
      <trkpt lat="38.4766600" lon="-0.6508530">
        <ele>557.8</ele>
        <time>2018-10-27T08:43:06Z</time>
      </trkpt>
      <trkpt lat="38.4767010" lon="-0.6508680">
        <ele>558.2</ele>
        <time>2018-10-27T08:43:08Z</time>
      </trkpt>
      <trkpt lat="38.4767780" lon="-0.6509110">
        <ele>559.0</ele>
        <time>2018-10-27T08:43:12Z</time>
      </trkpt>
      <trkpt lat="38.4768120" lon="-0.6509280">
        <ele>559.4</ele>
        <time>2018-10-27T08:43:14Z</time>
      </trkpt>
      <trkpt lat="38.4769030" lon="-0.6509670">
        <ele>559.8</ele>
        <time>2018-10-27T08:43:19Z</time>
      </trkpt>
      <trkpt lat="38.4769240" lon="-0.6509770">
        <ele>560.0</ele>
        <time>2018-10-27T08:43:20Z</time>
      </trkpt>
      <trkpt lat="38.4769800" lon="-0.6510030">
        <ele>560.6</ele>
        <time>2018-10-27T08:43:23Z</time>
      </trkpt>
      <trkpt lat="38.4770150" lon="-0.6510170">
        <ele>561.2</ele>
        <time>2018-10-27T08:43:25Z</time>
      </trkpt>
      <trkpt lat="38.4770520" lon="-0.6510330">
        <ele>562.0</ele>
        <time>2018-10-27T08:43:27Z</time>
      </trkpt>
      <trkpt lat="38.4771070" lon="-0.6510580">
        <ele>563.2</ele>
        <time>2018-10-27T08:43:30Z</time>
      </trkpt>
      <trkpt lat="38.4771800" lon="-0.6510890">
        <ele>564.4</ele>
        <time>2018-10-27T08:43:34Z</time>
      </trkpt>
      <trkpt lat="38.4771980" lon="-0.6510950">
        <ele>564.6</ele>
        <time>2018-10-27T08:43:35Z</time>
      </trkpt>
      <trkpt lat="38.4772390" lon="-0.6511040">
        <ele>565.4</ele>
        <time>2018-10-27T08:43:37Z</time>
      </trkpt>
      <trkpt lat="38.4773210" lon="-0.6511220">
        <ele>566.4</ele>
        <time>2018-10-27T08:43:41Z</time>
      </trkpt>
      <trkpt lat="38.4773640" lon="-0.6511380">
        <ele>566.6</ele>
        <time>2018-10-27T08:43:43Z</time>
      </trkpt>
      <trkpt lat="38.4774700" lon="-0.6511640">
        <ele>566.6</ele>
        <time>2018-10-27T08:43:48Z</time>
      </trkpt>
      <trkpt lat="38.4775180" lon="-0.6511720">
        <ele>566.6</ele>
        <time>2018-10-27T08:43:50Z</time>
      </trkpt>
      <trkpt lat="38.4775400" lon="-0.6511740">
        <ele>566.8</ele>
        <time>2018-10-27T08:43:51Z</time>
      </trkpt>
      <trkpt lat="38.4776420" lon="-0.6511860">
        <ele>567.4</ele>
        <time>2018-10-27T08:43:56Z</time>
      </trkpt>
      <trkpt lat="38.4776620" lon="-0.6511880">
        <ele>567.4</ele>
        <time>2018-10-27T08:43:57Z</time>
      </trkpt>
      <trkpt lat="38.4777840" lon="-0.6511880">
        <ele>567.4</ele>
        <time>2018-10-27T08:44:03Z</time>
      </trkpt>
      <trkpt lat="38.4778280" lon="-0.6511840">
        <ele>567.8</ele>
        <time>2018-10-27T08:44:05Z</time>
      </trkpt>
      <trkpt lat="38.4779380" lon="-0.6511680">
        <ele>568.0</ele>
        <time>2018-10-27T08:44:10Z</time>
      </trkpt>
      <trkpt lat="38.4779980" lon="-0.6511730">
        <ele>568.0</ele>
        <time>2018-10-27T08:44:13Z</time>
      </trkpt>
      <trkpt lat="38.4780550" lon="-0.6511950">
        <ele>568.0</ele>
        <time>2018-10-27T08:44:16Z</time>
      </trkpt>
      <trkpt lat="38.4781040" lon="-0.6512210">
        <ele>568.0</ele>
        <time>2018-10-27T08:44:19Z</time>
      </trkpt>
      <trkpt lat="38.4781370" lon="-0.6512440">
        <ele>568.0</ele>
        <time>2018-10-27T08:44:21Z</time>
      </trkpt>
      <trkpt lat="38.4782770" lon="-0.6513140">
        <ele>568.4</ele>
        <time>2018-10-27T08:44:29Z</time>
      </trkpt>
      <trkpt lat="38.4783090" lon="-0.6513320">
        <ele>568.4</ele>
        <time>2018-10-27T08:44:31Z</time>
      </trkpt>
      <trkpt lat="38.4783860" lon="-0.6513770">
        <ele>569.4</ele>
        <time>2018-10-27T08:44:36Z</time>
      </trkpt>
      <trkpt lat="38.4784010" lon="-0.6513840">
        <ele>569.6</ele>
        <time>2018-10-27T08:44:37Z</time>
      </trkpt>
      <trkpt lat="38.4784460" lon="-0.6514080">
        <ele>570.0</ele>
        <time>2018-10-27T08:44:40Z</time>
      </trkpt>
      <trkpt lat="38.4785010" lon="-0.6514320">
        <ele>570.6</ele>
        <time>2018-10-27T08:44:43Z</time>
      </trkpt>
      <trkpt lat="38.4785190" lon="-0.6514370">
        <ele>570.8</ele>
        <time>2018-10-27T08:44:44Z</time>
      </trkpt>
      <trkpt lat="38.4785880" lon="-0.6514700">
        <ele>572.0</ele>
        <time>2018-10-27T08:44:48Z</time>
      </trkpt>
      <trkpt lat="38.4786220" lon="-0.6514870">
        <ele>572.6</ele>
        <time>2018-10-27T08:44:50Z</time>
      </trkpt>
      <trkpt lat="38.4786570" lon="-0.6515100">
        <ele>573.0</ele>
        <time>2018-10-27T08:44:52Z</time>
      </trkpt>
      <trkpt lat="38.4786760" lon="-0.6515220">
        <ele>573.0</ele>
        <time>2018-10-27T08:44:53Z</time>
      </trkpt>
      <trkpt lat="38.4787090" lon="-0.6515470">
        <ele>573.2</ele>
        <time>2018-10-27T08:44:55Z</time>
      </trkpt>
      <trkpt lat="38.4787440" lon="-0.6515770">
        <ele>573.2</ele>
        <time>2018-10-27T08:44:57Z</time>
      </trkpt>
      <trkpt lat="38.4788280" lon="-0.6516630">
        <ele>574.2</ele>
        <time>2018-10-27T08:45:02Z</time>
      </trkpt>
      <trkpt lat="38.4788440" lon="-0.6516780">
        <ele>574.4</ele>
        <time>2018-10-27T08:45:03Z</time>
      </trkpt>
      <trkpt lat="38.4789510" lon="-0.6518030">
        <ele>575.2</ele>
        <time>2018-10-27T08:45:10Z</time>
      </trkpt>
      <trkpt lat="38.4789660" lon="-0.6518160">
        <ele>575.6</ele>
        <time>2018-10-27T08:45:11Z</time>
      </trkpt>
      <trkpt lat="38.4790730" lon="-0.6519050">
        <ele>576.6</ele>
        <time>2018-10-27T08:45:18Z</time>
      </trkpt>
      <trkpt lat="38.4790880" lon="-0.6519170">
        <ele>576.8</ele>
        <time>2018-10-27T08:45:19Z</time>
      </trkpt>
      <trkpt lat="38.4792210" lon="-0.6520050">
        <ele>577.4</ele>
        <time>2018-10-27T08:45:26Z</time>
      </trkpt>
      <trkpt lat="38.4792600" lon="-0.6520270">
        <ele>577.6</ele>
        <time>2018-10-27T08:45:28Z</time>
      </trkpt>
      <trkpt lat="38.4793930" lon="-0.6520870">
        <ele>578.0</ele>
        <time>2018-10-27T08:45:34Z</time>
      </trkpt>
      <trkpt lat="38.4795020" lon="-0.6521560">
        <ele>578.4</ele>
        <time>2018-10-27T08:45:40Z</time>
      </trkpt>
      <trkpt lat="38.4795810" lon="-0.6522100">
        <ele>578.6</ele>
        <time>2018-10-27T08:45:44Z</time>
      </trkpt>
      <trkpt lat="38.4796570" lon="-0.6522530">
        <ele>579.2</ele>
        <time>2018-10-27T08:45:48Z</time>
      </trkpt>
      <trkpt lat="38.4797190" lon="-0.6522730">
        <ele>579.6</ele>
        <time>2018-10-27T08:45:51Z</time>
      </trkpt>
      <trkpt lat="38.4797980" lon="-0.6523030">
        <ele>580.2</ele>
        <time>2018-10-27T08:45:55Z</time>
      </trkpt>
      <trkpt lat="38.4798590" lon="-0.6523270">
        <ele>580.8</ele>
        <time>2018-10-27T08:45:58Z</time>
      </trkpt>
      <trkpt lat="38.4799090" lon="-0.6523660">
        <ele>581.2</ele>
        <time>2018-10-27T08:46:01Z</time>
      </trkpt>
      <trkpt lat="38.4799250" lon="-0.6523920">
        <ele>581.4</ele>
        <time>2018-10-27T08:46:02Z</time>
      </trkpt>
      <trkpt lat="38.4799830" lon="-0.6525110">
        <ele>581.6</ele>
        <time>2018-10-27T08:46:07Z</time>
      </trkpt>
      <trkpt lat="38.4799960" lon="-0.6525330">
        <ele>581.8</ele>
        <time>2018-10-27T08:46:08Z</time>
      </trkpt>
      <trkpt lat="38.4800660" lon="-0.6526270">
        <ele>582.4</ele>
        <time>2018-10-27T08:46:13Z</time>
      </trkpt>
      <trkpt lat="38.4801240" lon="-0.6526770">
        <ele>582.8</ele>
        <time>2018-10-27T08:46:17Z</time>
      </trkpt>
      <trkpt lat="38.4801550" lon="-0.6526920">
        <ele>583.0</ele>
        <time>2018-10-27T08:46:19Z</time>
      </trkpt>
      <trkpt lat="38.4802260" lon="-0.6527440">
        <ele>584.0</ele>
        <time>2018-10-27T08:46:24Z</time>
      </trkpt>
      <trkpt lat="38.4802600" lon="-0.6527690">
        <ele>584.4</ele>
        <time>2018-10-27T08:46:26Z</time>
      </trkpt>
      <trkpt lat="38.4802920" lon="-0.6528010">
        <ele>585.4</ele>
        <time>2018-10-27T08:46:28Z</time>
      </trkpt>
      <trkpt lat="38.4803360" lon="-0.6528600">
        <ele>586.4</ele>
        <time>2018-10-27T08:46:31Z</time>
      </trkpt>
      <trkpt lat="38.4803490" lon="-0.6528790">
        <ele>586.8</ele>
        <time>2018-10-27T08:46:32Z</time>
      </trkpt>
      <trkpt lat="38.4804300" lon="-0.6529850">
        <ele>587.2</ele>
        <time>2018-10-27T08:46:38Z</time>
      </trkpt>
      <trkpt lat="38.4804550" lon="-0.6530270">
        <ele>587.2</ele>
        <time>2018-10-27T08:46:40Z</time>
      </trkpt>
      <trkpt lat="38.4804880" lon="-0.6530760">
        <ele>587.4</ele>
        <time>2018-10-27T08:46:43Z</time>
      </trkpt>
      <trkpt lat="38.4805060" lon="-0.6530990">
        <ele>587.8</ele>
        <time>2018-10-27T08:46:46Z</time>
      </trkpt>
      <trkpt lat="38.4805120" lon="-0.6530980">
        <ele>588.2</ele>
        <time>2018-10-27T08:46:50Z</time>
      </trkpt>
      <trkpt lat="38.4805110" lon="-0.6530940">
        <ele>588.2</ele>
        <time>2018-10-27T08:46:52Z</time>
      </trkpt>
      <trkpt lat="38.4806090" lon="-0.6531680">
        <ele>588.2</ele>
        <time>2018-10-27T08:47:20Z</time>
      </trkpt>
      <trkpt lat="38.4806260" lon="-0.6531830">
        <ele>588.4</ele>
        <time>2018-10-27T08:47:21Z</time>
      </trkpt>
      <trkpt lat="38.4806650" lon="-0.6532170">
        <ele>588.6</ele>
        <time>2018-10-27T08:47:23Z</time>
      </trkpt>
      <trkpt lat="38.4806980" lon="-0.6532460">
        <ele>590.2</ele>
        <time>2018-10-27T08:47:25Z</time>
      </trkpt>
      <trkpt lat="38.4807310" lon="-0.6532770">
        <ele>591.6</ele>
        <time>2018-10-27T08:47:27Z</time>
      </trkpt>
      <trkpt lat="38.4807450" lon="-0.6532930">
        <ele>591.8</ele>
        <time>2018-10-27T08:47:28Z</time>
      </trkpt>
      <trkpt lat="38.4808700" lon="-0.6534220">
        <ele>592.4</ele>
        <time>2018-10-27T08:47:35Z</time>
      </trkpt>
      <trkpt lat="38.4809730" lon="-0.6535320">
        <ele>592.4</ele>
        <time>2018-10-27T08:47:41Z</time>
      </trkpt>
      <trkpt lat="38.4810040" lon="-0.6535740">
        <ele>592.8</ele>
        <time>2018-10-27T08:47:43Z</time>
      </trkpt>
      <trkpt lat="38.4811100" lon="-0.6536990">
        <ele>594.0</ele>
        <time>2018-10-27T08:47:49Z</time>
      </trkpt>
      <trkpt lat="38.4811280" lon="-0.6537220">
        <ele>594.2</ele>
        <time>2018-10-27T08:47:50Z</time>
      </trkpt>
      <trkpt lat="38.4812280" lon="-0.6538380">
        <ele>594.8</ele>
        <time>2018-10-27T08:47:56Z</time>
      </trkpt>
      <trkpt lat="38.4812430" lon="-0.6538560">
        <ele>595.2</ele>
        <time>2018-10-27T08:47:57Z</time>
      </trkpt>
      <trkpt lat="38.4813030" lon="-0.6539280">
        <ele>596.6</ele>
        <time>2018-10-27T08:48:01Z</time>
      </trkpt>
      <trkpt lat="38.4813320" lon="-0.6539710">
        <ele>597.8</ele>
        <time>2018-10-27T08:48:03Z</time>
      </trkpt>
      <trkpt lat="38.4813640" lon="-0.6540130">
        <ele>598.8</ele>
        <time>2018-10-27T08:48:05Z</time>
      </trkpt>
      <trkpt lat="38.4814670" lon="-0.6541220">
        <ele>599.8</ele>
        <time>2018-10-27T08:48:11Z</time>
      </trkpt>
      <trkpt lat="38.4814850" lon="-0.6541370">
        <ele>599.8</ele>
        <time>2018-10-27T08:48:12Z</time>
      </trkpt>
      <trkpt lat="38.4815030" lon="-0.6541520">
        <ele>599.8</ele>
        <time>2018-10-27T08:48:13Z</time>
      </trkpt>
      <trkpt lat="38.4815840" lon="-0.6542390">
        <ele>600.0</ele>
        <time>2018-10-27T08:48:18Z</time>
      </trkpt>
      <trkpt lat="38.4817230" lon="-0.6543640">
        <ele>599.8</ele>
        <time>2018-10-27T08:48:26Z</time>
      </trkpt>
      <trkpt lat="38.4818210" lon="-0.6544010">
        <ele>599.6</ele>
        <time>2018-10-27T08:48:31Z</time>
      </trkpt>
      <trkpt lat="38.4818640" lon="-0.6544070">
        <ele>599.6</ele>
        <time>2018-10-27T08:48:33Z</time>
      </trkpt>
      <trkpt lat="38.4819310" lon="-0.6544090">
        <ele>599.6</ele>
        <time>2018-10-27T08:48:36Z</time>
      </trkpt>
      <trkpt lat="38.4820200" lon="-0.6544090">
        <ele>599.4</ele>
        <time>2018-10-27T08:48:40Z</time>
      </trkpt>
      <trkpt lat="38.4821920" lon="-0.6544070">
        <ele>599.2</ele>
        <time>2018-10-27T08:48:48Z</time>
      </trkpt>
      <trkpt lat="38.4822630" lon="-0.6543870">
        <ele>598.8</ele>
        <time>2018-10-27T08:48:51Z</time>
      </trkpt>
      <trkpt lat="38.4823320" lon="-0.6543740">
        <ele>598.2</ele>
        <time>2018-10-27T08:48:54Z</time>
      </trkpt>
      <trkpt lat="38.4823740" lon="-0.6543740">
        <ele>597.8</ele>
        <time>2018-10-27T08:48:56Z</time>
      </trkpt>
      <trkpt lat="38.4825230" lon="-0.6543950">
        <ele>597.6</ele>
        <time>2018-10-27T08:49:03Z</time>
      </trkpt>
      <trkpt lat="38.4825670" lon="-0.6544000">
        <ele>596.6</ele>
        <time>2018-10-27T08:49:05Z</time>
      </trkpt>
      <trkpt lat="38.4826330" lon="-0.6544170">
        <ele>595.4</ele>
        <time>2018-10-27T08:49:08Z</time>
      </trkpt>
      <trkpt lat="38.4826510" lon="-0.6544250">
        <ele>595.2</ele>
        <time>2018-10-27T08:49:09Z</time>
      </trkpt>
      <trkpt lat="38.4827330" lon="-0.6545020">
        <ele>595.0</ele>
        <time>2018-10-27T08:49:14Z</time>
      </trkpt>
      <trkpt lat="38.4828940" lon="-0.6545710">
        <ele>595.2</ele>
        <time>2018-10-27T08:49:22Z</time>
      </trkpt>
      <trkpt lat="38.4830460" lon="-0.6545600">
        <ele>595.6</ele>
        <time>2018-10-27T08:49:30Z</time>
      </trkpt>
      <trkpt lat="38.4830700" lon="-0.6545560">
        <ele>595.6</ele>
        <time>2018-10-27T08:49:31Z</time>
      </trkpt>
      <trkpt lat="38.4832150" lon="-0.6545450">
        <ele>596.6</ele>
        <time>2018-10-27T08:49:38Z</time>
      </trkpt>
      <trkpt lat="38.4833300" lon="-0.6545440">
        <ele>597.6</ele>
        <time>2018-10-27T08:49:44Z</time>
      </trkpt>
      <trkpt lat="38.4833510" lon="-0.6545430">
        <ele>597.8</ele>
        <time>2018-10-27T08:49:45Z</time>
      </trkpt>
      <trkpt lat="38.4834430" lon="-0.6545460">
        <ele>598.8</ele>
        <time>2018-10-27T08:49:50Z</time>
      </trkpt>
      <trkpt lat="38.4834790" lon="-0.6545480">
        <ele>599.0</ele>
        <time>2018-10-27T08:49:52Z</time>
      </trkpt>
      <trkpt lat="38.4835350" lon="-0.6545490">
        <ele>599.6</ele>
        <time>2018-10-27T08:49:55Z</time>
      </trkpt>
      <trkpt lat="38.4835540" lon="-0.6545470">
        <ele>599.8</ele>
        <time>2018-10-27T08:49:56Z</time>
      </trkpt>
      <trkpt lat="38.4835740" lon="-0.6545460">
        <ele>600.0</ele>
        <time>2018-10-27T08:49:57Z</time>
      </trkpt>
      <trkpt lat="38.4836460" lon="-0.6545440">
        <ele>600.2</ele>
        <time>2018-10-27T08:50:01Z</time>
      </trkpt>
      <trkpt lat="38.4838010" lon="-0.6545250">
        <ele>601.6</ele>
        <time>2018-10-27T08:50:09Z</time>
      </trkpt>
      <trkpt lat="38.4839040" lon="-0.6545200">
        <ele>603.0</ele>
        <time>2018-10-27T08:50:14Z</time>
      </trkpt>
      <trkpt lat="38.4839850" lon="-0.6545140">
        <ele>603.6</ele>
        <time>2018-10-27T08:50:18Z</time>
      </trkpt>
      <trkpt lat="38.4841560" lon="-0.6544780">
        <ele>602.4</ele>
        <time>2018-10-27T08:50:26Z</time>
      </trkpt>
      <trkpt lat="38.4841780" lon="-0.6544740">
        <ele>601.6</ele>
        <time>2018-10-27T08:50:27Z</time>
      </trkpt>
      <trkpt lat="38.4842420" lon="-0.6544620">
        <ele>601.0</ele>
        <time>2018-10-27T08:50:30Z</time>
      </trkpt>
      <trkpt lat="38.4843030" lon="-0.6544460">
        <ele>600.6</ele>
        <time>2018-10-27T08:50:33Z</time>
      </trkpt>
      <trkpt lat="38.4843230" lon="-0.6544390">
        <ele>600.4</ele>
        <time>2018-10-27T08:50:34Z</time>
      </trkpt>
      <trkpt lat="38.4843680" lon="-0.6544330">
        <ele>600.2</ele>
        <time>2018-10-27T08:50:36Z</time>
      </trkpt>
      <trkpt lat="38.4844590" lon="-0.6544080">
        <ele>599.6</ele>
        <time>2018-10-27T08:50:40Z</time>
      </trkpt>
      <trkpt lat="38.4844830" lon="-0.6543980">
        <ele>599.4</ele>
        <time>2018-10-27T08:50:41Z</time>
      </trkpt>
      <trkpt lat="38.4845050" lon="-0.6543870">
        <ele>599.4</ele>
        <time>2018-10-27T08:50:42Z</time>
      </trkpt>
      <trkpt lat="38.4845650" lon="-0.6543470">
        <ele>598.4</ele>
        <time>2018-10-27T08:50:45Z</time>
      </trkpt>
      <trkpt lat="38.4846670" lon="-0.6542780">
        <ele>598.2</ele>
        <time>2018-10-27T08:50:50Z</time>
      </trkpt>
      <trkpt lat="38.4848120" lon="-0.6541760">
        <ele>599.2</ele>
        <time>2018-10-27T08:50:57Z</time>
      </trkpt>
      <trkpt lat="38.4848310" lon="-0.6541580">
        <ele>599.4</ele>
        <time>2018-10-27T08:50:58Z</time>
      </trkpt>
      <trkpt lat="38.4849300" lon="-0.6540610">
        <ele>599.8</ele>
        <time>2018-10-27T08:51:04Z</time>
      </trkpt>
      <trkpt lat="38.4850370" lon="-0.6539720">
        <ele>599.8</ele>
        <time>2018-10-27T08:51:10Z</time>
      </trkpt>
      <trkpt lat="38.4851590" lon="-0.6539340">
        <ele>598.4</ele>
        <time>2018-10-27T08:51:16Z</time>
      </trkpt>
      <trkpt lat="38.4853160" lon="-0.6539330">
        <ele>598.4</ele>
        <time>2018-10-27T08:51:23Z</time>
      </trkpt>
      <trkpt lat="38.4853840" lon="-0.6539380">
        <ele>597.4</ele>
        <time>2018-10-27T08:51:27Z</time>
      </trkpt>
      <trkpt lat="38.4853910" lon="-0.6539410">
        <ele>597.0</ele>
        <time>2018-10-27T08:51:29Z</time>
      </trkpt>
      <trkpt lat="38.4854050" lon="-0.6539300">
        <ele>596.8</ele>
        <time>2018-10-27T08:51:32Z</time>
      </trkpt>
      <trkpt lat="38.4854690" lon="-0.6538680">
        <ele>596.6</ele>
        <time>2018-10-27T08:51:38Z</time>
      </trkpt>
      <trkpt lat="38.4855070" lon="-0.6538460">
        <ele>596.4</ele>
        <time>2018-10-27T08:51:40Z</time>
      </trkpt>
      <trkpt lat="38.4855260" lon="-0.6538300">
        <ele>596.4</ele>
        <time>2018-10-27T08:51:41Z</time>
      </trkpt>
      <trkpt lat="38.4855980" lon="-0.6537090">
        <ele>596.4</ele>
        <time>2018-10-27T08:51:47Z</time>
      </trkpt>
      <trkpt lat="38.4856770" lon="-0.6535600">
        <ele>596.6</ele>
        <time>2018-10-27T08:51:54Z</time>
      </trkpt>
      <trkpt lat="38.4857170" lon="-0.6534890">
        <ele>596.8</ele>
        <time>2018-10-27T08:51:58Z</time>
      </trkpt>
      <trkpt lat="38.4857460" lon="-0.6534610">
        <ele>596.8</ele>
        <time>2018-10-27T08:52:01Z</time>
      </trkpt>
      <trkpt lat="38.4857200" lon="-0.6533760">
        <ele>597.0</ele>
        <time>2018-10-27T08:52:05Z</time>
      </trkpt>
      <trkpt lat="38.4857110" lon="-0.6533560">
        <ele>597.4</ele>
        <time>2018-10-27T08:52:07Z</time>
      </trkpt>
      <trkpt lat="38.4857170" lon="-0.6533220">
        <ele>598.0</ele>
        <time>2018-10-27T08:52:10Z</time>
      </trkpt>
      <trkpt lat="38.4857220" lon="-0.6533130">
        <ele>598.6</ele>
        <time>2018-10-27T08:52:11Z</time>
      </trkpt>
      <trkpt lat="38.4857600" lon="-0.6532500">
        <ele>599.8</ele>
        <time>2018-10-27T08:52:15Z</time>
      </trkpt>
      <trkpt lat="38.4857750" lon="-0.6532090">
        <ele>600.0</ele>
        <time>2018-10-27T08:52:17Z</time>
      </trkpt>
      <trkpt lat="38.4858440" lon="-0.6530900">
        <ele>600.4</ele>
        <time>2018-10-27T08:52:23Z</time>
      </trkpt>
      <trkpt lat="38.4859550" lon="-0.6530000">
        <ele>600.4</ele>
        <time>2018-10-27T08:52:28Z</time>
      </trkpt>
      <trkpt lat="38.4859740" lon="-0.6529860">
        <ele>600.4</ele>
        <time>2018-10-27T08:52:29Z</time>
      </trkpt>
      <trkpt lat="38.4860870" lon="-0.6529250">
        <ele>600.8</ele>
        <time>2018-10-27T08:52:35Z</time>
      </trkpt>
      <trkpt lat="38.4861040" lon="-0.6529100">
        <ele>600.8</ele>
        <time>2018-10-27T08:52:36Z</time>
      </trkpt>
      <trkpt lat="38.4862040" lon="-0.6528210">
        <ele>601.8</ele>
        <time>2018-10-27T08:52:43Z</time>
      </trkpt>
      <trkpt lat="38.4862160" lon="-0.6528100">
        <ele>602.0</ele>
        <time>2018-10-27T08:52:44Z</time>
      </trkpt>
      <trkpt lat="38.4862820" lon="-0.6527730">
        <ele>603.0</ele>
        <time>2018-10-27T08:52:48Z</time>
      </trkpt>
      <trkpt lat="38.4863170" lon="-0.6527580">
        <ele>603.4</ele>
        <time>2018-10-27T08:52:50Z</time>
      </trkpt>
      <trkpt lat="38.4863500" lon="-0.6527470">
        <ele>604.0</ele>
        <time>2018-10-27T08:52:52Z</time>
      </trkpt>
      <trkpt lat="38.4864260" lon="-0.6527280">
        <ele>605.2</ele>
        <time>2018-10-27T08:52:56Z</time>
      </trkpt>
      <trkpt lat="38.4864660" lon="-0.6527210">
        <ele>606.0</ele>
        <time>2018-10-27T08:52:58Z</time>
      </trkpt>
      <trkpt lat="38.4865020" lon="-0.6527220">
        <ele>606.2</ele>
        <time>2018-10-27T08:53:00Z</time>
      </trkpt>
      <trkpt lat="38.4866020" lon="-0.6527290">
        <ele>607.4</ele>
        <time>2018-10-27T08:53:05Z</time>
      </trkpt>
      <trkpt lat="38.4867220" lon="-0.6527500">
        <ele>607.4</ele>
        <time>2018-10-27T08:53:11Z</time>
      </trkpt>
      <trkpt lat="38.4867630" lon="-0.6527610">
        <ele>607.2</ele>
        <time>2018-10-27T08:53:13Z</time>
      </trkpt>
      <trkpt lat="38.4868550" lon="-0.6528020">
        <ele>606.8</ele>
        <time>2018-10-27T08:53:18Z</time>
      </trkpt>
      <trkpt lat="38.4868910" lon="-0.6528250">
        <ele>606.6</ele>
        <time>2018-10-27T08:53:20Z</time>
      </trkpt>
      <trkpt lat="38.4869770" lon="-0.6528700">
        <ele>606.4</ele>
        <time>2018-10-27T08:53:25Z</time>
      </trkpt>
      <trkpt lat="38.4869930" lon="-0.6528770">
        <ele>606.4</ele>
        <time>2018-10-27T08:53:26Z</time>
      </trkpt>
      <trkpt lat="38.4871250" lon="-0.6529010">
        <ele>606.8</ele>
        <time>2018-10-27T08:53:33Z</time>
      </trkpt>
      <trkpt lat="38.4871850" lon="-0.6528890">
        <ele>609.0</ele>
        <time>2018-10-27T08:53:36Z</time>
      </trkpt>
      <trkpt lat="38.4872690" lon="-0.6528890">
        <ele>610.0</ele>
        <time>2018-10-27T08:53:40Z</time>
      </trkpt>
      <trkpt lat="38.4873140" lon="-0.6528930">
        <ele>610.2</ele>
        <time>2018-10-27T08:53:42Z</time>
      </trkpt>
      <trkpt lat="38.4874740" lon="-0.6529110">
        <ele>610.2</ele>
        <time>2018-10-27T08:53:50Z</time>
      </trkpt>
      <trkpt lat="38.4875920" lon="-0.6528510">
        <ele>610.2</ele>
        <time>2018-10-27T08:53:56Z</time>
      </trkpt>
      <trkpt lat="38.4876620" lon="-0.6528240">
        <ele>610.4</ele>
        <time>2018-10-27T08:54:01Z</time>
      </trkpt>
      <trkpt lat="38.4877170" lon="-0.6528140">
        <ele>610.8</ele>
        <time>2018-10-27T08:54:04Z</time>
      </trkpt>
      <trkpt lat="38.4877500" lon="-0.6528150">
        <ele>611.2</ele>
        <time>2018-10-27T08:54:06Z</time>
      </trkpt>
      <trkpt lat="38.4877630" lon="-0.6528230">
        <ele>611.4</ele>
        <time>2018-10-27T08:54:07Z</time>
      </trkpt>
      <trkpt lat="38.4877840" lon="-0.6528170">
        <ele>612.2</ele>
        <time>2018-10-27T08:54:10Z</time>
      </trkpt>
      <trkpt lat="38.4878040" lon="-0.6528140">
        <ele>612.6</ele>
        <time>2018-10-27T08:54:13Z</time>
      </trkpt>
      <trkpt lat="38.4878220" lon="-0.6528420">
        <ele>612.8</ele>
        <time>2018-10-27T08:54:15Z</time>
      </trkpt>
      <trkpt lat="38.4878420" lon="-0.6528910">
        <ele>612.8</ele>
        <time>2018-10-27T08:54:17Z</time>
      </trkpt>
      <trkpt lat="38.4879000" lon="-0.6530170">
        <ele>612.8</ele>
        <time>2018-10-27T08:54:22Z</time>
      </trkpt>
      <trkpt lat="38.4879080" lon="-0.6530410">
        <ele>612.6</ele>
        <time>2018-10-27T08:54:23Z</time>
      </trkpt>
      <trkpt lat="38.4879590" lon="-0.6531790">
        <ele>612.4</ele>
        <time>2018-10-27T08:54:29Z</time>
      </trkpt>
      <trkpt lat="38.4880550" lon="-0.6532670">
        <ele>612.2</ele>
        <time>2018-10-27T08:54:35Z</time>
      </trkpt>
      <trkpt lat="38.4880990" lon="-0.6533080">
        <ele>612.2</ele>
        <time>2018-10-27T08:54:38Z</time>
      </trkpt>
      <trkpt lat="38.4881310" lon="-0.6533380">
        <ele>612.2</ele>
        <time>2018-10-27T08:54:40Z</time>
      </trkpt>
      <trkpt lat="38.4881460" lon="-0.6533540">
        <ele>612.2</ele>
        <time>2018-10-27T08:54:41Z</time>
      </trkpt>
      <trkpt lat="38.4881770" lon="-0.6533860">
        <ele>612.4</ele>
        <time>2018-10-27T08:54:43Z</time>
      </trkpt>
      <trkpt lat="38.4882010" lon="-0.6534480">
        <ele>612.6</ele>
        <time>2018-10-27T08:54:46Z</time>
      </trkpt>
      <trkpt lat="38.4882500" lon="-0.6535180">
        <ele>612.8</ele>
        <time>2018-10-27T08:54:50Z</time>
      </trkpt>
      <trkpt lat="38.4883200" lon="-0.6535800">
        <ele>613.6</ele>
        <time>2018-10-27T08:54:55Z</time>
      </trkpt>
      <trkpt lat="38.4883540" lon="-0.6535850">
        <ele>613.8</ele>
        <time>2018-10-27T08:54:57Z</time>
      </trkpt>
      <trkpt lat="38.4884580" lon="-0.6535610">
        <ele>614.0</ele>
        <time>2018-10-27T08:55:03Z</time>
      </trkpt>
      <trkpt lat="38.4885090" lon="-0.6535450">
        <ele>614.0</ele>
        <time>2018-10-27T08:55:08Z</time>
      </trkpt>
      <trkpt lat="38.4885190" lon="-0.6535490">
        <ele>614.0</ele>
        <time>2018-10-27T08:55:09Z</time>
      </trkpt>
      <trkpt lat="38.4885740" lon="-0.6535740">
        <ele>614.2</ele>
        <time>2018-10-27T08:55:16Z</time>
      </trkpt>
      <trkpt lat="38.4886410" lon="-0.6535970">
        <ele>614.2</ele>
        <time>2018-10-27T08:55:20Z</time>
      </trkpt>
      <trkpt lat="38.4886800" lon="-0.6536730">
        <ele>614.0</ele>
        <time>2018-10-27T08:55:23Z</time>
      </trkpt>
      <trkpt lat="38.4887250" lon="-0.6538210">
        <ele>614.2</ele>
        <time>2018-10-27T08:55:29Z</time>
      </trkpt>
      <trkpt lat="38.4887280" lon="-0.6538480">
        <ele>614.4</ele>
        <time>2018-10-27T08:55:30Z</time>
      </trkpt>
      <trkpt lat="38.4887350" lon="-0.6538990">
        <ele>614.8</ele>
        <time>2018-10-27T08:55:32Z</time>
      </trkpt>
      <trkpt lat="38.4887890" lon="-0.6540160">
        <ele>615.8</ele>
        <time>2018-10-27T08:55:38Z</time>
      </trkpt>
      <trkpt lat="38.4887950" lon="-0.6540400">
        <ele>615.8</ele>
        <time>2018-10-27T08:55:39Z</time>
      </trkpt>
      <trkpt lat="38.4888330" lon="-0.6541150">
        <ele>616.4</ele>
        <time>2018-10-27T08:55:43Z</time>
      </trkpt>
      <trkpt lat="38.4888680" lon="-0.6541580">
        <ele>616.6</ele>
        <time>2018-10-27T08:55:46Z</time>
      </trkpt>
      <trkpt lat="38.4888790" lon="-0.6541740">
        <ele>616.8</ele>
        <time>2018-10-27T08:55:47Z</time>
      </trkpt>
      <trkpt lat="38.4889650" lon="-0.6542230">
        <ele>617.0</ele>
        <time>2018-10-27T08:55:53Z</time>
      </trkpt>
      <trkpt lat="38.4889790" lon="-0.6542270">
        <ele>617.2</ele>
        <time>2018-10-27T08:55:59Z</time>
      </trkpt>
      <trkpt lat="38.4889740" lon="-0.6542360">
        <ele>617.4</ele>
        <time>2018-10-27T08:56:01Z</time>
      </trkpt>
      <trkpt lat="38.4890690" lon="-0.6542560">
        <ele>615.8</ele>
        <time>2018-10-27T08:57:25Z</time>
      </trkpt>
      <trkpt lat="38.4890840" lon="-0.6542570">
        <ele>618.2</ele>
        <time>2018-10-27T08:57:26Z</time>
      </trkpt>
      <trkpt lat="38.4891200" lon="-0.6542630">
        <ele>619.6</ele>
        <time>2018-10-27T08:57:28Z</time>
      </trkpt>
      <trkpt lat="38.4891790" lon="-0.6542840">
        <ele>621.6</ele>
        <time>2018-10-27T08:57:32Z</time>
      </trkpt>
      <trkpt lat="38.4891960" lon="-0.6542930">
        <ele>621.4</ele>
        <time>2018-10-27T08:57:33Z</time>
      </trkpt>
      <trkpt lat="38.4892140" lon="-0.6542990">
        <ele>621.6</ele>
        <time>2018-10-27T08:57:34Z</time>
      </trkpt>
      <trkpt lat="38.4892290" lon="-0.6543050">
        <ele>622.0</ele>
        <time>2018-10-27T08:57:35Z</time>
      </trkpt>
      <trkpt lat="38.4892750" lon="-0.6543290">
        <ele>620.8</ele>
        <time>2018-10-27T08:57:38Z</time>
      </trkpt>
      <trkpt lat="38.4893280" lon="-0.6543610">
        <ele>621.0</ele>
        <time>2018-10-27T08:57:41Z</time>
      </trkpt>
      <trkpt lat="38.4894240" lon="-0.6544190">
        <ele>623.2</ele>
        <time>2018-10-27T08:57:46Z</time>
      </trkpt>
      <trkpt lat="38.4894730" lon="-0.6544310">
        <ele>623.6</ele>
        <time>2018-10-27T08:57:48Z</time>
      </trkpt>
      <trkpt lat="38.4895320" lon="-0.6544530">
        <ele>624.4</ele>
        <time>2018-10-27T08:57:51Z</time>
      </trkpt>
      <trkpt lat="38.4895620" lon="-0.6544690">
        <ele>625.0</ele>
        <time>2018-10-27T08:57:53Z</time>
      </trkpt>
      <trkpt lat="38.4895760" lon="-0.6544780">
        <ele>625.0</ele>
        <time>2018-10-27T08:57:54Z</time>
      </trkpt>
      <trkpt lat="38.4896050" lon="-0.6544980">
        <ele>625.4</ele>
        <time>2018-10-27T08:57:56Z</time>
      </trkpt>
      <trkpt lat="38.4896350" lon="-0.6545150">
        <ele>625.6</ele>
        <time>2018-10-27T08:57:58Z</time>
      </trkpt>
      <trkpt lat="38.4896810" lon="-0.6545300">
        <ele>626.4</ele>
        <time>2018-10-27T08:58:01Z</time>
      </trkpt>
      <trkpt lat="38.4896960" lon="-0.6545310">
        <ele>626.8</ele>
        <time>2018-10-27T08:58:02Z</time>
      </trkpt>
      <trkpt lat="38.4897720" lon="-0.6545610">
        <ele>627.8</ele>
        <time>2018-10-27T08:58:07Z</time>
      </trkpt>
      <trkpt lat="38.4897820" lon="-0.6545790">
        <ele>628.0</ele>
        <time>2018-10-27T08:58:08Z</time>
      </trkpt>
      <trkpt lat="38.4897780" lon="-0.6546510">
        <ele>628.8</ele>
        <time>2018-10-27T08:58:11Z</time>
      </trkpt>
      <trkpt lat="38.4897690" lon="-0.6546670">
        <ele>629.0</ele>
        <time>2018-10-27T08:58:12Z</time>
      </trkpt>
      <trkpt lat="38.4897260" lon="-0.6546950">
        <ele>629.6</ele>
        <time>2018-10-27T08:58:16Z</time>
      </trkpt>
      <trkpt lat="38.4896790" lon="-0.6546980">
        <ele>629.8</ele>
        <time>2018-10-27T08:58:19Z</time>
      </trkpt>
      <trkpt lat="38.4896610" lon="-0.6546970">
        <ele>630.0</ele>
        <time>2018-10-27T08:58:20Z</time>
      </trkpt>
      <trkpt lat="38.4896220" lon="-0.6546910">
        <ele>630.4</ele>
        <time>2018-10-27T08:58:22Z</time>
      </trkpt>
      <trkpt lat="38.4896030" lon="-0.6546850">
        <ele>630.6</ele>
        <time>2018-10-27T08:58:23Z</time>
      </trkpt>
      <trkpt lat="38.4895670" lon="-0.6546790">
        <ele>630.8</ele>
        <time>2018-10-27T08:58:25Z</time>
      </trkpt>
      <trkpt lat="38.4895190" lon="-0.6546650">
        <ele>631.0</ele>
        <time>2018-10-27T08:58:28Z</time>
      </trkpt>
      <trkpt lat="38.4895000" lon="-0.6546580">
        <ele>631.0</ele>
        <time>2018-10-27T08:58:29Z</time>
      </trkpt>
      <trkpt lat="38.4894030" lon="-0.6546760">
        <ele>631.8</ele>
        <time>2018-10-27T08:58:34Z</time>
      </trkpt>
      <trkpt lat="38.4893920" lon="-0.6546950">
        <ele>631.8</ele>
        <time>2018-10-27T08:58:35Z</time>
      </trkpt>
      <trkpt lat="38.4893850" lon="-0.6547290">
        <ele>632.0</ele>
        <time>2018-10-27T08:58:37Z</time>
      </trkpt>
      <trkpt lat="38.4893880" lon="-0.6547430">
        <ele>632.0</ele>
        <time>2018-10-27T08:58:38Z</time>
      </trkpt>
      <trkpt lat="38.4893930" lon="-0.6547570">
        <ele>632.2</ele>
        <time>2018-10-27T08:58:39Z</time>
      </trkpt>
      <trkpt lat="38.4893990" lon="-0.6547730">
        <ele>632.2</ele>
        <time>2018-10-27T08:58:40Z</time>
      </trkpt>
      <trkpt lat="38.4894160" lon="-0.6548070">
        <ele>632.4</ele>
        <time>2018-10-27T08:58:42Z</time>
      </trkpt>
      <trkpt lat="38.4894590" lon="-0.6548380">
        <ele>632.6</ele>
        <time>2018-10-27T08:58:45Z</time>
      </trkpt>
      <trkpt lat="38.4894750" lon="-0.6548450">
        <ele>633.0</ele>
        <time>2018-10-27T08:58:46Z</time>
      </trkpt>
      <trkpt lat="38.4894940" lon="-0.6548450">
        <ele>633.2</ele>
        <time>2018-10-27T08:58:47Z</time>
      </trkpt>
      <trkpt lat="38.4895690" lon="-0.6548600">
        <ele>633.8</ele>
        <time>2018-10-27T08:58:52Z</time>
      </trkpt>
      <trkpt lat="38.4895960" lon="-0.6548710">
        <ele>634.4</ele>
        <time>2018-10-27T08:58:54Z</time>
      </trkpt>
      <trkpt lat="38.4896730" lon="-0.6549200">
        <ele>635.4</ele>
        <time>2018-10-27T08:58:59Z</time>
      </trkpt>
      <trkpt lat="38.4896870" lon="-0.6549320">
        <ele>635.4</ele>
        <time>2018-10-27T08:59:00Z</time>
      </trkpt>
      <trkpt lat="38.4897310" lon="-0.6549840">
        <ele>635.8</ele>
        <time>2018-10-27T08:59:04Z</time>
      </trkpt>
      <trkpt lat="38.4897700" lon="-0.6550200">
        <ele>636.4</ele>
        <time>2018-10-27T08:59:07Z</time>
      </trkpt>
      <trkpt lat="38.4897880" lon="-0.6550480">
        <ele>637.0</ele>
        <time>2018-10-27T08:59:09Z</time>
      </trkpt>
      <trkpt lat="38.4898060" lon="-0.6550750">
        <ele>637.2</ele>
        <time>2018-10-27T08:59:11Z</time>
      </trkpt>
      <trkpt lat="38.4898160" lon="-0.6550860">
        <ele>637.8</ele>
        <time>2018-10-27T08:59:12Z</time>
      </trkpt>
      <trkpt lat="38.4898420" lon="-0.6551180">
        <ele>639.2</ele>
        <time>2018-10-27T08:59:15Z</time>
      </trkpt>
      <trkpt lat="38.4898770" lon="-0.6551620">
        <ele>640.2</ele>
        <time>2018-10-27T08:59:19Z</time>
      </trkpt>
      <trkpt lat="38.4898810" lon="-0.6551790">
        <ele>640.4</ele>
        <time>2018-10-27T08:59:20Z</time>
      </trkpt>
      <trkpt lat="38.4898890" lon="-0.6551920">
        <ele>640.6</ele>
        <time>2018-10-27T08:59:21Z</time>
      </trkpt>
      <trkpt lat="38.4899150" lon="-0.6552240">
        <ele>641.4</ele>
        <time>2018-10-27T08:59:24Z</time>
      </trkpt>
      <trkpt lat="38.4899360" lon="-0.6552750">
        <ele>642.4</ele>
        <time>2018-10-27T08:59:28Z</time>
      </trkpt>
      <trkpt lat="38.4899400" lon="-0.6552870">
        <ele>642.6</ele>
        <time>2018-10-27T08:59:29Z</time>
      </trkpt>
      <trkpt lat="38.4899540" lon="-0.6553200">
        <ele>643.2</ele>
        <time>2018-10-27T08:59:32Z</time>
      </trkpt>
      <trkpt lat="38.4899630" lon="-0.6553310">
        <ele>643.6</ele>
        <time>2018-10-27T08:59:33Z</time>
      </trkpt>
      <trkpt lat="38.4899750" lon="-0.6553370">
        <ele>643.8</ele>
        <time>2018-10-27T08:59:34Z</time>
      </trkpt>
      <trkpt lat="38.4900020" lon="-0.6553610">
        <ele>644.8</ele>
        <time>2018-10-27T08:59:37Z</time>
      </trkpt>
      <trkpt lat="38.4900430" lon="-0.6553950">
        <ele>645.2</ele>
        <time>2018-10-27T08:59:41Z</time>
      </trkpt>
      <trkpt lat="38.4900800" lon="-0.6554160">
        <ele>645.8</ele>
        <time>2018-10-27T08:59:44Z</time>
      </trkpt>
      <trkpt lat="38.4901100" lon="-0.6554280">
        <ele>646.2</ele>
        <time>2018-10-27T08:59:47Z</time>
      </trkpt>
      <trkpt lat="38.4901410" lon="-0.6554450">
        <ele>647.0</ele>
        <time>2018-10-27T08:59:50Z</time>
      </trkpt>
      <trkpt lat="38.4901610" lon="-0.6554630">
        <ele>648.2</ele>
        <time>2018-10-27T08:59:52Z</time>
      </trkpt>
      <trkpt lat="38.4901730" lon="-0.6554700">
        <ele>648.6</ele>
        <time>2018-10-27T08:59:53Z</time>
      </trkpt>
      <trkpt lat="38.4901840" lon="-0.6554760">
        <ele>649.2</ele>
        <time>2018-10-27T08:59:54Z</time>
      </trkpt>
      <trkpt lat="38.4902220" lon="-0.6555010">
        <ele>650.6</ele>
        <time>2018-10-27T08:59:57Z</time>
      </trkpt>
      <trkpt lat="38.4902310" lon="-0.6555060">
        <ele>650.8</ele>
        <time>2018-10-27T08:59:58Z</time>
      </trkpt>
      <trkpt lat="38.4902400" lon="-0.6555120">
        <ele>651.4</ele>
        <time>2018-10-27T08:59:59Z</time>
      </trkpt>
      <trkpt lat="38.4902530" lon="-0.6555170">
        <ele>651.6</ele>
        <time>2018-10-27T09:00:00Z</time>
      </trkpt>
      <trkpt lat="38.4902810" lon="-0.6555410">
        <ele>652.2</ele>
        <time>2018-10-27T09:00:03Z</time>
      </trkpt>
      <trkpt lat="38.4902920" lon="-0.6555520">
        <ele>652.6</ele>
        <time>2018-10-27T09:00:04Z</time>
      </trkpt>
      <trkpt lat="38.4903230" lon="-0.6555950">
        <ele>653.6</ele>
        <time>2018-10-27T09:00:08Z</time>
      </trkpt>
      <trkpt lat="38.4903290" lon="-0.6556060">
        <ele>653.8</ele>
        <time>2018-10-27T09:00:09Z</time>
      </trkpt>
      <trkpt lat="38.4903460" lon="-0.6556370">
        <ele>655.2</ele>
        <time>2018-10-27T09:00:12Z</time>
      </trkpt>
      <trkpt lat="38.4903540" lon="-0.6556460">
        <ele>655.4</ele>
        <time>2018-10-27T09:00:13Z</time>
      </trkpt>
      <trkpt lat="38.4903830" lon="-0.6556750">
        <ele>656.4</ele>
        <time>2018-10-27T09:00:16Z</time>
      </trkpt>
      <trkpt lat="38.4904150" lon="-0.6556970">
        <ele>657.6</ele>
        <time>2018-10-27T09:00:20Z</time>
      </trkpt>
      <trkpt lat="38.4904420" lon="-0.6557200">
        <ele>658.6</ele>
        <time>2018-10-27T09:00:25Z</time>
      </trkpt>
      <trkpt lat="38.4904460" lon="-0.6557210">
        <ele>659.4</ele>
        <time>2018-10-27T09:00:27Z</time>
      </trkpt>
      <trkpt lat="38.4904470" lon="-0.6557200">
        <ele>659.8</ele>
        <time>2018-10-27T09:00:28Z</time>
      </trkpt>
      <trkpt lat="38.4905640" lon="-0.6556810">
        <ele>661.0</ele>
        <time>2018-10-27T09:00:45Z</time>
      </trkpt>
      <trkpt lat="38.4906000" lon="-0.6556640">
        <ele>660.8</ele>
        <time>2018-10-27T09:00:47Z</time>
      </trkpt>
      <trkpt lat="38.4907410" lon="-0.6556170">
        <ele>660.8</ele>
        <time>2018-10-27T09:00:54Z</time>
      </trkpt>
      <trkpt lat="38.4907580" lon="-0.6556030">
        <ele>660.8</ele>
        <time>2018-10-27T09:00:55Z</time>
      </trkpt>
      <trkpt lat="38.4908540" lon="-0.6555230">
        <ele>661.4</ele>
        <time>2018-10-27T09:01:01Z</time>
      </trkpt>
      <trkpt lat="38.4908650" lon="-0.6555050">
        <ele>661.6</ele>
        <time>2018-10-27T09:01:02Z</time>
      </trkpt>
      <trkpt lat="38.4908790" lon="-0.6554880">
        <ele>661.6</ele>
        <time>2018-10-27T09:01:03Z</time>
      </trkpt>
      <trkpt lat="38.4909140" lon="-0.6554500">
        <ele>662.2</ele>
        <time>2018-10-27T09:01:06Z</time>
      </trkpt>
      <trkpt lat="38.4909300" lon="-0.6554400">
        <ele>662.6</ele>
        <time>2018-10-27T09:01:07Z</time>
      </trkpt>
      <trkpt lat="38.4909650" lon="-0.6554280">
        <ele>663.6</ele>
        <time>2018-10-27T09:01:09Z</time>
      </trkpt>
      <trkpt lat="38.4910210" lon="-0.6553960">
        <ele>664.6</ele>
        <time>2018-10-27T09:01:12Z</time>
      </trkpt>
      <trkpt lat="38.4910430" lon="-0.6553870">
        <ele>665.2</ele>
        <time>2018-10-27T09:01:13Z</time>
      </trkpt>
      <trkpt lat="38.4910630" lon="-0.6553850">
        <ele>665.4</ele>
        <time>2018-10-27T09:01:14Z</time>
      </trkpt>
      <trkpt lat="38.4911050" lon="-0.6553830">
        <ele>666.2</ele>
        <time>2018-10-27T09:01:16Z</time>
      </trkpt>
      <trkpt lat="38.4911720" lon="-0.6553730">
        <ele>667.4</ele>
        <time>2018-10-27T09:01:19Z</time>
      </trkpt>
      <trkpt lat="38.4912300" lon="-0.6553490">
        <ele>667.8</ele>
        <time>2018-10-27T09:01:22Z</time>
      </trkpt>
      <trkpt lat="38.4912680" lon="-0.6553350">
        <ele>668.4</ele>
        <time>2018-10-27T09:01:24Z</time>
      </trkpt>
      <trkpt lat="38.4912980" lon="-0.6553130">
        <ele>668.6</ele>
        <time>2018-10-27T09:01:27Z</time>
      </trkpt>
      <trkpt lat="38.4913230" lon="-0.6553090">
        <ele>669.0</ele>
        <time>2018-10-27T09:01:31Z</time>
      </trkpt>
      <trkpt lat="38.4913170" lon="-0.6553060">
        <ele>669.8</ele>
        <time>2018-10-27T09:01:33Z</time>
      </trkpt>
      <trkpt lat="38.4914470" lon="-0.6552810">
        <ele>670.8</ele>
        <time>2018-10-27T09:01:45Z</time>
      </trkpt>
      <trkpt lat="38.4914980" lon="-0.6552710">
        <ele>671.0</ele>
        <time>2018-10-27T09:01:48Z</time>
      </trkpt>
      <trkpt lat="38.4915380" lon="-0.6552520">
        <ele>671.2</ele>
        <time>2018-10-27T09:01:50Z</time>
      </trkpt>
      <trkpt lat="38.4915760" lon="-0.6552290">
        <ele>671.2</ele>
        <time>2018-10-27T09:01:52Z</time>
      </trkpt>
      <trkpt lat="38.4917260" lon="-0.6551900">
        <ele>671.6</ele>
        <time>2018-10-27T09:02:00Z</time>
      </trkpt>
      <trkpt lat="38.4917930" lon="-0.6552210">
        <ele>672.0</ele>
        <time>2018-10-27T09:02:04Z</time>
      </trkpt>
      <trkpt lat="38.4918600" lon="-0.6552780">
        <ele>672.4</ele>
        <time>2018-10-27T09:02:08Z</time>
      </trkpt>
      <trkpt lat="38.4919730" lon="-0.6553070">
        <ele>673.0</ele>
        <time>2018-10-27T09:02:14Z</time>
      </trkpt>
      <trkpt lat="38.4921160" lon="-0.6553010">
        <ele>673.8</ele>
        <time>2018-10-27T09:02:22Z</time>
      </trkpt>
      <trkpt lat="38.4921340" lon="-0.6552960">
        <ele>674.0</ele>
        <time>2018-10-27T09:02:23Z</time>
      </trkpt>
      <trkpt lat="38.4922340" lon="-0.6552380">
        <ele>674.6</ele>
        <time>2018-10-27T09:02:29Z</time>
      </trkpt>
      <trkpt lat="38.4923530" lon="-0.6551140">
        <ele>674.8</ele>
        <time>2018-10-27T09:02:36Z</time>
      </trkpt>
      <trkpt lat="38.4924560" lon="-0.6549780">
        <ele>675.0</ele>
        <time>2018-10-27T09:02:43Z</time>
      </trkpt>
      <trkpt lat="38.4924700" lon="-0.6549600">
        <ele>675.0</ele>
        <time>2018-10-27T09:02:44Z</time>
      </trkpt>
      <trkpt lat="38.4925650" lon="-0.6548640">
        <ele>675.0</ele>
        <time>2018-10-27T09:02:50Z</time>
      </trkpt>
      <trkpt lat="38.4926840" lon="-0.6547340">
        <ele>675.0</ele>
        <time>2018-10-27T09:02:58Z</time>
      </trkpt>
      <trkpt lat="38.4927180" lon="-0.6547100">
        <ele>674.8</ele>
        <time>2018-10-27T09:03:00Z</time>
      </trkpt>
      <trkpt lat="38.4927740" lon="-0.6546670">
        <ele>674.8</ele>
        <time>2018-10-27T09:03:04Z</time>
      </trkpt>
      <trkpt lat="38.4927900" lon="-0.6546580">
        <ele>674.8</ele>
        <time>2018-10-27T09:03:05Z</time>
      </trkpt>
      <trkpt lat="38.4929160" lon="-0.6545920">
        <ele>675.2</ele>
        <time>2018-10-27T09:03:12Z</time>
      </trkpt>
      <trkpt lat="38.4929510" lon="-0.6545730">
        <ele>675.4</ele>
        <time>2018-10-27T09:03:14Z</time>
      </trkpt>
      <trkpt lat="38.4930100" lon="-0.6545410">
        <ele>675.4</ele>
        <time>2018-10-27T09:03:17Z</time>
      </trkpt>
      <trkpt lat="38.4930860" lon="-0.6545270">
        <ele>675.6</ele>
        <time>2018-10-27T09:03:21Z</time>
      </trkpt>
      <trkpt lat="38.4932110" lon="-0.6545320">
        <ele>675.8</ele>
        <time>2018-10-27T09:03:29Z</time>
      </trkpt>
      <trkpt lat="38.4932780" lon="-0.6545310">
        <ele>675.2</ele>
        <time>2018-10-27T09:03:34Z</time>
      </trkpt>
      <trkpt lat="38.4933060" lon="-0.6545380">
        <ele>675.0</ele>
        <time>2018-10-27T09:03:38Z</time>
      </trkpt>
      <trkpt lat="38.4933120" lon="-0.6545440">
        <ele>674.8</ele>
        <time>2018-10-27T09:03:40Z</time>
      </trkpt>
      <trkpt lat="38.4933230" lon="-0.6545440">
        <ele>674.8</ele>
        <time>2018-10-27T09:03:42Z</time>
      </trkpt>
      <trkpt lat="38.4934550" lon="-0.6545240">
        <ele>675.2</ele>
        <time>2018-10-27T09:03:57Z</time>
      </trkpt>
      <trkpt lat="38.4934740" lon="-0.6545200">
        <ele>675.4</ele>
        <time>2018-10-27T09:03:58Z</time>
      </trkpt>
      <trkpt lat="38.4935070" lon="-0.6545020">
        <ele>675.8</ele>
        <time>2018-10-27T09:04:00Z</time>
      </trkpt>
      <trkpt lat="38.4935390" lon="-0.6544970">
        <ele>676.0</ele>
        <time>2018-10-27T09:04:02Z</time>
      </trkpt>
      <trkpt lat="38.4935560" lon="-0.6544940">
        <ele>676.2</ele>
        <time>2018-10-27T09:04:03Z</time>
      </trkpt>
      <trkpt lat="38.4935820" lon="-0.6544740">
        <ele>676.2</ele>
        <time>2018-10-27T09:04:04Z</time>
      </trkpt>
      <trkpt lat="38.4936210" lon="-0.6544550">
        <ele>676.6</ele>
        <time>2018-10-27T09:04:06Z</time>
      </trkpt>
      <trkpt lat="38.4936370" lon="-0.6544440">
        <ele>676.6</ele>
        <time>2018-10-27T09:04:07Z</time>
      </trkpt>
      <trkpt lat="38.4936710" lon="-0.6544250">
        <ele>677.0</ele>
        <time>2018-10-27T09:04:09Z</time>
      </trkpt>
      <trkpt lat="38.4936930" lon="-0.6543970">
        <ele>677.2</ele>
        <time>2018-10-27T09:04:11Z</time>
      </trkpt>
      <trkpt lat="38.4937350" lon="-0.6543500">
        <ele>678.0</ele>
        <time>2018-10-27T09:04:14Z</time>
      </trkpt>
      <trkpt lat="38.4937490" lon="-0.6543360">
        <ele>678.2</ele>
        <time>2018-10-27T09:04:15Z</time>
      </trkpt>
      <trkpt lat="38.4937980" lon="-0.6542760">
        <ele>679.0</ele>
        <time>2018-10-27T09:04:18Z</time>
      </trkpt>
      <trkpt lat="38.4938340" lon="-0.6542480">
        <ele>679.4</ele>
        <time>2018-10-27T09:04:20Z</time>
      </trkpt>
      <trkpt lat="38.4939130" lon="-0.6542200">
        <ele>680.6</ele>
        <time>2018-10-27T09:04:24Z</time>
      </trkpt>
      <trkpt lat="38.4939430" lon="-0.6542280">
        <ele>681.2</ele>
        <time>2018-10-27T09:04:26Z</time>
      </trkpt>
      <trkpt lat="38.4939580" lon="-0.6542550">
        <ele>681.6</ele>
        <time>2018-10-27T09:04:28Z</time>
      </trkpt>
      <trkpt lat="38.4940140" lon="-0.6542980">
        <ele>682.0</ele>
        <time>2018-10-27T09:04:32Z</time>
      </trkpt>
      <trkpt lat="38.4940940" lon="-0.6543550">
        <ele>682.2</ele>
        <time>2018-10-27T09:04:37Z</time>
      </trkpt>
      <trkpt lat="38.4941130" lon="-0.6543670">
        <ele>682.2</ele>
        <time>2018-10-27T09:04:38Z</time>
      </trkpt>
      <trkpt lat="38.4941530" lon="-0.6543980">
        <ele>682.4</ele>
        <time>2018-10-27T09:04:40Z</time>
      </trkpt>
      <trkpt lat="38.4941820" lon="-0.6544360">
        <ele>682.4</ele>
        <time>2018-10-27T09:04:42Z</time>
      </trkpt>
      <trkpt lat="38.4941940" lon="-0.6544580">
        <ele>682.4</ele>
        <time>2018-10-27T09:04:43Z</time>
      </trkpt>
      <trkpt lat="38.4942860" lon="-0.6545110">
        <ele>682.6</ele>
        <time>2018-10-27T09:04:48Z</time>
      </trkpt>
      <trkpt lat="38.4942970" lon="-0.6545310">
        <ele>682.6</ele>
        <time>2018-10-27T09:04:49Z</time>
      </trkpt>
      <trkpt lat="38.4943650" lon="-0.6545770">
        <ele>682.8</ele>
        <time>2018-10-27T09:04:54Z</time>
      </trkpt>
      <trkpt lat="38.4943680" lon="-0.6546080">
        <ele>682.8</ele>
        <time>2018-10-27T09:04:55Z</time>
      </trkpt>
      <trkpt lat="38.4943730" lon="-0.6547470">
        <ele>682.8</ele>
        <time>2018-10-27T09:05:01Z</time>
      </trkpt>
      <trkpt lat="38.4943750" lon="-0.6547950">
        <ele>682.8</ele>
        <time>2018-10-27T09:05:04Z</time>
      </trkpt>
      <trkpt lat="38.4943860" lon="-0.6548300">
        <ele>682.8</ele>
        <time>2018-10-27T09:05:08Z</time>
      </trkpt>
      <trkpt lat="38.4943890" lon="-0.6548400">
        <ele>682.8</ele>
        <time>2018-10-27T09:05:09Z</time>
      </trkpt>
      <trkpt lat="38.4943820" lon="-0.6548840">
        <ele>682.8</ele>
        <time>2018-10-27T09:05:15Z</time>
      </trkpt>
      <trkpt lat="38.4943730" lon="-0.6549320">
        <ele>682.8</ele>
        <time>2018-10-27T09:05:19Z</time>
      </trkpt>
      <trkpt lat="38.4943780" lon="-0.6549540">
        <ele>682.8</ele>
        <time>2018-10-27T09:05:21Z</time>
      </trkpt>
      <trkpt lat="38.4943850" lon="-0.6549680">
        <ele>682.8</ele>
        <time>2018-10-27T09:05:22Z</time>
      </trkpt>
      <trkpt lat="38.4943920" lon="-0.6549750">
        <ele>682.8</ele>
        <time>2018-10-27T09:05:26Z</time>
      </trkpt>
      <trkpt lat="38.4943970" lon="-0.6549800">
        <ele>683.0</ele>
        <time>2018-10-27T09:05:29Z</time>
      </trkpt>
      <trkpt lat="38.4944080" lon="-0.6550240">
        <ele>683.0</ele>
        <time>2018-10-27T09:05:33Z</time>
      </trkpt>
      <trkpt lat="38.4944270" lon="-0.6550990">
        <ele>683.0</ele>
        <time>2018-10-27T09:05:37Z</time>
      </trkpt>
      <trkpt lat="38.4944430" lon="-0.6551350">
        <ele>683.0</ele>
        <time>2018-10-27T09:05:39Z</time>
      </trkpt>
      <trkpt lat="38.4945060" lon="-0.6552110">
        <ele>683.2</ele>
        <time>2018-10-27T09:05:46Z</time>
      </trkpt>
      <trkpt lat="38.4945480" lon="-0.6552590">
        <ele>683.4</ele>
        <time>2018-10-27T09:05:51Z</time>
      </trkpt>
      <trkpt lat="38.4946010" lon="-0.6553340">
        <ele>683.6</ele>
        <time>2018-10-27T09:05:55Z</time>
      </trkpt>
      <trkpt lat="38.4946340" lon="-0.6553910">
        <ele>683.8</ele>
        <time>2018-10-27T09:05:58Z</time>
      </trkpt>
      <trkpt lat="38.4946800" lon="-0.6555670">
        <ele>684.2</ele>
        <time>2018-10-27T09:06:05Z</time>
      </trkpt>
      <trkpt lat="38.4947430" lon="-0.6556760">
        <ele>684.6</ele>
        <time>2018-10-27T09:06:10Z</time>
      </trkpt>
      <trkpt lat="38.4947570" lon="-0.6556910">
        <ele>684.8</ele>
        <time>2018-10-27T09:06:11Z</time>
      </trkpt>
      <trkpt lat="38.4948390" lon="-0.6557460">
        <ele>685.2</ele>
        <time>2018-10-27T09:06:16Z</time>
      </trkpt>
      <trkpt lat="38.4949470" lon="-0.6557470">
        <ele>685.6</ele>
        <time>2018-10-27T09:06:22Z</time>
      </trkpt>
      <trkpt lat="38.4949620" lon="-0.6557450">
        <ele>685.8</ele>
        <time>2018-10-27T09:06:23Z</time>
      </trkpt>
      <trkpt lat="38.4950430" lon="-0.6557390">
        <ele>686.0</ele>
        <time>2018-10-27T09:06:27Z</time>
      </trkpt>
      <trkpt lat="38.4951090" lon="-0.6557510">
        <ele>686.4</ele>
        <time>2018-10-27T09:06:30Z</time>
      </trkpt>
      <trkpt lat="38.4952010" lon="-0.6557770">
        <ele>686.8</ele>
        <time>2018-10-27T09:06:35Z</time>
      </trkpt>
      <trkpt lat="38.4952210" lon="-0.6557750">
        <ele>686.8</ele>
        <time>2018-10-27T09:06:36Z</time>
      </trkpt>
      <trkpt lat="38.4952650" lon="-0.6557630">
        <ele>687.0</ele>
        <time>2018-10-27T09:06:38Z</time>
      </trkpt>
      <trkpt lat="38.4952860" lon="-0.6557600">
        <ele>687.2</ele>
        <time>2018-10-27T09:06:39Z</time>
      </trkpt>
      <trkpt lat="38.4953310" lon="-0.6557450">
        <ele>687.4</ele>
        <time>2018-10-27T09:06:41Z</time>
      </trkpt>
      <trkpt lat="38.4953730" lon="-0.6557360">
        <ele>687.6</ele>
        <time>2018-10-27T09:06:43Z</time>
      </trkpt>
      <trkpt lat="38.4954410" lon="-0.6556910">
        <ele>687.8</ele>
        <time>2018-10-27T09:06:46Z</time>
      </trkpt>
      <trkpt lat="38.4955270" lon="-0.6556200">
        <ele>688.2</ele>
        <time>2018-10-27T09:06:50Z</time>
      </trkpt>
      <trkpt lat="38.4955970" lon="-0.6555460">
        <ele>688.6</ele>
        <time>2018-10-27T09:06:54Z</time>
      </trkpt>
      <trkpt lat="38.4956360" lon="-0.6554780">
        <ele>688.8</ele>
        <time>2018-10-27T09:06:57Z</time>
      </trkpt>
      <trkpt lat="38.4956450" lon="-0.6554540">
        <ele>689.0</ele>
        <time>2018-10-27T09:06:58Z</time>
      </trkpt>
      <trkpt lat="38.4956690" lon="-0.6553340">
        <ele>689.4</ele>
        <time>2018-10-27T09:07:03Z</time>
      </trkpt>
      <trkpt lat="38.4956860" lon="-0.6552690">
        <ele>689.6</ele>
        <time>2018-10-27T09:07:06Z</time>
      </trkpt>
      <trkpt lat="38.4956960" lon="-0.6552180">
        <ele>689.8</ele>
        <time>2018-10-27T09:07:08Z</time>
      </trkpt>
      <trkpt lat="38.4957110" lon="-0.6551760">
        <ele>689.8</ele>
        <time>2018-10-27T09:07:10Z</time>
      </trkpt>
      <trkpt lat="38.4957410" lon="-0.6551090">
        <ele>690.2</ele>
        <time>2018-10-27T09:07:13Z</time>
      </trkpt>
      <trkpt lat="38.4957600" lon="-0.6550550">
        <ele>690.4</ele>
        <time>2018-10-27T09:07:15Z</time>
      </trkpt>
      <trkpt lat="38.4957670" lon="-0.6550070">
        <ele>690.4</ele>
        <time>2018-10-27T09:07:17Z</time>
      </trkpt>
      <trkpt lat="38.4957700" lon="-0.6549830">
        <ele>690.6</ele>
        <time>2018-10-27T09:07:18Z</time>
      </trkpt>
      <trkpt lat="38.4957730" lon="-0.6549590">
        <ele>690.6</ele>
        <time>2018-10-27T09:07:19Z</time>
      </trkpt>
      <trkpt lat="38.4957780" lon="-0.6548960">
        <ele>691.0</ele>
        <time>2018-10-27T09:07:22Z</time>
      </trkpt>
      <trkpt lat="38.4957840" lon="-0.6548420">
        <ele>691.2</ele>
        <time>2018-10-27T09:07:25Z</time>
      </trkpt>
      <trkpt lat="38.4958290" lon="-0.6547280">
        <ele>692.0</ele>
        <time>2018-10-27T09:07:33Z</time>
      </trkpt>
      <trkpt lat="38.4958830" lon="-0.6546970">
        <ele>692.4</ele>
        <time>2018-10-27T09:07:37Z</time>
      </trkpt>
      <trkpt lat="38.4959160" lon="-0.6546980">
        <ele>692.6</ele>
        <time>2018-10-27T09:07:39Z</time>
      </trkpt>
      <trkpt lat="38.4959930" lon="-0.6546990">
        <ele>692.8</ele>
        <time>2018-10-27T09:07:43Z</time>
      </trkpt>
      <trkpt lat="38.4960120" lon="-0.6547040">
        <ele>693.0</ele>
        <time>2018-10-27T09:07:44Z</time>
      </trkpt>
      <trkpt lat="38.4960680" lon="-0.6547110">
        <ele>693.2</ele>
        <time>2018-10-27T09:07:47Z</time>
      </trkpt>
      <trkpt lat="38.4961830" lon="-0.6546930">
        <ele>694.0</ele>
        <time>2018-10-27T09:07:54Z</time>
      </trkpt>
      <trkpt lat="38.4961970" lon="-0.6546800">
        <ele>694.2</ele>
        <time>2018-10-27T09:07:55Z</time>
      </trkpt>
      <trkpt lat="38.4962700" lon="-0.6545760">
        <ele>694.8</ele>
        <time>2018-10-27T09:08:01Z</time>
      </trkpt>
      <trkpt lat="38.4962970" lon="-0.6545150">
        <ele>695.0</ele>
        <time>2018-10-27T09:08:04Z</time>
      </trkpt>
      <trkpt lat="38.4963680" lon="-0.6544340">
        <ele>695.6</ele>
        <time>2018-10-27T09:08:09Z</time>
      </trkpt>
      <trkpt lat="38.4964170" lon="-0.6543970">
        <ele>696.0</ele>
        <time>2018-10-27T09:08:12Z</time>
      </trkpt>
      <trkpt lat="38.4964250" lon="-0.6543800">
        <ele>696.0</ele>
        <time>2018-10-27T09:08:13Z</time>
      </trkpt>
      <trkpt lat="38.4964360" lon="-0.6543650">
        <ele>696.2</ele>
        <time>2018-10-27T09:08:14Z</time>
      </trkpt>
      <trkpt lat="38.4965210" lon="-0.6542850">
        <ele>697.0</ele>
        <time>2018-10-27T09:08:21Z</time>
      </trkpt>
      <trkpt lat="38.4965340" lon="-0.6542760">
        <ele>697.2</ele>
        <time>2018-10-27T09:08:22Z</time>
      </trkpt>
      <trkpt lat="38.4966110" lon="-0.6542170">
        <ele>697.8</ele>
        <time>2018-10-27T09:08:28Z</time>
      </trkpt>
      <trkpt lat="38.4966360" lon="-0.6541720">
        <ele>698.2</ele>
        <time>2018-10-27T09:08:31Z</time>
      </trkpt>
      <trkpt lat="38.4966520" lon="-0.6541480">
        <ele>698.4</ele>
        <time>2018-10-27T09:08:33Z</time>
      </trkpt>
      <trkpt lat="38.4966630" lon="-0.6541380">
        <ele>698.6</ele>
        <time>2018-10-27T09:08:34Z</time>
      </trkpt>
      <trkpt lat="38.4967140" lon="-0.6540720">
        <ele>699.2</ele>
        <time>2018-10-27T09:08:39Z</time>
      </trkpt>
      <trkpt lat="38.4967230" lon="-0.6540600">
        <ele>699.2</ele>
        <time>2018-10-27T09:08:40Z</time>
      </trkpt>
      <trkpt lat="38.4967470" lon="-0.6540190">
        <ele>699.6</ele>
        <time>2018-10-27T09:08:43Z</time>
      </trkpt>
      <trkpt lat="38.4967710" lon="-0.6539690">
        <ele>700.0</ele>
        <time>2018-10-27T09:08:46Z</time>
      </trkpt>
      <trkpt lat="38.4967990" lon="-0.6539180">
        <ele>700.4</ele>
        <time>2018-10-27T09:08:49Z</time>
      </trkpt>
      <trkpt lat="38.4968170" lon="-0.6538790">
        <ele>700.6</ele>
        <time>2018-10-27T09:08:51Z</time>
      </trkpt>
      <trkpt lat="38.4968360" lon="-0.6538540">
        <ele>700.8</ele>
        <time>2018-10-27T09:08:53Z</time>
      </trkpt>
      <trkpt lat="38.4968970" lon="-0.6538030">
        <ele>701.4</ele>
        <time>2018-10-27T09:08:58Z</time>
      </trkpt>
      <trkpt lat="38.4969230" lon="-0.6537860">
        <ele>701.6</ele>
        <time>2018-10-27T09:09:00Z</time>
      </trkpt>
      <trkpt lat="38.4969450" lon="-0.6537670">
        <ele>702.0</ele>
        <time>2018-10-27T09:09:02Z</time>
      </trkpt>
      <trkpt lat="38.4970030" lon="-0.6537290">
        <ele>702.4</ele>
        <time>2018-10-27T09:09:06Z</time>
      </trkpt>
      <trkpt lat="38.4970200" lon="-0.6537220">
        <ele>702.6</ele>
        <time>2018-10-27T09:09:07Z</time>
      </trkpt>
      <trkpt lat="38.4970500" lon="-0.6536980">
        <ele>703.0</ele>
        <time>2018-10-27T09:09:09Z</time>
      </trkpt>
      <trkpt lat="38.4970790" lon="-0.6536530">
        <ele>703.4</ele>
        <time>2018-10-27T09:09:12Z</time>
      </trkpt>
      <trkpt lat="38.4970970" lon="-0.6536520">
        <ele>703.6</ele>
        <time>2018-10-27T09:09:13Z</time>
      </trkpt>
      <trkpt lat="38.4971360" lon="-0.6536280">
        <ele>703.8</ele>
        <time>2018-10-27T09:09:15Z</time>
      </trkpt>
      <trkpt lat="38.4971520" lon="-0.6536110">
        <ele>704.0</ele>
        <time>2018-10-27T09:09:16Z</time>
      </trkpt>
      <trkpt lat="38.4971810" lon="-0.6535960">
        <ele>704.2</ele>
        <time>2018-10-27T09:09:18Z</time>
      </trkpt>
      <trkpt lat="38.4972080" lon="-0.6535830">
        <ele>704.6</ele>
        <time>2018-10-27T09:09:20Z</time>
      </trkpt>
      <trkpt lat="38.4972340" lon="-0.6535590">
        <ele>704.8</ele>
        <time>2018-10-27T09:09:22Z</time>
      </trkpt>
      <trkpt lat="38.4972790" lon="-0.6534550">
        <ele>705.6</ele>
        <time>2018-10-27T09:09:27Z</time>
      </trkpt>
      <trkpt lat="38.4972900" lon="-0.6534090">
        <ele>706.0</ele>
        <time>2018-10-27T09:09:29Z</time>
      </trkpt>
      <trkpt lat="38.4973070" lon="-0.6533160">
        <ele>706.6</ele>
        <time>2018-10-27T09:09:34Z</time>
      </trkpt>
      <trkpt lat="38.4973240" lon="-0.6532780">
        <ele>707.0</ele>
        <time>2018-10-27T09:09:36Z</time>
      </trkpt>
      <trkpt lat="38.4973370" lon="-0.6532490">
        <ele>707.4</ele>
        <time>2018-10-27T09:09:38Z</time>
      </trkpt>
      <trkpt lat="38.4973490" lon="-0.6531970">
        <ele>707.8</ele>
        <time>2018-10-27T09:09:41Z</time>
      </trkpt>
      <trkpt lat="38.4973570" lon="-0.6531650">
        <ele>708.2</ele>
        <time>2018-10-27T09:09:43Z</time>
      </trkpt>
      <trkpt lat="38.4973960" lon="-0.6530930">
        <ele>709.0</ele>
        <time>2018-10-27T09:09:48Z</time>
      </trkpt>
      <trkpt lat="38.4974090" lon="-0.6530600">
        <ele>709.2</ele>
        <time>2018-10-27T09:09:50Z</time>
      </trkpt>
      <trkpt lat="38.4974360" lon="-0.6529660">
        <ele>710.0</ele>
        <time>2018-10-27T09:09:55Z</time>
      </trkpt>
      <trkpt lat="38.4974350" lon="-0.6529220">
        <ele>710.4</ele>
        <time>2018-10-27T09:09:57Z</time>
      </trkpt>
      <trkpt lat="38.4974330" lon="-0.6528180">
        <ele>711.2</ele>
        <time>2018-10-27T09:10:02Z</time>
      </trkpt>
      <trkpt lat="38.4974440" lon="-0.6527770">
        <ele>711.4</ele>
        <time>2018-10-27T09:10:04Z</time>
      </trkpt>
      <trkpt lat="38.4974630" lon="-0.6526700">
        <ele>712.2</ele>
        <time>2018-10-27T09:10:09Z</time>
      </trkpt>
      <trkpt lat="38.4975020" lon="-0.6525990">
        <ele>713.0</ele>
        <time>2018-10-27T09:10:13Z</time>
      </trkpt>
      <trkpt lat="38.4975180" lon="-0.6525630">
        <ele>713.2</ele>
        <time>2018-10-27T09:10:15Z</time>
      </trkpt>
      <trkpt lat="38.4975570" lon="-0.6525010">
        <ele>714.0</ele>
        <time>2018-10-27T09:10:20Z</time>
      </trkpt>
      <trkpt lat="38.4975700" lon="-0.6524860">
        <ele>714.2</ele>
        <time>2018-10-27T09:10:21Z</time>
      </trkpt>
      <trkpt lat="38.4975880" lon="-0.6524490">
        <ele>714.6</ele>
        <time>2018-10-27T09:10:23Z</time>
      </trkpt>
      <trkpt lat="38.4976110" lon="-0.6524080">
        <ele>715.0</ele>
        <time>2018-10-27T09:10:26Z</time>
      </trkpt>
      <trkpt lat="38.4976250" lon="-0.6523810">
        <ele>715.4</ele>
        <time>2018-10-27T09:10:28Z</time>
      </trkpt>
      <trkpt lat="38.4976740" lon="-0.6523290">
        <ele>716.2</ele>
        <time>2018-10-27T09:10:33Z</time>
      </trkpt>
      <trkpt lat="38.4976830" lon="-0.6523170">
        <ele>716.4</ele>
        <time>2018-10-27T09:10:34Z</time>
      </trkpt>
      <trkpt lat="38.4977550" lon="-0.6522260">
        <ele>717.4</ele>
        <time>2018-10-27T09:10:40Z</time>
      </trkpt>
      <trkpt lat="38.4977650" lon="-0.6522100">
        <ele>717.6</ele>
        <time>2018-10-27T09:10:41Z</time>
      </trkpt>
      <trkpt lat="38.4977850" lon="-0.6521740">
        <ele>717.8</ele>
        <time>2018-10-27T09:10:43Z</time>
      </trkpt>
      <trkpt lat="38.4978310" lon="-0.6521090">
        <ele>718.6</ele>
        <time>2018-10-27T09:10:47Z</time>
      </trkpt>
      <trkpt lat="38.4978370" lon="-0.6520920">
        <ele>718.8</ele>
        <time>2018-10-27T09:10:48Z</time>
      </trkpt>
      <trkpt lat="38.4978480" lon="-0.6520510">
        <ele>719.0</ele>
        <time>2018-10-27T09:10:50Z</time>
      </trkpt>
      <trkpt lat="38.4978510" lon="-0.6519990">
        <ele>719.6</ele>
        <time>2018-10-27T09:10:53Z</time>
      </trkpt>
      <trkpt lat="38.4978530" lon="-0.6519790">
        <ele>719.8</ele>
        <time>2018-10-27T09:10:54Z</time>
      </trkpt>
      <trkpt lat="38.4978780" lon="-0.6519280">
        <ele>720.4</ele>
        <time>2018-10-27T09:10:58Z</time>
      </trkpt>
      <trkpt lat="38.4978940" lon="-0.6519030">
        <ele>720.8</ele>
        <time>2018-10-27T09:11:00Z</time>
      </trkpt>
      <trkpt lat="38.4979420" lon="-0.6518500">
        <ele>721.8</ele>
        <time>2018-10-27T09:11:06Z</time>
      </trkpt>
      <trkpt lat="38.4980000" lon="-0.6518050">
        <ele>722.6</ele>
        <time>2018-10-27T09:11:12Z</time>
      </trkpt>
      <trkpt lat="38.4980100" lon="-0.6517990">
        <ele>722.8</ele>
        <time>2018-10-27T09:11:13Z</time>
      </trkpt>
      <trkpt lat="38.4980210" lon="-0.6517920">
        <ele>723.0</ele>
        <time>2018-10-27T09:11:14Z</time>
      </trkpt>
      <trkpt lat="38.4980370" lon="-0.6517750">
        <ele>723.4</ele>
        <time>2018-10-27T09:11:16Z</time>
      </trkpt>
      <trkpt lat="38.4980470" lon="-0.6517680">
        <ele>731.4</ele>
        <time>2018-10-27T09:11:17Z</time>
      </trkpt>
      <trkpt lat="38.4980560" lon="-0.6517660">
        <ele>735.4</ele>
        <time>2018-10-27T09:11:18Z</time>
      </trkpt>
      <trkpt lat="38.4980670" lon="-0.6517610">
        <ele>737.6</ele>
        <time>2018-10-27T09:11:19Z</time>
      </trkpt>
      <trkpt lat="38.4980750" lon="-0.6517570">
        <ele>738.6</ele>
        <time>2018-10-27T09:11:20Z</time>
      </trkpt>
      <trkpt lat="38.4981060" lon="-0.6517470">
        <ele>739.8</ele>
        <time>2018-10-27T09:11:23Z</time>
      </trkpt>
      <trkpt lat="38.4981140" lon="-0.6517400">
        <ele>740.0</ele>
        <time>2018-10-27T09:11:24Z</time>
      </trkpt>
      <trkpt lat="38.4981430" lon="-0.6517310">
        <ele>740.8</ele>
        <time>2018-10-27T09:11:27Z</time>
      </trkpt>
      <trkpt lat="38.4981950" lon="-0.6516980">
        <ele>741.4</ele>
        <time>2018-10-27T09:11:31Z</time>
      </trkpt>
      <trkpt lat="38.4982370" lon="-0.6516180">
        <ele>742.0</ele>
        <time>2018-10-27T09:11:35Z</time>
      </trkpt>
      <trkpt lat="38.4982580" lon="-0.6515800">
        <ele>742.4</ele>
        <time>2018-10-27T09:11:37Z</time>
      </trkpt>
      <trkpt lat="38.4982750" lon="-0.6515070">
        <ele>742.8</ele>
        <time>2018-10-27T09:11:41Z</time>
      </trkpt>
      <trkpt lat="38.4982730" lon="-0.6514850">
        <ele>743.0</ele>
        <time>2018-10-27T09:11:42Z</time>
      </trkpt>
      <trkpt lat="38.4982700" lon="-0.6514610">
        <ele>743.2</ele>
        <time>2018-10-27T09:11:43Z</time>
      </trkpt>
      <trkpt lat="38.4982680" lon="-0.6514400">
        <ele>743.4</ele>
        <time>2018-10-27T09:11:44Z</time>
      </trkpt>
      <trkpt lat="38.4982530" lon="-0.6513770">
        <ele>743.6</ele>
        <time>2018-10-27T09:11:47Z</time>
      </trkpt>
      <trkpt lat="38.4982450" lon="-0.6513540">
        <ele>744.0</ele>
        <time>2018-10-27T09:11:48Z</time>
      </trkpt>
      <trkpt lat="38.4982300" lon="-0.6513140">
        <ele>744.4</ele>
        <time>2018-10-27T09:11:50Z</time>
      </trkpt>
      <trkpt lat="38.4982260" lon="-0.6512750">
        <ele>745.2</ele>
        <time>2018-10-27T09:11:52Z</time>
      </trkpt>
      <trkpt lat="38.4982230" lon="-0.6512160">
        <ele>746.2</ele>
        <time>2018-10-27T09:11:55Z</time>
      </trkpt>
      <trkpt lat="38.4982190" lon="-0.6511980">
        <ele>746.6</ele>
        <time>2018-10-27T09:11:56Z</time>
      </trkpt>
      <trkpt lat="38.4982240" lon="-0.6510810">
        <ele>747.2</ele>
        <time>2018-10-27T09:12:01Z</time>
      </trkpt>
      <trkpt lat="38.4982330" lon="-0.6509940">
        <ele>747.6</ele>
        <time>2018-10-27T09:12:06Z</time>
      </trkpt>
      <trkpt lat="38.4982370" lon="-0.6509600">
        <ele>748.2</ele>
        <time>2018-10-27T09:12:08Z</time>
      </trkpt>
      <trkpt lat="38.4982480" lon="-0.6509320">
        <ele>748.8</ele>
        <time>2018-10-27T09:12:10Z</time>
      </trkpt>
      <trkpt lat="38.4982940" lon="-0.6508900">
        <ele>749.8</ele>
        <time>2018-10-27T09:12:14Z</time>
      </trkpt>
      <trkpt lat="38.4983070" lon="-0.6508870">
        <ele>750.0</ele>
        <time>2018-10-27T09:12:15Z</time>
      </trkpt>
      <trkpt lat="38.4983670" lon="-0.6509070">
        <ele>750.8</ele>
        <time>2018-10-27T09:12:20Z</time>
      </trkpt>
      <trkpt lat="38.4983790" lon="-0.6509130">
        <ele>751.2</ele>
        <time>2018-10-27T09:12:21Z</time>
      </trkpt>
      <trkpt lat="38.4984270" lon="-0.6509430">
        <ele>752.2</ele>
        <time>2018-10-27T09:12:25Z</time>
      </trkpt>
      <trkpt lat="38.4984520" lon="-0.6509560">
        <ele>752.4</ele>
        <time>2018-10-27T09:12:27Z</time>
      </trkpt>
      <trkpt lat="38.4984900" lon="-0.6509560">
        <ele>752.6</ele>
        <time>2018-10-27T09:12:30Z</time>
      </trkpt>
      <trkpt lat="38.4985190" lon="-0.6509420">
        <ele>753.0</ele>
        <time>2018-10-27T09:12:32Z</time>
      </trkpt>
      <trkpt lat="38.4985510" lon="-0.6509230">
        <ele>753.2</ele>
        <time>2018-10-27T09:12:34Z</time>
      </trkpt>
      <trkpt lat="38.4986360" lon="-0.6508040">
        <ele>754.4</ele>
        <time>2018-10-27T09:12:40Z</time>
      </trkpt>
      <trkpt lat="38.4986830" lon="-0.6506980">
        <ele>755.4</ele>
        <time>2018-10-27T09:12:45Z</time>
      </trkpt>
      <trkpt lat="38.4986900" lon="-0.6506740">
        <ele>755.6</ele>
        <time>2018-10-27T09:12:46Z</time>
      </trkpt>
      <trkpt lat="38.4987130" lon="-0.6505880">
        <ele>756.4</ele>
        <time>2018-10-27T09:12:50Z</time>
      </trkpt>
      <trkpt lat="38.4987190" lon="-0.6505680">
        <ele>756.6</ele>
        <time>2018-10-27T09:12:51Z</time>
      </trkpt>
      <trkpt lat="38.4987300" lon="-0.6505280">
        <ele>756.8</ele>
        <time>2018-10-27T09:12:53Z</time>
      </trkpt>
      <trkpt lat="38.4987440" lon="-0.6504780">
        <ele>758.2</ele>
        <time>2018-10-27T09:12:56Z</time>
      </trkpt>
      <trkpt lat="38.4987610" lon="-0.6504250">
        <ele>759.2</ele>
        <time>2018-10-27T09:13:00Z</time>
      </trkpt>
      <trkpt lat="38.4987670" lon="-0.6504140">
        <ele>759.2</ele>
        <time>2018-10-27T09:13:01Z</time>
      </trkpt>
      <trkpt lat="38.4988470" lon="-0.6503350">
        <ele>760.0</ele>
        <time>2018-10-27T09:13:09Z</time>
      </trkpt>
      <trkpt lat="38.4988730" lon="-0.6503140">
        <ele>760.4</ele>
        <time>2018-10-27T09:13:12Z</time>
      </trkpt>
      <trkpt lat="38.4988960" lon="-0.6502810">
        <ele>760.6</ele>
        <time>2018-10-27T09:13:15Z</time>
      </trkpt>
      <trkpt lat="38.4989110" lon="-0.6502310">
        <ele>761.4</ele>
        <time>2018-10-27T09:13:18Z</time>
      </trkpt>
      <trkpt lat="38.4989170" lon="-0.6502000">
        <ele>762.2</ele>
        <time>2018-10-27T09:13:20Z</time>
      </trkpt>
      <trkpt lat="38.4989210" lon="-0.6501890">
        <ele>762.4</ele>
        <time>2018-10-27T09:13:21Z</time>
      </trkpt>
      <trkpt lat="38.4989340" lon="-0.6500870">
        <ele>763.6</ele>
        <time>2018-10-27T09:13:27Z</time>
      </trkpt>
      <trkpt lat="38.4989360" lon="-0.6500690">
        <ele>763.8</ele>
        <time>2018-10-27T09:13:28Z</time>
      </trkpt>
      <trkpt lat="38.4989560" lon="-0.6500070">
        <ele>764.6</ele>
        <time>2018-10-27T09:13:32Z</time>
      </trkpt>
      <trkpt lat="38.4989640" lon="-0.6499670">
        <ele>765.0</ele>
        <time>2018-10-27T09:13:35Z</time>
      </trkpt>
      <trkpt lat="38.4989640" lon="-0.6499320">
        <ele>765.6</ele>
        <time>2018-10-27T09:13:39Z</time>
      </trkpt>
      <trkpt lat="38.4989640" lon="-0.6499320">
        <ele>765.8</ele>
        <time>2018-10-27T09:13:41Z</time>
      </trkpt>
      <trkpt lat="38.4989630" lon="-0.6499270">
        <ele>766.0</ele>
        <time>2018-10-27T09:13:43Z</time>
      </trkpt>
      <trkpt lat="38.4990140" lon="-0.6498220">
        <ele>766.4</ele>
        <time>2018-10-27T09:13:57Z</time>
      </trkpt>
      <trkpt lat="38.4990330" lon="-0.6497720">
        <ele>766.6</ele>
        <time>2018-10-27T09:14:01Z</time>
      </trkpt>
      <trkpt lat="38.4990410" lon="-0.6497610">
        <ele>766.6</ele>
        <time>2018-10-27T09:14:02Z</time>
      </trkpt>
      <trkpt lat="38.4990600" lon="-0.6497220">
        <ele>767.0</ele>
        <time>2018-10-27T09:14:05Z</time>
      </trkpt>
      <trkpt lat="38.4991150" lon="-0.6496390">
        <ele>767.6</ele>
        <time>2018-10-27T09:14:11Z</time>
      </trkpt>
      <trkpt lat="38.4991240" lon="-0.6496210">
        <ele>767.8</ele>
        <time>2018-10-27T09:14:12Z</time>
      </trkpt>
      <trkpt lat="38.4991540" lon="-0.6495390">
        <ele>768.4</ele>
        <time>2018-10-27T09:14:16Z</time>
      </trkpt>
      <trkpt lat="38.4991540" lon="-0.6494890">
        <ele>768.8</ele>
        <time>2018-10-27T09:14:18Z</time>
      </trkpt>
      <trkpt lat="38.4991550" lon="-0.6494650">
        <ele>769.0</ele>
        <time>2018-10-27T09:14:19Z</time>
      </trkpt>
      <trkpt lat="38.4991640" lon="-0.6493600">
        <ele>769.8</ele>
        <time>2018-10-27T09:14:24Z</time>
      </trkpt>
      <trkpt lat="38.4991710" lon="-0.6493190">
        <ele>770.2</ele>
        <time>2018-10-27T09:14:26Z</time>
      </trkpt>
      <trkpt lat="38.4991710" lon="-0.6492970">
        <ele>770.4</ele>
        <time>2018-10-27T09:14:27Z</time>
      </trkpt>
      <trkpt lat="38.4991780" lon="-0.6492550">
        <ele>771.2</ele>
        <time>2018-10-27T09:14:29Z</time>
      </trkpt>
      <trkpt lat="38.4991840" lon="-0.6491990">
        <ele>772.0</ele>
        <time>2018-10-27T09:14:32Z</time>
      </trkpt>
      <trkpt lat="38.4991820" lon="-0.6491780">
        <ele>772.4</ele>
        <time>2018-10-27T09:14:33Z</time>
      </trkpt>
      <trkpt lat="38.4991660" lon="-0.6490950">
        <ele>773.4</ele>
        <time>2018-10-27T09:14:37Z</time>
      </trkpt>
      <trkpt lat="38.4991600" lon="-0.6490750">
        <ele>773.6</ele>
        <time>2018-10-27T09:14:38Z</time>
      </trkpt>
      <trkpt lat="38.4991460" lon="-0.6490040">
        <ele>774.4</ele>
        <time>2018-10-27T09:14:42Z</time>
      </trkpt>
      <trkpt lat="38.4991530" lon="-0.6489720">
        <ele>774.8</ele>
        <time>2018-10-27T09:14:44Z</time>
      </trkpt>
      <trkpt lat="38.4991580" lon="-0.6488470">
        <ele>775.4</ele>
        <time>2018-10-27T09:14:51Z</time>
      </trkpt>
      <trkpt lat="38.4991580" lon="-0.6488270">
        <ele>775.6</ele>
        <time>2018-10-27T09:14:52Z</time>
      </trkpt>
      <trkpt lat="38.4991440" lon="-0.6486990">
        <ele>777.0</ele>
        <time>2018-10-27T09:14:59Z</time>
      </trkpt>
      <trkpt lat="38.4991440" lon="-0.6486850">
        <ele>777.2</ele>
        <time>2018-10-27T09:15:00Z</time>
      </trkpt>
      <trkpt lat="38.4991370" lon="-0.6486740">
        <ele>777.4</ele>
        <time>2018-10-27T09:15:01Z</time>
      </trkpt>
      <trkpt lat="38.4991180" lon="-0.6486310">
        <ele>778.0</ele>
        <time>2018-10-27T09:15:04Z</time>
      </trkpt>
      <trkpt lat="38.4991120" lon="-0.6486040">
        <ele>778.2</ele>
        <time>2018-10-27T09:15:06Z</time>
      </trkpt>
      <trkpt lat="38.4990980" lon="-0.6485870">
        <ele>778.4</ele>
        <time>2018-10-27T09:15:08Z</time>
      </trkpt>
      <trkpt lat="38.4990770" lon="-0.6485700">
        <ele>778.6</ele>
        <time>2018-10-27T09:15:10Z</time>
      </trkpt>
      <trkpt lat="38.4990670" lon="-0.6485580">
        <ele>778.8</ele>
        <time>2018-10-27T09:15:11Z</time>
      </trkpt>
      <trkpt lat="38.4990530" lon="-0.6485310">
        <ele>779.0</ele>
        <time>2018-10-27T09:15:13Z</time>
      </trkpt>
      <trkpt lat="38.4990450" lon="-0.6485050">
        <ele>779.4</ele>
        <time>2018-10-27T09:15:15Z</time>
      </trkpt>
      <trkpt lat="38.4990370" lon="-0.6484690">
        <ele>780.0</ele>
        <time>2018-10-27T09:15:18Z</time>
      </trkpt>
      <trkpt lat="38.4990350" lon="-0.6484520">
        <ele>780.2</ele>
        <time>2018-10-27T09:15:19Z</time>
      </trkpt>
      <trkpt lat="38.4990210" lon="-0.6483660">
        <ele>781.6</ele>
        <time>2018-10-27T09:15:25Z</time>
      </trkpt>
      <trkpt lat="38.4990260" lon="-0.6483180">
        <ele>782.4</ele>
        <time>2018-10-27T09:15:27Z</time>
      </trkpt>
      <trkpt lat="38.4990310" lon="-0.6482940">
        <ele>782.6</ele>
        <time>2018-10-27T09:15:28Z</time>
      </trkpt>
      <trkpt lat="38.4990370" lon="-0.6482470">
        <ele>783.0</ele>
        <time>2018-10-27T09:15:30Z</time>
      </trkpt>
      <trkpt lat="38.4990480" lon="-0.6481820">
        <ele>783.6</ele>
        <time>2018-10-27T09:15:33Z</time>
      </trkpt>
      <trkpt lat="38.4990750" lon="-0.6481100">
        <ele>784.4</ele>
        <time>2018-10-27T09:15:36Z</time>
      </trkpt>
      <trkpt lat="38.4990870" lon="-0.6480870">
        <ele>784.8</ele>
        <time>2018-10-27T09:15:37Z</time>
      </trkpt>
      <trkpt lat="38.4991320" lon="-0.6480310">
        <ele>785.8</ele>
        <time>2018-10-27T09:15:41Z</time>
      </trkpt>
      <trkpt lat="38.4991400" lon="-0.6480230">
        <ele>786.4</ele>
        <time>2018-10-27T09:15:42Z</time>
      </trkpt>
      <trkpt lat="38.4991510" lon="-0.6480140">
        <ele>786.6</ele>
        <time>2018-10-27T09:15:43Z</time>
      </trkpt>
      <trkpt lat="38.4991610" lon="-0.6480100">
        <ele>787.0</ele>
        <time>2018-10-27T09:15:44Z</time>
      </trkpt>
      <trkpt lat="38.4992060" lon="-0.6479980">
        <ele>787.4</ele>
        <time>2018-10-27T09:15:48Z</time>
      </trkpt>
      <trkpt lat="38.4992370" lon="-0.6479590">
        <ele>787.8</ele>
        <time>2018-10-27T09:15:52Z</time>
      </trkpt>
      <trkpt lat="38.4992400" lon="-0.6479270">
        <ele>787.8</ele>
        <time>2018-10-27T09:15:54Z</time>
      </trkpt>
      <trkpt lat="38.4992400" lon="-0.6478980">
        <ele>788.2</ele>
        <time>2018-10-27T09:15:56Z</time>
      </trkpt>
      <trkpt lat="38.4992270" lon="-0.6478030">
        <ele>788.8</ele>
        <time>2018-10-27T09:16:02Z</time>
      </trkpt>
      <trkpt lat="38.4992240" lon="-0.6477470">
        <ele>789.0</ele>
        <time>2018-10-27T09:16:05Z</time>
      </trkpt>
      <trkpt lat="38.4992270" lon="-0.6476930">
        <ele>789.6</ele>
        <time>2018-10-27T09:16:08Z</time>
      </trkpt>
      <trkpt lat="38.4992270" lon="-0.6476740">
        <ele>789.6</ele>
        <time>2018-10-27T09:16:09Z</time>
      </trkpt>
      <trkpt lat="38.4992220" lon="-0.6476400">
        <ele>789.8</ele>
        <time>2018-10-27T09:16:11Z</time>
      </trkpt>
      <trkpt lat="38.4992170" lon="-0.6476050">
        <ele>790.0</ele>
        <time>2018-10-27T09:16:13Z</time>
      </trkpt>
      <trkpt lat="38.4992220" lon="-0.6475320">
        <ele>790.4</ele>
        <time>2018-10-27T09:16:17Z</time>
      </trkpt>
      <trkpt lat="38.4992190" lon="-0.6475150">
        <ele>790.6</ele>
        <time>2018-10-27T09:16:18Z</time>
      </trkpt>
      <trkpt lat="38.4992010" lon="-0.6474430">
        <ele>791.0</ele>
        <time>2018-10-27T09:16:23Z</time>
      </trkpt>
      <trkpt lat="38.4991960" lon="-0.6474290">
        <ele>791.2</ele>
        <time>2018-10-27T09:16:27Z</time>
      </trkpt>
      <trkpt lat="38.4991950" lon="-0.6474260">
        <ele>791.2</ele>
        <time>2018-10-27T09:16:28Z</time>
      </trkpt>
      <trkpt lat="38.4991630" lon="-0.6471820">
        <ele>791.6</ele>
        <time>2018-10-27T09:17:03Z</time>
      </trkpt>
      <trkpt lat="38.4991640" lon="-0.6471600">
        <ele>792.0</ele>
        <time>2018-10-27T09:17:04Z</time>
      </trkpt>
      <trkpt lat="38.4991670" lon="-0.6470700">
        <ele>792.6</ele>
        <time>2018-10-27T09:17:08Z</time>
      </trkpt>
      <trkpt lat="38.4991730" lon="-0.6470260">
        <ele>793.2</ele>
        <time>2018-10-27T09:17:10Z</time>
      </trkpt>
      <trkpt lat="38.4991770" lon="-0.6469920">
        <ele>793.6</ele>
        <time>2018-10-27T09:17:12Z</time>
      </trkpt>
      <trkpt lat="38.4991790" lon="-0.6469750">
        <ele>793.8</ele>
        <time>2018-10-27T09:17:13Z</time>
      </trkpt>
      <trkpt lat="38.4992060" lon="-0.6468650">
        <ele>794.8</ele>
        <time>2018-10-27T09:17:18Z</time>
      </trkpt>
      <trkpt lat="38.4992100" lon="-0.6468450">
        <ele>795.0</ele>
        <time>2018-10-27T09:17:19Z</time>
      </trkpt>
      <trkpt lat="38.4992270" lon="-0.6467410">
        <ele>796.0</ele>
        <time>2018-10-27T09:17:24Z</time>
      </trkpt>
      <trkpt lat="38.4992290" lon="-0.6466780">
        <ele>796.6</ele>
        <time>2018-10-27T09:17:27Z</time>
      </trkpt>
      <trkpt lat="38.4992490" lon="-0.6466300">
        <ele>797.0</ele>
        <time>2018-10-27T09:17:30Z</time>
      </trkpt>
      <trkpt lat="38.4993020" lon="-0.6466110">
        <ele>797.8</ele>
        <time>2018-10-27T09:17:33Z</time>
      </trkpt>
      <trkpt lat="38.4993420" lon="-0.6466030">
        <ele>798.2</ele>
        <time>2018-10-27T09:17:35Z</time>
      </trkpt>
      <trkpt lat="38.4993560" lon="-0.6465850">
        <ele>798.2</ele>
        <time>2018-10-27T09:17:36Z</time>
      </trkpt>
      <trkpt lat="38.4993670" lon="-0.6465440">
        <ele>798.4</ele>
        <time>2018-10-27T09:17:38Z</time>
      </trkpt>
      <trkpt lat="38.4993890" lon="-0.6464480">
        <ele>799.2</ele>
        <time>2018-10-27T09:17:43Z</time>
      </trkpt>
      <trkpt lat="38.4994170" lon="-0.6463890">
        <ele>800.4</ele>
        <time>2018-10-27T09:17:46Z</time>
      </trkpt>
      <trkpt lat="38.4994490" lon="-0.6463120">
        <ele>801.6</ele>
        <time>2018-10-27T09:17:50Z</time>
      </trkpt>
      <trkpt lat="38.4994600" lon="-0.6462490">
        <ele>802.4</ele>
        <time>2018-10-27T09:17:53Z</time>
      </trkpt>
      <trkpt lat="38.4994620" lon="-0.6462290">
        <ele>802.6</ele>
        <time>2018-10-27T09:17:54Z</time>
      </trkpt>
      <trkpt lat="38.4994580" lon="-0.6461280">
        <ele>803.4</ele>
        <time>2018-10-27T09:17:59Z</time>
      </trkpt>
      <trkpt lat="38.4994530" lon="-0.6461080">
        <ele>803.6</ele>
        <time>2018-10-27T09:18:00Z</time>
      </trkpt>
      <trkpt lat="38.4994490" lon="-0.6460910">
        <ele>803.6</ele>
        <time>2018-10-27T09:18:01Z</time>
      </trkpt>
      <trkpt lat="38.4994440" lon="-0.6460580">
        <ele>804.4</ele>
        <time>2018-10-27T09:18:03Z</time>
      </trkpt>
      <trkpt lat="38.4994410" lon="-0.6460350">
        <ele>804.8</ele>
        <time>2018-10-27T09:18:04Z</time>
      </trkpt>
      <trkpt lat="38.4994140" lon="-0.6459700">
        <ele>805.4</ele>
        <time>2018-10-27T09:18:08Z</time>
      </trkpt>
      <trkpt lat="38.4993880" lon="-0.6459320">
        <ele>805.8</ele>
        <time>2018-10-27T09:18:11Z</time>
      </trkpt>
      <trkpt lat="38.4993490" lon="-0.6458570">
        <ele>807.0</ele>
        <time>2018-10-27T09:18:15Z</time>
      </trkpt>
      <trkpt lat="38.4993330" lon="-0.6458170">
        <ele>807.2</ele>
        <time>2018-10-27T09:18:17Z</time>
      </trkpt>
      <trkpt lat="38.4993230" lon="-0.6457770">
        <ele>807.4</ele>
        <time>2018-10-27T09:18:19Z</time>
      </trkpt>
      <trkpt lat="38.4993010" lon="-0.6457030">
        <ele>808.2</ele>
        <time>2018-10-27T09:18:23Z</time>
      </trkpt>
      <trkpt lat="38.4992710" lon="-0.6456360">
        <ele>809.4</ele>
        <time>2018-10-27T09:18:27Z</time>
      </trkpt>
      <trkpt lat="38.4992610" lon="-0.6456100">
        <ele>809.8</ele>
        <time>2018-10-27T09:18:29Z</time>
      </trkpt>
      <trkpt lat="38.4992600" lon="-0.6455740">
        <ele>810.4</ele>
        <time>2018-10-27T09:18:31Z</time>
      </trkpt>
      <trkpt lat="38.4992790" lon="-0.6455140">
        <ele>810.8</ele>
        <time>2018-10-27T09:18:34Z</time>
      </trkpt>
      <trkpt lat="38.4993420" lon="-0.6454610">
        <ele>811.4</ele>
        <time>2018-10-27T09:18:39Z</time>
      </trkpt>
      <trkpt lat="38.4993550" lon="-0.6454520">
        <ele>811.4</ele>
        <time>2018-10-27T09:18:40Z</time>
      </trkpt>
      <trkpt lat="38.4993990" lon="-0.6453910">
        <ele>812.4</ele>
        <time>2018-10-27T09:18:45Z</time>
      </trkpt>
      <trkpt lat="38.4994020" lon="-0.6453750">
        <ele>812.6</ele>
        <time>2018-10-27T09:18:46Z</time>
      </trkpt>
      <trkpt lat="38.4994060" lon="-0.6452880">
        <ele>813.4</ele>
        <time>2018-10-27T09:18:53Z</time>
      </trkpt>
      <trkpt lat="38.4993990" lon="-0.6452740">
        <ele>813.6</ele>
        <time>2018-10-27T09:18:54Z</time>
      </trkpt>
      <trkpt lat="38.4993940" lon="-0.6452410">
        <ele>814.4</ele>
        <time>2018-10-27T09:18:59Z</time>
      </trkpt>
      <trkpt lat="38.4993840" lon="-0.6452270">
        <ele>815.0</ele>
        <time>2018-10-27T09:19:01Z</time>
      </trkpt>
      <trkpt lat="38.4993830" lon="-0.6452090">
        <ele>815.6</ele>
        <time>2018-10-27T09:19:03Z</time>
      </trkpt>
      <trkpt lat="38.4993740" lon="-0.6451910">
        <ele>816.2</ele>
        <time>2018-10-27T09:19:05Z</time>
      </trkpt>
      <trkpt lat="38.4993600" lon="-0.6451620">
        <ele>816.8</ele>
        <time>2018-10-27T09:19:08Z</time>
      </trkpt>
      <trkpt lat="38.4993510" lon="-0.6451430">
        <ele>817.2</ele>
        <time>2018-10-27T09:19:10Z</time>
      </trkpt>
      <trkpt lat="38.4993450" lon="-0.6451150">
        <ele>817.6</ele>
        <time>2018-10-27T09:19:13Z</time>
      </trkpt>
      <trkpt lat="38.4993480" lon="-0.6451090">
        <ele>817.6</ele>
        <time>2018-10-27T09:19:14Z</time>
      </trkpt>
      <trkpt lat="38.4993490" lon="-0.6451030">
        <ele>817.8</ele>
        <time>2018-10-27T09:19:15Z</time>
      </trkpt>
      <trkpt lat="38.4993470" lon="-0.6450950">
        <ele>818.0</ele>
        <time>2018-10-27T09:19:16Z</time>
      </trkpt>
      <trkpt lat="38.4993410" lon="-0.6450640">
        <ele>818.4</ele>
        <time>2018-10-27T09:19:19Z</time>
      </trkpt>
      <trkpt lat="38.4993210" lon="-0.6450330">
        <ele>818.8</ele>
        <time>2018-10-27T09:19:22Z</time>
      </trkpt>
      <trkpt lat="38.4993100" lon="-0.6450170">
        <ele>819.0</ele>
        <time>2018-10-27T09:19:24Z</time>
      </trkpt>
      <trkpt lat="38.4992810" lon="-0.6450040">
        <ele>819.8</ele>
        <time>2018-10-27T09:19:29Z</time>
      </trkpt>
      <trkpt lat="38.4992740" lon="-0.6450110">
        <ele>820.0</ele>
        <time>2018-10-27T09:19:30Z</time>
      </trkpt>
      <trkpt lat="38.4992460" lon="-0.6450570">
        <ele>821.0</ele>
        <time>2018-10-27T09:19:36Z</time>
      </trkpt>
      <trkpt lat="38.4992330" lon="-0.6450830">
        <ele>821.8</ele>
        <time>2018-10-27T09:19:41Z</time>
      </trkpt>
      <trkpt lat="38.4992390" lon="-0.6450890">
        <ele>822.4</ele>
        <time>2018-10-27T09:19:44Z</time>
      </trkpt>
      <trkpt lat="38.4992390" lon="-0.6450920">
        <ele>822.8</ele>
        <time>2018-10-27T09:19:45Z</time>
      </trkpt>
      <trkpt lat="38.4992410" lon="-0.6451010">
        <ele>823.4</ele>
        <time>2018-10-27T09:19:51Z</time>
      </trkpt>
      <trkpt lat="38.4992420" lon="-0.6451050">
        <ele>823.4</ele>
        <time>2018-10-27T09:19:54Z</time>
      </trkpt>
      <trkpt lat="38.4992420" lon="-0.6451040">
        <ele>823.4</ele>
        <time>2018-10-27T09:19:56Z</time>
      </trkpt>
      <trkpt lat="38.4991790" lon="-0.6452510">
        <ele>822.6</ele>
        <time>2018-10-27T09:21:59Z</time>
      </trkpt>
      <trkpt lat="38.4991550" lon="-0.6452870">
        <ele>822.8</ele>
        <time>2018-10-27T09:22:01Z</time>
      </trkpt>
      <trkpt lat="38.4991200" lon="-0.6453100">
        <ele>822.8</ele>
        <time>2018-10-27T09:22:03Z</time>
      </trkpt>
      <trkpt lat="38.4991030" lon="-0.6453210">
        <ele>822.6</ele>
        <time>2018-10-27T09:22:04Z</time>
      </trkpt>
      <trkpt lat="38.4990910" lon="-0.6453350">
        <ele>823.0</ele>
        <time>2018-10-27T09:22:05Z</time>
      </trkpt>
      <trkpt lat="38.4990780" lon="-0.6453460">
        <ele>823.6</ele>
        <time>2018-10-27T09:22:06Z</time>
      </trkpt>
      <trkpt lat="38.4990370" lon="-0.6453700">
        <ele>824.4</ele>
        <time>2018-10-27T09:22:09Z</time>
      </trkpt>
      <trkpt lat="38.4990240" lon="-0.6453790">
        <ele>824.8</ele>
        <time>2018-10-27T09:22:10Z</time>
      </trkpt>
      <trkpt lat="38.4989760" lon="-0.6453760">
        <ele>825.6</ele>
        <time>2018-10-27T09:22:13Z</time>
      </trkpt>
      <trkpt lat="38.4989620" lon="-0.6453680">
        <ele>827.0</ele>
        <time>2018-10-27T09:22:14Z</time>
      </trkpt>
      <trkpt lat="38.4989470" lon="-0.6453590">
        <ele>826.6</ele>
        <time>2018-10-27T09:22:15Z</time>
      </trkpt>
      <trkpt lat="38.4989270" lon="-0.6453360">
        <ele>825.8</ele>
        <time>2018-10-27T09:22:17Z</time>
      </trkpt>
      <trkpt lat="38.4988910" lon="-0.6452560">
        <ele>825.8</ele>
        <time>2018-10-27T09:22:22Z</time>
      </trkpt>
      <trkpt lat="38.4988830" lon="-0.6452210">
        <ele>827.0</ele>
        <time>2018-10-27T09:22:24Z</time>
      </trkpt>
      <trkpt lat="38.4988790" lon="-0.6451670">
        <ele>828.2</ele>
        <time>2018-10-27T09:22:27Z</time>
      </trkpt>
      <trkpt lat="38.4988750" lon="-0.6451270">
        <ele>828.6</ele>
        <time>2018-10-27T09:22:29Z</time>
      </trkpt>
      <trkpt lat="38.4988690" lon="-0.6450920">
        <ele>829.8</ele>
        <time>2018-10-27T09:22:31Z</time>
      </trkpt>
      <trkpt lat="38.4988680" lon="-0.6450340">
        <ele>830.8</ele>
        <time>2018-10-27T09:22:35Z</time>
      </trkpt>
      <trkpt lat="38.4988690" lon="-0.6449680">
        <ele>832.0</ele>
        <time>2018-10-27T09:22:40Z</time>
      </trkpt>
      <trkpt lat="38.4988660" lon="-0.6449520">
        <ele>832.2</ele>
        <time>2018-10-27T09:22:41Z</time>
      </trkpt>
      <trkpt lat="38.4988640" lon="-0.6449070">
        <ele>833.2</ele>
        <time>2018-10-27T09:22:44Z</time>
      </trkpt>
      <trkpt lat="38.4988610" lon="-0.6448540">
        <ele>834.4</ele>
        <time>2018-10-27T09:22:48Z</time>
      </trkpt>
      <trkpt lat="38.4988600" lon="-0.6448200">
        <ele>835.4</ele>
        <time>2018-10-27T09:22:50Z</time>
      </trkpt>
      <trkpt lat="38.4988500" lon="-0.6447700">
        <ele>836.4</ele>
        <time>2018-10-27T09:22:53Z</time>
      </trkpt>
      <trkpt lat="38.4988380" lon="-0.6447400">
        <ele>836.8</ele>
        <time>2018-10-27T09:22:55Z</time>
      </trkpt>
      <trkpt lat="38.4988260" lon="-0.6447110">
        <ele>837.6</ele>
        <time>2018-10-27T09:22:57Z</time>
      </trkpt>
      <trkpt lat="38.4988150" lon="-0.6446720">
        <ele>838.2</ele>
        <time>2018-10-27T09:23:00Z</time>
      </trkpt>
      <trkpt lat="38.4988100" lon="-0.6446630">
        <ele>838.2</ele>
        <time>2018-10-27T09:23:01Z</time>
      </trkpt>
      <trkpt lat="38.4988040" lon="-0.6446520">
        <ele>838.6</ele>
        <time>2018-10-27T09:23:02Z</time>
      </trkpt>
      <trkpt lat="38.4987880" lon="-0.6446330">
        <ele>839.2</ele>
        <time>2018-10-27T09:23:04Z</time>
      </trkpt>
      <trkpt lat="38.4987710" lon="-0.6446110">
        <ele>840.0</ele>
        <time>2018-10-27T09:23:06Z</time>
      </trkpt>
      <trkpt lat="38.4987520" lon="-0.6445930">
        <ele>840.4</ele>
        <time>2018-10-27T09:23:08Z</time>
      </trkpt>
      <trkpt lat="38.4987140" lon="-0.6445650">
        <ele>841.0</ele>
        <time>2018-10-27T09:23:12Z</time>
      </trkpt>
      <trkpt lat="38.4986930" lon="-0.6445310">
        <ele>841.8</ele>
        <time>2018-10-27T09:23:15Z</time>
      </trkpt>
      <trkpt lat="38.4986880" lon="-0.6445190">
        <ele>842.2</ele>
        <time>2018-10-27T09:23:16Z</time>
      </trkpt>
      <trkpt lat="38.4986870" lon="-0.6445070">
        <ele>842.4</ele>
        <time>2018-10-27T09:23:17Z</time>
      </trkpt>
      <trkpt lat="38.4986900" lon="-0.6444840">
        <ele>842.8</ele>
        <time>2018-10-27T09:23:19Z</time>
      </trkpt>
      <trkpt lat="38.4986920" lon="-0.6444700">
        <ele>843.4</ele>
        <time>2018-10-27T09:23:20Z</time>
      </trkpt>
      <trkpt lat="38.4987010" lon="-0.6444410">
        <ele>844.0</ele>
        <time>2018-10-27T09:23:22Z</time>
      </trkpt>
      <trkpt lat="38.4987180" lon="-0.6444200">
        <ele>844.6</ele>
        <time>2018-10-27T09:23:24Z</time>
      </trkpt>
      <trkpt lat="38.4987650" lon="-0.6443810">
        <ele>845.6</ele>
        <time>2018-10-27T09:23:28Z</time>
      </trkpt>
      <trkpt lat="38.4987780" lon="-0.6443700">
        <ele>846.0</ele>
        <time>2018-10-27T09:23:29Z</time>
      </trkpt>
      <trkpt lat="38.4988160" lon="-0.6443290">
        <ele>846.6</ele>
        <time>2018-10-27T09:23:32Z</time>
      </trkpt>
      <trkpt lat="38.4988470" lon="-0.6442790">
        <ele>847.2</ele>
        <time>2018-10-27T09:23:35Z</time>
      </trkpt>
      <trkpt lat="38.4988660" lon="-0.6442250">
        <ele>848.0</ele>
        <time>2018-10-27T09:23:38Z</time>
      </trkpt>
      <trkpt lat="38.4988690" lon="-0.6441680">
        <ele>848.6</ele>
        <time>2018-10-27T09:23:41Z</time>
      </trkpt>
      <trkpt lat="38.4988750" lon="-0.6441140">
        <ele>849.2</ele>
        <time>2018-10-27T09:23:44Z</time>
      </trkpt>
      <trkpt lat="38.4988790" lon="-0.6440710">
        <ele>849.8</ele>
        <time>2018-10-27T09:23:47Z</time>
      </trkpt>
      <trkpt lat="38.4988810" lon="-0.6440360">
        <ele>850.6</ele>
        <time>2018-10-27T09:23:49Z</time>
      </trkpt>
      <trkpt lat="38.4988960" lon="-0.6439650">
        <ele>851.8</ele>
        <time>2018-10-27T09:23:53Z</time>
      </trkpt>
      <trkpt lat="38.4988930" lon="-0.6439480">
        <ele>852.0</ele>
        <time>2018-10-27T09:23:54Z</time>
      </trkpt>
      <trkpt lat="38.4988810" lon="-0.6438830">
        <ele>853.0</ele>
        <time>2018-10-27T09:23:57Z</time>
      </trkpt>
      <trkpt lat="38.4988750" lon="-0.6438410">
        <ele>853.4</ele>
        <time>2018-10-27T09:23:59Z</time>
      </trkpt>
      <trkpt lat="38.4988690" lon="-0.6438100">
        <ele>854.0</ele>
        <time>2018-10-27T09:24:01Z</time>
      </trkpt>
      <trkpt lat="38.4988770" lon="-0.6437370">
        <ele>854.6</ele>
        <time>2018-10-27T09:24:05Z</time>
      </trkpt>
      <trkpt lat="38.4988750" lon="-0.6437040">
        <ele>855.0</ele>
        <time>2018-10-27T09:24:07Z</time>
      </trkpt>
      <trkpt lat="38.4988610" lon="-0.6436490">
        <ele>856.2</ele>
        <time>2018-10-27T09:24:10Z</time>
      </trkpt>
      <trkpt lat="38.4988610" lon="-0.6436330">
        <ele>856.2</ele>
        <time>2018-10-27T09:24:11Z</time>
      </trkpt>
      <trkpt lat="38.4988650" lon="-0.6435900">
        <ele>857.2</ele>
        <time>2018-10-27T09:24:14Z</time>
      </trkpt>
      <trkpt lat="38.4988600" lon="-0.6435420">
        <ele>858.4</ele>
        <time>2018-10-27T09:24:17Z</time>
      </trkpt>
      <trkpt lat="38.4988580" lon="-0.6435100">
        <ele>858.8</ele>
        <time>2018-10-27T09:24:19Z</time>
      </trkpt>
      <trkpt lat="38.4988640" lon="-0.6434320">
        <ele>859.4</ele>
        <time>2018-10-27T09:24:24Z</time>
      </trkpt>
      <trkpt lat="38.4988630" lon="-0.6434150">
        <ele>859.6</ele>
        <time>2018-10-27T09:24:25Z</time>
      </trkpt>
      <trkpt lat="38.4988550" lon="-0.6433270">
        <ele>860.6</ele>
        <time>2018-10-27T09:24:30Z</time>
      </trkpt>
      <trkpt lat="38.4988520" lon="-0.6433110">
        <ele>861.0</ele>
        <time>2018-10-27T09:24:31Z</time>
      </trkpt>
      <trkpt lat="38.4988490" lon="-0.6432590">
        <ele>861.8</ele>
        <time>2018-10-27T09:24:34Z</time>
      </trkpt>
      <trkpt lat="38.4988470" lon="-0.6432250">
        <ele>862.0</ele>
        <time>2018-10-27T09:24:36Z</time>
      </trkpt>
      <trkpt lat="38.4988220" lon="-0.6431770">
        <ele>862.2</ele>
        <time>2018-10-27T09:24:39Z</time>
      </trkpt>
      <trkpt lat="38.4988140" lon="-0.6431620">
        <ele>862.4</ele>
        <time>2018-10-27T09:24:40Z</time>
      </trkpt>
      <trkpt lat="38.4987870" lon="-0.6430950">
        <ele>862.8</ele>
        <time>2018-10-27T09:24:45Z</time>
      </trkpt>
      <trkpt lat="38.4987810" lon="-0.6430780">
        <ele>863.0</ele>
        <time>2018-10-27T09:24:46Z</time>
      </trkpt>
      <trkpt lat="38.4987710" lon="-0.6430220">
        <ele>863.2</ele>
        <time>2018-10-27T09:24:49Z</time>
      </trkpt>
      <trkpt lat="38.4987680" lon="-0.6429830">
        <ele>863.4</ele>
        <time>2018-10-27T09:24:51Z</time>
      </trkpt>
      <trkpt lat="38.4987660" lon="-0.6429490">
        <ele>863.8</ele>
        <time>2018-10-27T09:24:53Z</time>
      </trkpt>
      <trkpt lat="38.4987690" lon="-0.6429330">
        <ele>864.0</ele>
        <time>2018-10-27T09:24:54Z</time>
      </trkpt>
      <trkpt lat="38.4988230" lon="-0.6428670">
        <ele>864.6</ele>
        <time>2018-10-27T09:24:59Z</time>
      </trkpt>
      <trkpt lat="38.4988590" lon="-0.6428240">
        <ele>865.0</ele>
        <time>2018-10-27T09:25:02Z</time>
      </trkpt>
      <trkpt lat="38.4988970" lon="-0.6427760">
        <ele>865.4</ele>
        <time>2018-10-27T09:25:05Z</time>
      </trkpt>
      <trkpt lat="38.4989210" lon="-0.6427440">
        <ele>866.2</ele>
        <time>2018-10-27T09:25:07Z</time>
      </trkpt>
      <trkpt lat="38.4989430" lon="-0.6426850">
        <ele>867.0</ele>
        <time>2018-10-27T09:25:10Z</time>
      </trkpt>
      <trkpt lat="38.4989620" lon="-0.6426440">
        <ele>867.4</ele>
        <time>2018-10-27T09:25:12Z</time>
      </trkpt>
      <trkpt lat="38.4989970" lon="-0.6425460">
        <ele>868.4</ele>
        <time>2018-10-27T09:25:17Z</time>
      </trkpt>
      <trkpt lat="38.4989970" lon="-0.6425230">
        <ele>868.6</ele>
        <time>2018-10-27T09:25:18Z</time>
      </trkpt>
      <trkpt lat="38.4989960" lon="-0.6424550">
        <ele>869.6</ele>
        <time>2018-10-27T09:25:21Z</time>
      </trkpt>
      <trkpt lat="38.4989970" lon="-0.6424140">
        <ele>870.4</ele>
        <time>2018-10-27T09:25:23Z</time>
      </trkpt>
      <trkpt lat="38.4989890" lon="-0.6423780">
        <ele>870.8</ele>
        <time>2018-10-27T09:25:25Z</time>
      </trkpt>
      <trkpt lat="38.4989490" lon="-0.6423170">
        <ele>871.8</ele>
        <time>2018-10-27T09:25:29Z</time>
      </trkpt>
      <trkpt lat="38.4989160" lon="-0.6422970">
        <ele>872.2</ele>
        <time>2018-10-27T09:25:32Z</time>
      </trkpt>
      <trkpt lat="38.4988980" lon="-0.6422960">
        <ele>872.8</ele>
        <time>2018-10-27T09:25:34Z</time>
      </trkpt>
      <trkpt lat="38.4988960" lon="-0.6422990">
        <ele>873.0</ele>
        <time>2018-10-27T09:25:35Z</time>
      </trkpt>
      <trkpt lat="38.4988880" lon="-0.6423040">
        <ele>873.6</ele>
        <time>2018-10-27T09:25:37Z</time>
      </trkpt>
      <trkpt lat="38.4988720" lon="-0.6423010">
        <ele>874.6</ele>
        <time>2018-10-27T09:25:39Z</time>
      </trkpt>
      <trkpt lat="38.4988550" lon="-0.6423080">
        <ele>875.2</ele>
        <time>2018-10-27T09:25:41Z</time>
      </trkpt>
      <trkpt lat="38.4988450" lon="-0.6423160">
        <ele>875.4</ele>
        <time>2018-10-27T09:25:42Z</time>
      </trkpt>
      <trkpt lat="38.4988340" lon="-0.6423260">
        <ele>875.6</ele>
        <time>2018-10-27T09:25:43Z</time>
      </trkpt>
      <trkpt lat="38.4987990" lon="-0.6423700">
        <ele>876.2</ele>
        <time>2018-10-27T09:25:47Z</time>
      </trkpt>
      <trkpt lat="38.4987540" lon="-0.6424070">
        <ele>876.8</ele>
        <time>2018-10-27T09:25:50Z</time>
      </trkpt>
      <trkpt lat="38.4987210" lon="-0.6424260">
        <ele>877.0</ele>
        <time>2018-10-27T09:25:52Z</time>
      </trkpt>
      <trkpt lat="38.4986700" lon="-0.6424220">
        <ele>877.4</ele>
        <time>2018-10-27T09:25:55Z</time>
      </trkpt>
      <trkpt lat="38.4986540" lon="-0.6423920">
        <ele>877.6</ele>
        <time>2018-10-27T09:25:57Z</time>
      </trkpt>
      <trkpt lat="38.4986480" lon="-0.6423750">
        <ele>877.8</ele>
        <time>2018-10-27T09:25:58Z</time>
      </trkpt>
      <trkpt lat="38.4986380" lon="-0.6422970">
        <ele>878.4</ele>
        <time>2018-10-27T09:26:02Z</time>
      </trkpt>
      <trkpt lat="38.4986470" lon="-0.6422540">
        <ele>879.0</ele>
        <time>2018-10-27T09:26:04Z</time>
      </trkpt>
      <trkpt lat="38.4986650" lon="-0.6421920">
        <ele>880.2</ele>
        <time>2018-10-27T09:26:07Z</time>
      </trkpt>
      <trkpt lat="38.4986710" lon="-0.6421710">
        <ele>880.4</ele>
        <time>2018-10-27T09:26:08Z</time>
      </trkpt>
      <trkpt lat="38.4986940" lon="-0.6421030">
        <ele>881.4</ele>
        <time>2018-10-27T09:26:11Z</time>
      </trkpt>
      <trkpt lat="38.4987070" lon="-0.6420570">
        <ele>881.8</ele>
        <time>2018-10-27T09:26:13Z</time>
      </trkpt>
      <trkpt lat="38.4987450" lon="-0.6419580">
        <ele>882.2</ele>
        <time>2018-10-27T09:26:18Z</time>
      </trkpt>
      <trkpt lat="38.4987520" lon="-0.6419410">
        <ele>882.4</ele>
        <time>2018-10-27T09:26:19Z</time>
      </trkpt>
      <trkpt lat="38.4987930" lon="-0.6418500">
        <ele>883.2</ele>
        <time>2018-10-27T09:26:25Z</time>
      </trkpt>
      <trkpt lat="38.4987990" lon="-0.6418140">
        <ele>883.4</ele>
        <time>2018-10-27T09:26:27Z</time>
      </trkpt>
      <trkpt lat="38.4988060" lon="-0.6417790">
        <ele>883.6</ele>
        <time>2018-10-27T09:26:29Z</time>
      </trkpt>
      <trkpt lat="38.4988180" lon="-0.6417530">
        <ele>883.8</ele>
        <time>2018-10-27T09:26:31Z</time>
      </trkpt>
      <trkpt lat="38.4988260" lon="-0.6417280">
        <ele>884.2</ele>
        <time>2018-10-27T09:26:33Z</time>
      </trkpt>
      <trkpt lat="38.4988330" lon="-0.6416950">
        <ele>884.6</ele>
        <time>2018-10-27T09:26:35Z</time>
      </trkpt>
      <trkpt lat="38.4988520" lon="-0.6416530">
        <ele>885.0</ele>
        <time>2018-10-27T09:26:38Z</time>
      </trkpt>
      <trkpt lat="38.4988750" lon="-0.6416150">
        <ele>885.6</ele>
        <time>2018-10-27T09:26:41Z</time>
      </trkpt>
      <trkpt lat="38.4989060" lon="-0.6415650">
        <ele>886.6</ele>
        <time>2018-10-27T09:26:45Z</time>
      </trkpt>
      <trkpt lat="38.4989160" lon="-0.6415530">
        <ele>887.0</ele>
        <time>2018-10-27T09:26:46Z</time>
      </trkpt>
      <trkpt lat="38.4989730" lon="-0.6414730">
        <ele>888.2</ele>
        <time>2018-10-27T09:26:51Z</time>
      </trkpt>
      <trkpt lat="38.4989850" lon="-0.6414550">
        <ele>888.6</ele>
        <time>2018-10-27T09:26:52Z</time>
      </trkpt>
      <trkpt lat="38.4990260" lon="-0.6413940">
        <ele>889.0</ele>
        <time>2018-10-27T09:26:55Z</time>
      </trkpt>
      <trkpt lat="38.4990470" lon="-0.6413590">
        <ele>889.2</ele>
        <time>2018-10-27T09:26:57Z</time>
      </trkpt>
      <trkpt lat="38.4990520" lon="-0.6413370">
        <ele>889.4</ele>
        <time>2018-10-27T09:26:58Z</time>
      </trkpt>
      <trkpt lat="38.4990700" lon="-0.6412690">
        <ele>889.8</ele>
        <time>2018-10-27T09:27:01Z</time>
      </trkpt>
      <trkpt lat="38.4990550" lon="-0.6412080">
        <ele>890.4</ele>
        <time>2018-10-27T09:27:04Z</time>
      </trkpt>
      <trkpt lat="38.4990090" lon="-0.6410940">
        <ele>891.6</ele>
        <time>2018-10-27T09:27:10Z</time>
      </trkpt>
      <trkpt lat="38.4990010" lon="-0.6410770">
        <ele>892.0</ele>
        <time>2018-10-27T09:27:11Z</time>
      </trkpt>
      <trkpt lat="38.4989830" lon="-0.6410180">
        <ele>892.6</ele>
        <time>2018-10-27T09:27:14Z</time>
      </trkpt>
      <trkpt lat="38.4989790" lon="-0.6410000">
        <ele>892.8</ele>
        <time>2018-10-27T09:27:15Z</time>
      </trkpt>
      <trkpt lat="38.4989790" lon="-0.6409680">
        <ele>893.4</ele>
        <time>2018-10-27T09:27:17Z</time>
      </trkpt>
      <trkpt lat="38.4990100" lon="-0.6408900">
        <ele>894.0</ele>
        <time>2018-10-27T09:27:21Z</time>
      </trkpt>
      <trkpt lat="38.4990230" lon="-0.6408760">
        <ele>894.4</ele>
        <time>2018-10-27T09:27:22Z</time>
      </trkpt>
      <trkpt lat="38.4990630" lon="-0.6408410">
        <ele>895.2</ele>
        <time>2018-10-27T09:27:25Z</time>
      </trkpt>
      <trkpt lat="38.4991000" lon="-0.6408230">
        <ele>896.0</ele>
        <time>2018-10-27T09:27:28Z</time>
      </trkpt>
      <trkpt lat="38.4991470" lon="-0.6407930">
        <ele>896.4</ele>
        <time>2018-10-27T09:27:32Z</time>
      </trkpt>
      <trkpt lat="38.4991670" lon="-0.6407800">
        <ele>896.6</ele>
        <time>2018-10-27T09:27:34Z</time>
      </trkpt>
      <trkpt lat="38.4991950" lon="-0.6407510">
        <ele>897.4</ele>
        <time>2018-10-27T09:27:37Z</time>
      </trkpt>
      <trkpt lat="38.4992100" lon="-0.6407230">
        <ele>897.8</ele>
        <time>2018-10-27T09:27:39Z</time>
      </trkpt>
      <trkpt lat="38.4992300" lon="-0.6406760">
        <ele>898.0</ele>
        <time>2018-10-27T09:27:42Z</time>
      </trkpt>
      <trkpt lat="38.4992430" lon="-0.6406310">
        <ele>898.4</ele>
        <time>2018-10-27T09:27:45Z</time>
      </trkpt>
      <trkpt lat="38.4992570" lon="-0.6405570">
        <ele>899.2</ele>
        <time>2018-10-27T09:27:49Z</time>
      </trkpt>
      <trkpt lat="38.4992650" lon="-0.6405140">
        <ele>899.4</ele>
        <time>2018-10-27T09:27:51Z</time>
      </trkpt>
      <trkpt lat="38.4992660" lon="-0.6404880">
        <ele>899.4</ele>
        <time>2018-10-27T09:27:52Z</time>
      </trkpt>
      <trkpt lat="38.4992770" lon="-0.6404160">
        <ele>900.2</ele>
        <time>2018-10-27T09:27:55Z</time>
      </trkpt>
      <trkpt lat="38.4992830" lon="-0.6403930">
        <ele>900.2</ele>
        <time>2018-10-27T09:27:56Z</time>
      </trkpt>
      <trkpt lat="38.4992920" lon="-0.6403700">
        <ele>900.6</ele>
        <time>2018-10-27T09:27:57Z</time>
      </trkpt>
      <trkpt lat="38.4993590" lon="-0.6402560">
        <ele>901.0</ele>
        <time>2018-10-27T09:28:03Z</time>
      </trkpt>
      <trkpt lat="38.4994080" lon="-0.6402010">
        <ele>901.0</ele>
        <time>2018-10-27T09:28:06Z</time>
      </trkpt>
      <trkpt lat="38.4994350" lon="-0.6401560">
        <ele>901.6</ele>
        <time>2018-10-27T09:28:09Z</time>
      </trkpt>
      <trkpt lat="38.4994680" lon="-0.6400920">
        <ele>901.8</ele>
        <time>2018-10-27T09:28:13Z</time>
      </trkpt>
      <trkpt lat="38.4994900" lon="-0.6400470">
        <ele>902.2</ele>
        <time>2018-10-27T09:28:16Z</time>
      </trkpt>
      <trkpt lat="38.4994990" lon="-0.6400210">
        <ele>902.6</ele>
        <time>2018-10-27T09:28:18Z</time>
      </trkpt>
      <trkpt lat="38.4995280" lon="-0.6399470">
        <ele>903.4</ele>
        <time>2018-10-27T09:28:23Z</time>
      </trkpt>
      <trkpt lat="38.4995350" lon="-0.6399370">
        <ele>903.6</ele>
        <time>2018-10-27T09:28:24Z</time>
      </trkpt>
      <trkpt lat="38.4995500" lon="-0.6398840">
        <ele>904.8</ele>
        <time>2018-10-27T09:28:28Z</time>
      </trkpt>
      <trkpt lat="38.4995600" lon="-0.6398600">
        <ele>905.2</ele>
        <time>2018-10-27T09:28:30Z</time>
      </trkpt>
      <trkpt lat="38.4995790" lon="-0.6398230">
        <ele>906.0</ele>
        <time>2018-10-27T09:28:33Z</time>
      </trkpt>
      <trkpt lat="38.4995900" lon="-0.6397980">
        <ele>906.6</ele>
        <time>2018-10-27T09:28:35Z</time>
      </trkpt>
      <trkpt lat="38.4996060" lon="-0.6397590">
        <ele>907.2</ele>
        <time>2018-10-27T09:28:38Z</time>
      </trkpt>
      <trkpt lat="38.4996080" lon="-0.6397430">
        <ele>907.2</ele>
        <time>2018-10-27T09:28:39Z</time>
      </trkpt>
      <trkpt lat="38.4996230" lon="-0.6397130">
        <ele>908.0</ele>
        <time>2018-10-27T09:28:41Z</time>
      </trkpt>
      <trkpt lat="38.4996280" lon="-0.6396990">
        <ele>908.2</ele>
        <time>2018-10-27T09:28:42Z</time>
      </trkpt>
      <trkpt lat="38.4996430" lon="-0.6396590">
        <ele>909.4</ele>
        <time>2018-10-27T09:28:45Z</time>
      </trkpt>
      <trkpt lat="38.4996510" lon="-0.6396340">
        <ele>909.8</ele>
        <time>2018-10-27T09:28:47Z</time>
      </trkpt>
      <trkpt lat="38.4996590" lon="-0.6395860">
        <ele>910.4</ele>
        <time>2018-10-27T09:28:50Z</time>
      </trkpt>
      <trkpt lat="38.4996660" lon="-0.6395540">
        <ele>910.6</ele>
        <time>2018-10-27T09:28:52Z</time>
      </trkpt>
      <trkpt lat="38.4996770" lon="-0.6395090">
        <ele>911.2</ele>
        <time>2018-10-27T09:28:55Z</time>
      </trkpt>
      <trkpt lat="38.4996960" lon="-0.6394840">
        <ele>911.6</ele>
        <time>2018-10-27T09:28:57Z</time>
      </trkpt>
      <trkpt lat="38.4997060" lon="-0.6394710">
        <ele>911.8</ele>
        <time>2018-10-27T09:28:58Z</time>
      </trkpt>
      <trkpt lat="38.4997230" lon="-0.6394430">
        <ele>912.6</ele>
        <time>2018-10-27T09:29:01Z</time>
      </trkpt>
      <trkpt lat="38.4997240" lon="-0.6394430">
        <ele>912.8</ele>
        <time>2018-10-27T09:29:02Z</time>
      </trkpt>
      <trkpt lat="38.4997270" lon="-0.6394370">
        <ele>913.0</ele>
        <time>2018-10-27T09:29:05Z</time>
      </trkpt>
      <trkpt lat="38.4997250" lon="-0.6394320">
        <ele>913.8</ele>
        <time>2018-10-27T09:29:07Z</time>
      </trkpt>
      <trkpt lat="38.4997890" lon="-0.6392310">
        <ele>915.4</ele>
        <time>2018-10-27T09:29:29Z</time>
      </trkpt>
      <trkpt lat="38.4997940" lon="-0.6392160">
        <ele>915.6</ele>
        <time>2018-10-27T09:29:30Z</time>
      </trkpt>
      <trkpt lat="38.4997960" lon="-0.6391410">
        <ele>916.0</ele>
        <time>2018-10-27T09:29:35Z</time>
      </trkpt>
      <trkpt lat="38.4997980" lon="-0.6391130">
        <ele>916.2</ele>
        <time>2018-10-27T09:29:37Z</time>
      </trkpt>
      <trkpt lat="38.4998040" lon="-0.6390840">
        <ele>916.4</ele>
        <time>2018-10-27T09:29:39Z</time>
      </trkpt>
      <trkpt lat="38.4998020" lon="-0.6390710">
        <ele>916.4</ele>
        <time>2018-10-27T09:29:40Z</time>
      </trkpt>
      <trkpt lat="38.4998000" lon="-0.6390270">
        <ele>916.8</ele>
        <time>2018-10-27T09:29:43Z</time>
      </trkpt>
      <trkpt lat="38.4997900" lon="-0.6389970">
        <ele>917.6</ele>
        <time>2018-10-27T09:29:45Z</time>
      </trkpt>
      <trkpt lat="38.4997640" lon="-0.6389400">
        <ele>918.2</ele>
        <time>2018-10-27T09:29:49Z</time>
      </trkpt>
      <trkpt lat="38.4997420" lon="-0.6388960">
        <ele>919.0</ele>
        <time>2018-10-27T09:29:52Z</time>
      </trkpt>
      <trkpt lat="38.4997260" lon="-0.6388510">
        <ele>920.0</ele>
        <time>2018-10-27T09:29:55Z</time>
      </trkpt>
      <trkpt lat="38.4997210" lon="-0.6388390">
        <ele>920.4</ele>
        <time>2018-10-27T09:29:56Z</time>
      </trkpt>
      <trkpt lat="38.4997090" lon="-0.6388080">
        <ele>920.8</ele>
        <time>2018-10-27T09:29:58Z</time>
      </trkpt>
      <trkpt lat="38.4997280" lon="-0.6387660">
        <ele>921.2</ele>
        <time>2018-10-27T09:30:01Z</time>
      </trkpt>
      <trkpt lat="38.4997310" lon="-0.6387530">
        <ele>921.8</ele>
        <time>2018-10-27T09:30:02Z</time>
      </trkpt>
      <trkpt lat="38.4997390" lon="-0.6387250">
        <ele>922.4</ele>
        <time>2018-10-27T09:30:04Z</time>
      </trkpt>
      <trkpt lat="38.4997560" lon="-0.6386690">
        <ele>923.6</ele>
        <time>2018-10-27T09:30:08Z</time>
      </trkpt>
      <trkpt lat="38.4997730" lon="-0.6386370">
        <ele>924.0</ele>
        <time>2018-10-27T09:30:10Z</time>
      </trkpt>
      <trkpt lat="38.4998220" lon="-0.6385130">
        <ele>924.6</ele>
        <time>2018-10-27T09:30:16Z</time>
      </trkpt>
      <trkpt lat="38.4998340" lon="-0.6384930">
        <ele>924.6</ele>
        <time>2018-10-27T09:30:17Z</time>
      </trkpt>
      <trkpt lat="38.4998770" lon="-0.6384320">
        <ele>925.2</ele>
        <time>2018-10-27T09:30:21Z</time>
      </trkpt>
      <trkpt lat="38.4999000" lon="-0.6383970">
        <ele>925.6</ele>
        <time>2018-10-27T09:30:24Z</time>
      </trkpt>
      <trkpt lat="38.4999140" lon="-0.6383830">
        <ele>925.8</ele>
        <time>2018-10-27T09:30:25Z</time>
      </trkpt>
      <trkpt lat="38.4999830" lon="-0.6383230">
        <ele>926.8</ele>
        <time>2018-10-27T09:30:30Z</time>
      </trkpt>
      <trkpt lat="38.5000060" lon="-0.6383060">
        <ele>927.6</ele>
        <time>2018-10-27T09:30:32Z</time>
      </trkpt>
      <trkpt lat="38.5000180" lon="-0.6382950">
        <ele>928.0</ele>
        <time>2018-10-27T09:30:33Z</time>
      </trkpt>
      <trkpt lat="38.5000830" lon="-0.6382210">
        <ele>929.2</ele>
        <time>2018-10-27T09:30:38Z</time>
      </trkpt>
      <trkpt lat="38.5000940" lon="-0.6382000">
        <ele>929.4</ele>
        <time>2018-10-27T09:30:39Z</time>
      </trkpt>
      <trkpt lat="38.5001610" lon="-0.6380890">
        <ele>930.2</ele>
        <time>2018-10-27T09:30:45Z</time>
      </trkpt>
      <trkpt lat="38.5001810" lon="-0.6380570">
        <ele>930.4</ele>
        <time>2018-10-27T09:30:47Z</time>
      </trkpt>
      <trkpt lat="38.5002110" lon="-0.6380350">
        <ele>930.6</ele>
        <time>2018-10-27T09:30:50Z</time>
      </trkpt>
      <trkpt lat="38.5002470" lon="-0.6380480">
        <ele>930.8</ele>
        <time>2018-10-27T09:30:53Z</time>
      </trkpt>
      <trkpt lat="38.5002540" lon="-0.6380610">
        <ele>930.8</ele>
        <time>2018-10-27T09:30:54Z</time>
      </trkpt>
      <trkpt lat="38.5002650" lon="-0.6381120">
        <ele>930.8</ele>
        <time>2018-10-27T09:30:57Z</time>
      </trkpt>
      <trkpt lat="38.5002640" lon="-0.6381450">
        <ele>931.0</ele>
        <time>2018-10-27T09:30:59Z</time>
      </trkpt>
      <trkpt lat="38.5002650" lon="-0.6382380">
        <ele>931.0</ele>
        <time>2018-10-27T09:31:04Z</time>
      </trkpt>
      <trkpt lat="38.5002690" lon="-0.6382610">
        <ele>931.0</ele>
        <time>2018-10-27T09:31:05Z</time>
      </trkpt>
      <trkpt lat="38.5002770" lon="-0.6383840">
        <ele>931.4</ele>
        <time>2018-10-27T09:31:11Z</time>
      </trkpt>
      <trkpt lat="38.5002820" lon="-0.6383980">
        <ele>931.4</ele>
        <time>2018-10-27T09:31:12Z</time>
      </trkpt>
      <trkpt lat="38.5003170" lon="-0.6384620">
        <ele>932.0</ele>
        <time>2018-10-27T09:31:17Z</time>
      </trkpt>
      <trkpt lat="38.5003420" lon="-0.6384740">
        <ele>932.2</ele>
        <time>2018-10-27T09:31:19Z</time>
      </trkpt>
      <trkpt lat="38.5003680" lon="-0.6384730">
        <ele>932.4</ele>
        <time>2018-10-27T09:31:21Z</time>
      </trkpt>
      <trkpt lat="38.5003930" lon="-0.6384540">
        <ele>932.6</ele>
        <time>2018-10-27T09:31:24Z</time>
      </trkpt>
      <trkpt lat="38.5004280" lon="-0.6384050">
        <ele>933.6</ele>
        <time>2018-10-27T09:31:28Z</time>
      </trkpt>
      <trkpt lat="38.5004460" lon="-0.6383780">
        <ele>933.8</ele>
        <time>2018-10-27T09:31:30Z</time>
      </trkpt>
      <trkpt lat="38.5004640" lon="-0.6383440">
        <ele>934.6</ele>
        <time>2018-10-27T09:31:33Z</time>
      </trkpt>
      <trkpt lat="38.5004810" lon="-0.6383070">
        <ele>935.4</ele>
        <time>2018-10-27T09:31:36Z</time>
      </trkpt>
      <trkpt lat="38.5004910" lon="-0.6382970">
        <ele>935.6</ele>
        <time>2018-10-27T09:31:37Z</time>
      </trkpt>
      <trkpt lat="38.5005020" lon="-0.6382890">
        <ele>935.6</ele>
        <time>2018-10-27T09:31:38Z</time>
      </trkpt>
      <trkpt lat="38.5005160" lon="-0.6382630">
        <ele>935.8</ele>
        <time>2018-10-27T09:31:40Z</time>
      </trkpt>
      <trkpt lat="38.5005250" lon="-0.6382330">
        <ele>936.6</ele>
        <time>2018-10-27T09:31:42Z</time>
      </trkpt>
      <trkpt lat="38.5005300" lon="-0.6382140">
        <ele>937.2</ele>
        <time>2018-10-27T09:31:43Z</time>
      </trkpt>
      <trkpt lat="38.5005500" lon="-0.6381550">
        <ele>938.0</ele>
        <time>2018-10-27T09:31:46Z</time>
      </trkpt>
      <trkpt lat="38.5005620" lon="-0.6381210">
        <ele>938.2</ele>
        <time>2018-10-27T09:31:48Z</time>
      </trkpt>
      <trkpt lat="38.5005690" lon="-0.6381070">
        <ele>938.8</ele>
        <time>2018-10-27T09:31:49Z</time>
      </trkpt>
      <trkpt lat="38.5005920" lon="-0.6380780">
        <ele>939.4</ele>
        <time>2018-10-27T09:31:51Z</time>
      </trkpt>
      <trkpt lat="38.5006190" lon="-0.6380570">
        <ele>940.0</ele>
        <time>2018-10-27T09:31:53Z</time>
      </trkpt>
      <trkpt lat="38.5006390" lon="-0.6380310">
        <ele>940.4</ele>
        <time>2018-10-27T09:31:55Z</time>
      </trkpt>
      <trkpt lat="38.5006880" lon="-0.6379780">
        <ele>941.4</ele>
        <time>2018-10-27T09:32:00Z</time>
      </trkpt>
      <trkpt lat="38.5006970" lon="-0.6379670">
        <ele>941.6</ele>
        <time>2018-10-27T09:32:01Z</time>
      </trkpt>
      <trkpt lat="38.5007300" lon="-0.6379290">
        <ele>942.8</ele>
        <time>2018-10-27T09:32:05Z</time>
      </trkpt>
      <trkpt lat="38.5007790" lon="-0.6378880">
        <ele>943.4</ele>
        <time>2018-10-27T09:32:09Z</time>
      </trkpt>
      <trkpt lat="38.5008210" lon="-0.6378590">
        <ele>944.0</ele>
        <time>2018-10-27T09:32:12Z</time>
      </trkpt>
      <trkpt lat="38.5008550" lon="-0.6378190">
        <ele>944.8</ele>
        <time>2018-10-27T09:32:15Z</time>
      </trkpt>
      <trkpt lat="38.5008660" lon="-0.6378040">
        <ele>945.2</ele>
        <time>2018-10-27T09:32:16Z</time>
      </trkpt>
      <trkpt lat="38.5008930" lon="-0.6377420">
        <ele>945.8</ele>
        <time>2018-10-27T09:32:20Z</time>
      </trkpt>
      <trkpt lat="38.5009000" lon="-0.6377280">
        <ele>946.0</ele>
        <time>2018-10-27T09:32:21Z</time>
      </trkpt>
      <trkpt lat="38.5009070" lon="-0.6377150">
        <ele>946.2</ele>
        <time>2018-10-27T09:32:22Z</time>
      </trkpt>
      <trkpt lat="38.5009410" lon="-0.6376650">
        <ele>947.0</ele>
        <time>2018-10-27T09:32:26Z</time>
      </trkpt>
      <trkpt lat="38.5009480" lon="-0.6376530">
        <ele>947.4</ele>
        <time>2018-10-27T09:32:27Z</time>
      </trkpt>
      <trkpt lat="38.5009660" lon="-0.6376200">
        <ele>948.0</ele>
        <time>2018-10-27T09:32:30Z</time>
      </trkpt>
      <trkpt lat="38.5009820" lon="-0.6375890">
        <ele>948.4</ele>
        <time>2018-10-27T09:32:33Z</time>
      </trkpt>
      <trkpt lat="38.5009860" lon="-0.6375790">
        <ele>948.8</ele>
        <time>2018-10-27T09:32:34Z</time>
      </trkpt>
      <trkpt lat="38.5010090" lon="-0.6375360">
        <ele>949.4</ele>
        <time>2018-10-27T09:32:38Z</time>
      </trkpt>
      <trkpt lat="38.5010170" lon="-0.6375250">
        <ele>949.8</ele>
        <time>2018-10-27T09:32:39Z</time>
      </trkpt>
      <trkpt lat="38.5010360" lon="-0.6375030">
        <ele>950.8</ele>
        <time>2018-10-27T09:32:42Z</time>
      </trkpt>
      <trkpt lat="38.5010420" lon="-0.6374960">
        <ele>951.0</ele>
        <time>2018-10-27T09:32:43Z</time>
      </trkpt>
      <trkpt lat="38.5010700" lon="-0.6374520">
        <ele>952.2</ele>
        <time>2018-10-27T09:32:48Z</time>
      </trkpt>
      <trkpt lat="38.5010790" lon="-0.6374430">
        <ele>952.4</ele>
        <time>2018-10-27T09:32:49Z</time>
      </trkpt>
      <trkpt lat="38.5011200" lon="-0.6374130">
        <ele>953.2</ele>
        <time>2018-10-27T09:32:53Z</time>
      </trkpt>
      <trkpt lat="38.5011380" lon="-0.6374030">
        <ele>953.8</ele>
        <time>2018-10-27T09:32:55Z</time>
      </trkpt>
      <trkpt lat="38.5011540" lon="-0.6373880">
        <ele>954.2</ele>
        <time>2018-10-27T09:32:57Z</time>
      </trkpt>
      <trkpt lat="38.5011610" lon="-0.6373810">
        <ele>954.6</ele>
        <time>2018-10-27T09:32:58Z</time>
      </trkpt>
      <trkpt lat="38.5011860" lon="-0.6373560">
        <ele>955.0</ele>
        <time>2018-10-27T09:33:01Z</time>
      </trkpt>
      <trkpt lat="38.5012030" lon="-0.6373430">
        <ele>955.4</ele>
        <time>2018-10-27T09:33:03Z</time>
      </trkpt>
      <trkpt lat="38.5012300" lon="-0.6373220">
        <ele>956.6</ele>
        <time>2018-10-27T09:33:06Z</time>
      </trkpt>
      <trkpt lat="38.5012390" lon="-0.6373110">
        <ele>956.8</ele>
        <time>2018-10-27T09:33:07Z</time>
      </trkpt>
      <trkpt lat="38.5012980" lon="-0.6372620">
        <ele>957.6</ele>
        <time>2018-10-27T09:33:13Z</time>
      </trkpt>
      <trkpt lat="38.5013070" lon="-0.6372550">
        <ele>957.8</ele>
        <time>2018-10-27T09:33:14Z</time>
      </trkpt>
      <trkpt lat="38.5013390" lon="-0.6372380">
        <ele>958.6</ele>
        <time>2018-10-27T09:33:17Z</time>
      </trkpt>
      <trkpt lat="38.5013490" lon="-0.6372320">
        <ele>958.8</ele>
        <time>2018-10-27T09:33:18Z</time>
      </trkpt>
      <trkpt lat="38.5013710" lon="-0.6372260">
        <ele>959.4</ele>
        <time>2018-10-27T09:33:20Z</time>
      </trkpt>
      <trkpt lat="38.5013790" lon="-0.6372210">
        <ele>959.4</ele>
        <time>2018-10-27T09:33:21Z</time>
      </trkpt>
      <trkpt lat="38.5013880" lon="-0.6372170">
        <ele>960.0</ele>
        <time>2018-10-27T09:33:22Z</time>
      </trkpt>
      <trkpt lat="38.5014380" lon="-0.6371790">
        <ele>961.0</ele>
        <time>2018-10-27T09:33:28Z</time>
      </trkpt>
      <trkpt lat="38.5014500" lon="-0.6371760">
        <ele>961.4</ele>
        <time>2018-10-27T09:33:29Z</time>
      </trkpt>
      <trkpt lat="38.5014900" lon="-0.6371610">
        <ele>962.2</ele>
        <time>2018-10-27T09:33:33Z</time>
      </trkpt>
      <trkpt lat="38.5015200" lon="-0.6371490">
        <ele>963.0</ele>
        <time>2018-10-27T09:33:36Z</time>
      </trkpt>
      <trkpt lat="38.5015290" lon="-0.6371420">
        <ele>963.2</ele>
        <time>2018-10-27T09:33:37Z</time>
      </trkpt>
      <trkpt lat="38.5015840" lon="-0.6371170">
        <ele>964.4</ele>
        <time>2018-10-27T09:33:42Z</time>
      </trkpt>
      <trkpt lat="38.5015940" lon="-0.6371130">
        <ele>964.6</ele>
        <time>2018-10-27T09:33:43Z</time>
      </trkpt>
      <trkpt lat="38.5016260" lon="-0.6371130">
        <ele>965.0</ele>
        <time>2018-10-27T09:33:46Z</time>
      </trkpt>
      <trkpt lat="38.5016320" lon="-0.6371150">
        <ele>965.6</ele>
        <time>2018-10-27T09:33:47Z</time>
      </trkpt>
      <trkpt lat="38.5016450" lon="-0.6371050">
        <ele>966.4</ele>
        <time>2018-10-27T09:33:51Z</time>
      </trkpt>
      <trkpt lat="38.5016490" lon="-0.6371000">
        <ele>966.8</ele>
        <time>2018-10-27T09:33:52Z</time>
      </trkpt>
      <trkpt lat="38.5017080" lon="-0.6370830">
        <ele>968.2</ele>
        <time>2018-10-27T09:33:58Z</time>
      </trkpt>
      <trkpt lat="38.5017570" lon="-0.6370580">
        <ele>968.8</ele>
        <time>2018-10-27T09:34:01Z</time>
      </trkpt>
      <trkpt lat="38.5017640" lon="-0.6370510">
        <ele>969.2</ele>
        <time>2018-10-27T09:34:02Z</time>
      </trkpt>
      <trkpt lat="38.5017790" lon="-0.6370220">
        <ele>970.0</ele>
        <time>2018-10-27T09:34:05Z</time>
      </trkpt>
      <trkpt lat="38.5017820" lon="-0.6370150">
        <ele>970.4</ele>
        <time>2018-10-27T09:34:06Z</time>
      </trkpt>
      <trkpt lat="38.5017850" lon="-0.6370050">
        <ele>971.4</ele>
        <time>2018-10-27T09:34:09Z</time>
      </trkpt>
      <trkpt lat="38.5017840" lon="-0.6369980">
        <ele>972.4</ele>
        <time>2018-10-27T09:34:13Z</time>
      </trkpt>
      <trkpt lat="38.5017910" lon="-0.6370000">
        <ele>972.6</ele>
        <time>2018-10-27T09:34:14Z</time>
      </trkpt>
      <trkpt lat="38.5018270" lon="-0.6369680">
        <ele>973.6</ele>
        <time>2018-10-27T09:34:19Z</time>
      </trkpt>
      <trkpt lat="38.5018300" lon="-0.6369590">
        <ele>973.8</ele>
        <time>2018-10-27T09:34:20Z</time>
      </trkpt>
      <trkpt lat="38.5018420" lon="-0.6369310">
        <ele>974.0</ele>
        <time>2018-10-27T09:34:23Z</time>
      </trkpt>
      <trkpt lat="38.5018490" lon="-0.6368880">
        <ele>974.4</ele>
        <time>2018-10-27T09:34:27Z</time>
      </trkpt>
      <trkpt lat="38.5018510" lon="-0.6368780">
        <ele>974.6</ele>
        <time>2018-10-27T09:34:28Z</time>
      </trkpt>
      <trkpt lat="38.5018550" lon="-0.6368690">
        <ele>974.8</ele>
        <time>2018-10-27T09:34:29Z</time>
      </trkpt>
      <trkpt lat="38.5018530" lon="-0.6368540">
        <ele>975.4</ele>
        <time>2018-10-27T09:34:31Z</time>
      </trkpt>
      <trkpt lat="38.5018550" lon="-0.6368450">
        <ele>975.6</ele>
        <time>2018-10-27T09:34:32Z</time>
      </trkpt>
      <trkpt lat="38.5018570" lon="-0.6368370">
        <ele>975.8</ele>
        <time>2018-10-27T09:34:33Z</time>
      </trkpt>
      <trkpt lat="38.5018600" lon="-0.6368290">
        <ele>976.0</ele>
        <time>2018-10-27T09:34:34Z</time>
      </trkpt>
      <trkpt lat="38.5018700" lon="-0.6368010">
        <ele>977.0</ele>
        <time>2018-10-27T09:34:37Z</time>
      </trkpt>
      <trkpt lat="38.5018820" lon="-0.6367890">
        <ele>977.6</ele>
        <time>2018-10-27T09:34:39Z</time>
      </trkpt>
      <trkpt lat="38.5019110" lon="-0.6367590">
        <ele>978.2</ele>
        <time>2018-10-27T09:34:43Z</time>
      </trkpt>
      <trkpt lat="38.5019490" lon="-0.6367280">
        <ele>979.2</ele>
        <time>2018-10-27T09:34:48Z</time>
      </trkpt>
      <trkpt lat="38.5019860" lon="-0.6367140">
        <ele>980.0</ele>
        <time>2018-10-27T09:34:52Z</time>
      </trkpt>
      <trkpt lat="38.5020020" lon="-0.6367110">
        <ele>980.6</ele>
        <time>2018-10-27T09:34:54Z</time>
      </trkpt>
      <trkpt lat="38.5020140" lon="-0.6367070">
        <ele>981.4</ele>
        <time>2018-10-27T09:34:56Z</time>
      </trkpt>
      <trkpt lat="38.5020220" lon="-0.6367140">
        <ele>981.8</ele>
        <time>2018-10-27T09:34:57Z</time>
      </trkpt>
      <trkpt lat="38.5020730" lon="-0.6367160">
        <ele>983.0</ele>
        <time>2018-10-27T09:35:03Z</time>
      </trkpt>
      <trkpt lat="38.5021110" lon="-0.6367330">
        <ele>984.0</ele>
        <time>2018-10-27T09:35:07Z</time>
      </trkpt>
      <trkpt lat="38.5021200" lon="-0.6367390">
        <ele>984.2</ele>
        <time>2018-10-27T09:35:08Z</time>
      </trkpt>
      <trkpt lat="38.5021420" lon="-0.6367570">
        <ele>985.2</ele>
        <time>2018-10-27T09:35:12Z</time>
      </trkpt>
      <trkpt lat="38.5021540" lon="-0.6367900">
        <ele>986.2</ele>
        <time>2018-10-27T09:35:15Z</time>
      </trkpt>
      <trkpt lat="38.5021660" lon="-0.6368190">
        <ele>986.8</ele>
        <time>2018-10-27T09:35:17Z</time>
      </trkpt>
      <trkpt lat="38.5021660" lon="-0.6368340">
        <ele>987.2</ele>
        <time>2018-10-27T09:35:18Z</time>
      </trkpt>
      <trkpt lat="38.5021670" lon="-0.6368460">
        <ele>987.4</ele>
        <time>2018-10-27T09:35:19Z</time>
      </trkpt>
      <trkpt lat="38.5021680" lon="-0.6369070">
        <ele>988.4</ele>
        <time>2018-10-27T09:35:24Z</time>
      </trkpt>
      <trkpt lat="38.5021880" lon="-0.6369570">
        <ele>989.8</ele>
        <time>2018-10-27T09:35:28Z</time>
      </trkpt>
      <trkpt lat="38.5022040" lon="-0.6369700">
        <ele>990.6</ele>
        <time>2018-10-27T09:35:30Z</time>
      </trkpt>
      <trkpt lat="38.5022130" lon="-0.6369770">
        <ele>991.0</ele>
        <time>2018-10-27T09:35:31Z</time>
      </trkpt>
      <trkpt lat="38.5022210" lon="-0.6369790">
        <ele>991.2</ele>
        <time>2018-10-27T09:35:32Z</time>
      </trkpt>
      <trkpt lat="38.5022620" lon="-0.6369730">
        <ele>992.2</ele>
        <time>2018-10-27T09:35:36Z</time>
      </trkpt>
      <trkpt lat="38.5023070" lon="-0.6369390">
        <ele>993.0</ele>
        <time>2018-10-27T09:35:40Z</time>
      </trkpt>
      <trkpt lat="38.5023240" lon="-0.6369230">
        <ele>993.4</ele>
        <time>2018-10-27T09:35:42Z</time>
      </trkpt>
      <trkpt lat="38.5023600" lon="-0.6368690">
        <ele>994.4</ele>
        <time>2018-10-27T09:35:47Z</time>
      </trkpt>
      <trkpt lat="38.5023720" lon="-0.6368390">
        <ele>995.6</ele>
        <time>2018-10-27T09:35:50Z</time>
      </trkpt>
      <trkpt lat="38.5023780" lon="-0.6368300">
        <ele>995.8</ele>
        <time>2018-10-27T09:35:51Z</time>
      </trkpt>
      <trkpt lat="38.5023950" lon="-0.6367680">
        <ele>996.8</ele>
        <time>2018-10-27T09:35:56Z</time>
      </trkpt>
      <trkpt lat="38.5024000" lon="-0.6367570">
        <ele>997.0</ele>
        <time>2018-10-27T09:35:57Z</time>
      </trkpt>
      <trkpt lat="38.5024090" lon="-0.6367340">
        <ele>997.4</ele>
        <time>2018-10-27T09:35:59Z</time>
      </trkpt>
      <trkpt lat="38.5024360" lon="-0.6366920">
        <ele>998.0</ele>
        <time>2018-10-27T09:36:03Z</time>
      </trkpt>
      <trkpt lat="38.5024480" lon="-0.6366730">
        <ele>998.6</ele>
        <time>2018-10-27T09:36:05Z</time>
      </trkpt>
      <trkpt lat="38.5024630" lon="-0.6366550">
        <ele>999.2</ele>
        <time>2018-10-27T09:36:07Z</time>
      </trkpt>
      <trkpt lat="38.5024710" lon="-0.6366480">
        <ele>999.6</ele>
        <time>2018-10-27T09:36:08Z</time>
      </trkpt>
      <trkpt lat="38.5024950" lon="-0.6366180">
        <ele>1000.4</ele>
        <time>2018-10-27T09:36:12Z</time>
      </trkpt>
      <trkpt lat="38.5025110" lon="-0.6365910">
        <ele>1001.0</ele>
        <time>2018-10-27T09:36:15Z</time>
      </trkpt>
      <trkpt lat="38.5025220" lon="-0.6365780">
        <ele>1001.4</ele>
        <time>2018-10-27T09:36:17Z</time>
      </trkpt>
      <trkpt lat="38.5025280" lon="-0.6365710">
        <ele>1001.4</ele>
        <time>2018-10-27T09:36:18Z</time>
      </trkpt>
      <trkpt lat="38.5025560" lon="-0.6365350">
        <ele>1002.4</ele>
        <time>2018-10-27T09:36:23Z</time>
      </trkpt>
      <trkpt lat="38.5025790" lon="-0.6364790">
        <ele>1003.6</ele>
        <time>2018-10-27T09:36:30Z</time>
      </trkpt>
      <trkpt lat="38.5025800" lon="-0.6364680">
        <ele>1003.8</ele>
        <time>2018-10-27T09:36:31Z</time>
      </trkpt>
      <trkpt lat="38.5025790" lon="-0.6364540">
        <ele>1004.0</ele>
        <time>2018-10-27T09:36:32Z</time>
      </trkpt>
      <trkpt lat="38.5025770" lon="-0.6364150">
        <ele>1004.6</ele>
        <time>2018-10-27T09:36:36Z</time>
      </trkpt>
      <trkpt lat="38.5025770" lon="-0.6364050">
        <ele>1004.8</ele>
        <time>2018-10-27T09:36:37Z</time>
      </trkpt>
      <trkpt lat="38.5025730" lon="-0.6363690">
        <ele>1006.0</ele>
        <time>2018-10-27T09:36:40Z</time>
      </trkpt>
      <trkpt lat="38.5025750" lon="-0.6363400">
        <ele>1006.2</ele>
        <time>2018-10-27T09:36:42Z</time>
      </trkpt>
      <trkpt lat="38.5025760" lon="-0.6363300">
        <ele>1006.4</ele>
        <time>2018-10-27T09:36:43Z</time>
      </trkpt>
      <trkpt lat="38.5025950" lon="-0.6362910">
        <ele>1007.0</ele>
        <time>2018-10-27T09:36:47Z</time>
      </trkpt>
      <trkpt lat="38.5026080" lon="-0.6362380">
        <ele>1008.0</ele>
        <time>2018-10-27T09:36:52Z</time>
      </trkpt>
      <trkpt lat="38.5026160" lon="-0.6362200">
        <ele>1008.4</ele>
        <time>2018-10-27T09:36:54Z</time>
      </trkpt>
      <trkpt lat="38.5026160" lon="-0.6362050">
        <ele>1009.0</ele>
        <time>2018-10-27T09:36:56Z</time>
      </trkpt>
      <trkpt lat="38.5026170" lon="-0.6361920">
        <ele>1009.2</ele>
        <time>2018-10-27T09:36:57Z</time>
      </trkpt>
      <trkpt lat="38.5026240" lon="-0.6361420">
        <ele>1009.8</ele>
        <time>2018-10-27T09:37:01Z</time>
      </trkpt>
      <trkpt lat="38.5026200" lon="-0.6361320">
        <ele>1010.0</ele>
        <time>2018-10-27T09:37:02Z</time>
      </trkpt>
      <trkpt lat="38.5026280" lon="-0.6361050">
        <ele>1010.2</ele>
        <time>2018-10-27T09:37:04Z</time>
      </trkpt>
      <trkpt lat="38.5026550" lon="-0.6360810">
        <ele>1011.0</ele>
        <time>2018-10-27T09:37:07Z</time>
      </trkpt>
      <trkpt lat="38.5026630" lon="-0.6360560">
        <ele>1011.2</ele>
        <time>2018-10-27T09:37:09Z</time>
      </trkpt>
      <trkpt lat="38.5026690" lon="-0.6360300">
        <ele>1011.4</ele>
        <time>2018-10-27T09:37:11Z</time>
      </trkpt>
      <trkpt lat="38.5026670" lon="-0.6359870">
        <ele>1012.4</ele>
        <time>2018-10-27T09:37:14Z</time>
      </trkpt>
      <trkpt lat="38.5026220" lon="-0.6359290">
        <ele>1013.2</ele>
        <time>2018-10-27T09:37:18Z</time>
      </trkpt>
      <trkpt lat="38.5025760" lon="-0.6359110">
        <ele>1014.0</ele>
        <time>2018-10-27T09:37:21Z</time>
      </trkpt>
      <trkpt lat="38.5025600" lon="-0.6359090">
        <ele>1014.4</ele>
        <time>2018-10-27T09:37:22Z</time>
      </trkpt>
      <trkpt lat="38.5025280" lon="-0.6359120">
        <ele>1015.0</ele>
        <time>2018-10-27T09:37:24Z</time>
      </trkpt>
      <trkpt lat="38.5024920" lon="-0.6359190">
        <ele>1015.4</ele>
        <time>2018-10-27T09:37:26Z</time>
      </trkpt>
      <trkpt lat="38.5024570" lon="-0.6359320">
        <ele>1016.0</ele>
        <time>2018-10-27T09:37:28Z</time>
      </trkpt>
      <trkpt lat="38.5024120" lon="-0.6359390">
        <ele>1017.0</ele>
        <time>2018-10-27T09:37:32Z</time>
      </trkpt>
      <trkpt lat="38.5024010" lon="-0.6359290">
        <ele>1017.4</ele>
        <time>2018-10-27T09:37:33Z</time>
      </trkpt>
      <trkpt lat="38.5023980" lon="-0.6359230">
        <ele>1017.6</ele>
        <time>2018-10-27T09:37:34Z</time>
      </trkpt>
      <trkpt lat="38.5024040" lon="-0.6358940">
        <ele>1018.4</ele>
        <time>2018-10-27T09:37:37Z</time>
      </trkpt>
      <trkpt lat="38.5024080" lon="-0.6358850">
        <ele>1018.6</ele>
        <time>2018-10-27T09:37:38Z</time>
      </trkpt>
      <trkpt lat="38.5024510" lon="-0.6358170">
        <ele>1019.8</ele>
        <time>2018-10-27T09:37:43Z</time>
      </trkpt>
      <trkpt lat="38.5025020" lon="-0.6357710">
        <ele>1020.4</ele>
        <time>2018-10-27T09:37:47Z</time>
      </trkpt>
      <trkpt lat="38.5025120" lon="-0.6357630">
        <ele>1020.4</ele>
        <time>2018-10-27T09:37:48Z</time>
      </trkpt>
      <trkpt lat="38.5025390" lon="-0.6357360">
        <ele>1020.8</ele>
        <time>2018-10-27T09:37:51Z</time>
      </trkpt>
      <trkpt lat="38.5025880" lon="-0.6356930">
        <ele>1021.2</ele>
        <time>2018-10-27T09:37:55Z</time>
      </trkpt>
      <trkpt lat="38.5026020" lon="-0.6356830">
        <ele>1021.4</ele>
        <time>2018-10-27T09:37:56Z</time>
      </trkpt>
      <trkpt lat="38.5026530" lon="-0.6356600">
        <ele>1021.8</ele>
        <time>2018-10-27T09:38:00Z</time>
      </trkpt>
      <trkpt lat="38.5026800" lon="-0.6356460">
        <ele>1022.2</ele>
        <time>2018-10-27T09:38:03Z</time>
      </trkpt>
      <trkpt lat="38.5027120" lon="-0.6356280">
        <ele>1023.0</ele>
        <time>2018-10-27T09:38:08Z</time>
      </trkpt>
      <trkpt lat="38.5027260" lon="-0.6356120">
        <ele>1023.0</ele>
        <time>2018-10-27T09:38:10Z</time>
      </trkpt>
      <trkpt lat="38.5027320" lon="-0.6356080">
        <ele>1023.2</ele>
        <time>2018-10-27T09:38:11Z</time>
      </trkpt>
      <trkpt lat="38.5031030" lon="-0.6360690">
        <ele>1032.2</ele>
        <time>2018-10-27T09:39:06Z</time>
      </trkpt>
      <trkpt lat="38.5031080" lon="-0.6360670">
        <ele>1032.4</ele>
        <time>2018-10-27T09:39:07Z</time>
      </trkpt>
      <trkpt lat="38.5031100" lon="-0.6360590">
        <ele>1032.4</ele>
        <time>2018-10-27T09:39:08Z</time>
      </trkpt>
      <trkpt lat="38.5031100" lon="-0.6360350">
        <ele>1032.6</ele>
        <time>2018-10-27T09:39:10Z</time>
      </trkpt>
      <trkpt lat="38.5031180" lon="-0.6359570">
        <ele>1033.4</ele>
        <time>2018-10-27T09:39:15Z</time>
      </trkpt>
      <trkpt lat="38.5031140" lon="-0.6359300">
        <ele>1034.0</ele>
        <time>2018-10-27T09:39:17Z</time>
      </trkpt>
      <trkpt lat="38.5031040" lon="-0.6359010">
        <ele>1034.4</ele>
        <time>2018-10-27T09:39:19Z</time>
      </trkpt>
      <trkpt lat="38.5030970" lon="-0.6358850">
        <ele>1034.6</ele>
        <time>2018-10-27T09:39:20Z</time>
      </trkpt>
      <trkpt lat="38.5030740" lon="-0.6358290">
        <ele>1035.4</ele>
        <time>2018-10-27T09:39:24Z</time>
      </trkpt>
      <trkpt lat="38.5030580" lon="-0.6357880">
        <ele>1035.8</ele>
        <time>2018-10-27T09:39:28Z</time>
      </trkpt>
      <trkpt lat="38.5030450" lon="-0.6357470">
        <ele>1036.6</ele>
        <time>2018-10-27T09:39:31Z</time>
      </trkpt>
      <trkpt lat="38.5030450" lon="-0.6357120">
        <ele>1037.0</ele>
        <time>2018-10-27T09:39:33Z</time>
      </trkpt>
      <trkpt lat="38.5030460" lon="-0.6356400">
        <ele>1038.0</ele>
        <time>2018-10-27T09:39:37Z</time>
      </trkpt>
      <trkpt lat="38.5030400" lon="-0.6355490">
        <ele>1038.8</ele>
        <time>2018-10-27T09:39:43Z</time>
      </trkpt>
      <trkpt lat="38.5030470" lon="-0.6355500">
        <ele>1038.8</ele>
        <time>2018-10-27T09:39:44Z</time>
      </trkpt>
      <trkpt lat="38.5030490" lon="-0.6355500">
        <ele>1039.0</ele>
        <time>2018-10-27T09:39:45Z</time>
      </trkpt>
      <trkpt lat="38.5030590" lon="-0.6355370">
        <ele>1039.6</ele>
        <time>2018-10-27T09:39:51Z</time>
      </trkpt>
      <trkpt lat="38.5030610" lon="-0.6355340">
        <ele>1039.6</ele>
        <time>2018-10-27T09:39:52Z</time>
      </trkpt>
      <trkpt lat="38.5030420" lon="-0.6354950">
        <ele>1040.0</ele>
        <time>2018-10-27T09:39:57Z</time>
      </trkpt>
      <trkpt lat="38.5030430" lon="-0.6354830">
        <ele>1040.2</ele>
        <time>2018-10-27T09:39:58Z</time>
      </trkpt>
      <trkpt lat="38.5030560" lon="-0.6353990">
        <ele>1040.4</ele>
        <time>2018-10-27T09:40:04Z</time>
      </trkpt>
      <trkpt lat="38.5030640" lon="-0.6353680">
        <ele>1040.4</ele>
        <time>2018-10-27T09:40:06Z</time>
      </trkpt>
      <trkpt lat="38.5030750" lon="-0.6352620">
        <ele>1041.0</ele>
        <time>2018-10-27T09:40:13Z</time>
      </trkpt>
      <trkpt lat="38.5030820" lon="-0.6352360">
        <ele>1041.2</ele>
        <time>2018-10-27T09:40:15Z</time>
      </trkpt>
      <trkpt lat="38.5030810" lon="-0.6351500">
        <ele>1041.4</ele>
        <time>2018-10-27T09:40:19Z</time>
      </trkpt>
      <trkpt lat="38.5030880" lon="-0.6351380">
        <ele>1041.4</ele>
        <time>2018-10-27T09:40:20Z</time>
      </trkpt>
      <trkpt lat="38.5030820" lon="-0.6350760">
        <ele>1042.2</ele>
        <time>2018-10-27T09:40:25Z</time>
      </trkpt>
      <trkpt lat="38.5030700" lon="-0.6350630">
        <ele>1042.4</ele>
        <time>2018-10-27T09:40:26Z</time>
      </trkpt>
      <trkpt lat="38.5030330" lon="-0.6350270">
        <ele>1042.6</ele>
        <time>2018-10-27T09:40:29Z</time>
      </trkpt>
      <trkpt lat="38.5029630" lon="-0.6349950">
        <ele>1043.2</ele>
        <time>2018-10-27T09:40:34Z</time>
      </trkpt>
      <trkpt lat="38.5028990" lon="-0.6349730">
        <ele>1044.4</ele>
        <time>2018-10-27T09:40:39Z</time>
      </trkpt>
      <trkpt lat="38.5028630" lon="-0.6349760">
        <ele>1045.0</ele>
        <time>2018-10-27T09:40:42Z</time>
      </trkpt>
      <trkpt lat="38.5028040" lon="-0.6350270">
        <ele>1045.6</ele>
        <time>2018-10-27T09:40:46Z</time>
      </trkpt>
      <trkpt lat="38.5027800" lon="-0.6350450">
        <ele>1045.8</ele>
        <time>2018-10-27T09:40:48Z</time>
      </trkpt>
      <trkpt lat="38.5026900" lon="-0.6350950">
        <ele>1046.6</ele>
        <time>2018-10-27T09:40:54Z</time>
      </trkpt>
      <trkpt lat="38.5026110" lon="-0.6351020">
        <ele>1047.8</ele>
        <time>2018-10-27T09:41:00Z</time>
      </trkpt>
      <trkpt lat="38.5026000" lon="-0.6350990">
        <ele>1048.0</ele>
        <time>2018-10-27T09:41:01Z</time>
      </trkpt>
      <trkpt lat="38.5025650" lon="-0.6350860">
        <ele>1049.0</ele>
        <time>2018-10-27T09:41:05Z</time>
      </trkpt>
      <trkpt lat="38.5025630" lon="-0.6350730">
        <ele>1049.2</ele>
        <time>2018-10-27T09:41:06Z</time>
      </trkpt>
      <trkpt lat="38.5025660" lon="-0.6350590">
        <ele>1049.4</ele>
        <time>2018-10-27T09:41:07Z</time>
      </trkpt>
      <trkpt lat="38.5025790" lon="-0.6350270">
        <ele>1050.0</ele>
        <time>2018-10-27T09:41:09Z</time>
      </trkpt>
      <trkpt lat="38.5026190" lon="-0.6349870">
        <ele>1050.6</ele>
        <time>2018-10-27T09:41:12Z</time>
      </trkpt>
      <trkpt lat="38.5026760" lon="-0.6349420">
        <ele>1051.0</ele>
        <time>2018-10-27T09:41:16Z</time>
      </trkpt>
      <trkpt lat="38.5026950" lon="-0.6349180">
        <ele>1051.4</ele>
        <time>2018-10-27T09:41:18Z</time>
      </trkpt>
      <trkpt lat="38.5027200" lon="-0.6348970">
        <ele>1051.8</ele>
        <time>2018-10-27T09:41:20Z</time>
      </trkpt>
      <trkpt lat="38.5027430" lon="-0.6348770">
        <ele>1052.2</ele>
        <time>2018-10-27T09:41:22Z</time>
      </trkpt>
      <trkpt lat="38.5027730" lon="-0.6348590">
        <ele>1052.6</ele>
        <time>2018-10-27T09:41:24Z</time>
      </trkpt>
      <trkpt lat="38.5027870" lon="-0.6348500">
        <ele>1052.6</ele>
        <time>2018-10-27T09:41:25Z</time>
      </trkpt>
      <trkpt lat="38.5028120" lon="-0.6348310">
        <ele>1053.2</ele>
        <time>2018-10-27T09:41:27Z</time>
      </trkpt>
      <trkpt lat="38.5028440" lon="-0.6347970">
        <ele>1053.8</ele>
        <time>2018-10-27T09:41:31Z</time>
      </trkpt>
      <trkpt lat="38.5028580" lon="-0.6347810">
        <ele>1054.0</ele>
        <time>2018-10-27T09:41:33Z</time>
      </trkpt>
      <trkpt lat="38.5028770" lon="-0.6347650">
        <ele>1054.4</ele>
        <time>2018-10-27T09:41:35Z</time>
      </trkpt>
      <trkpt lat="38.5029500" lon="-0.6347420">
        <ele>1055.4</ele>
        <time>2018-10-27T09:41:41Z</time>
      </trkpt>
      <trkpt lat="38.5029620" lon="-0.6347440">
        <ele>1055.8</ele>
        <time>2018-10-27T09:41:42Z</time>
      </trkpt>
      <trkpt lat="38.5030210" lon="-0.6347540">
        <ele>1056.6</ele>
        <time>2018-10-27T09:41:46Z</time>
      </trkpt>
      <trkpt lat="38.5030590" lon="-0.6347670">
        <ele>1056.8</ele>
        <time>2018-10-27T09:41:49Z</time>
      </trkpt>
      <trkpt lat="38.5031130" lon="-0.6347810">
        <ele>1057.8</ele>
        <time>2018-10-27T09:41:54Z</time>
      </trkpt>
      <trkpt lat="38.5031300" lon="-0.6347870">
        <ele>1058.4</ele>
        <time>2018-10-27T09:41:56Z</time>
      </trkpt>
      <trkpt lat="38.5031380" lon="-0.6347850">
        <ele>1058.8</ele>
        <time>2018-10-27T09:41:57Z</time>
      </trkpt>
      <trkpt lat="38.5031870" lon="-0.6347990">
        <ele>1060.2</ele>
        <time>2018-10-27T09:42:01Z</time>
      </trkpt>
      <trkpt lat="38.5032150" lon="-0.6347980">
        <ele>1060.8</ele>
        <time>2018-10-27T09:42:03Z</time>
      </trkpt>
      <trkpt lat="38.5032390" lon="-0.6347980">
        <ele>1061.2</ele>
        <time>2018-10-27T09:42:05Z</time>
      </trkpt>
      <trkpt lat="38.5032820" lon="-0.6348230">
        <ele>1061.6</ele>
        <time>2018-10-27T09:42:10Z</time>
      </trkpt>
      <trkpt lat="38.5033060" lon="-0.6348430">
        <ele>1062.4</ele>
        <time>2018-10-27T09:42:13Z</time>
      </trkpt>
      <trkpt lat="38.5033150" lon="-0.6348470">
        <ele>1062.8</ele>
        <time>2018-10-27T09:42:14Z</time>
      </trkpt>
      <trkpt lat="38.5033380" lon="-0.6348600">
        <ele>1063.6</ele>
        <time>2018-10-27T09:42:16Z</time>
      </trkpt>
      <trkpt lat="38.5033490" lon="-0.6348690">
        <ele>1063.8</ele>
        <time>2018-10-27T09:42:17Z</time>
      </trkpt>
      <trkpt lat="38.5033610" lon="-0.6348920">
        <ele>1064.0</ele>
        <time>2018-10-27T09:42:19Z</time>
      </trkpt>
      <trkpt lat="38.5033830" lon="-0.6349290">
        <ele>1064.8</ele>
        <time>2018-10-27T09:42:22Z</time>
      </trkpt>
      <trkpt lat="38.5033940" lon="-0.6349400">
        <ele>1065.0</ele>
        <time>2018-10-27T09:42:23Z</time>
      </trkpt>
      <trkpt lat="38.5034100" lon="-0.6349620">
        <ele>1065.2</ele>
        <time>2018-10-27T09:42:25Z</time>
      </trkpt>
      <trkpt lat="38.5034220" lon="-0.6349820">
        <ele>1066.0</ele>
        <time>2018-10-27T09:42:27Z</time>
      </trkpt>
      <trkpt lat="38.5034320" lon="-0.6350070">
        <ele>1066.4</ele>
        <time>2018-10-27T09:42:29Z</time>
      </trkpt>
      <trkpt lat="38.5034460" lon="-0.6350340">
        <ele>1067.2</ele>
        <time>2018-10-27T09:42:31Z</time>
      </trkpt>
      <trkpt lat="38.5034760" lon="-0.6350830">
        <ele>1068.4</ele>
        <time>2018-10-27T09:42:36Z</time>
      </trkpt>
      <trkpt lat="38.5034800" lon="-0.6350920">
        <ele>1068.4</ele>
        <time>2018-10-27T09:42:37Z</time>
      </trkpt>
      <trkpt lat="38.5034900" lon="-0.6351130">
        <ele>1069.6</ele>
        <time>2018-10-27T09:42:39Z</time>
      </trkpt>
      <trkpt lat="38.5035080" lon="-0.6351580">
        <ele>1070.8</ele>
        <time>2018-10-27T09:42:43Z</time>
      </trkpt>
      <trkpt lat="38.5035120" lon="-0.6351690">
        <ele>1071.0</ele>
        <time>2018-10-27T09:42:44Z</time>
      </trkpt>
      <trkpt lat="38.5035280" lon="-0.6352130">
        <ele>1071.4</ele>
        <time>2018-10-27T09:42:47Z</time>
      </trkpt>
      <trkpt lat="38.5035480" lon="-0.6352800">
        <ele>1071.8</ele>
        <time>2018-10-27T09:42:51Z</time>
      </trkpt>
      <trkpt lat="38.5035800" lon="-0.6353850">
        <ele>1072.8</ele>
        <time>2018-10-27T09:42:58Z</time>
      </trkpt>
      <trkpt lat="38.5035870" lon="-0.6353950">
        <ele>1073.0</ele>
        <time>2018-10-27T09:42:59Z</time>
      </trkpt>
      <trkpt lat="38.5036280" lon="-0.6354510">
        <ele>1074.0</ele>
        <time>2018-10-27T09:43:04Z</time>
      </trkpt>
      <trkpt lat="38.5036370" lon="-0.6354560">
        <ele>1074.2</ele>
        <time>2018-10-27T09:43:05Z</time>
      </trkpt>
      <trkpt lat="38.5036470" lon="-0.6354580">
        <ele>1074.6</ele>
        <time>2018-10-27T09:43:06Z</time>
      </trkpt>
      <trkpt lat="38.5036600" lon="-0.6354560">
        <ele>1075.4</ele>
        <time>2018-10-27T09:43:07Z</time>
      </trkpt>
      <trkpt lat="38.5036690" lon="-0.6354530">
        <ele>1076.0</ele>
        <time>2018-10-27T09:43:08Z</time>
      </trkpt>
      <trkpt lat="38.5036810" lon="-0.6354410">
        <ele>1076.2</ele>
        <time>2018-10-27T09:43:09Z</time>
      </trkpt>
      <trkpt lat="38.5036890" lon="-0.6354260">
        <ele>1076.6</ele>
        <time>2018-10-27T09:43:10Z</time>
      </trkpt>
      <trkpt lat="38.5036930" lon="-0.6354070">
        <ele>1077.0</ele>
        <time>2018-10-27T09:43:11Z</time>
      </trkpt>
      <trkpt lat="38.5036800" lon="-0.6353420">
        <ele>1077.8</ele>
        <time>2018-10-27T09:43:15Z</time>
      </trkpt>
      <trkpt lat="38.5036700" lon="-0.6353120">
        <ele>1078.2</ele>
        <time>2018-10-27T09:43:17Z</time>
      </trkpt>
      <trkpt lat="38.5036640" lon="-0.6352700">
        <ele>1078.8</ele>
        <time>2018-10-27T09:43:20Z</time>
      </trkpt>
      <trkpt lat="38.5036370" lon="-0.6352140">
        <ele>1079.6</ele>
        <time>2018-10-27T09:43:24Z</time>
      </trkpt>
      <trkpt lat="38.5036290" lon="-0.6351830">
        <ele>1080.2</ele>
        <time>2018-10-27T09:43:26Z</time>
      </trkpt>
      <trkpt lat="38.5036100" lon="-0.6351210">
        <ele>1081.4</ele>
        <time>2018-10-27T09:43:31Z</time>
      </trkpt>
      <trkpt lat="38.5036060" lon="-0.6350720">
        <ele>1082.0</ele>
        <time>2018-10-27T09:43:35Z</time>
      </trkpt>
      <trkpt lat="38.5036090" lon="-0.6350440">
        <ele>1082.4</ele>
        <time>2018-10-27T09:43:37Z</time>
      </trkpt>
      <trkpt lat="38.5036070" lon="-0.6350140">
        <ele>1083.0</ele>
        <time>2018-10-27T09:43:39Z</time>
      </trkpt>
      <trkpt lat="38.5036100" lon="-0.6349850">
        <ele>1083.6</ele>
        <time>2018-10-27T09:43:41Z</time>
      </trkpt>
      <trkpt lat="38.5036160" lon="-0.6349570">
        <ele>1083.8</ele>
        <time>2018-10-27T09:43:43Z</time>
      </trkpt>
      <trkpt lat="38.5036190" lon="-0.6349350">
        <ele>1084.0</ele>
        <time>2018-10-27T09:43:45Z</time>
      </trkpt>
      <trkpt lat="38.5036430" lon="-0.6348590">
        <ele>1084.4</ele>
        <time>2018-10-27T09:43:51Z</time>
      </trkpt>
      <trkpt lat="38.5036420" lon="-0.6348330">
        <ele>1084.6</ele>
        <time>2018-10-27T09:43:53Z</time>
      </trkpt>
      <trkpt lat="38.5036490" lon="-0.6347630">
        <ele>1085.2</ele>
        <time>2018-10-27T09:43:59Z</time>
      </trkpt>
      <trkpt lat="38.5036500" lon="-0.6347240">
        <ele>1085.8</ele>
        <time>2018-10-27T09:44:02Z</time>
      </trkpt>
      <trkpt lat="38.5036580" lon="-0.6346860">
        <ele>1086.4</ele>
        <time>2018-10-27T09:44:05Z</time>
      </trkpt>
      <trkpt lat="38.5036620" lon="-0.6346420">
        <ele>1086.8</ele>
        <time>2018-10-27T09:44:08Z</time>
      </trkpt>
      <trkpt lat="38.5036640" lon="-0.6346280">
        <ele>1086.8</ele>
        <time>2018-10-27T09:44:09Z</time>
      </trkpt>
      <trkpt lat="38.5036640" lon="-0.6346130">
        <ele>1087.2</ele>
        <time>2018-10-27T09:44:10Z</time>
      </trkpt>
      <trkpt lat="38.5036660" lon="-0.6345880">
        <ele>1087.4</ele>
        <time>2018-10-27T09:44:12Z</time>
      </trkpt>
      <trkpt lat="38.5036700" lon="-0.6345680">
        <ele>1087.8</ele>
        <time>2018-10-27T09:44:14Z</time>
      </trkpt>
      <trkpt lat="38.5036700" lon="-0.6345530">
        <ele>1088.0</ele>
        <time>2018-10-27T09:44:15Z</time>
      </trkpt>
      <trkpt lat="38.5036710" lon="-0.6345310">
        <ele>1088.4</ele>
        <time>2018-10-27T09:44:17Z</time>
      </trkpt>
      <trkpt lat="38.5036710" lon="-0.6345090">
        <ele>1088.8</ele>
        <time>2018-10-27T09:44:19Z</time>
      </trkpt>
      <trkpt lat="38.5036750" lon="-0.6344610">
        <ele>1089.0</ele>
        <time>2018-10-27T09:44:23Z</time>
      </trkpt>
      <trkpt lat="38.5036790" lon="-0.6344450">
        <ele>1089.4</ele>
        <time>2018-10-27T09:44:25Z</time>
      </trkpt>
      <trkpt lat="38.5036720" lon="-0.6344010">
        <ele>1089.8</ele>
        <time>2018-10-27T09:44:29Z</time>
      </trkpt>
      <trkpt lat="38.5038760" lon="-0.6341450">
        <ele>1092.2</ele>
        <time>2018-10-27T09:45:10Z</time>
      </trkpt>
      <trkpt lat="38.5038860" lon="-0.6341390">
        <ele>1092.2</ele>
        <time>2018-10-27T09:45:11Z</time>
      </trkpt>
      <trkpt lat="38.5038910" lon="-0.6341310">
        <ele>1092.0</ele>
        <time>2018-10-27T09:45:12Z</time>
      </trkpt>
      <trkpt lat="38.5039320" lon="-0.6341110">
        <ele>1091.8</ele>
        <time>2018-10-27T09:45:16Z</time>
      </trkpt>
      <trkpt lat="38.5040420" lon="-0.6340560">
        <ele>1091.6</ele>
        <time>2018-10-27T09:45:23Z</time>
      </trkpt>
      <trkpt lat="38.5040650" lon="-0.6340460">
        <ele>1091.6</ele>
        <time>2018-10-27T09:45:24Z</time>
      </trkpt>
      <trkpt lat="38.5040860" lon="-0.6340340">
        <ele>1091.6</ele>
        <time>2018-10-27T09:45:25Z</time>
      </trkpt>
      <trkpt lat="38.5041960" lon="-0.6340140">
        <ele>1090.8</ele>
        <time>2018-10-27T09:45:30Z</time>
      </trkpt>
      <trkpt lat="38.5042460" lon="-0.6340160">
        <ele>1090.0</ele>
        <time>2018-10-27T09:45:32Z</time>
      </trkpt>
      <trkpt lat="38.5042640" lon="-0.6340090">
        <ele>1089.6</ele>
        <time>2018-10-27T09:45:33Z</time>
      </trkpt>
      <trkpt lat="38.5043010" lon="-0.6339980">
        <ele>1088.6</ele>
        <time>2018-10-27T09:45:35Z</time>
      </trkpt>
      <trkpt lat="38.5043680" lon="-0.6339860">
        <ele>1087.4</ele>
        <time>2018-10-27T09:45:38Z</time>
      </trkpt>
      <trkpt lat="38.5044120" lon="-0.6339700">
        <ele>1086.0</ele>
        <time>2018-10-27T09:45:40Z</time>
      </trkpt>
      <trkpt lat="38.5044570" lon="-0.6339460">
        <ele>1084.2</ele>
        <time>2018-10-27T09:45:43Z</time>
      </trkpt>
      <trkpt lat="38.5044920" lon="-0.6339410">
        <ele>1083.0</ele>
        <time>2018-10-27T09:45:45Z</time>
      </trkpt>
      <trkpt lat="38.5045440" lon="-0.6339280">
        <ele>1081.8</ele>
        <time>2018-10-27T09:45:48Z</time>
      </trkpt>
      <trkpt lat="38.5045620" lon="-0.6339230">
        <ele>1081.6</ele>
        <time>2018-10-27T09:45:49Z</time>
      </trkpt>
      <trkpt lat="38.5046430" lon="-0.6338880">
        <ele>1080.6</ele>
        <time>2018-10-27T09:45:53Z</time>
      </trkpt>
      <trkpt lat="38.5047080" lon="-0.6338400">
        <ele>1079.2</ele>
        <time>2018-10-27T09:45:56Z</time>
      </trkpt>
      <trkpt lat="38.5047610" lon="-0.6338200">
        <ele>1078.0</ele>
        <time>2018-10-27T09:45:58Z</time>
      </trkpt>
      <trkpt lat="38.5048100" lon="-0.6338070">
        <ele>1077.0</ele>
        <time>2018-10-27T09:46:00Z</time>
      </trkpt>
      <trkpt lat="38.5048570" lon="-0.6338010">
        <ele>1075.8</ele>
        <time>2018-10-27T09:46:02Z</time>
      </trkpt>
      <trkpt lat="38.5048790" lon="-0.6337990">
        <ele>1075.4</ele>
        <time>2018-10-27T09:46:03Z</time>
      </trkpt>
      <trkpt lat="38.5048990" lon="-0.6337970">
        <ele>1074.6</ele>
        <time>2018-10-27T09:46:04Z</time>
      </trkpt>
      <trkpt lat="38.5049420" lon="-0.6338130">
        <ele>1073.6</ele>
        <time>2018-10-27T09:46:06Z</time>
      </trkpt>
      <trkpt lat="38.5050160" lon="-0.6338390">
        <ele>1072.0</ele>
        <time>2018-10-27T09:46:09Z</time>
      </trkpt>
      <trkpt lat="38.5050370" lon="-0.6338500">
        <ele>1071.4</ele>
        <time>2018-10-27T09:46:10Z</time>
      </trkpt>
      <trkpt lat="38.5050600" lon="-0.6338620">
        <ele>1070.2</ele>
        <time>2018-10-27T09:46:11Z</time>
      </trkpt>
      <trkpt lat="38.5051030" lon="-0.6338910">
        <ele>1068.6</ele>
        <time>2018-10-27T09:46:14Z</time>
      </trkpt>
      <trkpt lat="38.5051150" lon="-0.6339130">
        <ele>1067.6</ele>
        <time>2018-10-27T09:46:16Z</time>
      </trkpt>
      <trkpt lat="38.5051150" lon="-0.6339190">
        <ele>1067.0</ele>
        <time>2018-10-27T09:46:17Z</time>
      </trkpt>
      <trkpt lat="38.5051350" lon="-0.6339330">
        <ele>1065.8</ele>
        <time>2018-10-27T09:46:19Z</time>
      </trkpt>
      <trkpt lat="38.5052110" lon="-0.6340060">
        <ele>1064.6</ele>
        <time>2018-10-27T09:46:23Z</time>
      </trkpt>
      <trkpt lat="38.5052320" lon="-0.6340220">
        <ele>1064.6</ele>
        <time>2018-10-27T09:46:24Z</time>
      </trkpt>
      <trkpt lat="38.5053390" lon="-0.6340830">
        <ele>1063.6</ele>
        <time>2018-10-27T09:46:28Z</time>
      </trkpt>
      <trkpt lat="38.5054250" lon="-0.6341210">
        <ele>1062.4</ele>
        <time>2018-10-27T09:46:31Z</time>
      </trkpt>
      <trkpt lat="38.5054810" lon="-0.6341420">
        <ele>1061.0</ele>
        <time>2018-10-27T09:46:33Z</time>
      </trkpt>
      <trkpt lat="38.5055540" lon="-0.6341740">
        <ele>1059.2</ele>
        <time>2018-10-27T09:46:36Z</time>
      </trkpt>
      <trkpt lat="38.5056000" lon="-0.6341960">
        <ele>1057.8</ele>
        <time>2018-10-27T09:46:38Z</time>
      </trkpt>
      <trkpt lat="38.5056250" lon="-0.6342080">
        <ele>1056.8</ele>
        <time>2018-10-27T09:46:39Z</time>
      </trkpt>
      <trkpt lat="38.5056530" lon="-0.6342220">
        <ele>1056.4</ele>
        <time>2018-10-27T09:46:40Z</time>
      </trkpt>
      <trkpt lat="38.5057050" lon="-0.6342450">
        <ele>1055.0</ele>
        <time>2018-10-27T09:46:42Z</time>
      </trkpt>
      <trkpt lat="38.5057510" lon="-0.6342670">
        <ele>1053.0</ele>
        <time>2018-10-27T09:46:44Z</time>
      </trkpt>
      <trkpt lat="38.5057900" lon="-0.6342810">
        <ele>1051.8</ele>
        <time>2018-10-27T09:46:46Z</time>
      </trkpt>
      <trkpt lat="38.5058100" lon="-0.6342890">
        <ele>1051.2</ele>
        <time>2018-10-27T09:46:47Z</time>
      </trkpt>
      <trkpt lat="38.5058310" lon="-0.6342940">
        <ele>1050.8</ele>
        <time>2018-10-27T09:46:48Z</time>
      </trkpt>
      <trkpt lat="38.5058820" lon="-0.6343210">
        <ele>1049.4</ele>
        <time>2018-10-27T09:46:51Z</time>
      </trkpt>
      <trkpt lat="38.5059210" lon="-0.6343380">
        <ele>1048.0</ele>
        <time>2018-10-27T09:46:53Z</time>
      </trkpt>
      <trkpt lat="38.5059440" lon="-0.6343440">
        <ele>1046.8</ele>
        <time>2018-10-27T09:46:55Z</time>
      </trkpt>
      <trkpt lat="38.5059580" lon="-0.6343360">
        <ele>1046.0</ele>
        <time>2018-10-27T09:46:57Z</time>
      </trkpt>
      <trkpt lat="38.5059600" lon="-0.6343320">
        <ele>1045.8</ele>
        <time>2018-10-27T09:46:58Z</time>
      </trkpt>
      <trkpt lat="38.5059700" lon="-0.6343400">
        <ele>1045.6</ele>
        <time>2018-10-27T09:46:59Z</time>
      </trkpt>
      <trkpt lat="38.5060280" lon="-0.6343630">
        <ele>1045.0</ele>
        <time>2018-10-27T09:47:02Z</time>
      </trkpt>
      <trkpt lat="38.5061170" lon="-0.6344060">
        <ele>1044.6</ele>
        <time>2018-10-27T09:47:06Z</time>
      </trkpt>
      <trkpt lat="38.5061660" lon="-0.6344310">
        <ele>1044.4</ele>
        <time>2018-10-27T09:47:08Z</time>
      </trkpt>
      <trkpt lat="38.5061880" lon="-0.6344430">
        <ele>1044.4</ele>
        <time>2018-10-27T09:47:09Z</time>
      </trkpt>
      <trkpt lat="38.5063170" lon="-0.6345230">
        <ele>1043.4</ele>
        <time>2018-10-27T09:47:15Z</time>
      </trkpt>
      <trkpt lat="38.5063700" lon="-0.6345670">
        <ele>1043.0</ele>
        <time>2018-10-27T09:47:18Z</time>
      </trkpt>
      <trkpt lat="38.5064180" lon="-0.6345520">
        <ele>1042.2</ele>
        <time>2018-10-27T09:47:21Z</time>
      </trkpt>
      <trkpt lat="38.5064250" lon="-0.6345310">
        <ele>1041.6</ele>
        <time>2018-10-27T09:47:22Z</time>
      </trkpt>
      <trkpt lat="38.5064170" lon="-0.6345080">
        <ele>1041.4</ele>
        <time>2018-10-27T09:47:23Z</time>
      </trkpt>
      <trkpt lat="38.5063990" lon="-0.6344850">
        <ele>1041.2</ele>
        <time>2018-10-27T09:47:24Z</time>
      </trkpt>
      <trkpt lat="38.5063510" lon="-0.6344480">
        <ele>1040.6</ele>
        <time>2018-10-27T09:47:26Z</time>
      </trkpt>
      <trkpt lat="38.5063000" lon="-0.6344090">
        <ele>1040.4</ele>
        <time>2018-10-27T09:47:28Z</time>
      </trkpt>
      <trkpt lat="38.5062810" lon="-0.6343880">
        <ele>1040.0</ele>
        <time>2018-10-27T09:47:29Z</time>
      </trkpt>
      <trkpt lat="38.5062180" lon="-0.6343060">
        <ele>1039.2</ele>
        <time>2018-10-27T09:47:32Z</time>
      </trkpt>
      <trkpt lat="38.5061990" lon="-0.6342850">
        <ele>1038.8</ele>
        <time>2018-10-27T09:47:33Z</time>
      </trkpt>
      <trkpt lat="38.5061330" lon="-0.6341800">
        <ele>1037.4</ele>
        <time>2018-10-27T09:47:37Z</time>
      </trkpt>
      <trkpt lat="38.5061170" lon="-0.6341510">
        <ele>1037.0</ele>
        <time>2018-10-27T09:47:38Z</time>
      </trkpt>
      <trkpt lat="38.5060780" lon="-0.6340990">
        <ele>1036.0</ele>
        <time>2018-10-27T09:47:40Z</time>
      </trkpt>
      <trkpt lat="38.5060190" lon="-0.6340340">
        <ele>1034.6</ele>
        <time>2018-10-27T09:47:43Z</time>
      </trkpt>
      <trkpt lat="38.5059540" lon="-0.6339780">
        <ele>1033.6</ele>
        <time>2018-10-27T09:47:46Z</time>
      </trkpt>
      <trkpt lat="38.5059130" lon="-0.6339450">
        <ele>1032.4</ele>
        <time>2018-10-27T09:47:48Z</time>
      </trkpt>
      <trkpt lat="38.5058570" lon="-0.6338950">
        <ele>1031.0</ele>
        <time>2018-10-27T09:47:51Z</time>
      </trkpt>
      <trkpt lat="38.5058260" lon="-0.6338560">
        <ele>1030.0</ele>
        <time>2018-10-27T09:47:53Z</time>
      </trkpt>
      <trkpt lat="38.5058130" lon="-0.6338340">
        <ele>1029.6</ele>
        <time>2018-10-27T09:47:54Z</time>
      </trkpt>
      <trkpt lat="38.5057650" lon="-0.6337640">
        <ele>1028.8</ele>
        <time>2018-10-27T09:47:57Z</time>
      </trkpt>
      <trkpt lat="38.5057060" lon="-0.6336810">
        <ele>1027.8</ele>
        <time>2018-10-27T09:48:01Z</time>
      </trkpt>
      <trkpt lat="38.5056670" lon="-0.6336010">
        <ele>1026.8</ele>
        <time>2018-10-27T09:48:05Z</time>
      </trkpt>
      <trkpt lat="38.5056550" lon="-0.6335850">
        <ele>1026.6</ele>
        <time>2018-10-27T09:48:06Z</time>
      </trkpt>
      <trkpt lat="38.5056180" lon="-0.6335260">
        <ele>1026.0</ele>
        <time>2018-10-27T09:48:09Z</time>
      </trkpt>
      <trkpt lat="38.5055870" lon="-0.6334910">
        <ele>1025.4</ele>
        <time>2018-10-27T09:48:11Z</time>
      </trkpt>
      <trkpt lat="38.5055480" lon="-0.6334310">
        <ele>1024.2</ele>
        <time>2018-10-27T09:48:14Z</time>
      </trkpt>
      <trkpt lat="38.5055320" lon="-0.6334100">
        <ele>1023.8</ele>
        <time>2018-10-27T09:48:15Z</time>
      </trkpt>
      <trkpt lat="38.5055110" lon="-0.6333690">
        <ele>1022.6</ele>
        <time>2018-10-27T09:48:17Z</time>
      </trkpt>
      <trkpt lat="38.5054530" lon="-0.6333170">
        <ele>1021.6</ele>
        <time>2018-10-27T09:48:20Z</time>
      </trkpt>
      <trkpt lat="38.5054350" lon="-0.6332970">
        <ele>1021.4</ele>
        <time>2018-10-27T09:48:21Z</time>
      </trkpt>
      <trkpt lat="38.5053670" lon="-0.6332010">
        <ele>1020.2</ele>
        <time>2018-10-27T09:48:25Z</time>
      </trkpt>
      <trkpt lat="38.5053220" lon="-0.6331130">
        <ele>1019.6</ele>
        <time>2018-10-27T09:48:28Z</time>
      </trkpt>
      <trkpt lat="38.5053100" lon="-0.6330820">
        <ele>1019.2</ele>
        <time>2018-10-27T09:48:29Z</time>
      </trkpt>
      <trkpt lat="38.5052850" lon="-0.6329930">
        <ele>1017.8</ele>
        <time>2018-10-27T09:48:32Z</time>
      </trkpt>
      <trkpt lat="38.5052680" lon="-0.6328960">
        <ele>1017.4</ele>
        <time>2018-10-27T09:48:35Z</time>
      </trkpt>
      <trkpt lat="38.5052600" lon="-0.6328060">
        <ele>1016.2</ele>
        <time>2018-10-27T09:48:38Z</time>
      </trkpt>
      <trkpt lat="38.5052610" lon="-0.6327420">
        <ele>1015.0</ele>
        <time>2018-10-27T09:48:40Z</time>
      </trkpt>
      <trkpt lat="38.5052660" lon="-0.6326850">
        <ele>1013.8</ele>
        <time>2018-10-27T09:48:42Z</time>
      </trkpt>
      <trkpt lat="38.5052750" lon="-0.6326570">
        <ele>1013.6</ele>
        <time>2018-10-27T09:48:43Z</time>
      </trkpt>
      <trkpt lat="38.5053150" lon="-0.6325000">
        <ele>1012.8</ele>
        <time>2018-10-27T09:48:49Z</time>
      </trkpt>
      <trkpt lat="38.5053290" lon="-0.6324750">
        <ele>1012.6</ele>
        <time>2018-10-27T09:48:50Z</time>
      </trkpt>
      <trkpt lat="38.5054020" lon="-0.6323770">
        <ele>1011.8</ele>
        <time>2018-10-27T09:48:55Z</time>
      </trkpt>
      <trkpt lat="38.5054640" lon="-0.6323260">
        <ele>1011.2</ele>
        <time>2018-10-27T09:48:58Z</time>
      </trkpt>
      <trkpt lat="38.5055350" lon="-0.6322720">
        <ele>1010.6</ele>
        <time>2018-10-27T09:49:02Z</time>
      </trkpt>
      <trkpt lat="38.5055890" lon="-0.6322270">
        <ele>1010.4</ele>
        <time>2018-10-27T09:49:05Z</time>
      </trkpt>
      <trkpt lat="38.5057300" lon="-0.6320920">
        <ele>1009.6</ele>
        <time>2018-10-27T09:49:13Z</time>
      </trkpt>
      <trkpt lat="38.5057450" lon="-0.6320690">
        <ele>1009.6</ele>
        <time>2018-10-27T09:49:14Z</time>
      </trkpt>
      <trkpt lat="38.5058460" lon="-0.6319730">
        <ele>1008.6</ele>
        <time>2018-10-27T09:49:19Z</time>
      </trkpt>
      <trkpt lat="38.5058830" lon="-0.6319380">
        <ele>1007.2</ele>
        <time>2018-10-27T09:49:21Z</time>
      </trkpt>
      <trkpt lat="38.5059220" lon="-0.6319040">
        <ele>1006.0</ele>
        <time>2018-10-27T09:49:23Z</time>
      </trkpt>
      <trkpt lat="38.5059540" lon="-0.6318700">
        <ele>1004.6</ele>
        <time>2018-10-27T09:49:25Z</time>
      </trkpt>
      <trkpt lat="38.5059630" lon="-0.6318510">
        <ele>1004.2</ele>
        <time>2018-10-27T09:49:26Z</time>
      </trkpt>
      <trkpt lat="38.5059900" lon="-0.6318200">
        <ele>1003.0</ele>
        <time>2018-10-27T09:49:28Z</time>
      </trkpt>
      <trkpt lat="38.5060240" lon="-0.6317880">
        <ele>1001.8</ele>
        <time>2018-10-27T09:49:30Z</time>
      </trkpt>
      <trkpt lat="38.5060590" lon="-0.6317440">
        <ele>1000.2</ele>
        <time>2018-10-27T09:49:33Z</time>
      </trkpt>
      <trkpt lat="38.5060840" lon="-0.6317080">
        <ele>999.0</ele>
        <time>2018-10-27T09:49:35Z</time>
      </trkpt>
      <trkpt lat="38.5061090" lon="-0.6316740">
        <ele>997.6</ele>
        <time>2018-10-27T09:49:37Z</time>
      </trkpt>
      <trkpt lat="38.5061320" lon="-0.6316380">
        <ele>996.6</ele>
        <time>2018-10-27T09:49:39Z</time>
      </trkpt>
      <trkpt lat="38.5061550" lon="-0.6315920">
        <ele>995.8</ele>
        <time>2018-10-27T09:49:41Z</time>
      </trkpt>
      <trkpt lat="38.5061680" lon="-0.6315680">
        <ele>995.4</ele>
        <time>2018-10-27T09:49:42Z</time>
      </trkpt>
      <trkpt lat="38.5061870" lon="-0.6315210">
        <ele>994.4</ele>
        <time>2018-10-27T09:49:44Z</time>
      </trkpt>
      <trkpt lat="38.5062120" lon="-0.6314780">
        <ele>993.2</ele>
        <time>2018-10-27T09:49:46Z</time>
      </trkpt>
      <trkpt lat="38.5062530" lon="-0.6314130">
        <ele>991.8</ele>
        <time>2018-10-27T09:49:49Z</time>
      </trkpt>
      <trkpt lat="38.5062790" lon="-0.6313810">
        <ele>990.0</ele>
        <time>2018-10-27T09:49:51Z</time>
      </trkpt>
      <trkpt lat="38.5063180" lon="-0.6313290">
        <ele>988.6</ele>
        <time>2018-10-27T09:49:54Z</time>
      </trkpt>
      <trkpt lat="38.5063530" lon="-0.6312970">
        <ele>988.0</ele>
        <time>2018-10-27T09:49:56Z</time>
      </trkpt>
      <trkpt lat="38.5063700" lon="-0.6312790">
        <ele>987.8</ele>
        <time>2018-10-27T09:49:57Z</time>
      </trkpt>
      <trkpt lat="38.5063850" lon="-0.6312600">
        <ele>986.8</ele>
        <time>2018-10-27T09:49:58Z</time>
      </trkpt>
      <trkpt lat="38.5064210" lon="-0.6312220">
        <ele>985.2</ele>
        <time>2018-10-27T09:50:00Z</time>
      </trkpt>
      <trkpt lat="38.5064580" lon="-0.6311720">
        <ele>984.2</ele>
        <time>2018-10-27T09:50:03Z</time>
      </trkpt>
      <trkpt lat="38.5064660" lon="-0.6311610">
        <ele>984.0</ele>
        <time>2018-10-27T09:50:04Z</time>
      </trkpt>
      <trkpt lat="38.5065330" lon="-0.6311000">
        <ele>983.0</ele>
        <time>2018-10-27T09:50:08Z</time>
      </trkpt>
      <trkpt lat="38.5066840" lon="-0.6309080">
        <ele>981.8</ele>
        <time>2018-10-27T09:50:14Z</time>
      </trkpt>
      <trkpt lat="38.5068210" lon="-0.6307770">
        <ele>980.4</ele>
        <time>2018-10-27T09:50:19Z</time>
      </trkpt>
      <trkpt lat="38.5068420" lon="-0.6307580">
        <ele>979.8</ele>
        <time>2018-10-27T09:50:20Z</time>
      </trkpt>
      <trkpt lat="38.5068660" lon="-0.6307430">
        <ele>979.4</ele>
        <time>2018-10-27T09:50:21Z</time>
      </trkpt>
      <trkpt lat="38.5069100" lon="-0.6307100">
        <ele>978.4</ele>
        <time>2018-10-27T09:50:23Z</time>
      </trkpt>
      <trkpt lat="38.5069330" lon="-0.6306900">
        <ele>977.2</ele>
        <time>2018-10-27T09:50:25Z</time>
      </trkpt>
      <trkpt lat="38.5069360" lon="-0.6306880">
        <ele>975.8</ele>
        <time>2018-10-27T09:50:26Z</time>
      </trkpt>
      <trkpt lat="38.5069330" lon="-0.6306930">
        <ele>973.8</ele>
        <time>2018-10-27T09:50:28Z</time>
      </trkpt>
      <trkpt lat="38.5070670" lon="-0.6306260">
        <ele>966.6</ele>
        <time>2018-10-27T09:51:42Z</time>
      </trkpt>
      <trkpt lat="38.5070790" lon="-0.6306070">
        <ele>966.4</ele>
        <time>2018-10-27T09:51:43Z</time>
      </trkpt>
      <trkpt lat="38.5070870" lon="-0.6305850">
        <ele>966.4</ele>
        <time>2018-10-27T09:51:44Z</time>
      </trkpt>
      <trkpt lat="38.5071010" lon="-0.6305220">
        <ele>966.2</ele>
        <time>2018-10-27T09:51:48Z</time>
      </trkpt>
      <trkpt lat="38.5071010" lon="-0.6305080">
        <ele>966.2</ele>
        <time>2018-10-27T09:51:50Z</time>
      </trkpt>
      <trkpt lat="38.5071080" lon="-0.6304360">
        <ele>966.4</ele>
        <time>2018-10-27T09:51:54Z</time>
      </trkpt>
      <trkpt lat="38.5071080" lon="-0.6304160">
        <ele>966.4</ele>
        <time>2018-10-27T09:51:55Z</time>
      </trkpt>
      <trkpt lat="38.5071030" lon="-0.6303780">
        <ele>966.6</ele>
        <time>2018-10-27T09:51:57Z</time>
      </trkpt>
      <trkpt lat="38.5070960" lon="-0.6303340">
        <ele>966.8</ele>
        <time>2018-10-27T09:51:59Z</time>
      </trkpt>
      <trkpt lat="38.5070940" lon="-0.6302950">
        <ele>967.6</ele>
        <time>2018-10-27T09:52:01Z</time>
      </trkpt>
      <trkpt lat="38.5070930" lon="-0.6302760">
        <ele>967.8</ele>
        <time>2018-10-27T09:52:02Z</time>
      </trkpt>
      <trkpt lat="38.5070890" lon="-0.6302580">
        <ele>968.0</ele>
        <time>2018-10-27T09:52:03Z</time>
      </trkpt>
      <trkpt lat="38.5070760" lon="-0.6301920">
        <ele>968.8</ele>
        <time>2018-10-27T09:52:07Z</time>
      </trkpt>
      <trkpt lat="38.5070720" lon="-0.6301640">
        <ele>969.2</ele>
        <time>2018-10-27T09:52:09Z</time>
      </trkpt>
      <trkpt lat="38.5070480" lon="-0.6301150">
        <ele>970.2</ele>
        <time>2018-10-27T09:52:12Z</time>
      </trkpt>
      <trkpt lat="38.5070220" lon="-0.6300710">
        <ele>971.0</ele>
        <time>2018-10-27T09:52:15Z</time>
      </trkpt>
      <trkpt lat="38.5070100" lon="-0.6300590">
        <ele>971.4</ele>
        <time>2018-10-27T09:52:16Z</time>
      </trkpt>
      <trkpt lat="38.5069440" lon="-0.6300090">
        <ele>972.4</ele>
        <time>2018-10-27T09:52:22Z</time>
      </trkpt>
      <trkpt lat="38.5069320" lon="-0.6299990">
        <ele>972.6</ele>
        <time>2018-10-27T09:52:23Z</time>
      </trkpt>
      <trkpt lat="38.5068880" lon="-0.6299600">
        <ele>973.6</ele>
        <time>2018-10-27T09:52:27Z</time>
      </trkpt>
      <trkpt lat="38.5068590" lon="-0.6299340">
        <ele>974.0</ele>
        <time>2018-10-27T09:52:30Z</time>
      </trkpt>
      <trkpt lat="38.5068480" lon="-0.6299130">
        <ele>974.4</ele>
        <time>2018-10-27T09:52:32Z</time>
      </trkpt>
      <trkpt lat="38.5068340" lon="-0.6298980">
        <ele>974.6</ele>
        <time>2018-10-27T09:52:34Z</time>
      </trkpt>
      <trkpt lat="38.5068150" lon="-0.6298790">
        <ele>974.8</ele>
        <time>2018-10-27T09:52:37Z</time>
      </trkpt>
      <trkpt lat="38.5067880" lon="-0.6298520">
        <ele>975.6</ele>
        <time>2018-10-27T09:52:40Z</time>
      </trkpt>
      <trkpt lat="38.5067790" lon="-0.6298430">
        <ele>975.8</ele>
        <time>2018-10-27T09:52:41Z</time>
      </trkpt>
      <trkpt lat="38.5067650" lon="-0.6298260">
        <ele>976.0</ele>
        <time>2018-10-27T09:52:43Z</time>
      </trkpt>
      <trkpt lat="38.5067280" lon="-0.6297910">
        <ele>976.8</ele>
        <time>2018-10-27T09:52:47Z</time>
      </trkpt>
      <trkpt lat="38.5067180" lon="-0.6297860">
        <ele>977.0</ele>
        <time>2018-10-27T09:52:48Z</time>
      </trkpt>
      <trkpt lat="38.5066730" lon="-0.6297430">
        <ele>978.2</ele>
        <time>2018-10-27T09:52:53Z</time>
      </trkpt>
      <trkpt lat="38.5066500" lon="-0.6297190">
        <ele>978.6</ele>
        <time>2018-10-27T09:52:56Z</time>
      </trkpt>
      <trkpt lat="38.5066220" lon="-0.6296840">
        <ele>979.4</ele>
        <time>2018-10-27T09:52:59Z</time>
      </trkpt>
      <trkpt lat="38.5065820" lon="-0.6296440">
        <ele>980.6</ele>
        <time>2018-10-27T09:53:03Z</time>
      </trkpt>
      <trkpt lat="38.5065670" lon="-0.6296280">
        <ele>981.2</ele>
        <time>2018-10-27T09:53:05Z</time>
      </trkpt>
      <trkpt lat="38.5065580" lon="-0.6296030">
        <ele>981.8</ele>
        <time>2018-10-27T09:53:07Z</time>
      </trkpt>
      <trkpt lat="38.5065370" lon="-0.6295780">
        <ele>982.0</ele>
        <time>2018-10-27T09:53:09Z</time>
      </trkpt>
      <trkpt lat="38.5065230" lon="-0.6295690">
        <ele>982.2</ele>
        <time>2018-10-27T09:53:10Z</time>
      </trkpt>
      <trkpt lat="38.5064930" lon="-0.6295360">
        <ele>983.0</ele>
        <time>2018-10-27T09:53:13Z</time>
      </trkpt>
      <trkpt lat="38.5064710" lon="-0.6295000">
        <ele>983.6</ele>
        <time>2018-10-27T09:53:16Z</time>
      </trkpt>
      <trkpt lat="38.5064600" lon="-0.6294800">
        <ele>984.2</ele>
        <time>2018-10-27T09:53:18Z</time>
      </trkpt>
      <trkpt lat="38.5064390" lon="-0.6294280">
        <ele>984.8</ele>
        <time>2018-10-27T09:53:22Z</time>
      </trkpt>
      <trkpt lat="38.5064350" lon="-0.6294110">
        <ele>985.0</ele>
        <time>2018-10-27T09:53:23Z</time>
      </trkpt>
      <trkpt lat="38.5064280" lon="-0.6293920">
        <ele>985.2</ele>
        <time>2018-10-27T09:53:24Z</time>
      </trkpt>
      <trkpt lat="38.5063880" lon="-0.6293140">
        <ele>986.0</ele>
        <time>2018-10-27T09:53:29Z</time>
      </trkpt>
      <trkpt lat="38.5063800" lon="-0.6292980">
        <ele>986.2</ele>
        <time>2018-10-27T09:53:30Z</time>
      </trkpt>
      <trkpt lat="38.5063770" lon="-0.6292820">
        <ele>986.4</ele>
        <time>2018-10-27T09:53:31Z</time>
      </trkpt>
      <trkpt lat="38.5063850" lon="-0.6292270">
        <ele>987.0</ele>
        <time>2018-10-27T09:53:35Z</time>
      </trkpt>
      <trkpt lat="38.5063880" lon="-0.6292040">
        <ele>987.4</ele>
        <time>2018-10-27T09:53:37Z</time>
      </trkpt>
      <trkpt lat="38.5063960" lon="-0.6291620">
        <ele>988.6</ele>
        <time>2018-10-27T09:53:40Z</time>
      </trkpt>
      <trkpt lat="38.5064020" lon="-0.6291240">
        <ele>989.0</ele>
        <time>2018-10-27T09:53:43Z</time>
      </trkpt>
      <trkpt lat="38.5064300" lon="-0.6290520">
        <ele>989.8</ele>
        <time>2018-10-27T09:53:48Z</time>
      </trkpt>
      <trkpt lat="38.5064550" lon="-0.6290140">
        <ele>990.0</ele>
        <time>2018-10-27T09:53:50Z</time>
      </trkpt>
      <trkpt lat="38.5064680" lon="-0.6289770">
        <ele>990.4</ele>
        <time>2018-10-27T09:53:52Z</time>
      </trkpt>
      <trkpt lat="38.5064800" lon="-0.6289580">
        <ele>990.4</ele>
        <time>2018-10-27T09:53:53Z</time>
      </trkpt>
      <trkpt lat="38.5064980" lon="-0.6289250">
        <ele>990.8</ele>
        <time>2018-10-27T09:53:55Z</time>
      </trkpt>
      <trkpt lat="38.5065160" lon="-0.6288530">
        <ele>992.0</ele>
        <time>2018-10-27T09:53:59Z</time>
      </trkpt>
      <trkpt lat="38.5065060" lon="-0.6287900">
        <ele>993.2</ele>
        <time>2018-10-27T09:54:03Z</time>
      </trkpt>
      <trkpt lat="38.5064820" lon="-0.6287530">
        <ele>993.4</ele>
        <time>2018-10-27T09:54:05Z</time>
      </trkpt>
      <trkpt lat="38.5064230" lon="-0.6286730">
        <ele>994.0</ele>
        <time>2018-10-27T09:54:09Z</time>
      </trkpt>
      <trkpt lat="38.5063990" lon="-0.6286410">
        <ele>994.0</ele>
        <time>2018-10-27T09:54:11Z</time>
      </trkpt>
      <trkpt lat="38.5063690" lon="-0.6286000">
        <ele>994.2</ele>
        <time>2018-10-27T09:54:13Z</time>
      </trkpt>
      <trkpt lat="38.5063170" lon="-0.6285140">
        <ele>995.2</ele>
        <time>2018-10-27T09:54:17Z</time>
      </trkpt>
      <trkpt lat="38.5063060" lon="-0.6284930">
        <ele>995.4</ele>
        <time>2018-10-27T09:54:18Z</time>
      </trkpt>
      <trkpt lat="38.5062560" lon="-0.6283850">
        <ele>995.6</ele>
        <time>2018-10-27T09:54:23Z</time>
      </trkpt>
      <trkpt lat="38.5062400" lon="-0.6283430">
        <ele>995.8</ele>
        <time>2018-10-27T09:54:25Z</time>
      </trkpt>
      <trkpt lat="38.5062290" lon="-0.6283210">
        <ele>995.8</ele>
        <time>2018-10-27T09:54:26Z</time>
      </trkpt>
      <trkpt lat="38.5062190" lon="-0.6282960">
        <ele>996.0</ele>
        <time>2018-10-27T09:54:27Z</time>
      </trkpt>
      <trkpt lat="38.5062110" lon="-0.6282740">
        <ele>996.0</ele>
        <time>2018-10-27T09:54:28Z</time>
      </trkpt>
      <trkpt lat="38.5062010" lon="-0.6282240">
        <ele>996.2</ele>
        <time>2018-10-27T09:54:30Z</time>
      </trkpt>
      <trkpt lat="38.5061890" lon="-0.6281760">
        <ele>996.2</ele>
        <time>2018-10-27T09:54:32Z</time>
      </trkpt>
      <trkpt lat="38.5061740" lon="-0.6281410">
        <ele>996.4</ele>
        <time>2018-10-27T09:54:34Z</time>
      </trkpt>
      <trkpt lat="38.5061800" lon="-0.6281050">
        <ele>997.0</ele>
        <time>2018-10-27T09:54:36Z</time>
      </trkpt>
      <trkpt lat="38.5061910" lon="-0.6280690">
        <ele>997.2</ele>
        <time>2018-10-27T09:54:38Z</time>
      </trkpt>
      <trkpt lat="38.5061970" lon="-0.6280530">
        <ele>997.2</ele>
        <time>2018-10-27T09:54:39Z</time>
      </trkpt>
      <trkpt lat="38.5062030" lon="-0.6280370">
        <ele>997.2</ele>
        <time>2018-10-27T09:54:40Z</time>
      </trkpt>
      <trkpt lat="38.5062220" lon="-0.6279870">
        <ele>997.6</ele>
        <time>2018-10-27T09:54:43Z</time>
      </trkpt>
      <trkpt lat="38.5062760" lon="-0.6278720">
        <ele>998.2</ele>
        <time>2018-10-27T09:54:50Z</time>
      </trkpt>
      <trkpt lat="38.5062820" lon="-0.6278520">
        <ele>998.2</ele>
        <time>2018-10-27T09:54:51Z</time>
      </trkpt>
      <trkpt lat="38.5063050" lon="-0.6278050">
        <ele>998.6</ele>
        <time>2018-10-27T09:54:54Z</time>
      </trkpt>
      <trkpt lat="38.5063570" lon="-0.6277390">
        <ele>999.2</ele>
        <time>2018-10-27T09:54:59Z</time>
      </trkpt>
      <trkpt lat="38.5063750" lon="-0.6277070">
        <ele>999.6</ele>
        <time>2018-10-27T09:55:02Z</time>
      </trkpt>
      <trkpt lat="38.5064020" lon="-0.6276780">
        <ele>1000.4</ele>
        <time>2018-10-27T09:55:05Z</time>
      </trkpt>
      <trkpt lat="38.5064130" lon="-0.6276700">
        <ele>1000.6</ele>
        <time>2018-10-27T09:55:06Z</time>
      </trkpt>
      <trkpt lat="38.5064220" lon="-0.6276650">
        <ele>1000.8</ele>
        <time>2018-10-27T09:55:07Z</time>
      </trkpt>
      <trkpt lat="38.5064580" lon="-0.6276490">
        <ele>1001.8</ele>
        <time>2018-10-27T09:55:11Z</time>
      </trkpt>
      <trkpt lat="38.5064690" lon="-0.6276460">
        <ele>1002.0</ele>
        <time>2018-10-27T09:55:12Z</time>
      </trkpt>
      <trkpt lat="38.5064910" lon="-0.6276400">
        <ele>1002.8</ele>
        <time>2018-10-27T09:55:14Z</time>
      </trkpt>
      <trkpt lat="38.5065250" lon="-0.6276320">
        <ele>1003.4</ele>
        <time>2018-10-27T09:55:17Z</time>
      </trkpt>
      <trkpt lat="38.5065420" lon="-0.6276240">
        <ele>1004.0</ele>
        <time>2018-10-27T09:55:20Z</time>
      </trkpt>
      <trkpt lat="38.5065530" lon="-0.6276180">
        <ele>1004.2</ele>
        <time>2018-10-27T09:55:21Z</time>
      </trkpt>
      <trkpt lat="38.5066000" lon="-0.6275930">
        <ele>1005.2</ele>
        <time>2018-10-27T09:55:25Z</time>
      </trkpt>
      <trkpt lat="38.5066370" lon="-0.6275630">
        <ele>1005.6</ele>
        <time>2018-10-27T09:55:28Z</time>
      </trkpt>
      <trkpt lat="38.5066750" lon="-0.6275320">
        <ele>1006.4</ele>
        <time>2018-10-27T09:55:31Z</time>
      </trkpt>
      <trkpt lat="38.5066940" lon="-0.6275070">
        <ele>1006.8</ele>
        <time>2018-10-27T09:55:33Z</time>
      </trkpt>
      <trkpt lat="38.5067190" lon="-0.6274700">
        <ele>1007.0</ele>
        <time>2018-10-27T09:55:36Z</time>
      </trkpt>
      <trkpt lat="38.5067390" lon="-0.6273940">
        <ele>1007.2</ele>
        <time>2018-10-27T09:55:41Z</time>
      </trkpt>
      <trkpt lat="38.5067430" lon="-0.6273760">
        <ele>1007.4</ele>
        <time>2018-10-27T09:55:42Z</time>
      </trkpt>
      <trkpt lat="38.5067560" lon="-0.6273370">
        <ele>1007.6</ele>
        <time>2018-10-27T09:55:44Z</time>
      </trkpt>
      <trkpt lat="38.5067830" lon="-0.6272600">
        <ele>1008.2</ele>
        <time>2018-10-27T09:55:47Z</time>
      </trkpt>
      <trkpt lat="38.5068050" lon="-0.6272070">
        <ele>1008.4</ele>
        <time>2018-10-27T09:55:49Z</time>
      </trkpt>
      <trkpt lat="38.5068140" lon="-0.6271800">
        <ele>1008.4</ele>
        <time>2018-10-27T09:55:50Z</time>
      </trkpt>
      <trkpt lat="38.5068260" lon="-0.6271530">
        <ele>1008.6</ele>
        <time>2018-10-27T09:55:51Z</time>
      </trkpt>
      <trkpt lat="38.5068720" lon="-0.6269780">
        <ele>1009.6</ele>
        <time>2018-10-27T09:55:58Z</time>
      </trkpt>
      <trkpt lat="38.5068770" lon="-0.6269520">
        <ele>1009.8</ele>
        <time>2018-10-27T09:55:59Z</time>
      </trkpt>
      <trkpt lat="38.5068930" lon="-0.6268290">
        <ele>1010.8</ele>
        <time>2018-10-27T09:56:04Z</time>
      </trkpt>
      <trkpt lat="38.5069030" lon="-0.6267830">
        <ele>1011.6</ele>
        <time>2018-10-27T09:56:06Z</time>
      </trkpt>
      <trkpt lat="38.5069060" lon="-0.6267620">
        <ele>1012.0</ele>
        <time>2018-10-27T09:56:07Z</time>
      </trkpt>
      <trkpt lat="38.5069070" lon="-0.6267220">
        <ele>1013.4</ele>
        <time>2018-10-27T09:56:09Z</time>
      </trkpt>
      <trkpt lat="38.5069050" lon="-0.6266560">
        <ele>1014.6</ele>
        <time>2018-10-27T09:56:12Z</time>
      </trkpt>
      <trkpt lat="38.5069050" lon="-0.6266340">
        <ele>1014.8</ele>
        <time>2018-10-27T09:56:13Z</time>
      </trkpt>
      <trkpt lat="38.5069020" lon="-0.6265590">
        <ele>1015.4</ele>
        <time>2018-10-27T09:56:16Z</time>
      </trkpt>
      <trkpt lat="38.5068980" lon="-0.6265330">
        <ele>1015.6</ele>
        <time>2018-10-27T09:56:17Z</time>
      </trkpt>
      <trkpt lat="38.5068950" lon="-0.6265080">
        <ele>1015.6</ele>
        <time>2018-10-27T09:56:18Z</time>
      </trkpt>
      <trkpt lat="38.5068940" lon="-0.6264850">
        <ele>1015.8</ele>
        <time>2018-10-27T09:56:19Z</time>
      </trkpt>
      <trkpt lat="38.5069010" lon="-0.6264010">
        <ele>1017.0</ele>
        <time>2018-10-27T09:56:23Z</time>
      </trkpt>
      <trkpt lat="38.5069170" lon="-0.6263600">
        <ele>1017.4</ele>
        <time>2018-10-27T09:56:25Z</time>
      </trkpt>
      <trkpt lat="38.5069220" lon="-0.6263380">
        <ele>1017.6</ele>
        <time>2018-10-27T09:56:26Z</time>
      </trkpt>
      <trkpt lat="38.5069350" lon="-0.6262910">
        <ele>1018.0</ele>
        <time>2018-10-27T09:56:28Z</time>
      </trkpt>
      <trkpt lat="38.5069770" lon="-0.6262310">
        <ele>1018.6</ele>
        <time>2018-10-27T09:56:31Z</time>
      </trkpt>
      <trkpt lat="38.5069930" lon="-0.6261680">
        <ele>1019.0</ele>
        <time>2018-10-27T09:56:34Z</time>
      </trkpt>
      <trkpt lat="38.5070060" lon="-0.6260780">
        <ele>1019.4</ele>
        <time>2018-10-27T09:56:38Z</time>
      </trkpt>
      <trkpt lat="38.5070180" lon="-0.6259510">
        <ele>1020.0</ele>
        <time>2018-10-27T09:56:44Z</time>
      </trkpt>
      <trkpt lat="38.5070280" lon="-0.6259020">
        <ele>1020.2</ele>
        <time>2018-10-27T09:56:46Z</time>
      </trkpt>
      <trkpt lat="38.5070340" lon="-0.6257420">
        <ele>1020.2</ele>
        <time>2018-10-27T09:56:53Z</time>
      </trkpt>
      <trkpt lat="38.5070340" lon="-0.6256940">
        <ele>1020.2</ele>
        <time>2018-10-27T09:56:55Z</time>
      </trkpt>
      <trkpt lat="38.5070680" lon="-0.6255650">
        <ele>1019.8</ele>
        <time>2018-10-27T09:57:00Z</time>
      </trkpt>
      <trkpt lat="38.5070840" lon="-0.6254440">
        <ele>1019.2</ele>
        <time>2018-10-27T09:57:05Z</time>
      </trkpt>
      <trkpt lat="38.5070860" lon="-0.6254000">
        <ele>1019.2</ele>
        <time>2018-10-27T09:57:07Z</time>
      </trkpt>
      <trkpt lat="38.5071010" lon="-0.6253270">
        <ele>1019.0</ele>
        <time>2018-10-27T09:57:10Z</time>
      </trkpt>
      <trkpt lat="38.5071220" lon="-0.6252340">
        <ele>1018.6</ele>
        <time>2018-10-27T09:57:14Z</time>
      </trkpt>
      <trkpt lat="38.5071640" lon="-0.6250370">
        <ele>1018.8</ele>
        <time>2018-10-27T09:57:22Z</time>
      </trkpt>
      <trkpt lat="38.5071570" lon="-0.6249330">
        <ele>1018.0</ele>
        <time>2018-10-27T09:57:26Z</time>
      </trkpt>
      <trkpt lat="38.5071390" lon="-0.6248800">
        <ele>1017.8</ele>
        <time>2018-10-27T09:57:28Z</time>
      </trkpt>
      <trkpt lat="38.5070770" lon="-0.6247000">
        <ele>1018.0</ele>
        <time>2018-10-27T09:57:36Z</time>
      </trkpt>
      <trkpt lat="38.5070070" lon="-0.6245330">
        <ele>1017.6</ele>
        <time>2018-10-27T09:57:43Z</time>
      </trkpt>
      <trkpt lat="38.5069600" lon="-0.6244330">
        <ele>1017.0</ele>
        <time>2018-10-27T09:57:48Z</time>
      </trkpt>
      <trkpt lat="38.5069410" lon="-0.6243990">
        <ele>1016.2</ele>
        <time>2018-10-27T09:57:50Z</time>
      </trkpt>
      <trkpt lat="38.5069240" lon="-0.6243830">
        <ele>1016.0</ele>
        <time>2018-10-27T09:57:51Z</time>
      </trkpt>
      <trkpt lat="38.5068440" lon="-0.6242720">
        <ele>1015.4</ele>
        <time>2018-10-27T09:57:57Z</time>
      </trkpt>
      <trkpt lat="38.5068340" lon="-0.6242550">
        <ele>1015.4</ele>
        <time>2018-10-27T09:57:58Z</time>
      </trkpt>
      <trkpt lat="38.5067450" lon="-0.6241160">
        <ele>1015.0</ele>
        <time>2018-10-27T09:58:06Z</time>
      </trkpt>
      <trkpt lat="38.5067320" lon="-0.6240950">
        <ele>1015.0</ele>
        <time>2018-10-27T09:58:07Z</time>
      </trkpt>
      <trkpt lat="38.5067220" lon="-0.6239820">
        <ele>1014.6</ele>
        <time>2018-10-27T09:58:13Z</time>
      </trkpt>
      <trkpt lat="38.5066700" lon="-0.6238780">
        <ele>1014.6</ele>
        <time>2018-10-27T09:58:18Z</time>
      </trkpt>
      <trkpt lat="38.5066350" lon="-0.6238180">
        <ele>1014.4</ele>
        <time>2018-10-27T09:58:21Z</time>
      </trkpt>
      <trkpt lat="38.5065710" lon="-0.6237190">
        <ele>1014.4</ele>
        <time>2018-10-27T09:58:27Z</time>
      </trkpt>
      <trkpt lat="38.5064960" lon="-0.6235990">
        <ele>1014.0</ele>
        <time>2018-10-27T09:58:33Z</time>
      </trkpt>
      <trkpt lat="38.5064540" lon="-0.6235170">
        <ele>1014.0</ele>
        <time>2018-10-27T09:58:38Z</time>
      </trkpt>
      <trkpt lat="38.5064440" lon="-0.6235010">
        <ele>1013.8</ele>
        <time>2018-10-27T09:58:39Z</time>
      </trkpt>
      <trkpt lat="38.5064340" lon="-0.6234810">
        <ele>1013.6</ele>
        <time>2018-10-27T09:58:40Z</time>
      </trkpt>
      <trkpt lat="38.5064280" lon="-0.6234580">
        <ele>1013.6</ele>
        <time>2018-10-27T09:58:41Z</time>
      </trkpt>
      <trkpt lat="38.5064300" lon="-0.6233940">
        <ele>1013.8</ele>
        <time>2018-10-27T09:58:45Z</time>
      </trkpt>
      <trkpt lat="38.5064220" lon="-0.6233650">
        <ele>1014.0</ele>
        <time>2018-10-27T09:58:49Z</time>
      </trkpt>
      <trkpt lat="38.5063560" lon="-0.6232880">
        <ele>1013.4</ele>
        <time>2018-10-27T09:58:57Z</time>
      </trkpt>
      <trkpt lat="38.5063440" lon="-0.6232600">
        <ele>1013.4</ele>
        <time>2018-10-27T09:58:58Z</time>
      </trkpt>
      <trkpt lat="38.5062680" lon="-0.6230950">
        <ele>1013.0</ele>
        <time>2018-10-27T09:59:05Z</time>
      </trkpt>
      <trkpt lat="38.5062530" lon="-0.6230300">
        <ele>1013.0</ele>
        <time>2018-10-27T09:59:08Z</time>
      </trkpt>
      <trkpt lat="38.5062280" lon="-0.6229670">
        <ele>1013.2</ele>
        <time>2018-10-27T09:59:11Z</time>
      </trkpt>
      <trkpt lat="38.5062160" lon="-0.6228780">
        <ele>1013.2</ele>
        <time>2018-10-27T09:59:17Z</time>
      </trkpt>
      <trkpt lat="38.5062150" lon="-0.6228760">
        <ele>1013.2</ele>
        <time>2018-10-27T09:59:19Z</time>
      </trkpt>
      <trkpt lat="38.5061700" lon="-0.6227210">
        <ele>1012.0</ele>
        <time>2018-10-27T09:59:46Z</time>
      </trkpt>
      <trkpt lat="38.5061630" lon="-0.6226990">
        <ele>1011.8</ele>
        <time>2018-10-27T09:59:47Z</time>
      </trkpt>
      <trkpt lat="38.5061580" lon="-0.6226770">
        <ele>1011.8</ele>
        <time>2018-10-27T09:59:48Z</time>
      </trkpt>
      <trkpt lat="38.5061500" lon="-0.6226330">
        <ele>1011.8</ele>
        <time>2018-10-27T09:59:50Z</time>
      </trkpt>
      <trkpt lat="38.5061440" lon="-0.6226140">
        <ele>1011.8</ele>
        <time>2018-10-27T09:59:51Z</time>
      </trkpt>
      <trkpt lat="38.5061370" lon="-0.6225970">
        <ele>1011.8</ele>
        <time>2018-10-27T09:59:52Z</time>
      </trkpt>
      <trkpt lat="38.5061190" lon="-0.6225340">
        <ele>1012.0</ele>
        <time>2018-10-27T09:59:55Z</time>
      </trkpt>
      <trkpt lat="38.5061100" lon="-0.6225090">
        <ele>1012.0</ele>
        <time>2018-10-27T09:59:56Z</time>
      </trkpt>
      <trkpt lat="38.5060730" lon="-0.6224390">
        <ele>1012.2</ele>
        <time>2018-10-27T10:00:01Z</time>
      </trkpt>
      <trkpt lat="38.5060670" lon="-0.6224300">
        <ele>1012.2</ele>
        <time>2018-10-27T10:00:03Z</time>
      </trkpt>
      <trkpt lat="38.5060250" lon="-0.6223340">
        <ele>1012.2</ele>
        <time>2018-10-27T10:00:09Z</time>
      </trkpt>
      <trkpt lat="38.5059850" lon="-0.6223010">
        <ele>1012.0</ele>
        <time>2018-10-27T10:00:12Z</time>
      </trkpt>
      <trkpt lat="38.5058850" lon="-0.6221900">
        <ele>1011.8</ele>
        <time>2018-10-27T10:00:18Z</time>
      </trkpt>
      <trkpt lat="38.5058540" lon="-0.6221450">
        <ele>1011.8</ele>
        <time>2018-10-27T10:00:20Z</time>
      </trkpt>
      <trkpt lat="38.5057900" lon="-0.6220780">
        <ele>1011.8</ele>
        <time>2018-10-27T10:00:24Z</time>
      </trkpt>
      <trkpt lat="38.5057120" lon="-0.6219970">
        <ele>1011.8</ele>
        <time>2018-10-27T10:00:29Z</time>
      </trkpt>
      <trkpt lat="38.5056640" lon="-0.6219560">
        <ele>1011.8</ele>
        <time>2018-10-27T10:00:32Z</time>
      </trkpt>
      <trkpt lat="38.5055530" lon="-0.6218680">
        <ele>1012.6</ele>
        <time>2018-10-27T10:00:39Z</time>
      </trkpt>
      <trkpt lat="38.5055070" lon="-0.6218300">
        <ele>1013.0</ele>
        <time>2018-10-27T10:00:42Z</time>
      </trkpt>
      <trkpt lat="38.5054640" lon="-0.6217950">
        <ele>1013.4</ele>
        <time>2018-10-27T10:00:45Z</time>
      </trkpt>
      <trkpt lat="38.5054330" lon="-0.6217680">
        <ele>1013.6</ele>
        <time>2018-10-27T10:00:47Z</time>
      </trkpt>
      <trkpt lat="38.5054180" lon="-0.6217540">
        <ele>1013.8</ele>
        <time>2018-10-27T10:00:48Z</time>
      </trkpt>
      <trkpt lat="38.5054000" lon="-0.6217480">
        <ele>1014.0</ele>
        <time>2018-10-27T10:00:49Z</time>
      </trkpt>
      <trkpt lat="38.5052800" lon="-0.6217430">
        <ele>1014.8</ele>
        <time>2018-10-27T10:00:55Z</time>
      </trkpt>
      <trkpt lat="38.5052410" lon="-0.6217410">
        <ele>1015.0</ele>
        <time>2018-10-27T10:00:57Z</time>
      </trkpt>
      <trkpt lat="38.5051360" lon="-0.6217110">
        <ele>1015.4</ele>
        <time>2018-10-27T10:01:02Z</time>
      </trkpt>
      <trkpt lat="38.5049900" lon="-0.6216990">
        <ele>1015.8</ele>
        <time>2018-10-27T10:01:09Z</time>
      </trkpt>
      <trkpt lat="38.5048570" lon="-0.6217210">
        <ele>1015.8</ele>
        <time>2018-10-27T10:01:15Z</time>
      </trkpt>
      <trkpt lat="38.5047290" lon="-0.6217270">
        <ele>1015.6</ele>
        <time>2018-10-27T10:01:21Z</time>
      </trkpt>
      <trkpt lat="38.5046830" lon="-0.6217300">
        <ele>1015.4</ele>
        <time>2018-10-27T10:01:23Z</time>
      </trkpt>
      <trkpt lat="38.5045340" lon="-0.6217350">
        <ele>1014.6</ele>
        <time>2018-10-27T10:01:30Z</time>
      </trkpt>
      <trkpt lat="38.5044880" lon="-0.6217440">
        <ele>1014.4</ele>
        <time>2018-10-27T10:01:32Z</time>
      </trkpt>
      <trkpt lat="38.5044430" lon="-0.6217400">
        <ele>1013.8</ele>
        <time>2018-10-27T10:01:34Z</time>
      </trkpt>
      <trkpt lat="38.5043840" lon="-0.6216980">
        <ele>1012.8</ele>
        <time>2018-10-27T10:01:37Z</time>
      </trkpt>
      <trkpt lat="38.5043640" lon="-0.6216790">
        <ele>1012.6</ele>
        <time>2018-10-27T10:01:38Z</time>
      </trkpt>
      <trkpt lat="38.5042920" lon="-0.6216370">
        <ele>1011.6</ele>
        <time>2018-10-27T10:01:41Z</time>
      </trkpt>
      <trkpt lat="38.5042210" lon="-0.6216330">
        <ele>1010.6</ele>
        <time>2018-10-27T10:01:44Z</time>
      </trkpt>
      <trkpt lat="38.5041540" lon="-0.6216120">
        <ele>1009.4</ele>
        <time>2018-10-27T10:01:49Z</time>
      </trkpt>
      <trkpt lat="38.5041410" lon="-0.6216090">
        <ele>1009.4</ele>
        <time>2018-10-27T10:01:50Z</time>
      </trkpt>
      <trkpt lat="38.5041100" lon="-0.6215980">
        <ele>1008.8</ele>
        <time>2018-10-27T10:01:56Z</time>
      </trkpt>
      <trkpt lat="38.5041060" lon="-0.6216020">
        <ele>1008.6</ele>
        <time>2018-10-27T10:01:59Z</time>
      </trkpt>
      <trkpt lat="38.5041650" lon="-0.6217030">
        <ele>1005.0</ele>
        <time>2018-10-27T10:03:10Z</time>
      </trkpt>
      <trkpt lat="38.5041770" lon="-0.6217250">
        <ele>1005.0</ele>
        <time>2018-10-27T10:03:11Z</time>
      </trkpt>
      <trkpt lat="38.5041850" lon="-0.6217470">
        <ele>1005.0</ele>
        <time>2018-10-27T10:03:12Z</time>
      </trkpt>
      <trkpt lat="38.5041860" lon="-0.6217700">
        <ele>1004.8</ele>
        <time>2018-10-27T10:03:13Z</time>
      </trkpt>
      <trkpt lat="38.5041610" lon="-0.6218080">
        <ele>1004.8</ele>
        <time>2018-10-27T10:03:15Z</time>
      </trkpt>
      <trkpt lat="38.5041430" lon="-0.6218230">
        <ele>1004.8</ele>
        <time>2018-10-27T10:03:16Z</time>
      </trkpt>
      <trkpt lat="38.5040200" lon="-0.6218230">
        <ele>1005.0</ele>
        <time>2018-10-27T10:03:22Z</time>
      </trkpt>
      <trkpt lat="38.5039430" lon="-0.6217540">
        <ele>1004.8</ele>
        <time>2018-10-27T10:03:26Z</time>
      </trkpt>
      <trkpt lat="38.5038850" lon="-0.6217180">
        <ele>1004.6</ele>
        <time>2018-10-27T10:03:29Z</time>
      </trkpt>
      <trkpt lat="38.5038700" lon="-0.6217020">
        <ele>1003.8</ele>
        <time>2018-10-27T10:03:30Z</time>
      </trkpt>
      <trkpt lat="38.5038460" lon="-0.6216610">
        <ele>1002.8</ele>
        <time>2018-10-27T10:03:32Z</time>
      </trkpt>
      <trkpt lat="38.5038300" lon="-0.6216440">
        <ele>1002.2</ele>
        <time>2018-10-27T10:03:33Z</time>
      </trkpt>
      <trkpt lat="38.5038120" lon="-0.6216280">
        <ele>1002.0</ele>
        <time>2018-10-27T10:03:34Z</time>
      </trkpt>
      <trkpt lat="38.5037990" lon="-0.6216130">
        <ele>1001.4</ele>
        <time>2018-10-27T10:03:35Z</time>
      </trkpt>
      <trkpt lat="38.5037580" lon="-0.6215500">
        <ele>1000.2</ele>
        <time>2018-10-27T10:03:38Z</time>
      </trkpt>
      <trkpt lat="38.5037270" lon="-0.6215150">
        <ele>999.0</ele>
        <time>2018-10-27T10:03:40Z</time>
      </trkpt>
      <trkpt lat="38.5036980" lon="-0.6214750">
        <ele>998.0</ele>
        <time>2018-10-27T10:03:43Z</time>
      </trkpt>
      <trkpt lat="38.5036940" lon="-0.6214720">
        <ele>997.2</ele>
        <time>2018-10-27T10:03:45Z</time>
      </trkpt>
      <trkpt lat="38.5036940" lon="-0.6214730">
        <ele>996.8</ele>
        <time>2018-10-27T10:03:46Z</time>
      </trkpt>
      <trkpt lat="38.5036940" lon="-0.6214750">
        <ele>995.8</ele>
        <time>2018-10-27T10:03:47Z</time>
      </trkpt>
      <trkpt lat="38.5035390" lon="-0.6214510">
        <ele>993.0</ele>
        <time>2018-10-27T10:04:20Z</time>
      </trkpt>
      <trkpt lat="38.5035300" lon="-0.6214530">
        <ele>992.8</ele>
        <time>2018-10-27T10:04:21Z</time>
      </trkpt>
      <trkpt lat="38.5035150" lon="-0.6214450">
        <ele>992.6</ele>
        <time>2018-10-27T10:04:23Z</time>
      </trkpt>
      <trkpt lat="38.5034980" lon="-0.6214350">
        <ele>992.4</ele>
        <time>2018-10-27T10:04:25Z</time>
      </trkpt>
      <trkpt lat="38.5034730" lon="-0.6214180">
        <ele>991.8</ele>
        <time>2018-10-27T10:04:27Z</time>
      </trkpt>
      <trkpt lat="38.5034160" lon="-0.6214030">
        <ele>990.8</ele>
        <time>2018-10-27T10:04:32Z</time>
      </trkpt>
      <trkpt lat="38.5034050" lon="-0.6214050">
        <ele>990.8</ele>
        <time>2018-10-27T10:04:33Z</time>
      </trkpt>
      <trkpt lat="38.5033760" lon="-0.6214070">
        <ele>990.0</ele>
        <time>2018-10-27T10:04:38Z</time>
      </trkpt>
      <trkpt lat="38.5033680" lon="-0.6214030">
        <ele>989.8</ele>
        <time>2018-10-27T10:04:39Z</time>
      </trkpt>
      <trkpt lat="38.5033540" lon="-0.6213900">
        <ele>988.8</ele>
        <time>2018-10-27T10:04:41Z</time>
      </trkpt>
      <trkpt lat="38.5033410" lon="-0.6213820">
        <ele>988.0</ele>
        <time>2018-10-27T10:04:44Z</time>
      </trkpt>
      <trkpt lat="38.5033300" lon="-0.6213810">
        <ele>987.8</ele>
        <time>2018-10-27T10:04:46Z</time>
      </trkpt>
      <trkpt lat="38.5033260" lon="-0.6213740">
        <ele>987.8</ele>
        <time>2018-10-27T10:04:47Z</time>
      </trkpt>
      <trkpt lat="38.5032700" lon="-0.6213670">
        <ele>986.8</ele>
        <time>2018-10-27T10:04:53Z</time>
      </trkpt>
      <trkpt lat="38.5032520" lon="-0.6213640">
        <ele>986.6</ele>
        <time>2018-10-27T10:04:55Z</time>
      </trkpt>
      <trkpt lat="38.5032420" lon="-0.6213540">
        <ele>986.4</ele>
        <time>2018-10-27T10:04:56Z</time>
      </trkpt>
      <trkpt lat="38.5032320" lon="-0.6213480">
        <ele>986.4</ele>
        <time>2018-10-27T10:04:58Z</time>
      </trkpt>
      <trkpt lat="38.5032000" lon="-0.6213190">
        <ele>985.8</ele>
        <time>2018-10-27T10:05:02Z</time>
      </trkpt>
      <trkpt lat="38.5031760" lon="-0.6212980">
        <ele>985.6</ele>
        <time>2018-10-27T10:05:05Z</time>
      </trkpt>
      <trkpt lat="38.5031230" lon="-0.6212680">
        <ele>985.0</ele>
        <time>2018-10-27T10:05:10Z</time>
      </trkpt>
      <trkpt lat="38.5031090" lon="-0.6212500">
        <ele>984.4</ele>
        <time>2018-10-27T10:05:12Z</time>
      </trkpt>
      <trkpt lat="38.5030780" lon="-0.6212190">
        <ele>983.4</ele>
        <time>2018-10-27T10:05:15Z</time>
      </trkpt>
      <trkpt lat="38.5030680" lon="-0.6212100">
        <ele>983.2</ele>
        <time>2018-10-27T10:05:16Z</time>
      </trkpt>
      <trkpt lat="38.5030520" lon="-0.6211840">
        <ele>982.6</ele>
        <time>2018-10-27T10:05:19Z</time>
      </trkpt>
      <trkpt lat="38.5030480" lon="-0.6211720">
        <ele>982.2</ele>
        <time>2018-10-27T10:05:20Z</time>
      </trkpt>
      <trkpt lat="38.5030450" lon="-0.6211560">
        <ele>982.0</ele>
        <time>2018-10-27T10:05:21Z</time>
      </trkpt>
      <trkpt lat="38.5030400" lon="-0.6211260">
        <ele>981.2</ele>
        <time>2018-10-27T10:05:23Z</time>
      </trkpt>
      <trkpt lat="38.5030310" lon="-0.6210870">
        <ele>980.0</ele>
        <time>2018-10-27T10:05:26Z</time>
      </trkpt>
      <trkpt lat="38.5030230" lon="-0.6210480">
        <ele>978.8</ele>
        <time>2018-10-27T10:05:29Z</time>
      </trkpt>
      <trkpt lat="38.5030230" lon="-0.6210390">
        <ele>978.4</ele>
        <time>2018-10-27T10:05:30Z</time>
      </trkpt>
      <trkpt lat="38.5030170" lon="-0.6210170">
        <ele>977.6</ele>
        <time>2018-10-27T10:05:32Z</time>
      </trkpt>
      <trkpt lat="38.5030120" lon="-0.6209900">
        <ele>976.6</ele>
        <time>2018-10-27T10:05:35Z</time>
      </trkpt>
      <trkpt lat="38.5029940" lon="-0.6209610">
        <ele>975.2</ele>
        <time>2018-10-27T10:05:38Z</time>
      </trkpt>
      <trkpt lat="38.5029840" lon="-0.6209580">
        <ele>974.8</ele>
        <time>2018-10-27T10:05:39Z</time>
      </trkpt>
      <trkpt lat="38.5029700" lon="-0.6209460">
        <ele>973.8</ele>
        <time>2018-10-27T10:05:41Z</time>
      </trkpt>
      <trkpt lat="38.5029470" lon="-0.6209090">
        <ele>972.4</ele>
        <time>2018-10-27T10:05:46Z</time>
      </trkpt>
      <trkpt lat="38.5029360" lon="-0.6208830">
        <ele>971.8</ele>
        <time>2018-10-27T10:05:49Z</time>
      </trkpt>
      <trkpt lat="38.5029200" lon="-0.6208720">
        <ele>971.2</ele>
        <time>2018-10-27T10:05:51Z</time>
      </trkpt>
      <trkpt lat="38.5029110" lon="-0.6208490">
        <ele>970.2</ele>
        <time>2018-10-27T10:05:54Z</time>
      </trkpt>
      <trkpt lat="38.5029010" lon="-0.6208290">
        <ele>970.0</ele>
        <time>2018-10-27T10:05:56Z</time>
      </trkpt>
      <trkpt lat="38.5028940" lon="-0.6208160">
        <ele>969.2</ele>
        <time>2018-10-27T10:05:59Z</time>
      </trkpt>
      <trkpt lat="38.5028920" lon="-0.6208100">
        <ele>968.0</ele>
        <time>2018-10-27T10:06:02Z</time>
      </trkpt>
      <trkpt lat="38.5028970" lon="-0.6206290">
        <ele>964.4</ele>
        <time>2018-10-27T10:06:25Z</time>
      </trkpt>
      <trkpt lat="38.5028930" lon="-0.6206160">
        <ele>964.2</ele>
        <time>2018-10-27T10:06:26Z</time>
      </trkpt>
      <trkpt lat="38.5028800" lon="-0.6205930">
        <ele>964.0</ele>
        <time>2018-10-27T10:06:28Z</time>
      </trkpt>
      <trkpt lat="38.5028580" lon="-0.6205950">
        <ele>963.8</ele>
        <time>2018-10-27T10:06:30Z</time>
      </trkpt>
      <trkpt lat="38.5028380" lon="-0.6206120">
        <ele>963.2</ele>
        <time>2018-10-27T10:06:32Z</time>
      </trkpt>
      <trkpt lat="38.5028100" lon="-0.6206390">
        <ele>962.2</ele>
        <time>2018-10-27T10:06:35Z</time>
      </trkpt>
      <trkpt lat="38.5028010" lon="-0.6206460">
        <ele>962.0</ele>
        <time>2018-10-27T10:06:36Z</time>
      </trkpt>
      <trkpt lat="38.5027940" lon="-0.6206520">
        <ele>961.6</ele>
        <time>2018-10-27T10:06:37Z</time>
      </trkpt>
      <trkpt lat="38.5027800" lon="-0.6206660">
        <ele>960.8</ele>
        <time>2018-10-27T10:06:39Z</time>
      </trkpt>
      <trkpt lat="38.5027730" lon="-0.6206630">
        <ele>960.2</ele>
        <time>2018-10-27T10:06:41Z</time>
      </trkpt>
      <trkpt lat="38.5027720" lon="-0.6206640">
        <ele>960.0</ele>
        <time>2018-10-27T10:06:43Z</time>
      </trkpt>
      <trkpt lat="38.5027720" lon="-0.6206630">
        <ele>959.6</ele>
        <time>2018-10-27T10:06:44Z</time>
      </trkpt>
      <trkpt lat="38.5027610" lon="-0.6205190">
        <ele>955.6</ele>
        <time>2018-10-27T10:07:16Z</time>
      </trkpt>
      <trkpt lat="38.5027630" lon="-0.6205000">
        <ele>955.4</ele>
        <time>2018-10-27T10:07:17Z</time>
      </trkpt>
      <trkpt lat="38.5027670" lon="-0.6204540">
        <ele>955.0</ele>
        <time>2018-10-27T10:07:19Z</time>
      </trkpt>
      <trkpt lat="38.5027790" lon="-0.6204060">
        <ele>954.8</ele>
        <time>2018-10-27T10:07:22Z</time>
      </trkpt>
      <trkpt lat="38.5027870" lon="-0.6203820">
        <ele>954.6</ele>
        <time>2018-10-27T10:07:24Z</time>
      </trkpt>
      <trkpt lat="38.5027880" lon="-0.6203710">
        <ele>954.2</ele>
        <time>2018-10-27T10:07:25Z</time>
      </trkpt>
      <trkpt lat="38.5027680" lon="-0.6203090">
        <ele>953.8</ele>
        <time>2018-10-27T10:07:32Z</time>
      </trkpt>
      <trkpt lat="38.5027510" lon="-0.6202780">
        <ele>953.6</ele>
        <time>2018-10-27T10:07:35Z</time>
      </trkpt>
      <trkpt lat="38.5027360" lon="-0.6202410">
        <ele>952.4</ele>
        <time>2018-10-27T10:07:40Z</time>
      </trkpt>
      <trkpt lat="38.5027390" lon="-0.6202370">
        <ele>951.4</ele>
        <time>2018-10-27T10:07:42Z</time>
      </trkpt>
      <trkpt lat="38.5027380" lon="-0.6202310">
        <ele>951.0</ele>
        <time>2018-10-27T10:07:43Z</time>
      </trkpt>
      <trkpt lat="38.5013280" lon="-0.6198210">
        <ele>877.2</ele>
        <time>2018-10-27T10:13:48Z</time>
      </trkpt>
      <trkpt lat="38.5013150" lon="-0.6198290">
        <ele>877.2</ele>
        <time>2018-10-27T10:13:49Z</time>
      </trkpt>
      <trkpt lat="38.5013080" lon="-0.6198400">
        <ele>877.2</ele>
        <time>2018-10-27T10:13:50Z</time>
      </trkpt>
      <trkpt lat="38.5013020" lon="-0.6198540">
        <ele>877.0</ele>
        <time>2018-10-27T10:13:51Z</time>
      </trkpt>
      <trkpt lat="38.5012840" lon="-0.6198720">
        <ele>875.8</ele>
        <time>2018-10-27T10:13:53Z</time>
      </trkpt>
      <trkpt lat="38.5012640" lon="-0.6198700">
        <ele>874.8</ele>
        <time>2018-10-27T10:13:57Z</time>
      </trkpt>
      <trkpt lat="38.5012630" lon="-0.6198710">
        <ele>873.6</ele>
        <time>2018-10-27T10:13:59Z</time>
      </trkpt>
      <trkpt lat="38.5012630" lon="-0.6198670">
        <ele>873.2</ele>
        <time>2018-10-27T10:14:00Z</time>
      </trkpt>
      <trkpt lat="38.5012690" lon="-0.6198680">
        <ele>872.6</ele>
        <time>2018-10-27T10:14:01Z</time>
      </trkpt>
      <trkpt lat="38.5011910" lon="-0.6198780">
        <ele>870.2</ele>
        <time>2018-10-27T10:14:13Z</time>
      </trkpt>
      <trkpt lat="38.5011620" lon="-0.6198650">
        <ele>869.2</ele>
        <time>2018-10-27T10:14:16Z</time>
      </trkpt>
      <trkpt lat="38.5011260" lon="-0.6198160">
        <ele>867.8</ele>
        <time>2018-10-27T10:14:20Z</time>
      </trkpt>
      <trkpt lat="38.5010980" lon="-0.6197620">
        <ele>866.4</ele>
        <time>2018-10-27T10:14:24Z</time>
      </trkpt>
      <trkpt lat="38.5010790" lon="-0.6197370">
        <ele>865.4</ele>
        <time>2018-10-27T10:14:26Z</time>
      </trkpt>
      <trkpt lat="38.5010500" lon="-0.6196940">
        <ele>863.8</ele>
        <time>2018-10-27T10:14:29Z</time>
      </trkpt>
      <trkpt lat="38.5010150" lon="-0.6196490">
        <ele>862.6</ele>
        <time>2018-10-27T10:14:33Z</time>
      </trkpt>
      <trkpt lat="38.5010060" lon="-0.6196180">
        <ele>861.6</ele>
        <time>2018-10-27T10:14:35Z</time>
      </trkpt>
      <trkpt lat="38.5010030" lon="-0.6196050">
        <ele>861.2</ele>
        <time>2018-10-27T10:14:36Z</time>
      </trkpt>
      <trkpt lat="38.5010000" lon="-0.6195880">
        <ele>859.8</ele>
        <time>2018-10-27T10:14:39Z</time>
      </trkpt>
      <trkpt lat="38.5010030" lon="-0.6195840">
        <ele>859.6</ele>
        <time>2018-10-27T10:14:40Z</time>
      </trkpt>
      <trkpt lat="38.5010050" lon="-0.6195810">
        <ele>858.6</ele>
        <time>2018-10-27T10:14:41Z</time>
      </trkpt>
      <trkpt lat="38.5010060" lon="-0.6195740">
        <ele>857.4</ele>
        <time>2018-10-27T10:14:43Z</time>
      </trkpt>
      <trkpt lat="38.5010030" lon="-0.6195690">
        <ele>857.2</ele>
        <time>2018-10-27T10:14:44Z</time>
      </trkpt>
      <trkpt lat="38.5001710" lon="-0.6190270">
        <ele>826.2</ele>
        <time>2018-10-27T10:17:31Z</time>
      </trkpt>
      <trkpt lat="38.5001500" lon="-0.6189870">
        <ele>825.8</ele>
        <time>2018-10-27T10:17:33Z</time>
      </trkpt>
      <trkpt lat="38.5001360" lon="-0.6189740">
        <ele>825.2</ele>
        <time>2018-10-27T10:17:34Z</time>
      </trkpt>
      <trkpt lat="38.5001210" lon="-0.6189560">
        <ele>825.0</ele>
        <time>2018-10-27T10:17:35Z</time>
      </trkpt>
      <trkpt lat="38.5000850" lon="-0.6189100">
        <ele>824.2</ele>
        <time>2018-10-27T10:17:37Z</time>
      </trkpt>
      <trkpt lat="38.5000430" lon="-0.6188860">
        <ele>823.8</ele>
        <time>2018-10-27T10:17:39Z</time>
      </trkpt>
      <trkpt lat="38.4999630" lon="-0.6187990">
        <ele>823.2</ele>
        <time>2018-10-27T10:17:44Z</time>
      </trkpt>
      <trkpt lat="38.4999470" lon="-0.6187830">
        <ele>822.6</ele>
        <time>2018-10-27T10:17:45Z</time>
      </trkpt>
      <trkpt lat="38.4999310" lon="-0.6187660">
        <ele>822.2</ele>
        <time>2018-10-27T10:17:46Z</time>
      </trkpt>
      <trkpt lat="38.4998390" lon="-0.6186820">
        <ele>822.0</ele>
        <time>2018-10-27T10:17:52Z</time>
      </trkpt>
      <trkpt lat="38.4997150" lon="-0.6186090">
        <ele>821.8</ele>
        <time>2018-10-27T10:17:58Z</time>
      </trkpt>
      <trkpt lat="38.4996190" lon="-0.6186100">
        <ele>821.6</ele>
        <time>2018-10-27T10:18:02Z</time>
      </trkpt>
      <trkpt lat="38.4995780" lon="-0.6186130">
        <ele>821.4</ele>
        <time>2018-10-27T10:18:04Z</time>
      </trkpt>
      <trkpt lat="38.4995570" lon="-0.6186160">
        <ele>821.2</ele>
        <time>2018-10-27T10:18:05Z</time>
      </trkpt>
      <trkpt lat="38.4995180" lon="-0.6186170">
        <ele>821.0</ele>
        <time>2018-10-27T10:18:07Z</time>
      </trkpt>
      <trkpt lat="38.4994350" lon="-0.6186090">
        <ele>820.6</ele>
        <time>2018-10-27T10:18:11Z</time>
      </trkpt>
      <trkpt lat="38.4994130" lon="-0.6186120">
        <ele>820.4</ele>
        <time>2018-10-27T10:18:12Z</time>
      </trkpt>
      <trkpt lat="38.4993460" lon="-0.6186240">
        <ele>820.0</ele>
        <time>2018-10-27T10:18:15Z</time>
      </trkpt>
      <trkpt lat="38.4992550" lon="-0.6186070">
        <ele>819.2</ele>
        <time>2018-10-27T10:18:19Z</time>
      </trkpt>
      <trkpt lat="38.4991990" lon="-0.6186010">
        <ele>818.8</ele>
        <time>2018-10-27T10:18:22Z</time>
      </trkpt>
      <trkpt lat="38.4991790" lon="-0.6186050">
        <ele>818.6</ele>
        <time>2018-10-27T10:18:23Z</time>
      </trkpt>
      <trkpt lat="38.4991470" lon="-0.6186090">
        <ele>818.2</ele>
        <time>2018-10-27T10:18:25Z</time>
      </trkpt>
      <trkpt lat="38.4990900" lon="-0.6185990">
        <ele>817.8</ele>
        <time>2018-10-27T10:18:28Z</time>
      </trkpt>
      <trkpt lat="38.4990240" lon="-0.6185870">
        <ele>816.8</ele>
        <time>2018-10-27T10:18:32Z</time>
      </trkpt>
      <trkpt lat="38.4990070" lon="-0.6185870">
        <ele>816.6</ele>
        <time>2018-10-27T10:18:33Z</time>
      </trkpt>
      <trkpt lat="38.4989250" lon="-0.6186400">
        <ele>815.4</ele>
        <time>2018-10-27T10:18:38Z</time>
      </trkpt>
      <trkpt lat="38.4988290" lon="-0.6187020">
        <ele>814.2</ele>
        <time>2018-10-27T10:18:43Z</time>
      </trkpt>
      <trkpt lat="38.4987970" lon="-0.6187300">
        <ele>813.8</ele>
        <time>2018-10-27T10:18:45Z</time>
      </trkpt>
      <trkpt lat="38.4987660" lon="-0.6187590">
        <ele>813.2</ele>
        <time>2018-10-27T10:18:47Z</time>
      </trkpt>
      <trkpt lat="38.4987300" lon="-0.6187950">
        <ele>812.8</ele>
        <time>2018-10-27T10:18:49Z</time>
      </trkpt>
      <trkpt lat="38.4986920" lon="-0.6188230">
        <ele>812.2</ele>
        <time>2018-10-27T10:18:51Z</time>
      </trkpt>
      <trkpt lat="38.4986730" lon="-0.6188270">
        <ele>812.0</ele>
        <time>2018-10-27T10:18:52Z</time>
      </trkpt>
      <trkpt lat="38.4986150" lon="-0.6188210">
        <ele>811.0</ele>
        <time>2018-10-27T10:18:55Z</time>
      </trkpt>
      <trkpt lat="38.4985480" lon="-0.6188560">
        <ele>810.0</ele>
        <time>2018-10-27T10:18:59Z</time>
      </trkpt>
      <trkpt lat="38.4985310" lon="-0.6188670">
        <ele>809.6</ele>
        <time>2018-10-27T10:19:00Z</time>
      </trkpt>
      <trkpt lat="38.4984880" lon="-0.6189010">
        <ele>808.8</ele>
        <time>2018-10-27T10:19:03Z</time>
      </trkpt>
      <trkpt lat="38.4984220" lon="-0.6189270">
        <ele>807.6</ele>
        <time>2018-10-27T10:19:07Z</time>
      </trkpt>
      <trkpt lat="38.4984010" lon="-0.6189370">
        <ele>806.4</ele>
        <time>2018-10-27T10:19:11Z</time>
      </trkpt>
      <trkpt lat="38.4984020" lon="-0.6189420">
        <ele>805.8</ele>
        <time>2018-10-27T10:19:13Z</time>
      </trkpt>
      <trkpt lat="38.4984020" lon="-0.6189460">
        <ele>805.2</ele>
        <time>2018-10-27T10:19:15Z</time>
      </trkpt>
      <trkpt lat="38.4983360" lon="-0.6188130">
        <ele>799.2</ele>
        <time>2018-10-27T10:19:35Z</time>
      </trkpt>
      <trkpt lat="38.4983150" lon="-0.6187840">
        <ele>798.8</ele>
        <time>2018-10-27T10:19:36Z</time>
      </trkpt>
      <trkpt lat="38.4982610" lon="-0.6186910">
        <ele>798.0</ele>
        <time>2018-10-27T10:19:39Z</time>
      </trkpt>
      <trkpt lat="38.4982030" lon="-0.6186140">
        <ele>784.4</ele>
        <time>2018-10-27T10:19:42Z</time>
      </trkpt>
      <trkpt lat="38.4981830" lon="-0.6185960">
        <ele>777.8</ele>
        <time>2018-10-27T10:19:43Z</time>
      </trkpt>
      <trkpt lat="38.4981570" lon="-0.6185720">
        <ele>774.4</ele>
        <time>2018-10-27T10:19:44Z</time>
      </trkpt>
      <trkpt lat="38.4981290" lon="-0.6185490">
        <ele>772.6</ele>
        <time>2018-10-27T10:19:45Z</time>
      </trkpt>
      <trkpt lat="38.4981000" lon="-0.6185240">
        <ele>771.4</ele>
        <time>2018-10-27T10:19:46Z</time>
      </trkpt>
      <trkpt lat="38.4980470" lon="-0.6184800">
        <ele>770.0</ele>
        <time>2018-10-27T10:19:48Z</time>
      </trkpt>
      <trkpt lat="38.4979990" lon="-0.6184630">
        <ele>769.0</ele>
        <time>2018-10-27T10:19:50Z</time>
      </trkpt>
      <trkpt lat="38.4979860" lon="-0.6184550">
        <ele>768.4</ele>
        <time>2018-10-27T10:19:51Z</time>
      </trkpt>
      <trkpt lat="38.4979640" lon="-0.6184280">
        <ele>767.4</ele>
        <time>2018-10-27T10:19:53Z</time>
      </trkpt>
      <trkpt lat="38.4979400" lon="-0.6184190">
        <ele>766.0</ele>
        <time>2018-10-27T10:19:55Z</time>
      </trkpt>
      <trkpt lat="38.4979060" lon="-0.6183950">
        <ele>764.6</ele>
        <time>2018-10-27T10:19:57Z</time>
      </trkpt>
      <trkpt lat="38.4978890" lon="-0.6183830">
        <ele>764.4</ele>
        <time>2018-10-27T10:19:58Z</time>
      </trkpt>
      <trkpt lat="38.4978660" lon="-0.6183520">
        <ele>763.6</ele>
        <time>2018-10-27T10:20:00Z</time>
      </trkpt>
      <trkpt lat="38.4978170" lon="-0.6182830">
        <ele>762.8</ele>
        <time>2018-10-27T10:20:05Z</time>
      </trkpt>
      <trkpt lat="38.4978050" lon="-0.6182770">
        <ele>762.6</ele>
        <time>2018-10-27T10:20:06Z</time>
      </trkpt>
      <trkpt lat="38.4977940" lon="-0.6182750">
        <ele>762.2</ele>
        <time>2018-10-27T10:20:07Z</time>
      </trkpt>
      <trkpt lat="38.4977760" lon="-0.6182670">
        <ele>761.8</ele>
        <time>2018-10-27T10:20:10Z</time>
      </trkpt>
      <trkpt lat="38.4977370" lon="-0.6182680">
        <ele>761.2</ele>
        <time>2018-10-27T10:20:14Z</time>
      </trkpt>
      <trkpt lat="38.4976930" lon="-0.6182860">
        <ele>760.6</ele>
        <time>2018-10-27T10:20:19Z</time>
      </trkpt>
      <trkpt lat="38.4976800" lon="-0.6182810">
        <ele>760.2</ele>
        <time>2018-10-27T10:20:23Z</time>
      </trkpt>
      <trkpt lat="38.4976790" lon="-0.6182810">
        <ele>759.8</ele>
        <time>2018-10-27T10:20:27Z</time>
      </trkpt>
      <trkpt lat="38.4976070" lon="-0.6182920">
        <ele>759.4</ele>
        <time>2018-10-27T10:20:35Z</time>
      </trkpt>
      <trkpt lat="38.4975390" lon="-0.6183200">
        <ele>759.2</ele>
        <time>2018-10-27T10:20:38Z</time>
      </trkpt>
      <trkpt lat="38.4975190" lon="-0.6183270">
        <ele>759.0</ele>
        <time>2018-10-27T10:20:39Z</time>
      </trkpt>
      <trkpt lat="38.4974840" lon="-0.6183400">
        <ele>759.0</ele>
        <time>2018-10-27T10:20:41Z</time>
      </trkpt>
      <trkpt lat="38.4974090" lon="-0.6183580">
        <ele>758.6</ele>
        <time>2018-10-27T10:20:47Z</time>
      </trkpt>
      <trkpt lat="38.4973260" lon="-0.6184140">
        <ele>758.0</ele>
        <time>2018-10-27T10:20:53Z</time>
      </trkpt>
      <trkpt lat="38.4973170" lon="-0.6184350">
        <ele>758.0</ele>
        <time>2018-10-27T10:20:54Z</time>
      </trkpt>
      <trkpt lat="38.4972780" lon="-0.6184970">
        <ele>757.8</ele>
        <time>2018-10-27T10:20:57Z</time>
      </trkpt>
      <trkpt lat="38.4972420" lon="-0.6185110">
        <ele>758.0</ele>
        <time>2018-10-27T10:21:00Z</time>
      </trkpt>
      <trkpt lat="38.4972280" lon="-0.6185210">
        <ele>758.0</ele>
        <time>2018-10-27T10:21:02Z</time>
      </trkpt>
      <trkpt lat="38.4972010" lon="-0.6185240">
        <ele>757.6</ele>
        <time>2018-10-27T10:21:05Z</time>
      </trkpt>
      <trkpt lat="38.4971660" lon="-0.6185170">
        <ele>757.6</ele>
        <time>2018-10-27T10:21:07Z</time>
      </trkpt>
      <trkpt lat="38.4970990" lon="-0.6185600">
        <ele>757.0</ele>
        <time>2018-10-27T10:21:11Z</time>
      </trkpt>
      <trkpt lat="38.4970770" lon="-0.6185540">
        <ele>757.0</ele>
        <time>2018-10-27T10:21:12Z</time>
      </trkpt>
      <trkpt lat="38.4970540" lon="-0.6185410">
        <ele>756.0</ele>
        <time>2018-10-27T10:21:13Z</time>
      </trkpt>
      <trkpt lat="38.4970150" lon="-0.6185260">
        <ele>754.8</ele>
        <time>2018-10-27T10:21:15Z</time>
      </trkpt>
      <trkpt lat="38.4969570" lon="-0.6185190">
        <ele>753.6</ele>
        <time>2018-10-27T10:21:18Z</time>
      </trkpt>
      <trkpt lat="38.4968650" lon="-0.6185240">
        <ele>752.4</ele>
        <time>2018-10-27T10:21:23Z</time>
      </trkpt>
      <trkpt lat="38.4968250" lon="-0.6185380">
        <ele>751.8</ele>
        <time>2018-10-27T10:21:25Z</time>
      </trkpt>
      <trkpt lat="38.4967880" lon="-0.6185380">
        <ele>751.4</ele>
        <time>2018-10-27T10:21:27Z</time>
      </trkpt>
      <trkpt lat="38.4967110" lon="-0.6185150">
        <ele>750.6</ele>
        <time>2018-10-27T10:21:31Z</time>
      </trkpt>
      <trkpt lat="38.4966890" lon="-0.6185100">
        <ele>750.2</ele>
        <time>2018-10-27T10:21:32Z</time>
      </trkpt>
      <trkpt lat="38.4966270" lon="-0.6184710">
        <ele>748.8</ele>
        <time>2018-10-27T10:21:35Z</time>
      </trkpt>
      <trkpt lat="38.4966060" lon="-0.6184510">
        <ele>748.6</ele>
        <time>2018-10-27T10:21:36Z</time>
      </trkpt>
      <trkpt lat="38.4965660" lon="-0.6184250">
        <ele>747.8</ele>
        <time>2018-10-27T10:21:38Z</time>
      </trkpt>
      <trkpt lat="38.4964940" lon="-0.6183560">
        <ele>746.6</ele>
        <time>2018-10-27T10:21:42Z</time>
      </trkpt>
      <trkpt lat="38.4964390" lon="-0.6183140">
        <ele>745.6</ele>
        <time>2018-10-27T10:21:45Z</time>
      </trkpt>
      <trkpt lat="38.4963890" lon="-0.6182570">
        <ele>744.4</ele>
        <time>2018-10-27T10:21:48Z</time>
      </trkpt>
      <trkpt lat="38.4963700" lon="-0.6182360">
        <ele>744.0</ele>
        <time>2018-10-27T10:21:49Z</time>
      </trkpt>
      <trkpt lat="38.4963520" lon="-0.6182120">
        <ele>743.4</ele>
        <time>2018-10-27T10:21:50Z</time>
      </trkpt>
      <trkpt lat="38.4963120" lon="-0.6181610">
        <ele>742.2</ele>
        <time>2018-10-27T10:21:52Z</time>
      </trkpt>
      <trkpt lat="38.4962680" lon="-0.6181020">
        <ele>741.2</ele>
        <time>2018-10-27T10:21:54Z</time>
      </trkpt>
      <trkpt lat="38.4962460" lon="-0.6180790">
        <ele>740.4</ele>
        <time>2018-10-27T10:21:55Z</time>
      </trkpt>
      <trkpt lat="38.4962270" lon="-0.6180610">
        <ele>740.0</ele>
        <time>2018-10-27T10:21:56Z</time>
      </trkpt>
      <trkpt lat="38.4961900" lon="-0.6180330">
        <ele>738.6</ele>
        <time>2018-10-27T10:21:58Z</time>
      </trkpt>
      <trkpt lat="38.4961450" lon="-0.6179870">
        <ele>737.4</ele>
        <time>2018-10-27T10:22:01Z</time>
      </trkpt>
      <trkpt lat="38.4961010" lon="-0.6179350">
        <ele>736.2</ele>
        <time>2018-10-27T10:22:04Z</time>
      </trkpt>
      <trkpt lat="38.4960560" lon="-0.6178830">
        <ele>735.0</ele>
        <time>2018-10-27T10:22:07Z</time>
      </trkpt>
      <trkpt lat="38.4960040" lon="-0.6178310">
        <ele>733.8</ele>
        <time>2018-10-27T10:22:10Z</time>
      </trkpt>
      <trkpt lat="38.4959840" lon="-0.6178140">
        <ele>733.6</ele>
        <time>2018-10-27T10:22:11Z</time>
      </trkpt>
      <trkpt lat="38.4959290" lon="-0.6177650">
        <ele>732.6</ele>
        <time>2018-10-27T10:22:14Z</time>
      </trkpt>
      <trkpt lat="38.4958980" lon="-0.6177360">
        <ele>731.2</ele>
        <time>2018-10-27T10:22:16Z</time>
      </trkpt>
      <trkpt lat="38.4958510" lon="-0.6176770">
        <ele>730.4</ele>
        <time>2018-10-27T10:22:19Z</time>
      </trkpt>
      <trkpt lat="38.4958310" lon="-0.6176630">
        <ele>730.0</ele>
        <time>2018-10-27T10:22:20Z</time>
      </trkpt>
      <trkpt lat="38.4957610" lon="-0.6175930">
        <ele>728.8</ele>
        <time>2018-10-27T10:22:24Z</time>
      </trkpt>
      <trkpt lat="38.4957430" lon="-0.6175730">
        <ele>728.6</ele>
        <time>2018-10-27T10:22:25Z</time>
      </trkpt>
      <trkpt lat="38.4957260" lon="-0.6175540">
        <ele>727.6</ele>
        <time>2018-10-27T10:22:26Z</time>
      </trkpt>
      <trkpt lat="38.4956840" lon="-0.6175240">
        <ele>726.6</ele>
        <time>2018-10-27T10:22:28Z</time>
      </trkpt>
      <trkpt lat="38.4956450" lon="-0.6174890">
        <ele>726.0</ele>
        <time>2018-10-27T10:22:30Z</time>
      </trkpt>
      <trkpt lat="38.4956090" lon="-0.6174480">
        <ele>725.4</ele>
        <time>2018-10-27T10:22:32Z</time>
      </trkpt>
      <trkpt lat="38.4955860" lon="-0.6174020">
        <ele>724.0</ele>
        <time>2018-10-27T10:22:34Z</time>
      </trkpt>
      <trkpt lat="38.4955670" lon="-0.6173570">
        <ele>723.4</ele>
        <time>2018-10-27T10:22:36Z</time>
      </trkpt>
      <trkpt lat="38.4955590" lon="-0.6173380">
        <ele>723.0</ele>
        <time>2018-10-27T10:22:37Z</time>
      </trkpt>
      <trkpt lat="38.4955340" lon="-0.6172840">
        <ele>721.6</ele>
        <time>2018-10-27T10:22:40Z</time>
      </trkpt>
      <trkpt lat="38.4955270" lon="-0.6172660">
        <ele>721.2</ele>
        <time>2018-10-27T10:22:42Z</time>
      </trkpt>
      <trkpt lat="38.4955300" lon="-0.6172570">
        <ele>720.6</ele>
        <time>2018-10-27T10:22:45Z</time>
      </trkpt>
      <trkpt lat="38.4955280" lon="-0.6172510">
        <ele>719.8</ele>
        <time>2018-10-27T10:22:47Z</time>
      </trkpt>
      <trkpt lat="38.4954070" lon="-0.6171180">
        <ele>718.4</ele>
        <time>2018-10-27T10:23:11Z</time>
      </trkpt>
      <trkpt lat="38.4953950" lon="-0.6170990">
        <ele>718.4</ele>
        <time>2018-10-27T10:23:12Z</time>
      </trkpt>
      <trkpt lat="38.4953850" lon="-0.6170460">
        <ele>718.4</ele>
        <time>2018-10-27T10:23:15Z</time>
      </trkpt>
      <trkpt lat="38.4953910" lon="-0.6169940">
        <ele>718.0</ele>
        <time>2018-10-27T10:23:17Z</time>
      </trkpt>
      <trkpt lat="38.4953960" lon="-0.6169130">
        <ele>717.2</ele>
        <time>2018-10-27T10:23:20Z</time>
      </trkpt>
      <trkpt lat="38.4954000" lon="-0.6168570">
        <ele>716.6</ele>
        <time>2018-10-27T10:23:22Z</time>
      </trkpt>
      <trkpt lat="38.4954020" lon="-0.6167930">
        <ele>716.0</ele>
        <time>2018-10-27T10:23:24Z</time>
      </trkpt>
      <trkpt lat="38.4954090" lon="-0.6166630">
        <ele>715.0</ele>
        <time>2018-10-27T10:23:28Z</time>
      </trkpt>
      <trkpt lat="38.4954070" lon="-0.6165970">
        <ele>714.2</ele>
        <time>2018-10-27T10:23:30Z</time>
      </trkpt>
      <trkpt lat="38.4954090" lon="-0.6165670">
        <ele>713.8</ele>
        <time>2018-10-27T10:23:31Z</time>
      </trkpt>
      <trkpt lat="38.4954190" lon="-0.6164810">
        <ele>712.6</ele>
        <time>2018-10-27T10:23:34Z</time>
      </trkpt>
      <trkpt lat="38.4954350" lon="-0.6163880">
        <ele>711.6</ele>
        <time>2018-10-27T10:23:37Z</time>
      </trkpt>
      <trkpt lat="38.4954750" lon="-0.6162660">
        <ele>710.4</ele>
        <time>2018-10-27T10:23:41Z</time>
      </trkpt>
      <trkpt lat="38.4954990" lon="-0.6161990">
        <ele>709.4</ele>
        <time>2018-10-27T10:23:43Z</time>
      </trkpt>
      <trkpt lat="38.4955090" lon="-0.6161650">
        <ele>709.0</ele>
        <time>2018-10-27T10:23:44Z</time>
      </trkpt>
      <trkpt lat="38.4955320" lon="-0.6160740">
        <ele>708.2</ele>
        <time>2018-10-27T10:23:47Z</time>
      </trkpt>
      <trkpt lat="38.4955390" lon="-0.6160450">
        <ele>707.8</ele>
        <time>2018-10-27T10:23:48Z</time>
      </trkpt>
      <trkpt lat="38.4955430" lon="-0.6160130">
        <ele>707.4</ele>
        <time>2018-10-27T10:23:49Z</time>
      </trkpt>
      <trkpt lat="38.4955480" lon="-0.6158610">
        <ele>706.8</ele>
        <time>2018-10-27T10:23:54Z</time>
      </trkpt>
      <trkpt lat="38.4955470" lon="-0.6157980">
        <ele>705.8</ele>
        <time>2018-10-27T10:23:56Z</time>
      </trkpt>
      <trkpt lat="38.4955510" lon="-0.6157650">
        <ele>705.4</ele>
        <time>2018-10-27T10:23:57Z</time>
      </trkpt>
      <trkpt lat="38.4955450" lon="-0.6157070">
        <ele>704.4</ele>
        <time>2018-10-27T10:23:59Z</time>
      </trkpt>
      <trkpt lat="38.4955520" lon="-0.6156810">
        <ele>703.8</ele>
        <time>2018-10-27T10:24:00Z</time>
      </trkpt>
      <trkpt lat="38.4955430" lon="-0.6156280">
        <ele>703.2</ele>
        <time>2018-10-27T10:24:02Z</time>
      </trkpt>
      <trkpt lat="38.4955340" lon="-0.6156010">
        <ele>702.6</ele>
        <time>2018-10-27T10:24:03Z</time>
      </trkpt>
      <trkpt lat="38.4955220" lon="-0.6155780">
        <ele>701.8</ele>
        <time>2018-10-27T10:24:04Z</time>
      </trkpt>
      <trkpt lat="38.4954960" lon="-0.6155370">
        <ele>700.8</ele>
        <time>2018-10-27T10:24:06Z</time>
      </trkpt>
      <trkpt lat="38.4954590" lon="-0.6154860">
        <ele>699.4</ele>
        <time>2018-10-27T10:24:09Z</time>
      </trkpt>
      <trkpt lat="38.4954460" lon="-0.6154670">
        <ele>699.0</ele>
        <time>2018-10-27T10:24:10Z</time>
      </trkpt>
      <trkpt lat="38.4954160" lon="-0.6154390">
        <ele>698.0</ele>
        <time>2018-10-27T10:24:12Z</time>
      </trkpt>
      <trkpt lat="38.4953710" lon="-0.6153840">
        <ele>696.4</ele>
        <time>2018-10-27T10:24:15Z</time>
      </trkpt>
      <trkpt lat="38.4953410" lon="-0.6153430">
        <ele>695.8</ele>
        <time>2018-10-27T10:24:17Z</time>
      </trkpt>
      <trkpt lat="38.4953240" lon="-0.6153190">
        <ele>695.4</ele>
        <time>2018-10-27T10:24:18Z</time>
      </trkpt>
      <trkpt lat="38.4952420" lon="-0.6152030">
        <ele>694.4</ele>
        <time>2018-10-27T10:24:23Z</time>
      </trkpt>
      <trkpt lat="38.4952230" lon="-0.6151800">
        <ele>693.8</ele>
        <time>2018-10-27T10:24:24Z</time>
      </trkpt>
      <trkpt lat="38.4951880" lon="-0.6151330">
        <ele>693.0</ele>
        <time>2018-10-27T10:24:26Z</time>
      </trkpt>
      <trkpt lat="38.4951440" lon="-0.6150640">
        <ele>692.0</ele>
        <time>2018-10-27T10:24:29Z</time>
      </trkpt>
      <trkpt lat="38.4951300" lon="-0.6150400">
        <ele>691.6</ele>
        <time>2018-10-27T10:24:30Z</time>
      </trkpt>
      <trkpt lat="38.4950880" lon="-0.6149840">
        <ele>691.0</ele>
        <time>2018-10-27T10:24:33Z</time>
      </trkpt>
      <trkpt lat="38.4950310" lon="-0.6149110">
        <ele>689.6</ele>
        <time>2018-10-27T10:24:37Z</time>
      </trkpt>
      <trkpt lat="38.4949920" lon="-0.6148430">
        <ele>688.2</ele>
        <time>2018-10-27T10:24:40Z</time>
      </trkpt>
      <trkpt lat="38.4949660" lon="-0.6147960">
        <ele>687.2</ele>
        <time>2018-10-27T10:24:42Z</time>
      </trkpt>
      <trkpt lat="38.4949270" lon="-0.6147340">
        <ele>686.2</ele>
        <time>2018-10-27T10:24:45Z</time>
      </trkpt>
      <trkpt lat="38.4949140" lon="-0.6147130">
        <ele>685.8</ele>
        <time>2018-10-27T10:24:46Z</time>
      </trkpt>
      <trkpt lat="38.4949020" lon="-0.6146910">
        <ele>685.0</ele>
        <time>2018-10-27T10:24:47Z</time>
      </trkpt>
      <trkpt lat="38.4948770" lon="-0.6146530">
        <ele>684.0</ele>
        <time>2018-10-27T10:24:49Z</time>
      </trkpt>
      <trkpt lat="38.4948110" lon="-0.6145680">
        <ele>682.8</ele>
        <time>2018-10-27T10:24:54Z</time>
      </trkpt>
      <trkpt lat="38.4947720" lon="-0.6145180">
        <ele>681.4</ele>
        <time>2018-10-27T10:24:57Z</time>
      </trkpt>
      <trkpt lat="38.4947130" lon="-0.6144430">
        <ele>680.8</ele>
        <time>2018-10-27T10:25:02Z</time>
      </trkpt>
      <trkpt lat="38.4947030" lon="-0.6144260">
        <ele>680.4</ele>
        <time>2018-10-27T10:25:04Z</time>
      </trkpt>
      <trkpt lat="38.4946790" lon="-0.6143960">
        <ele>679.8</ele>
        <time>2018-10-27T10:25:07Z</time>
      </trkpt>
      <trkpt lat="38.4946690" lon="-0.6143800">
        <ele>679.6</ele>
        <time>2018-10-27T10:25:08Z</time>
      </trkpt>
      <trkpt lat="38.4946580" lon="-0.6143620">
        <ele>679.2</ele>
        <time>2018-10-27T10:25:09Z</time>
      </trkpt>
      <trkpt lat="38.4945800" lon="-0.6142450">
        <ele>678.0</ele>
        <time>2018-10-27T10:25:15Z</time>
      </trkpt>
      <trkpt lat="38.4945500" lon="-0.6141990">
        <ele>676.6</ele>
        <time>2018-10-27T10:25:18Z</time>
      </trkpt>
      <trkpt lat="38.4945060" lon="-0.6141470">
        <ele>675.6</ele>
        <time>2018-10-27T10:25:21Z</time>
      </trkpt>
      <trkpt lat="38.4944930" lon="-0.6141290">
        <ele>674.8</ele>
        <time>2018-10-27T10:25:22Z</time>
      </trkpt>
      <trkpt lat="38.4944790" lon="-0.6141100">
        <ele>674.6</ele>
        <time>2018-10-27T10:25:23Z</time>
      </trkpt>
      <trkpt lat="38.4944350" lon="-0.6140430">
        <ele>673.4</ele>
        <time>2018-10-27T10:25:26Z</time>
      </trkpt>
      <trkpt lat="38.4944080" lon="-0.6140010">
        <ele>672.6</ele>
        <time>2018-10-27T10:25:28Z</time>
      </trkpt>
      <trkpt lat="38.4943960" lon="-0.6139790">
        <ele>672.0</ele>
        <time>2018-10-27T10:25:29Z</time>
      </trkpt>
      <trkpt lat="38.4943470" lon="-0.6139000">
        <ele>670.8</ele>
        <time>2018-10-27T10:25:33Z</time>
      </trkpt>
      <trkpt lat="38.4942860" lon="-0.6138020">
        <ele>669.2</ele>
        <time>2018-10-27T10:25:38Z</time>
      </trkpt>
      <trkpt lat="38.4942590" lon="-0.6137680">
        <ele>668.0</ele>
        <time>2018-10-27T10:25:40Z</time>
      </trkpt>
      <trkpt lat="38.4942110" lon="-0.6136950">
        <ele>666.8</ele>
        <time>2018-10-27T10:25:44Z</time>
      </trkpt>
      <trkpt lat="38.4941960" lon="-0.6136770">
        <ele>666.6</ele>
        <time>2018-10-27T10:25:45Z</time>
      </trkpt>
      <trkpt lat="38.4941610" lon="-0.6136450">
        <ele>665.8</ele>
        <time>2018-10-27T10:25:47Z</time>
      </trkpt>
      <trkpt lat="38.4941260" lon="-0.6136070">
        <ele>665.6</ele>
        <time>2018-10-27T10:25:49Z</time>
      </trkpt>
      <trkpt lat="38.4941080" lon="-0.6135910">
        <ele>665.6</ele>
        <time>2018-10-27T10:25:50Z</time>
      </trkpt>
      <trkpt lat="38.4940750" lon="-0.6135620">
        <ele>665.4</ele>
        <time>2018-10-27T10:25:52Z</time>
      </trkpt>
      <trkpt lat="38.4939760" lon="-0.6134590">
        <ele>665.0</ele>
        <time>2018-10-27T10:25:58Z</time>
      </trkpt>
      <trkpt lat="38.4939520" lon="-0.6134230">
        <ele>664.6</ele>
        <time>2018-10-27T10:26:00Z</time>
      </trkpt>
      <trkpt lat="38.4939190" lon="-0.6133670">
        <ele>663.8</ele>
        <time>2018-10-27T10:26:03Z</time>
      </trkpt>
      <trkpt lat="38.4938870" lon="-0.6133380">
        <ele>663.6</ele>
        <time>2018-10-27T10:26:05Z</time>
      </trkpt>
      <trkpt lat="38.4938730" lon="-0.6133220">
        <ele>663.4</ele>
        <time>2018-10-27T10:26:06Z</time>
      </trkpt>
      <trkpt lat="38.4938410" lon="-0.6132780">
        <ele>662.4</ele>
        <time>2018-10-27T10:26:09Z</time>
      </trkpt>
      <trkpt lat="38.4938240" lon="-0.6132480">
        <ele>661.4</ele>
        <time>2018-10-27T10:26:11Z</time>
      </trkpt>
      <trkpt lat="38.4938140" lon="-0.6132320">
        <ele>661.0</ele>
        <time>2018-10-27T10:26:12Z</time>
      </trkpt>
      <trkpt lat="38.4937870" lon="-0.6131850">
        <ele>660.2</ele>
        <time>2018-10-27T10:26:15Z</time>
      </trkpt>
      <trkpt lat="38.4937470" lon="-0.6131170">
        <ele>659.2</ele>
        <time>2018-10-27T10:26:20Z</time>
      </trkpt>
      <trkpt lat="38.4937300" lon="-0.6130870">
        <ele>658.8</ele>
        <time>2018-10-27T10:26:22Z</time>
      </trkpt>
      <trkpt lat="38.4937020" lon="-0.6130120">
        <ele>658.2</ele>
        <time>2018-10-27T10:26:26Z</time>
      </trkpt>
      <trkpt lat="38.4936840" lon="-0.6129650">
        <ele>657.8</ele>
        <time>2018-10-27T10:26:28Z</time>
      </trkpt>
      <trkpt lat="38.4936620" lon="-0.6129170">
        <ele>657.2</ele>
        <time>2018-10-27T10:26:30Z</time>
      </trkpt>
      <trkpt lat="38.4936270" lon="-0.6128520">
        <ele>655.8</ele>
        <time>2018-10-27T10:26:33Z</time>
      </trkpt>
      <trkpt lat="38.4935990" lon="-0.6128130">
        <ele>655.4</ele>
        <time>2018-10-27T10:26:35Z</time>
      </trkpt>
      <trkpt lat="38.4935720" lon="-0.6127760">
        <ele>654.6</ele>
        <time>2018-10-27T10:26:37Z</time>
      </trkpt>
      <trkpt lat="38.4935230" lon="-0.6126890">
        <ele>653.6</ele>
        <time>2018-10-27T10:26:41Z</time>
      </trkpt>
      <trkpt lat="38.4935090" lon="-0.6126680">
        <ele>653.2</ele>
        <time>2018-10-27T10:26:42Z</time>
      </trkpt>
      <trkpt lat="38.4934910" lon="-0.6126400">
        <ele>653.0</ele>
        <time>2018-10-27T10:26:43Z</time>
      </trkpt>
      <trkpt lat="38.4934180" lon="-0.6125560">
        <ele>652.0</ele>
        <time>2018-10-27T10:26:47Z</time>
      </trkpt>
      <trkpt lat="38.4933810" lon="-0.6125130">
        <ele>651.2</ele>
        <time>2018-10-27T10:26:49Z</time>
      </trkpt>
      <trkpt lat="38.4933660" lon="-0.6124900">
        <ele>651.0</ele>
        <time>2018-10-27T10:26:50Z</time>
      </trkpt>
      <trkpt lat="38.4933010" lon="-0.6124190">
        <ele>650.4</ele>
        <time>2018-10-27T10:26:54Z</time>
      </trkpt>
      <trkpt lat="38.4932750" lon="-0.6123790">
        <ele>650.2</ele>
        <time>2018-10-27T10:26:56Z</time>
      </trkpt>
      <trkpt lat="38.4932040" lon="-0.6122620">
        <ele>650.0</ele>
        <time>2018-10-27T10:27:01Z</time>
      </trkpt>
      <trkpt lat="38.4931440" lon="-0.6121730">
        <ele>649.8</ele>
        <time>2018-10-27T10:27:05Z</time>
      </trkpt>
      <trkpt lat="38.4930670" lon="-0.6120660">
        <ele>648.8</ele>
        <time>2018-10-27T10:27:10Z</time>
      </trkpt>
      <trkpt lat="38.4930260" lon="-0.6120030">
        <ele>648.0</ele>
        <time>2018-10-27T10:27:13Z</time>
      </trkpt>
      <trkpt lat="38.4929980" lon="-0.6119650">
        <ele>647.8</ele>
        <time>2018-10-27T10:27:15Z</time>
      </trkpt>
      <trkpt lat="38.4929360" lon="-0.6118680">
        <ele>646.8</ele>
        <time>2018-10-27T10:27:20Z</time>
      </trkpt>
      <trkpt lat="38.4929080" lon="-0.6118030">
        <ele>646.4</ele>
        <time>2018-10-27T10:27:23Z</time>
      </trkpt>
      <trkpt lat="38.4929180" lon="-0.6117690">
        <ele>646.0</ele>
        <time>2018-10-27T10:27:25Z</time>
      </trkpt>
      <trkpt lat="38.4929490" lon="-0.6117420">
        <ele>645.6</ele>
        <time>2018-10-27T10:27:27Z</time>
      </trkpt>
      <trkpt lat="38.4929960" lon="-0.6116970">
        <ele>645.2</ele>
        <time>2018-10-27T10:27:30Z</time>
      </trkpt>
      <trkpt lat="38.4930110" lon="-0.6116800">
        <ele>644.2</ele>
        <time>2018-10-27T10:27:31Z</time>
      </trkpt>
      <trkpt lat="38.4930510" lon="-0.6116320">
        <ele>642.8</ele>
        <time>2018-10-27T10:27:34Z</time>
      </trkpt>
      <trkpt lat="38.4930660" lon="-0.6116080">
        <ele>642.2</ele>
        <time>2018-10-27T10:27:36Z</time>
      </trkpt>
      <trkpt lat="38.4930890" lon="-0.6115720">
        <ele>641.6</ele>
        <time>2018-10-27T10:27:41Z</time>
      </trkpt>
      <trkpt lat="38.4930950" lon="-0.6115690">
        <ele>641.6</ele>
        <time>2018-10-27T10:27:42Z</time>
      </trkpt>
      <trkpt lat="38.4931620" lon="-0.6115020">
        <ele>641.4</ele>
        <time>2018-10-27T10:27:47Z</time>
      </trkpt>
      <trkpt lat="38.4931970" lon="-0.6114670">
        <ele>641.8</ele>
        <time>2018-10-27T10:27:50Z</time>
      </trkpt>
      <trkpt lat="38.4932130" lon="-0.6114410">
        <ele>641.8</ele>
        <time>2018-10-27T10:27:53Z</time>
      </trkpt>
      <trkpt lat="38.4932410" lon="-0.6114150">
        <ele>641.8</ele>
        <time>2018-10-27T10:27:56Z</time>
      </trkpt>
      <trkpt lat="38.4932530" lon="-0.6114050">
        <ele>641.8</ele>
        <time>2018-10-27T10:27:57Z</time>
      </trkpt>
      <trkpt lat="38.4933320" lon="-0.6113140">
        <ele>642.2</ele>
        <time>2018-10-27T10:28:03Z</time>
      </trkpt>
      <trkpt lat="38.4933780" lon="-0.6112720">
        <ele>642.2</ele>
        <time>2018-10-27T10:28:06Z</time>
      </trkpt>
      <trkpt lat="38.4934590" lon="-0.6112040">
        <ele>642.0</ele>
        <time>2018-10-27T10:28:11Z</time>
      </trkpt>
      <trkpt lat="38.4934750" lon="-0.6111910">
        <ele>642.0</ele>
        <time>2018-10-27T10:28:12Z</time>
      </trkpt>
      <trkpt lat="38.4935030" lon="-0.6111650">
        <ele>642.2</ele>
        <time>2018-10-27T10:28:14Z</time>
      </trkpt>
      <trkpt lat="38.4935730" lon="-0.6111060">
        <ele>642.0</ele>
        <time>2018-10-27T10:28:18Z</time>
      </trkpt>
      <trkpt lat="38.4936750" lon="-0.6110020">
        <ele>641.4</ele>
        <time>2018-10-27T10:28:24Z</time>
      </trkpt>
      <trkpt lat="38.4937150" lon="-0.6109600">
        <ele>641.4</ele>
        <time>2018-10-27T10:28:27Z</time>
      </trkpt>
      <trkpt lat="38.4937600" lon="-0.6109170">
        <ele>641.4</ele>
        <time>2018-10-27T10:28:30Z</time>
      </trkpt>
      <trkpt lat="38.4938100" lon="-0.6108710">
        <ele>641.2</ele>
        <time>2018-10-27T10:28:33Z</time>
      </trkpt>
      <trkpt lat="38.4938390" lon="-0.6108370">
        <ele>641.2</ele>
        <time>2018-10-27T10:28:35Z</time>
      </trkpt>
      <trkpt lat="38.4939020" lon="-0.6107750">
        <ele>640.6</ele>
        <time>2018-10-27T10:28:39Z</time>
      </trkpt>
      <trkpt lat="38.4939510" lon="-0.6107310">
        <ele>640.2</ele>
        <time>2018-10-27T10:28:42Z</time>
      </trkpt>
      <trkpt lat="38.4940800" lon="-0.6105990">
        <ele>640.0</ele>
        <time>2018-10-27T10:28:50Z</time>
      </trkpt>
      <trkpt lat="38.4941500" lon="-0.6104490">
        <ele>640.6</ele>
        <time>2018-10-27T10:28:56Z</time>
      </trkpt>
      <trkpt lat="38.4942210" lon="-0.6104040">
        <ele>640.8</ele>
        <time>2018-10-27T10:29:01Z</time>
      </trkpt>
      <trkpt lat="38.4943440" lon="-0.6103450">
        <ele>640.0</ele>
        <time>2018-10-27T10:29:09Z</time>
      </trkpt>
      <trkpt lat="38.4944550" lon="-0.6102940">
        <ele>640.4</ele>
        <time>2018-10-27T10:29:17Z</time>
      </trkpt>
      <trkpt lat="38.4945310" lon="-0.6102590">
        <ele>640.2</ele>
        <time>2018-10-27T10:29:23Z</time>
      </trkpt>
      <trkpt lat="38.4946280" lon="-0.6102130">
        <ele>640.0</ele>
        <time>2018-10-27T10:29:29Z</time>
      </trkpt>
      <trkpt lat="38.4947400" lon="-0.6101610">
        <ele>640.2</ele>
        <time>2018-10-27T10:29:35Z</time>
      </trkpt>
      <trkpt lat="38.4948610" lon="-0.6100590">
        <ele>641.4</ele>
        <time>2018-10-27T10:29:42Z</time>
      </trkpt>
      <trkpt lat="38.4949490" lon="-0.6099820">
        <ele>641.4</ele>
        <time>2018-10-27T10:29:47Z</time>
      </trkpt>
      <trkpt lat="38.4949810" lon="-0.6099500">
        <ele>640.8</ele>
        <time>2018-10-27T10:29:49Z</time>
      </trkpt>
      <trkpt lat="38.4949970" lon="-0.6099350">
        <ele>640.4</ele>
        <time>2018-10-27T10:29:50Z</time>
      </trkpt>
      <trkpt lat="38.4950830" lon="-0.6098580">
        <ele>639.6</ele>
        <time>2018-10-27T10:29:55Z</time>
      </trkpt>
      <trkpt lat="38.4951220" lon="-0.6098270">
        <ele>639.6</ele>
        <time>2018-10-27T10:29:57Z</time>
      </trkpt>
      <trkpt lat="38.4952640" lon="-0.6096710">
        <ele>639.8</ele>
        <time>2018-10-27T10:30:06Z</time>
      </trkpt>
      <trkpt lat="38.4953460" lon="-0.6095420">
        <ele>640.4</ele>
        <time>2018-10-27T10:30:12Z</time>
      </trkpt>
      <trkpt lat="38.4954630" lon="-0.6093820">
        <ele>640.8</ele>
        <time>2018-10-27T10:30:20Z</time>
      </trkpt>
      <trkpt lat="38.4954750" lon="-0.6093610">
        <ele>641.2</ele>
        <time>2018-10-27T10:30:21Z</time>
      </trkpt>
      <trkpt lat="38.4954890" lon="-0.6093400">
        <ele>641.2</ele>
        <time>2018-10-27T10:30:22Z</time>
      </trkpt>
      <trkpt lat="38.4955350" lon="-0.6092740">
        <ele>640.2</ele>
        <time>2018-10-27T10:30:25Z</time>
      </trkpt>
      <trkpt lat="38.4955700" lon="-0.6092270">
        <ele>639.6</ele>
        <time>2018-10-27T10:30:27Z</time>
      </trkpt>
      <trkpt lat="38.4955850" lon="-0.6092000">
        <ele>639.4</ele>
        <time>2018-10-27T10:30:28Z</time>
      </trkpt>
      <trkpt lat="38.4956400" lon="-0.6091120">
        <ele>639.0</ele>
        <time>2018-10-27T10:30:32Z</time>
      </trkpt>
      <trkpt lat="38.4956810" lon="-0.6090480">
        <ele>639.6</ele>
        <time>2018-10-27T10:30:35Z</time>
      </trkpt>
      <trkpt lat="38.4957390" lon="-0.6089340">
        <ele>640.2</ele>
        <time>2018-10-27T10:30:40Z</time>
      </trkpt>
      <trkpt lat="38.4957490" lon="-0.6089100">
        <ele>640.8</ele>
        <time>2018-10-27T10:30:41Z</time>
      </trkpt>
      <trkpt lat="38.4957710" lon="-0.6088630">
        <ele>641.6</ele>
        <time>2018-10-27T10:30:43Z</time>
      </trkpt>
      <trkpt lat="38.4957830" lon="-0.6088430">
        <ele>642.0</ele>
        <time>2018-10-27T10:30:44Z</time>
      </trkpt>
      <trkpt lat="38.4958190" lon="-0.6088010">
        <ele>642.4</ele>
        <time>2018-10-27T10:30:46Z</time>
      </trkpt>
      <trkpt lat="38.4958490" lon="-0.6087610">
        <ele>642.4</ele>
        <time>2018-10-27T10:30:48Z</time>
      </trkpt>
      <trkpt lat="38.4958880" lon="-0.6087020">
        <ele>642.6</ele>
        <time>2018-10-27T10:30:51Z</time>
      </trkpt>
      <trkpt lat="38.4959480" lon="-0.6085840">
        <ele>642.8</ele>
        <time>2018-10-27T10:30:56Z</time>
      </trkpt>
      <trkpt lat="38.4960010" lon="-0.6084910">
        <ele>643.2</ele>
        <time>2018-10-27T10:31:00Z</time>
      </trkpt>
      <trkpt lat="38.4960260" lon="-0.6084560">
        <ele>643.2</ele>
        <time>2018-10-27T10:31:02Z</time>
      </trkpt>
      <trkpt lat="38.4960520" lon="-0.6084200">
        <ele>643.4</ele>
        <time>2018-10-27T10:31:04Z</time>
      </trkpt>
      <trkpt lat="38.4961390" lon="-0.6082760">
        <ele>643.8</ele>
        <time>2018-10-27T10:31:11Z</time>
      </trkpt>
      <trkpt lat="38.4962310" lon="-0.6081240">
        <ele>643.8</ele>
        <time>2018-10-27T10:31:18Z</time>
      </trkpt>
      <trkpt lat="38.4962530" lon="-0.6080810">
        <ele>643.8</ele>
        <time>2018-10-27T10:31:20Z</time>
      </trkpt>
      <trkpt lat="38.4962790" lon="-0.6080390">
        <ele>644.2</ele>
        <time>2018-10-27T10:31:22Z</time>
      </trkpt>
      <trkpt lat="38.4963170" lon="-0.6079680">
        <ele>644.4</ele>
        <time>2018-10-27T10:31:25Z</time>
      </trkpt>
      <trkpt lat="38.4963280" lon="-0.6079460">
        <ele>644.6</ele>
        <time>2018-10-27T10:31:26Z</time>
      </trkpt>
      <trkpt lat="38.4963870" lon="-0.6078390">
        <ele>645.2</ele>
        <time>2018-10-27T10:31:31Z</time>
      </trkpt>
      <trkpt lat="38.4964350" lon="-0.6077600">
        <ele>645.8</ele>
        <time>2018-10-27T10:31:35Z</time>
      </trkpt>
      <trkpt lat="38.4964480" lon="-0.6077380">
        <ele>645.8</ele>
        <time>2018-10-27T10:31:36Z</time>
      </trkpt>
      <trkpt lat="38.4965080" lon="-0.6076630">
        <ele>646.2</ele>
        <time>2018-10-27T10:31:40Z</time>
      </trkpt>
      <trkpt lat="38.4965240" lon="-0.6076440">
        <ele>646.2</ele>
        <time>2018-10-27T10:31:41Z</time>
      </trkpt>
      <trkpt lat="38.4965380" lon="-0.6076230">
        <ele>646.2</ele>
        <time>2018-10-27T10:31:42Z</time>
      </trkpt>
      <trkpt lat="38.4966480" lon="-0.6074470">
        <ele>646.6</ele>
        <time>2018-10-27T10:31:50Z</time>
      </trkpt>
      <trkpt lat="38.4967020" lon="-0.6073610">
        <ele>647.4</ele>
        <time>2018-10-27T10:31:54Z</time>
      </trkpt>
      <trkpt lat="38.4967560" lon="-0.6072780">
        <ele>648.4</ele>
        <time>2018-10-27T10:31:58Z</time>
      </trkpt>
      <trkpt lat="38.4968280" lon="-0.6071260">
        <ele>648.8</ele>
        <time>2018-10-27T10:32:04Z</time>
      </trkpt>
      <trkpt lat="38.4969100" lon="-0.6069940">
        <ele>648.8</ele>
        <time>2018-10-27T10:32:10Z</time>
      </trkpt>
      <trkpt lat="38.4970040" lon="-0.6068380">
        <ele>648.6</ele>
        <time>2018-10-27T10:32:17Z</time>
      </trkpt>
      <trkpt lat="38.4970660" lon="-0.6067510">
        <ele>648.6</ele>
        <time>2018-10-27T10:32:21Z</time>
      </trkpt>
      <trkpt lat="38.4970840" lon="-0.6067300">
        <ele>648.6</ele>
        <time>2018-10-27T10:32:22Z</time>
      </trkpt>
      <trkpt lat="38.4971290" lon="-0.6066350">
        <ele>648.6</ele>
        <time>2018-10-27T10:32:26Z</time>
      </trkpt>
      <trkpt lat="38.4971650" lon="-0.6065590">
        <ele>648.6</ele>
        <time>2018-10-27T10:32:29Z</time>
      </trkpt>
      <trkpt lat="38.4971870" lon="-0.6065140">
        <ele>648.6</ele>
        <time>2018-10-27T10:32:31Z</time>
      </trkpt>
      <trkpt lat="38.4972540" lon="-0.6064100">
        <ele>648.6</ele>
        <time>2018-10-27T10:32:36Z</time>
      </trkpt>
      <trkpt lat="38.4972970" lon="-0.6063200">
        <ele>648.4</ele>
        <time>2018-10-27T10:32:40Z</time>
      </trkpt>
      <trkpt lat="38.4973330" lon="-0.6062600">
        <ele>648.4</ele>
        <time>2018-10-27T10:32:43Z</time>
      </trkpt>
      <trkpt lat="38.4974380" lon="-0.6061170">
        <ele>648.4</ele>
        <time>2018-10-27T10:32:50Z</time>
      </trkpt>
      <trkpt lat="38.4974780" lon="-0.6060480">
        <ele>648.2</ele>
        <time>2018-10-27T10:32:53Z</time>
      </trkpt>
      <trkpt lat="38.4975180" lon="-0.6059840">
        <ele>648.2</ele>
        <time>2018-10-27T10:32:56Z</time>
      </trkpt>
      <trkpt lat="38.4976330" lon="-0.6058180">
        <ele>648.0</ele>
        <time>2018-10-27T10:33:04Z</time>
      </trkpt>
      <trkpt lat="38.4977090" lon="-0.6056880">
        <ele>647.8</ele>
        <time>2018-10-27T10:33:10Z</time>
      </trkpt>
      <trkpt lat="38.4977910" lon="-0.6055510">
        <ele>645.4</ele>
        <time>2018-10-27T10:33:17Z</time>
      </trkpt>
      <trkpt lat="38.4978020" lon="-0.6055300">
        <ele>644.4</ele>
        <time>2018-10-27T10:33:18Z</time>
      </trkpt>
      <trkpt lat="38.4978850" lon="-0.6054080">
        <ele>643.4</ele>
        <time>2018-10-27T10:33:24Z</time>
      </trkpt>
      <trkpt lat="38.4979580" lon="-0.6052870">
        <ele>643.8</ele>
        <time>2018-10-27T10:33:29Z</time>
      </trkpt>
      <trkpt lat="38.4979730" lon="-0.6052650">
        <ele>644.0</ele>
        <time>2018-10-27T10:33:30Z</time>
      </trkpt>
      <trkpt lat="38.4980260" lon="-0.6051820">
        <ele>644.2</ele>
        <time>2018-10-27T10:33:34Z</time>
      </trkpt>
      <trkpt lat="38.4980730" lon="-0.6051190">
        <ele>644.6</ele>
        <time>2018-10-27T10:33:37Z</time>
      </trkpt>
      <trkpt lat="38.4981460" lon="-0.6049660">
        <ele>645.8</ele>
        <time>2018-10-27T10:33:43Z</time>
      </trkpt>
      <trkpt lat="38.4981730" lon="-0.6049150">
        <ele>646.8</ele>
        <time>2018-10-27T10:33:45Z</time>
      </trkpt>
      <trkpt lat="38.4981890" lon="-0.6048930">
        <ele>647.0</ele>
        <time>2018-10-27T10:33:46Z</time>
      </trkpt>
      <trkpt lat="38.4983020" lon="-0.6047000">
        <ele>647.8</ele>
        <time>2018-10-27T10:33:54Z</time>
      </trkpt>
      <trkpt lat="38.4984170" lon="-0.6045440">
        <ele>647.8</ele>
        <time>2018-10-27T10:34:01Z</time>
      </trkpt>
      <trkpt lat="38.4984290" lon="-0.6045200">
        <ele>648.0</ele>
        <time>2018-10-27T10:34:02Z</time>
      </trkpt>
      <trkpt lat="38.4984600" lon="-0.6044680">
        <ele>648.0</ele>
        <time>2018-10-27T10:34:04Z</time>
      </trkpt>
      <trkpt lat="38.4984760" lon="-0.6044440">
        <ele>647.6</ele>
        <time>2018-10-27T10:34:05Z</time>
      </trkpt>
      <trkpt lat="38.4985060" lon="-0.6043970">
        <ele>647.0</ele>
        <time>2018-10-27T10:34:07Z</time>
      </trkpt>
      <trkpt lat="38.4985220" lon="-0.6043740">
        <ele>646.8</ele>
        <time>2018-10-27T10:34:08Z</time>
      </trkpt>
      <trkpt lat="38.4985920" lon="-0.6042600">
        <ele>646.8</ele>
        <time>2018-10-27T10:34:13Z</time>
      </trkpt>
      <trkpt lat="38.4986170" lon="-0.6042170">
        <ele>647.2</ele>
        <time>2018-10-27T10:34:15Z</time>
      </trkpt>
      <trkpt lat="38.4986700" lon="-0.6041250">
        <ele>647.4</ele>
        <time>2018-10-27T10:34:19Z</time>
      </trkpt>
      <trkpt lat="38.4987120" lon="-0.6040650">
        <ele>647.8</ele>
        <time>2018-10-27T10:34:22Z</time>
      </trkpt>
      <trkpt lat="38.4987310" lon="-0.6040480">
        <ele>648.2</ele>
        <time>2018-10-27T10:34:23Z</time>
      </trkpt>
      <trkpt lat="38.4988300" lon="-0.6039960">
        <ele>648.6</ele>
        <time>2018-10-27T10:34:28Z</time>
      </trkpt>
      <trkpt lat="38.4989740" lon="-0.6039380">
        <ele>648.6</ele>
        <time>2018-10-27T10:34:35Z</time>
      </trkpt>
      <trkpt lat="38.4991080" lon="-0.6038910">
        <ele>648.6</ele>
        <time>2018-10-27T10:34:41Z</time>
      </trkpt>
      <trkpt lat="38.4992010" lon="-0.6038470">
        <ele>648.6</ele>
        <time>2018-10-27T10:34:46Z</time>
      </trkpt>
      <trkpt lat="38.4992720" lon="-0.6038140">
        <ele>648.6</ele>
        <time>2018-10-27T10:34:49Z</time>
      </trkpt>
      <trkpt lat="38.4993710" lon="-0.6037460">
        <ele>648.6</ele>
        <time>2018-10-27T10:34:53Z</time>
      </trkpt>
      <trkpt lat="38.4993950" lon="-0.6037280">
        <ele>648.6</ele>
        <time>2018-10-27T10:34:54Z</time>
      </trkpt>
      <trkpt lat="38.4995320" lon="-0.6036150">
        <ele>648.8</ele>
        <time>2018-10-27T10:35:01Z</time>
      </trkpt>
      <trkpt lat="38.4996480" lon="-0.6035160">
        <ele>649.0</ele>
        <time>2018-10-27T10:35:08Z</time>
      </trkpt>
      <trkpt lat="38.4997560" lon="-0.6034170">
        <ele>649.2</ele>
        <time>2018-10-27T10:35:15Z</time>
      </trkpt>
      <trkpt lat="38.4997700" lon="-0.6034030">
        <ele>649.2</ele>
        <time>2018-10-27T10:35:16Z</time>
      </trkpt>
      <trkpt lat="38.4997980" lon="-0.6033740">
        <ele>649.2</ele>
        <time>2018-10-27T10:35:18Z</time>
      </trkpt>
      <trkpt lat="38.4998830" lon="-0.6033050">
        <ele>649.4</ele>
        <time>2018-10-27T10:35:23Z</time>
      </trkpt>
      <trkpt lat="38.4999890" lon="-0.6031880">
        <ele>649.8</ele>
        <time>2018-10-27T10:35:31Z</time>
      </trkpt>
      <trkpt lat="38.5001040" lon="-0.6030920">
        <ele>650.0</ele>
        <time>2018-10-27T10:35:38Z</time>
      </trkpt>
      <trkpt lat="38.5001370" lon="-0.6030650">
        <ele>650.2</ele>
        <time>2018-10-27T10:35:40Z</time>
      </trkpt>
      <trkpt lat="38.5002260" lon="-0.6029970">
        <ele>650.4</ele>
        <time>2018-10-27T10:35:46Z</time>
      </trkpt>
      <trkpt lat="38.5003480" lon="-0.6028900">
        <ele>650.8</ele>
        <time>2018-10-27T10:35:54Z</time>
      </trkpt>
      <trkpt lat="38.5003800" lon="-0.6027590">
        <ele>651.2</ele>
        <time>2018-10-27T10:36:00Z</time>
      </trkpt>
      <trkpt lat="38.5004620" lon="-0.6027050">
        <ele>651.6</ele>
        <time>2018-10-27T10:36:05Z</time>
      </trkpt>
      <trkpt lat="38.5005840" lon="-0.6026300">
        <ele>652.0</ele>
        <time>2018-10-27T10:36:11Z</time>
      </trkpt>
      <trkpt lat="38.5005980" lon="-0.6025830">
        <ele>652.0</ele>
        <time>2018-10-27T10:36:13Z</time>
      </trkpt>
      <trkpt lat="38.5005930" lon="-0.6025300">
        <ele>652.2</ele>
        <time>2018-10-27T10:36:15Z</time>
      </trkpt>
      <trkpt lat="38.5005870" lon="-0.6025030">
        <ele>652.2</ele>
        <time>2018-10-27T10:36:16Z</time>
      </trkpt>
      <trkpt lat="38.5005910" lon="-0.6023670">
        <ele>652.6</ele>
        <time>2018-10-27T10:36:21Z</time>
      </trkpt>
      <trkpt lat="38.5006690" lon="-0.6022170">
        <ele>653.0</ele>
        <time>2018-10-27T10:36:28Z</time>
      </trkpt>
      <trkpt lat="38.5007880" lon="-0.6021810">
        <ele>653.2</ele>
        <time>2018-10-27T10:36:34Z</time>
      </trkpt>
      <trkpt lat="38.5008330" lon="-0.6021900">
        <ele>653.2</ele>
        <time>2018-10-27T10:36:36Z</time>
      </trkpt>
      <trkpt lat="38.5008780" lon="-0.6021890">
        <ele>653.2</ele>
        <time>2018-10-27T10:36:38Z</time>
      </trkpt>
      <trkpt lat="38.5009210" lon="-0.6021770">
        <ele>653.4</ele>
        <time>2018-10-27T10:36:40Z</time>
      </trkpt>
      <trkpt lat="38.5010020" lon="-0.6020850">
        <ele>653.4</ele>
        <time>2018-10-27T10:36:45Z</time>
      </trkpt>
      <trkpt lat="38.5010530" lon="-0.6019440">
        <ele>653.4</ele>
        <time>2018-10-27T10:36:50Z</time>
      </trkpt>
      <trkpt lat="38.5010460" lon="-0.6017740">
        <ele>653.6</ele>
        <time>2018-10-27T10:36:56Z</time>
      </trkpt>
      <trkpt lat="38.5009820" lon="-0.6015450">
        <ele>653.4</ele>
        <time>2018-10-27T10:37:05Z</time>
      </trkpt>
      <trkpt lat="38.5009440" lon="-0.6013880">
        <ele>653.4</ele>
        <time>2018-10-27T10:37:11Z</time>
      </trkpt>
      <trkpt lat="38.5009190" lon="-0.6013750">
        <ele>653.2</ele>
        <time>2018-10-27T10:37:12Z</time>
      </trkpt>
      <trkpt lat="38.5008840" lon="-0.6013390">
        <ele>653.2</ele>
        <time>2018-10-27T10:37:14Z</time>
      </trkpt>
      <trkpt lat="38.5008290" lon="-0.6013240">
        <ele>653.0</ele>
        <time>2018-10-27T10:37:16Z</time>
      </trkpt>
      <trkpt lat="38.5007750" lon="-0.6013270">
        <ele>653.0</ele>
        <time>2018-10-27T10:37:18Z</time>
      </trkpt>
      <trkpt lat="38.5006620" lon="-0.6013890">
        <ele>652.8</ele>
        <time>2018-10-27T10:37:24Z</time>
      </trkpt>
      <trkpt lat="38.5005440" lon="-0.6014890">
        <ele>652.4</ele>
        <time>2018-10-27T10:37:31Z</time>
      </trkpt>
      <trkpt lat="38.5005130" lon="-0.6015160">
        <ele>652.2</ele>
        <time>2018-10-27T10:37:33Z</time>
      </trkpt>
      <trkpt lat="38.5004420" lon="-0.6015460">
        <ele>652.0</ele>
        <time>2018-10-27T10:37:37Z</time>
      </trkpt>
      <trkpt lat="38.5003610" lon="-0.6015330">
        <ele>651.8</ele>
        <time>2018-10-27T10:37:41Z</time>
      </trkpt>
      <trkpt lat="38.5003270" lon="-0.6015610">
        <ele>651.6</ele>
        <time>2018-10-27T10:37:43Z</time>
      </trkpt>
      <trkpt lat="38.5002640" lon="-0.6016200">
        <ele>651.4</ele>
        <time>2018-10-27T10:37:47Z</time>
      </trkpt>
      <trkpt lat="38.5002090" lon="-0.6016650">
        <ele>651.2</ele>
        <time>2018-10-27T10:37:50Z</time>
      </trkpt>
      <trkpt lat="38.5001740" lon="-0.6016980">
        <ele>651.0</ele>
        <time>2018-10-27T10:37:52Z</time>
      </trkpt>
      <trkpt lat="38.5001450" lon="-0.6017310">
        <ele>651.0</ele>
        <time>2018-10-27T10:37:54Z</time>
      </trkpt>
      <trkpt lat="38.5000340" lon="-0.6018360">
        <ele>650.4</ele>
        <time>2018-10-27T10:38:01Z</time>
      </trkpt>
      <trkpt lat="38.4999760" lon="-0.6018940">
        <ele>650.2</ele>
        <time>2018-10-27T10:38:05Z</time>
      </trkpt>
      <trkpt lat="38.4999430" lon="-0.6019200">
        <ele>650.0</ele>
        <time>2018-10-27T10:38:07Z</time>
      </trkpt>
      <trkpt lat="38.4998430" lon="-0.6020090">
        <ele>649.8</ele>
        <time>2018-10-27T10:38:13Z</time>
      </trkpt>
      <trkpt lat="38.4997910" lon="-0.6020450">
        <ele>649.6</ele>
        <time>2018-10-27T10:38:16Z</time>
      </trkpt>
      <trkpt lat="38.4997520" lon="-0.6020640">
        <ele>649.4</ele>
        <time>2018-10-27T10:38:18Z</time>
      </trkpt>
      <trkpt lat="38.4997300" lon="-0.6020760">
        <ele>649.4</ele>
        <time>2018-10-27T10:38:19Z</time>
      </trkpt>
      <trkpt lat="38.4996770" lon="-0.6021080">
        <ele>649.2</ele>
        <time>2018-10-27T10:38:22Z</time>
      </trkpt>
      <trkpt lat="38.4996380" lon="-0.6021490">
        <ele>649.0</ele>
        <time>2018-10-27T10:38:25Z</time>
      </trkpt>
      <trkpt lat="38.4996030" lon="-0.6021520">
        <ele>648.8</ele>
        <time>2018-10-27T10:38:27Z</time>
      </trkpt>
      <trkpt lat="38.4995670" lon="-0.6021210">
        <ele>648.6</ele>
        <time>2018-10-27T10:38:29Z</time>
      </trkpt>
      <trkpt lat="38.4995490" lon="-0.6021160">
        <ele>648.6</ele>
        <time>2018-10-27T10:38:30Z</time>
      </trkpt>
      <trkpt lat="38.4995030" lon="-0.6021480">
        <ele>648.4</ele>
        <time>2018-10-27T10:38:33Z</time>
      </trkpt>
      <trkpt lat="38.4994930" lon="-0.6021580">
        <ele>648.4</ele>
        <time>2018-10-27T10:38:34Z</time>
      </trkpt>
      <trkpt lat="38.4994790" lon="-0.6021630">
        <ele>648.0</ele>
        <time>2018-10-27T10:38:38Z</time>
      </trkpt>
      <trkpt lat="38.4994750" lon="-0.6021610">
        <ele>648.0</ele>
        <time>2018-10-27T10:38:40Z</time>
      </trkpt>
    </trkseg>
  </trk>
</gpx>
